# Wetter Temperatur Luftdruck Luftfeuchtigkeit Sichtweite Windgeschwindigkeit Windrichtung Zeit
1 Clouds 5 1028 52 10000 7.72 290 16:59 01.02.2023
2 Clouds 6 1027 60 10000 6.26 270 14:22 01.02.2023
3 Clouds 5 1028 62 10000 4.47 239 13:19 01.02.2023
4 Clouds 5 1029 65 10000 4.92 255 12:26 01.02.2023
5 Clouds 4 1029 69 10000 3.13 252 11:35 01.02.2023
6 Clouds 0 1028 77 10000 3.09 110 08:41 01.02.2023
7 Clouds 1 1028 75 10000 0.51 0 23:41 31.01.2023
8 Clouds 2 1029 73 10000 0.45 126 21:20 31.01.2023
9 Rain 3 1028 71 10000 1.03 0 19:24 31.01.2023
10 Clouds 4 1028 62 10000 1.54 130 17:41 31.01.2023
11 Rain 5 1028 58 10000 3.13 269 15:36 31.01.2023
12 Clouds 5 1028 59 10000 4.02 255 15:18 31.01.2023
13 Clouds 5 1029 61 10000 2.68 215 13:43 31.01.2023
14 Clear 2 1029 72 10000 2.06 150 11:28 31.01.2023
15 Clear 1 1029 79 10000 1.54 0 10:25 31.01.2023
16 Clear 0 1029 81 10000 0.89 203 09:44 31.01.2023
17 Clouds -1 1029 79 10000 0.51 0 08:36 31.01.2023
18 Clouds -2 1029 80 10000 1.03 130 07:59 31.01.2023
19 Clouds -1 1028 82 10000 1.03 320 03:39 31.01.2023
20 Clear 0 1028 78 10000 2.06 110 23:29 30.01.2023
21 Clear 0 1028 77 10000 2.57 100 22:50 30.01.2023
22 Clouds 1 1028 74 10000 3.09 120 21:48 30.01.2023
23 Clouds 1 1028 74 10000 1.54 0 20:44 30.01.2023
24 Clouds 2 1027 68 10000 2.57 100 18:55 30.01.2023
25 Clouds 3 1026 60 10000 2.57 120 17:25 30.01.2023
26 Clouds 4 1025 56 10000 3.09 130 14:48 30.01.2023
27 Clouds 3 1026 59 8000 3.6 140 13:56 30.01.2023
28 Clouds 1 1027 69 8000 3.09 140 12:18 30.01.2023
29 Clouds -2 1027 82 8000 1.54 110 10:24 30.01.2023
30 Clouds -3 1027 83 8000 2.24 175 09:53 30.01.2023
31 Clouds -5 1026 82 8000 0.89 327 08:30 30.01.2023
32 Clouds -4 1026 81 7000 2.06 100 06:23 30.01.2023
33 Clouds -4 1026 78 8000 1.54 130 00:50 30.01.2023
34 Clouds -4 1027 77 9000 1.54 120 23:31 29.01.2023
35 Clouds -4 1027 75 8000 1.54 140 22:36 29.01.2023
36 Clouds -2 1027 67 10000 0 0 20:54 29.01.2023
37 Clouds -2 1027 67 10000 0 0 20:22 29.01.2023
38 Clouds -2 1027 65 10000 1.54 150 19:33 29.01.2023
39 Clouds 0 1026 72 10000 2.06 270 17:56 29.01.2023
40 Clouds 0 1026 72 10000 2.06 270 17:56 29.01.2023
41 Clouds 1 1026 60 10000 1.54 0 16:48 29.01.2023
42 Clouds 1 1026 59 10000 1.54 240 16:19 29.01.2023
43 Clouds 1 1026 60 10000 2.68 338 14:20 29.01.2023
44 Clouds 1 1027 60 10000 1.54 100 13:18 29.01.2023
45 Clouds 1 1027 62 10000 1.34 52 12:37 29.01.2023
46 Clouds 1 1027 61 10000 2.06 340 12:19 29.01.2023
47 Clouds 0 1027 63 10000 2.24 42 11:37 29.01.2023
48 Clouds 0 1027 63 10000 2.68 29 10:47 29.01.2023
49 Clouds -1 1026 74 10000 3.6 40 08:45 29.01.2023
50 Clouds -1 1025 68 10000 2.57 60 04:45 29.01.2023
51 Clouds 0 1024 74 10000 2.57 360 23:51 28.01.2023
52 Clouds -1 1024 59 10000 6.26 53 20:59 28.01.2023
53 Clouds 0 1024 62 10000 6.26 49 19:57 28.01.2023
54 Clouds 0 1024 63 10000 6.26 44 19:24 28.01.2023
55 Clouds 0 1023 67 10000 4.92 60 17:46 28.01.2023
56 Clouds 0 1023 64 10000 6.71 44 16:45 28.01.2023
57 Clouds 0 1022 64 10000 6.71 38 16:19 28.01.2023
58 Clouds 0 1022 64 10000 5.36 45 15:37 28.01.2023
59 Clouds 0 1022 68 10000 5.81 40 13:50 28.01.2023
60 Clouds 0 1022 72 10000 5.81 28 12:31 28.01.2023
61 Clouds -1 1021 77 10000 6.26 61 10:35 28.01.2023
62 Clouds -1 1021 76 10000 7.6 55 09:54 28.01.2023
63 Clouds -1 1020 73 10000 3.09 50 05:50 28.01.2023
64 Clouds -1 1019 76 10000 4.92 32 01:31 28.01.2023
65 Clouds -1 1019 76 10000 4.92 35 00:19 28.01.2023
66 Clouds -1 1019 77 10000 6.26 49 20:35 27.01.2023
67 Clouds -1 1018 76 10000 6.71 42 17:58 27.01.2023
68 Clouds -1 1018 75 10000 7.6 61 17:21 27.01.2023
69 Clouds -1 1018 75 10000 6.71 64 16:58 27.01.2023
70 Clouds -1 1017 75 10000 7.6 45 16:21 27.01.2023
71 Clouds -1 1018 77 10000 6.71 67 14:28 27.01.2023
72 Clouds 0 1017 75 10000 6.26 50 13:44 27.01.2023
73 Clouds 0 1017 74 10000 4.47 43 12:40 27.01.2023
74 Clouds -1 1016 74 10000 1.03 80 08:35 27.01.2023
75 Clouds -2 1017 67 10000 2.57 40 02:36 27.01.2023
76 Clouds -1 1017 80 10000 2.57 360 22:48 26.01.2023
77 Clouds -1 1017 81 10000 4.47 39 21:21 26.01.2023
78 Clouds -1 1018 70 10000 4.92 46 20:34 26.01.2023
79 Clouds -1 1018 76 10000 4.92 85 18:20 26.01.2023
80 Clouds 0 1018 76 10000 4.02 30 16:59 26.01.2023
81 Clouds 0 1018 74 10000 3.58 38 16:26 26.01.2023
82 Clouds 0 1018 74 10000 3.13 50 15:46 26.01.2023
83 Clouds 0 1018 73 10000 3.13 60 15:26 26.01.2023
84 Clouds 0 1018 75 10000 2.24 78 13:56 26.01.2023
85 Clouds 0 1019 76 10000 3.13 88 12:35 26.01.2023
86 Clouds -1 1019 76 10000 2.68 91 10:59 26.01.2023
87 Clouds -1 1019 76 10000 3.58 109 10:26 26.01.2023
88 Clouds -1 1019 77 10000 4.02 98 09:43 26.01.2023
89 Clouds -1 1019 75 10000 4.02 120 08:25 26.01.2023
90 Clouds 0 1022 79 10000 1.03 0 23:58 25.01.2023
91 Clouds 0 1023 79 10000 1.03 0 23:37 25.01.2023
92 Clouds 0 1023 78 10000 1.34 90 21:54 25.01.2023
93 Clouds 0 1023 78 10000 0.89 56 21:20 25.01.2023
94 Clouds 0 1024 78 10000 3.13 57 18:31 25.01.2023
95 Clouds 1 1025 78 10000 3.58 45 17:30 25.01.2023
96 Clouds 1 1025 78 10000 3.58 59 15:40 25.01.2023
97 Clouds 1 1027 74 10000 2.24 80 12:54 25.01.2023
98 Clouds 0 1028 75 10000 1.79 93 10:51 25.01.2023
99 Clouds 0 1029 77 10000 4.02 121 09:44 25.01.2023
100 Clouds -1 1029 80 10000 2.06 120 07:18 25.01.2023
101 Clouds -1 1031 80 10000 2.06 80 01:29 25.01.2023
102 Clouds -2 1031 86 10000 3.09 90 00:21 25.01.2023
103 Clouds -1 1031 82 10000 3.58 61 21:32 24.01.2023
104 Clouds 0 1031 80 10000 2.24 90 20:19 24.01.2023
105 Clouds 0 1031 80 10000 2.24 74 18:42 24.01.2023
106 Clouds 1 1030 75 10000 3.13 109 17:20 24.01.2023
107 Clouds 1 1030 73 10000 3.58 80 16:52 24.01.2023
108 Clouds 1 1030 73 10000 3.58 82 15:21 24.01.2023
109 Clouds 1 1045 72 10000 3.58 89 13:22 24.01.2023
110 Clouds 1 1030 70 10000 3.58 97 11:20 24.01.2023
111 Clouds -2 1028 80 10000 2.57 90 08:23 24.01.2023
112 Clouds -2 1028 80 10000 2.57 110 07:54 24.01.2023
113 Clouds -2 1028 80 10000 1.54 130 07:25 24.01.2023
114 Clouds -1 1026 74 10000 1.54 100 02:23 24.01.2023
115 Clouds 0 1025 82 10000 1.54 80 00:25 24.01.2023
116 Clouds 0 1025 75 10000 1.54 120 22:27 23.01.2023
117 Clouds -1 1025 77 10000 2.57 80 19:55 23.01.2023
118 Clouds -1 1024 77 10000 7.6 54 18:37 23.01.2023
119 Clouds -1 1024 73 10000 8.05 59 16:21 23.01.2023
120 Clouds -1 1024 72 10000 8.05 79 14:50 23.01.2023
121 Clouds -1 1024 71 10000 7.15 65 13:44 23.01.2023
122 Clouds -1 1024 71 10000 5.81 46 12:55 23.01.2023
123 Clouds -2 1025 74 10000 6.71 40 11:45 23.01.2023
124 Clouds -2 1026 75 10000 6.71 44 10:25 23.01.2023
125 Clouds -2 1026 59 10000 3.6 40 08:22 23.01.2023
126 Clouds -2 1026 64 10000 1.54 0 23:37 22.01.2023
127 Clouds -1 1025 69 10000 2.06 10 21:49 22.01.2023
128 Clouds -1 1025 69 10000 2.57 40 20:58 22.01.2023
129 Clouds -1 1025 74 10000 2.57 20 19:53 22.01.2023
130 Clouds -1 1025 74 10000 2.06 30 19:20 22.01.2023
131 Clouds -1 1025 75 10000 4.02 52 18:23 22.01.2023
132 Clouds -1 1025 75 10000 4.02 54 17:55 22.01.2023
133 Clouds -1 1024 75 10000 4.47 50 17:23 22.01.2023
134 Clouds -1 1024 71 10000 6.71 42 14:59 22.01.2023
135 Clouds -1 1023 72 10000 6.71 54 14:20 22.01.2023
136 Clouds -1 1024 74 10000 6.26 53 13:26 22.01.2023
137 Clouds -1 1023 76 10000 4.92 39 12:28 22.01.2023
138 Clouds -2 1023 79 10000 4.92 13 10:40 22.01.2023
139 Clouds -3 1023 76 10000 4.92 28 08:51 22.01.2023
140 Clouds -3 1022 70 10000 3.6 60 02:56 22.01.2023
141 Clouds -2 1022 81 10000 4.92 46 23:43 21.01.2023
142 Clouds -2 1022 81 7000 8.94 24 22:48 21.01.2023
143 Clouds -2 1022 80 10000 7.6 42 20:59 21.01.2023
144 Snow -2 1021 82 5000 6.26 51 18:50 21.01.2023
145 Snow -1 1020 72 10000 7.6 60 15:36 21.01.2023
146 Snow -1 1019 73 10000 6.71 48 13:31 21.01.2023
147 Snow -2 1020 77 7157 5.36 35 12:52 21.01.2023
148 Clouds -4 1020 78 10000 4.92 52 11:28 21.01.2023
149 Clouds -4 1023 74 10000 3.23 53 10:47 21.01.2023
150 Clouds -10 1020 79 10000 1.34 69 08:28 21.01.2023
151 Clouds -7 1020 80 10000 0.51 0 01:19 21.01.2023
152 Clouds -7 1020 78 10000 1.52 161 22:27 20.01.2023
153 Clouds -7 1020 78 10000 1.52 161 21:36 20.01.2023
154 Clouds -7 1020 80 10000 1.57 164 20:42 20.01.2023
155 Clouds -5 1019 73 10000 0.45 142 18:34 20.01.2023
156 Clouds -2 1018 70 10000 1.03 260 15:47 20.01.2023
157 Clouds -2 1018 71 10000 0.51 0 14:38 20.01.2023
158 Clouds -3 1018 72 10000 2.06 110 12:42 20.01.2023
159 Clouds -8 1016 81 10000 2.06 140 09:24 20.01.2023
160 Clouds -9 1015 80 10000 0.89 143 08:22 20.01.2023
161 Clouds -9 1011 81 10000 1.42 148 02:34 20.01.2023
162 Clouds -7 1009 83 10000 1.45 148 22:54 19.01.2023
163 Clouds -7 1009 83 10000 1.45 148 22:31 19.01.2023
164 Clouds -6 1009 81 10000 1.51 139 20:22 19.01.2023
165 Clear -5 1009 80 10000 2.06 130 18:57 19.01.2023
166 Clouds 0 1009 63 10000 1.54 160 15:35 19.01.2023
167 Clouds -3 1011 81 10000 1.34 251 10:52 19.01.2023
168 Clouds -7 1010 80 10000 1.14 175 08:59 19.01.2023
169 Clouds -3 1007 87 10000 1.54 0 23:30 18.01.2023
170 Clouds -2 1005 89 6000 1.34 225 20:54 18.01.2023
171 Snow -1 1004 87 6000 1.03 140 20:18 18.01.2023
172 Snow -1 1003 87 6000 0.51 130 19:36 18.01.2023
173 Mist 0 1001 89 1700 1.03 0 17:33 18.01.2023
174 Snow 1 998 84 10000 2.24 36 15:18 18.01.2023
175 Snow 1 997 88 10000 2.68 22 13:18 18.01.2023
176 Snow 1 995 92 900 1.79 268 10:29 18.01.2023
177 Snow 0 992 88 10000 0 0 07:57 18.01.2023
178 Snow 1 988 91 10000 2.06 90 01:26 18.01.2023
179 Clouds 0 988 91 5000 1.03 0 23:22 17.01.2023
180 Snow 1 987 90 10000 2.57 110 20:31 17.01.2023
181 Clouds 1 987 92 7000 2.06 100 19:25 17.01.2023
182 Mist 0 986 91 2000 1.03 0 17:56 17.01.2023
183 Snow 1 985 91 1200 1.03 300 15:57 17.01.2023
184 Snow 1 985 90 2000 2.57 300 14:52 17.01.2023
185 Snow 1 986 88 5622 0.89 27 13:46 17.01.2023
186 Snow 1 987 89 2600 2.57 110 11:51 17.01.2023
187 Snow 1 987 85 10000 2.68 128 10:49 17.01.2023
188 Snow 1 988 84 10000 4.02 128 09:31 17.01.2023
189 Clouds 0 989 85 10000 2.24 123 07:50 17.01.2023
190 Clouds 1 992 83 10000 3.09 130 03:54 17.01.2023
191 Clouds 2 993 76 10000 3.13 222 00:54 17.01.2023
192 Clouds 2 993 83 10000 3.13 193 22:58 16.01.2023
193 Clouds 2 993 86 7000 4.12 250 21:47 16.01.2023
194 Clouds 3 992 79 10000 4.92 242 20:23 16.01.2023
195 Clouds 4 993 68 10000 7.15 244 19:28 16.01.2023
196 Clouds 4 992 63 10000 5.66 190 18:52 16.01.2023
197 Clouds 4 992 63 10000 7.6 253 18:20 16.01.2023
198 Clouds 5 992 68 10000 8.05 233 17:34 16.01.2023
199 Clouds 4 992 76 10000 7.6 207 14:36 16.01.2023
200 Clouds 4 991 78 10000 6.26 235 13:37 16.01.2023
201 Snow 1 996 85 10000 3.58 265 10:27 16.01.2023
202 Clouds 0 997 85 10000 0.89 178 08:53 16.01.2023
203 Clouds 1 1011 85 10000 3.09 130 23:21 15.01.2023
204 Clear 1 1013 82 10000 2.24 209 21:32 15.01.2023
205 Clear 1 1014 84 10000 2.24 174 20:32 15.01.2023
206 Clear 2 1015 83 10000 4.02 248 19:43 15.01.2023
207 Clear 2 1015 85 10000 3.58 270 17:39 15.01.2023
208 Rain 3 1016 86 10000 4.02 144 15:22 15.01.2023
209 Rain 5 1014 84 5000 7.72 270 12:30 15.01.2023
210 Rain 5 1014 84 5000 7.72 270 12:30 15.01.2023
211 Rain 5 1013 82 5000 8.49 275 11:30 15.01.2023
212 Rain 7 1011 81 5000 11.83 270 10:28 15.01.2023
213 Rain 9 1009 71 7679 4.92 270 09:34 15.01.2023
214 Drizzle 8 1012 62 10000 6.26 227 01:42 15.01.2023
215 Clouds 8 1013 61 10000 3.13 231 22:45 14.01.2023
216 Rain 8 1014 68 10000 1.54 340 21:55 14.01.2023
217 Rain 8 1014 66 10000 3.6 330 21:36 14.01.2023
218 Rain 8 1014 66 10000 3.6 330 21:36 14.01.2023
219 Rain 8 1014 65 10000 2.68 261 21:18 14.01.2023
220 Rain 8 1014 65 10000 2.68 261 21:18 14.01.2023
221 Rain 9 1015 59 10000 2.57 270 20:28 14.01.2023
222 Rain 8 1016 60 10000 4.63 300 18:29 14.01.2023
223 Clouds 8 1017 62 10000 2.06 150 15:48 14.01.2023
224 Clouds 8 1017 63 10000 2.06 150 15:26 14.01.2023
225 Clouds 8 1017 65 10000 2.57 150 14:25 14.01.2023
226 Clouds 7 1035 68 10000 1.34 230 13:33 14.01.2023
227 Clear 4 1021 85 10000 1.03 130 10:51 14.01.2023
228 Clouds 3 1021 85 10000 1.03 0 09:56 14.01.2023
229 Clouds 4 1024 82 10000 1.54 0 04:56 14.01.2023
230 Clouds 6 1025 72 10000 3.58 248 23:21 13.01.2023
231 Clouds 6 1025 73 10000 4.63 270 22:45 13.01.2023
232 Clouds 6 1025 76 10000 3.6 250 21:58 13.01.2023
233 Clouds 6 1025 76 10000 2.68 267 21:23 13.01.2023
234 Clouds 7 1024 75 10000 5.36 248 19:36 13.01.2023
235 Clouds 7 1022 77 10000 7.15 252 17:59 13.01.2023
236 Clouds 8 1021 77 10000 6.26 267 16:24 13.01.2023
237 Clouds 9 1019 71 10000 7.6 255 12:51 13.01.2023
238 Clouds 8 1019 76 10000 7.15 254 12:19 13.01.2023
239 Rain 6 1020 84 10000 2.24 273 10:24 13.01.2023
240 Clouds 6 1019 82 10000 1.79 213 09:45 13.01.2023
241 Clouds 6 1019 79 10000 2.68 256 08:52 13.01.2023
242 Clouds 6 1018 77 10000 2.68 283 07:49 13.01.2023
243 Clouds 6 1018 79 10000 4.47 263 06:52 13.01.2023
244 Rain 7 1019 72 10000 6.26 251 03:56 13.01.2023
245 Clouds 6 1020 66 10000 4.92 211 23:47 12.01.2023
246 Clouds 6 1021 64 10000 3.13 237 22:40 12.01.2023
247 Clouds 6 1020 68 10000 5.36 242 20:55 12.01.2023
248 Clouds 6 1021 71 10000 2.57 110 19:38 12.01.2023
249 Clouds 7 1022 69 10000 5.81 234 17:34 12.01.2023
250 Clouds 8 1022 67 10000 4.47 271 16:18 12.01.2023
251 Clouds 8 1022 64 10000 6.69 270 14:44 12.01.2023
252 Clouds 8 1023 65 10000 5.14 260 14:22 12.01.2023
253 Clouds 8 1024 70 10000 6.69 250 12:48 12.01.2023
254 Clouds 6 1024 77 10000 5.81 240 10:38 12.01.2023
255 Clear 3 1025 87 10000 2.57 120 08:31 12.01.2023
256 Clouds 4 1025 88 10000 2.25 213 03:58 12.01.2023
257 Clouds 5 1026 90 10000 3.58 246 23:59 11.01.2023
258 Clouds 4 1026 90 10000 2.22 206 23:40 11.01.2023
259 Clouds 5 1025 88 10000 3.58 223 23:21 11.01.2023
260 Clouds 5 1024 89 10000 3.13 230 21:45 11.01.2023
261 Clouds 6 1024 90 10000 1.34 274 20:26 11.01.2023
262 Clouds 7 1024 88 10000 3.58 249 18:39 11.01.2023
263 Clouds 7 1022 89 10000 5.36 260 16:49 11.01.2023
264 Rain 6 1020 90 7000 2.68 275 14:57 11.01.2023
265 Rain 6 1021 85 10000 1.54 0 12:50 11.01.2023
266 Rain 5 1021 83 10000 0 0 11:55 11.01.2023
267 Clouds 5 1021 83 10000 1.34 134 10:32 11.01.2023
268 Clouds 3 1021 85 10000 1.03 0 08:19 11.01.2023
269 Clouds 3 1021 83 10000 0.51 0 07:25 11.01.2023
270 Clouds 4 1023 83 10000 1.54 80 01:25 11.01.2023
271 Clouds 4 1024 80 10000 1.54 120 22:46 10.01.2023
272 Clouds 4 1024 80 10000 2.06 110 21:34 10.01.2023
273 Clouds 4 1024 79 10000 2.06 110 20:42 10.01.2023
274 Clouds 4 1024 80 10000 1.03 0 19:39 10.01.2023
275 Clouds 4 1024 82 10000 1.03 80 18:47 10.01.2023
276 Clouds 4 1024 82 10000 0.51 0 17:59 10.01.2023
277 Clouds 5 1024 72 10000 1.54 230 16:39 10.01.2023
278 Clouds 6 1024 70 10000 2.68 274 15:31 10.01.2023
279 Clouds 6 1024 70 10000 2.68 274 15:31 10.01.2023
280 Clear 6 1025 69 10000 3.58 265 14:32 10.01.2023
281 Clouds 6 1026 76 10000 4.12 220 12:23 10.01.2023
282 Clouds 2 1026 89 10000 2.57 110 09:26 10.01.2023
283 Clouds 2 1025 89 10000 1.54 110 08:29 10.01.2023
284 Clouds 2 1024 89 10000 1.03 0 07:27 10.01.2023
285 Drizzle 2 1023 90 10000 2.06 270 04:55 10.01.2023
286 Drizzle 3 1016 88 6000 5.14 250 23:29 09.01.2023
287 Rain 3 1015 87 10000 3.6 250 21:51 09.01.2023
288 Drizzle 3 1015 86 10000 4.63 260 20:45 09.01.2023
289 Clouds 3 1014 86 10000 4.92 189 19:30 09.01.2023
290 Rain 4 1012 80 10000 4.92 252 17:55 09.01.2023
291 Clouds 4 1012 79 10000 4.92 223 17:26 09.01.2023
292 Clouds 4 1011 81 10000 6.71 265 16:32 09.01.2023
293 Rain 4 1010 81 10000 7.6 255 15:28 09.01.2023
294 Rain 5 1009 77 10000 4.92 275 14:45 09.01.2023
295 Clouds 5 1010 77 10000 5.81 260 13:38 09.01.2023
296 Clouds 5 1009 79 10000 5.66 280 12:49 09.01.2023
297 Rain 6 1009 79 10000 5.81 257 11:42 09.01.2023
298 Clouds 5 1008 82 10000 3.13 250 10:26 09.01.2023
299 Clouds 5 1009 87 10000 5.36 236 06:41 09.01.2023
300 Rain 6 1005 92 2300 9.77 260 02:54 09.01.2023
301 Rain 7 1003 91 10000 3.6 250 23:53 08.01.2023
302 Rain 6 1004 94 6000 2.06 130 21:24 08.01.2023
303 Rain 6 1004 93 6000 2.06 130 20:58 08.01.2023
304 Rain 6 1005 93 9000 3.09 140 20:21 08.01.2023
305 Rain 6 1006 93 10000 1.34 75 17:53 08.01.2023
306 Rain 6 1007 91 10000 0.89 84 17:20 08.01.2023
307 Rain 7 1007 91 10000 1.34 78 15:42 08.01.2023
308 Rain 7 1007 91 10000 1.34 126 15:23 08.01.2023
309 Clouds 7 1010 90 10000 0 0 13:57 08.01.2023
310 Rain 6 1009 90 10000 1.34 257 13:28 08.01.2023
311 Clouds 6 1010 90 10000 2.06 110 12:19 08.01.2023
312 Rain 4 1012 90 10000 0 0 09:38 08.01.2023
313 Rain 4 1012 89 10000 1.03 0 08:45 08.01.2023
314 Rain 4 1012 90 10000 1.79 109 07:21 08.01.2023
315 Clear 3 1015 86 10000 2.06 90 23:40 07.01.2023
316 Clear 3 1016 85 10000 2.57 90 22:46 07.01.2023
317 Clear 3 1016 85 10000 2.57 80 22:20 07.01.2023
318 Clouds 3 1016 85 10000 3.09 70 21:36 07.01.2023
319 Clear 4 1016 84 10000 3.09 80 20:29 07.01.2023
320 Clear 5 1017 83 10000 2.57 90 19:28 07.01.2023
321 Clear 6 1017 79 10000 4.63 110 18:22 07.01.2023
322 Clear 6 1016 78 10000 3.09 80 17:43 07.01.2023
323 Clear 7 1016 74 10000 2.57 80 16:54 07.01.2023
324 Clear 8 1016 72 10000 3.6 120 16:29 07.01.2023
325 Clear 9 1016 69 10000 3.13 95 15:40 07.01.2023
326 Clear 9 1016 70 10000 3.13 90 15:22 07.01.2023
327 Clear 9 1016 70 10000 3.13 90 15:22 07.01.2023
328 Clear 9 1017 71 10000 3.09 130 14:26 07.01.2023
329 Clouds 9 1017 72 10000 4.12 150 13:43 07.01.2023
330 Clouds 9 1018 73 10000 4.12 150 13:22 07.01.2023
331 Clouds 8 1019 75 10000 5.66 160 12:21 07.01.2023
332 Clouds 6 1020 81 10000 5.14 160 10:29 07.01.2023
333 Clouds 6 1020 82 10000 3.6 130 09:51 07.01.2023
334 Clouds 5 1020 79 10000 2.57 110 08:18 07.01.2023
335 Clouds 5 1021 79 10000 2.57 110 07:42 07.01.2023
336 Clouds 5 1021 81 10000 2.57 100 06:31 07.01.2023
337 Clouds 6 1024 86 10000 2.57 100 23:53 06.01.2023
338 Clouds 6 1024 86 10000 3.13 144 22:22 06.01.2023
339 Clouds 6 1024 86 10000 2.24 138 21:53 06.01.2023
340 Clouds 6 1025 89 10000 1.79 131 20:38 06.01.2023
341 Clouds 6 1025 89 10000 1.54 0 19:56 06.01.2023
342 Clouds 6 1025 88 10000 1.54 110 19:38 06.01.2023
343 Clouds 7 1025 88 10000 1.03 0 19:20 06.01.2023
344 Clouds 7 1024 88 10000 1.34 140 17:56 06.01.2023
345 Clouds 7 1024 87 10000 1.79 136 16:53 06.01.2023
346 Clouds 7 1024 87 10000 2.68 90 16:23 06.01.2023
347 Clouds 7 1024 90 10000 2.57 130 15:52 06.01.2023
348 Clouds 7 1024 90 10000 2.57 130 15:30 06.01.2023
349 Clouds 7 1025 93 10000 0.89 200 13:46 06.01.2023
350 Clouds 6 1026 93 10000 0.51 0 11:55 06.01.2023
351 Clouds 6 1026 95 10000 1.03 0 10:55 06.01.2023
352 Clouds 5 1026 92 10000 0.87 185 08:50 06.01.2023
353 Clouds 4 1025 93 10000 1.34 168 05:23 06.01.2023
354 Clouds 5 1026 91 10000 0.45 202 23:38 05.01.2023
355 Fog 5 1026 92 10000 1.03 320 22:44 05.01.2023
356 Fog 6 1027 90 10000 1.03 0 20:57 05.01.2023
357 Clouds 9 1027 88 10000 0 0 17:31 05.01.2023
358 Clouds 10 1027 86 10000 1.54 310 16:50 05.01.2023
359 Clouds 11 1027 85 10000 1.79 262 15:58 05.01.2023
360 Clouds 11 1027 85 10000 1.79 262 15:58 05.01.2023
361 Clouds 11 1027 85 10000 2.24 265 15:34 05.01.2023
362 Clouds 11 1028 86 10000 3.13 265 13:36 05.01.2023
363 Clouds 10 1028 90 10000 3.58 258 12:41 05.01.2023
364 Drizzle 9 1029 90 5000 0.89 234 10:48 05.01.2023
365 Clouds 9 1028 88 10000 2.68 289 09:43 05.01.2023
366 Clouds 9 1028 88 10000 2.57 100 08:22 05.01.2023
367 Clouds 8 1027 90 10000 3.13 221 06:49 05.01.2023
368 Rain 8 1028 90 10000 3.6 120 02:56 05.01.2023
369 Clouds 9 1029 81 10000 1.03 0 22:27 04.01.2023
370 Clouds 8 1029 84 10000 1.79 285 21:31 04.01.2023
371 Clouds 8 1029 84 10000 1.54 110 20:21 04.01.2023
372 Clouds 8 1029 83 10000 1.03 0 19:45 04.01.2023
373 Clouds 8 1030 80 10000 3.58 215 19:27 04.01.2023
374 Clouds 8 1030 82 10000 2.24 259 18:18 04.01.2023
375 Clouds 8 1031 84 10000 1.03 100 16:31 04.01.2023
376 Clouds 8 1030 87 10000 1.03 120 14:50 04.01.2023
377 Clouds 8 1032 88 10000 2.06 120 12:36 04.01.2023
378 Clouds 7 1032 92 10000 2.68 245 11:23 04.01.2023
379 Fog 6 1033 95 6000 1.54 120 10:44 04.01.2023
380 Fog 6 1032 94 6000 1.79 250 10:25 04.01.2023
381 Clouds 6 1032 93 10000 1.34 36 09:52 04.01.2023
382 Fog 5 1031 95 200 0.89 197 05:39 04.01.2023
383 Mist 5 1032 94 3300 0.51 210 01:41 04.01.2023
384 Clouds 6 1032 93 5000 1.03 0 23:42 03.01.2023
385 Clouds 6 1032 94 10000 0.89 170 22:56 03.01.2023
386 Clouds 6 1032 94 7000 0.89 177 21:39 03.01.2023
387 Fog 6 1032 93 900 0.51 0 20:50 03.01.2023
388 Clouds 6 1032 92 10000 0.51 0 18:40 03.01.2023
389 Drizzle 8 1031 93 10000 1.34 148 16:40 03.01.2023
390 Clouds 8 1031 92 10000 1.54 320 15:28 03.01.2023
391 Drizzle 8 1031 92 10000 2.06 300 13:33 03.01.2023
392 Clouds 8 1031 92 10000 1.54 320 12:59 03.01.2023
393 Clouds 8 1031 92 10000 1.54 0 12:38 03.01.2023
394 Rain 8 1031 92 10000 1.03 310 11:56 03.01.2023
395 Rain 7 1031 92 5000 0 0 09:50 03.01.2023
396 Rain 8 1029 90 1000 0.51 330 04:28 03.01.2023
397 Drizzle 8 1029 91 10000 2.06 140 03:49 03.01.2023
398 Rain 8 1029 92 10000 2.06 140 03:28 03.01.2023
399 Rain 8 1029 89 10000 1.79 212 23:19 02.01.2023
400 Rain 9 1029 89 9000 1.03 340 22:39 02.01.2023
401 Rain 10 1028 82 10000 3.6 320 20:59 02.01.2023
402 Rain 9 1028 78 10000 3.6 330 20:31 02.01.2023
403 Rain 11 1026 69 10000 5.66 270 18:49 02.01.2023
404 Rain 12 1025 61 10000 5.36 265 16:20 02.01.2023
405 Clouds 12 1023 62 10000 6.26 225 14:26 02.01.2023
406 Clear 12 1023 68 10000 1.34 239 12:56 02.01.2023
407 Clear 8 1024 78 10000 0.51 0 11:27 02.01.2023
408 Fog 5 1022 85 10000 1.03 90 08:51 02.01.2023
409 Clear 5 1021 87 10000 0.51 0 05:43 02.01.2023
410 Mist 6 1023 90 2600 0.51 0 23:32 01.01.2023
411 Clouds 7 1023 88 10000 0.89 90 21:55 01.01.2023
412 Clear 7 1023 90 10000 1.03 0 20:50 01.01.2023
413 Clouds 8 1024 87 10000 1.55 178 20:18 01.01.2023
414 Clouds 8 1023 87 10000 1.55 178 20:18 01.01.2023
415 Clear 8 1024 88 10000 1.54 180 18:53 01.01.2023
416 Clouds 10 1024 83 10000 0.89 80 17:24 01.01.2023
417 Clear 10 1024 83 10000 0 0 16:57 01.01.2023
418 Clear 13 1023 75 10000 1.54 160 15:38 01.01.2023
419 Clear 13 1024 76 10000 1.54 200 13:50 01.01.2023
420 Clear 12 1024 79 10000 1.03 0 12:59 01.01.2023
421 Clouds 10 1026 82 10000 0.14 303 11:42 01.01.2023
422 Clouds 9 1025 86 8000 1.03 0 11:21 01.01.2023
423 Fog 6 1025 91 10000 1.79 178 09:35 01.01.2023
424 Fog 5 1025 92 10000 1.79 112 08:25 01.01.2023
425 Fog 5 1025 91 150 1.79 63 07:57 01.01.2023
426 Fog 6 1025 91 150 1.03 0 06:42 01.01.2023
427 Fog 8 1023 89 550 0.89 215 23:46 31.12.2022
428 Fog 7 1023 89 550 0.51 0 23:26 31.12.2022
429 Fog 7 1023 91 200 1.03 0 22:22 31.12.2022
430 Fog 7 1022 92 10000 0.89 132 21:24 31.12.2022
431 Fog 8 1023 92 10000 1.03 120 20:24 31.12.2022
432 Fog 9 1023 91 10000 1.03 0 18:51 31.12.2022
433 Fog 9 1022 91 10000 1.03 0 18:32 31.12.2022
434 Fog 9 1022 89 7000 1.03 170 17:57 31.12.2022
435 Fog 10 1022 90 10000 0.45 242 17:32 31.12.2022
436 Clear 11 1022 89 10000 0.51 0 16:32 31.12.2022
437 Clear 12 1021 83 10000 0.51 0 15:36 31.12.2022
438 Clear 13 1021 79 10000 1.03 0 13:56 31.12.2022
439 Clear 13 1021 80 10000 1.03 0 13:27 31.12.2022
440 Clear 12 1022 81 10000 0.51 0 12:24 31.12.2022
441 Clouds 13 1023 81 10000 0.72 218 11:55 31.12.2022
442 Clouds 12 1023 82 10000 0.45 84 11:37 31.12.2022
443 Clouds 10 1024 81 10000 1.63 174 09:57 31.12.2022
444 Clouds 10 1024 74 10000 1.63 174 09:39 31.12.2022
445 Clouds 8 1024 88 10000 1.34 101 08:22 31.12.2022
446 Clouds 8 1022 91 10000 0.45 81 02:26 31.12.2022
447 Rain 8 1022 94 9000 1.34 109 00:32 31.12.2022
448 Rain 9 1021 91 10000 3.6 150 23:20 30.12.2022
449 Clouds 9 1020 92 10000 1.34 133 22:18 30.12.2022
450 Clouds 9 1020 93 10000 2.06 240 21:38 30.12.2022
451 Drizzle 8 1020 94 10000 1.54 0 21:18 30.12.2022
452 Drizzle 7 1018 93 10000 2.06 140 18:28 30.12.2022
453 Clouds 7 1018 93 10000 1.03 0 17:34 30.12.2022
454 Clouds 7 1017 93 10000 1.34 94 16:48 30.12.2022
455 Rain 7 1017 91 10000 2.06 120 14:55 30.12.2022
456 Rain 7 1017 91 10000 2.06 120 14:55 30.12.2022
457 Rain 7 1017 90 10000 2.06 160 12:54 30.12.2022
458 Clear 3 1018 89 10000 1.54 100 08:24 30.12.2022
459 Drizzle 6 1019 90 10000 2.57 120 03:58 30.12.2022
460 Rain 6 1019 90 10000 3.13 198 02:26 30.12.2022
461 Rain 7 1018 88 10000 2.24 221 23:46 29.12.2022
462 Rain 8 1017 90 10000 3.58 194 21:55 29.12.2022
463 Rain 8 1018 90 10000 4.47 181 21:25 29.12.2022
464 Rain 8 1017 89 5000 3.6 290 20:46 29.12.2022
465 Rain 8 1017 88 10000 1.03 0 19:21 29.12.2022
466 Rain 8 1016 83 10000 3.09 300 17:53 29.12.2022
467 Rain 9 1016 81 10000 6.17 310 17:25 29.12.2022
468 Rain 9 1016 80 10000 6.69 290 16:54 29.12.2022
469 Rain 10 1016 76 10000 4.02 255 15:49 29.12.2022
470 Rain 10 1016 69 10000 5.81 265 13:41 29.12.2022
471 Rain 10 1018 71 10000 5.36 287 11:52 29.12.2022
472 Clouds 7 1017 64 10000 1.03 0 09:47 29.12.2022
473 Clouds 4 1018 70 10000 1.54 0 03:41 29.12.2022
474 Clear 3 1018 75 10000 1.03 0 23:29 28.12.2022
475 Clear 4 1018 77 10000 1.54 50 22:19 28.12.2022
476 Clear 5 1018 72 10000 3.09 80 21:20 28.12.2022
477 Clear 5 1019 73 10000 3.6 120 19:57 28.12.2022
478 Clouds 5 1019 72 10000 3.6 90 18:25 28.12.2022
479 Clear 8 1020 72 10000 2.06 140 16:21 28.12.2022
480 Clear 7 1021 81 10000 0 0 13:55 28.12.2022
481 Clear 6 1022 81 10000 1.34 303 12:48 28.12.2022
482 Clear 5 1023 87 10000 1.03 0 11:33 28.12.2022
483 Fog 2 1024 92 10000 1.54 140 09:32 28.12.2022
484 Fog 2 1025 92 300 0.51 0 07:32 28.12.2022
485 Fog 1 1025 91 10000 0.51 0 06:45 28.12.2022
486 Fog 2 1027 90 6000 1.03 0 00:56 28.12.2022
487 Clear 4 1028 87 10000 1.03 175 21:29 27.12.2022
488 Clouds 5 1029 86 10000 0.51 0 19:50 27.12.2022
489 Clouds 6 1028 84 10000 0.51 0 18:21 27.12.2022
490 Clouds 7 1029 78 10000 1.03 100 16:59 27.12.2022
491 Clouds 8 1029 77 10000 1.03 0 15:54 27.12.2022
492 Clouds 9 1029 77 10000 2.68 274 14:20 27.12.2022
493 Clouds 8 1029 80 10000 2.57 300 12:22 27.12.2022
494 Clouds 6 1030 92 10000 2.68 265 09:47 27.12.2022
495 Clouds 6 1030 91 10000 1.54 0 09:23 27.12.2022
496 Clouds 6 1030 91 10000 1.03 120 08:44 27.12.2022
497 Clouds 6 1029 91 10000 1.03 0 04:54 27.12.2022
498 Clouds 9 1027 85 10000 4.12 210 23:25 26.12.2022
499 Clouds 9 1026 86 9000 4.12 220 21:41 26.12.2022
500 Rain 9 1026 81 10000 5.36 226 20:43 26.12.2022
501 Rain 9 1025 85 10000 5.14 220 19:37 26.12.2022
502 Rain 9 1024 86 10000 4.63 240 18:41 26.12.2022
503 Rain 10 1023 90 6000 6.17 280 16:38 26.12.2022
504 Rain 10 1023 88 8000 4.92 255 14:49 26.12.2022
505 Rain 10 1023 89 10000 3.6 300 12:55 26.12.2022
506 Fog 6 1022 92 3000 3.6 110 09:44 26.12.2022
507 Fog 5 1022 93 600 2.57 170 02:53 26.12.2022
508 Fog 6 1021 94 800 2.57 170 23:38 25.12.2022
509 Clouds 6 1021 95 7000 2.06 130 22:42 25.12.2022
510 Clouds 6 1020 94 9000 3.58 100 21:49 25.12.2022
511 Clouds 7 1020 91 10000 3.09 150 19:28 25.12.2022
512 Clouds 8 1019 91 10000 4.63 160 17:52 25.12.2022
513 Clouds 8 1019 91 10000 4.63 160 17:34 25.12.2022
514 Clouds 9 1019 90 10000 2.57 150 16:19 25.12.2022
515 Clouds 9 1018 95 8000 1.03 0 13:23 25.12.2022
516 Clouds 8 1019 95 10000 2.06 150 10:59 25.12.2022
517 Fog 8 1020 93 450 1.03 0 02:57 25.12.2022
518 Clouds 8 1020 93 10000 2.06 100 22:38 24.12.2022
519 Clouds 8 1020 94 7000 2.06 120 19:52 24.12.2022
520 Clouds 9 1019 93 10000 1.03 130 16:51 24.12.2022
521 Mist 9 1019 92 2000 1.03 110 14:55 24.12.2022
522 Mist 9 1020 92 3000 1.54 150 13:56 24.12.2022
523 Clouds 9 1020 94 2500 2.57 140 11:44 24.12.2022
524 Rain 9 1020 94 2700 0.89 154 10:23 24.12.2022
525 Rain 8 1020 93 3500 1.54 120 09:37 24.12.2022
526 Rain 9 1019 89 8000 2.06 280 07:37 24.12.2022
527 Rain 11 1017 90 10000 4.47 259 02:51 24.12.2022
528 Rain 11 1016 89 10000 4.02 296 00:18 24.12.2022
529 Rain 11 1016 90 5000 3.09 320 22:30 23.12.2022
530 Rain 12 1016 85 10000 5.36 217 20:55 23.12.2022
531 Rain 12 1015 85 10000 7.15 238 19:39 23.12.2022
532 Rain 12 1032 84 10000 4.92 249 19:21 23.12.2022
533 Rain 12 1014 84 10000 5.36 250 18:53 23.12.2022
534 Rain 12 1014 84 9000 5.81 240 18:21 23.12.2022
535 Rain 11 1014 83 10000 6.71 280 16:39 23.12.2022
536 Rain 12 1014 81 10000 6.71 259 15:45 23.12.2022
537 Rain 12 1014 83 10000 5.66 200 12:28 23.12.2022
538 Rain 11 1015 86 6000 4.02 213 09:52 23.12.2022
539 Rain 11 1015 83 6000 3.13 213 09:33 23.12.2022
540 Rain 11 1014 76 10000 5.81 245 07:20 23.12.2022
541 Rain 11 1014 81 10000 5.36 237 06:48 23.12.2022
542 Rain 9 1014 88 10000 3.58 276 23:24 22.12.2022
543 Rain 9 1014 88 10000 4.02 274 22:59 22.12.2022
544 Rain 9 1014 84 10000 3.09 320 21:49 22.12.2022
545 Rain 10 1015 77 10000 3.58 279 19:46 22.12.2022
546 Rain 9 1015 74 10000 3.13 272 19:18 22.12.2022
547 Rain 10 1016 69 10000 3.6 260 17:33 22.12.2022
548 Clouds 11 1017 63 10000 7.6 270 16:42 22.12.2022
549 Clouds 11 1017 64 10000 4.92 260 15:35 22.12.2022
550 Clouds 12 1017 60 10000 6.71 234 14:58 22.12.2022
551 Clouds 11 1017 63 10000 7.2 240 13:54 22.12.2022
552 Rain 11 1017 64 10000 6.71 203 13:19 22.12.2022
553 Clouds 11 1018 62 10000 8.49 255 11:34 22.12.2022
554 Clouds 10 1017 63 10000 9.39 240 10:31 22.12.2022
555 Clouds 9 1017 74 10000 6.26 279 09:22 22.12.2022
556 Clouds 9 1017 69 10000 7.6 227 08:32 22.12.2022
557 Clouds 9 1016 65 10000 4.92 275 07:22 22.12.2022
558 Clouds 8 1016 90 10000 3.67 198 04:18 22.12.2022
559 Mist 6 1017 92 3200 1.03 140 00:24 22.12.2022
560 Clouds 6 1017 91 10000 0.45 209 22:25 21.12.2022
561 Clouds 6 1017 90 10000 1.78 180 21:24 21.12.2022
562 Mist 5 1017 90 1500 1.34 175 20:54 21.12.2022
563 Clouds 6 1018 90 10000 0.45 261 20:29 21.12.2022
564 Clouds 6 1018 91 10000 3.6 90 19:44 21.12.2022
565 Clouds 7 1018 90 10000 1.81 174 19:25 21.12.2022
566 Clouds 6 1018 91 10000 1.54 70 18:47 21.12.2022
567 Clouds 7 1018 91 9000 1.03 100 17:49 21.12.2022
568 Clouds 7 1018 91 10000 0 0 14:59 21.12.2022
569 Clouds 7 1018 91 10000 0.51 0 13:28 21.12.2022
570 Drizzle 6 1019 92 10000 0.51 0 11:47 21.12.2022
571 Clouds 6 1019 92 10000 1.54 170 11:20 21.12.2022
572 Clouds 5 1019 91 10000 1.03 0 09:50 21.12.2022
573 Clouds 5 1019 89 10000 2.57 80 07:48 21.12.2022
574 Rain 5 1018 83 10000 0.51 0 03:48 21.12.2022
575 Rain 3 1019 87 10000 1.54 140 22:56 20.12.2022
576 Clouds 3 1019 86 10000 1.03 0 21:23 20.12.2022
577 Clouds 3 1019 85 10000 0.51 0 20:24 20.12.2022
578 Clouds 4 1019 85 10000 3.09 80 19:41 20.12.2022
579 Clouds 4 1019 85 10000 2.06 80 18:37 20.12.2022
580 Clouds 4 1019 82 10000 1.54 120 18:19 20.12.2022
581 Clouds 4 1019 82 10000 2.57 70 17:46 20.12.2022
582 Clouds 6 1020 76 10000 3.09 90 16:37 20.12.2022
583 Clouds 7 1020 75 10000 1.03 110 15:36 20.12.2022
584 Clouds 8 1020 67 10000 2.57 90 14:48 20.12.2022
585 Clouds 8 1020 68 10000 2.57 90 14:28 20.12.2022
586 Clear 7 1021 70 10000 0.45 63 12:58 20.12.2022
587 Clouds 7 1021 70 10000 1.54 180 12:28 20.12.2022
588 Clouds 5 1022 79 10000 3.6 110 11:37 20.12.2022
589 Clouds 2 1023 83 10000 1.03 120 08:49 20.12.2022
590 Clear 1 1024 87 10000 3.09 70 03:40 20.12.2022
591 Clear 1 1025 88 10000 0.51 0 22:46 19.12.2022
592 Clouds 1 1025 90 10000 1.03 0 21:56 19.12.2022
593 Clear 1 1026 89 10000 0.89 119 19:58 19.12.2022
594 Clear 1 1026 89 10000 2.06 140 19:39 19.12.2022
595 Clear 2 1026 89 10000 3.09 80 18:42 19.12.2022
596 Clear 3 1026 83 10000 2.06 80 16:52 19.12.2022
597 Clear 4 1026 82 10000 2.06 90 13:41 19.12.2022
598 Clear 3 1027 86 10000 1.03 0 12:21 19.12.2022
599 Clear 2 1027 91 10000 3.09 140 10:55 19.12.2022
600 Mist 1 1027 88 4000 0.51 0 07:44 19.12.2022
601 Clouds 1 1027 87 9000 3.6 80 03:42 19.12.2022
602 Clouds -1 1028 87 8000 1.34 87 22:40 18.12.2022
603 Clouds -1 1028 87 7000 0.45 130 21:46 18.12.2022
604 Clouds -1 1028 86 7000 1.54 60 21:22 18.12.2022
605 Clouds -1 1028 86 7000 1.54 60 21:22 18.12.2022
606 Clouds -1 1028 85 7000 1.54 80 19:57 18.12.2022
607 Clouds -1 1028 85 7000 1.54 80 19:57 18.12.2022
608 Clouds -1 1028 83 10000 2.06 90 19:39 18.12.2022
609 Clouds -1 1028 88 10000 2.06 90 18:24 18.12.2022
610 Clouds -1 1028 77 10000 2.57 120 16:37 18.12.2022
611 Snow 0 1028 77 10000 3.6 130 15:40 18.12.2022
612 Snow 0 1028 77 10000 6.26 95 15:19 18.12.2022
613 Clouds 1 1028 78 10000 2.06 140 14:20 18.12.2022
614 Clouds 1 1029 78 10000 2.06 120 12:57 18.12.2022
615 Clouds 1 1029 78 10000 2.06 120 12:57 18.12.2022
616 Clouds 0 1029 78 10000 2.06 120 12:30 18.12.2022
617 Clouds -1 1029 79 10000 1.79 20 10:50 18.12.2022
618 Clouds -2 1028 86 10000 3.6 150 08:47 18.12.2022
619 Clouds -2 1028 86 10000 3.09 120 08:20 18.12.2022
620 Clouds -2 1027 86 10000 3.6 130 06:23 18.12.2022
621 Clouds -2 1027 86 8000 3.09 260 03:40 18.12.2022
622 Clouds -1 1026 86 8000 2.57 280 01:48 18.12.2022
623 Clouds -1 1025 86 7000 2.57 270 22:21 17.12.2022
624 Clouds -1 1024 86 8000 1.03 240 19:42 17.12.2022
625 Clouds -1 1023 86 9000 2.57 260 17:18 17.12.2022
626 Clouds -1 1022 82 9000 2.06 270 14:44 17.12.2022
627 Clouds -1 1022 83 9000 2.57 270 11:55 17.12.2022
628 Clouds -2 1022 85 8000 2.57 270 10:49 17.12.2022
629 Clouds -2 1022 86 9000 3.6 260 09:48 17.12.2022
630 Clouds -3 1021 79 10000 2.68 20 08:34 17.12.2022
631 Clouds -3 1020 81 8000 3.09 260 06:46 17.12.2022
632 Clouds -2 1016 93 9000 2.57 280 23:58 16.12.2022
633 Clouds 0 1015 80 10000 1.54 270 21:38 16.12.2022
634 Clouds -1 1014 85 10000 4.47 20 20:23 16.12.2022
635 Mist 0 1012 89 3000 2.57 270 17:19 16.12.2022
636 Snow 1 1010 90 10000 3.13 20 14:50 16.12.2022
637 Snow 1 1009 90 8000 3.58 20 13:50 16.12.2022
638 Snow 1 1009 92 10000 2.57 280 12:20 16.12.2022
639 Clouds 1 1008 92 3400 2.06 290 10:47 16.12.2022
640 Snow 1 1007 92 2600 1.03 300 09:29 16.12.2022
641 Clouds 1 1006 92 3000 1.54 290 08:26 16.12.2022
642 Snow 1 1006 92 4000 1.54 300 07:54 16.12.2022
643 Snow 1 1001 92 10000 2.06 270 23:45 15.12.2022
644 Snow 1 1001 92 10000 2.57 280 22:31 15.12.2022
645 Snow 2 1000 92 10000 2.57 270 20:41 15.12.2022
646 Snow 2 1000 91 9000 3.6 270 19:37 15.12.2022
647 Snow 2 1000 89 4700 2.24 24 18:29 15.12.2022
648 Snow 2 1000 89 3500 1.79 34 17:27 15.12.2022
649 Mist 3 1000 92 4200 3.13 41 15:39 15.12.2022
650 Mist 3 1000 93 1400 4.02 40 14:37 15.12.2022
651 Fog 3 1002 95 250 1.03 220 12:43 15.12.2022
652 Fog 3 1004 93 200 0.89 92 10:33 15.12.2022
653 Fog 2 1003 92 400 2.24 67 08:54 15.12.2022
654 Clouds 4 1003 92 10000 1.08 93 06:27 15.12.2022
655 Clouds 4 1004 91 10000 0.45 84 05:19 15.12.2022
656 Clouds 4 1004 91 10000 0.89 84 05:19 15.12.2022
657 Snow 4 1001 94 2200 1.54 0 21:25 14.12.2022
658 Rain 3 1001 94 2300 0.89 308 20:59 14.12.2022
659 Mist 3 1001 92 2000 1.03 0 20:31 14.12.2022
660 Mist 4 1001 83 3500 0.51 0 18:38 14.12.2022
661 Mist 4 1001 84 4600 2.06 150 16:58 14.12.2022
662 Clouds 5 1000 81 4500 1.34 259 15:49 14.12.2022
663 Rain 5 1000 71 4500 1.54 280 14:34 14.12.2022
664 Mist 2 1000 90 4000 1.03 0 12:21 14.12.2022
665 Clouds 0 1000 86 5000 2.06 80 10:39 14.12.2022
666 Mist -1 1000 93 3000 1.03 140 09:26 14.12.2022
667 Mist -3 1002 91 3600 1.03 0 02:47 14.12.2022
668 Clouds -3 1003 88 6000 2.57 290 21:51 13.12.2022
669 Clouds -3 1003 90 6000 2.57 290 21:27 13.12.2022
670 Clouds -3 1004 90 5000 1.54 270 20:46 13.12.2022
671 Mist -3 1004 90 3000 1.54 260 18:40 13.12.2022
672 Mist -3 1005 87 2000 1.34 48 16:22 13.12.2022
673 Mist -3 1005 89 2000 1.34 44 14:53 13.12.2022
674 Clouds -3 1005 84 5000 1.54 280 12:44 13.12.2022
675 Clouds -4 1005 86 7000 2.06 270 10:39 13.12.2022
676 Clouds -5 1006 84 7000 1.54 280 09:46 13.12.2022
677 Clouds -6 1005 84 9000 1.79 44 07:52 13.12.2022
678 Clouds -5 1008 80 10000 3.58 38 22:24 12.12.2022
679 Clouds -6 1008 84 10000 4.02 37 21:46 12.12.2022
680 Clouds -6 1008 86 10000 1.54 130 19:33 12.12.2022
681 Clouds -5 1010 79 10000 0 0 17:39 12.12.2022
682 Clouds -3 1009 77 10000 2.24 32 15:23 12.12.2022
683 Clouds -4 1010 88 10000 1.03 0 12:50 12.12.2022
684 Clouds -7 1011 84 10000 0.73 157 09:20 12.12.2022
685 Mist -8 1010 84 2000 1.03 170 07:37 12.12.2022
686 Mist -8 1009 93 4600 1.54 0 03:53 12.12.2022
687 Clouds -6 1008 93 7000 1.03 130 23:51 11.12.2022
688 Clouds -9 1008 92 6000 2.06 140 21:43 11.12.2022
689 Clouds -9 1008 91 6000 1.54 110 20:26 11.12.2022
690 Mist -9 1008 90 5000 0.51 0 19:37 11.12.2022
691 Clouds -9 1008 92 5000 1.03 90 18:29 11.12.2022
692 Mist -6 1009 87 5000 0.51 0 17:33 11.12.2022
693 Clouds -6 1009 79 7000 1.03 260 16:52 11.12.2022
694 Clouds -2 1008 77 10000 2.06 280 15:48 11.12.2022
695 Clouds -2 1008 77 10000 2.06 280 15:28 11.12.2022
696 Clear -2 1007 82 10000 1.54 190 13:23 11.12.2022
697 Clear -2 1008 77 10000 1.03 150 12:40 11.12.2022
698 Fog -6 1010 85 10000 1.03 260 09:46 11.12.2022
699 Clouds -1 1009 86 10000 1.54 270 00:35 11.12.2022
700 Clouds -1 1009 93 7000 1.54 260 23:56 10.12.2022
701 Clouds -1 1009 86 7000 1.03 250 22:33 10.12.2022
702 Clouds -1 1009 85 9000 1.34 22 21:26 10.12.2022
703 Clouds -1 1009 89 9000 0.89 5 20:41 10.12.2022
704 Clouds -1 1010 88 7000 0 0 19:55 10.12.2022
705 Clouds -1 1010 88 7000 0 0 19:55 10.12.2022
706 Clouds -1 1010 88 7000 0 0 19:55 10.12.2022
707 Snow 0 1009 91 3500 1.03 320 17:18 10.12.2022
708 Snow 0 1009 91 5000 1.03 0 16:36 10.12.2022
709 Snow 0 1008 90 5000 1.03 0 15:39 10.12.2022
710 Snow 1 1008 90 6000 1.03 260 14:58 10.12.2022
711 Snow 1 1007 90 2500 2.57 270 12:55 10.12.2022
712 Snow 1 1006 92 2000 2.06 280 11:49 10.12.2022
713 Snow 1 1006 91 3000 3.6 270 10:45 10.12.2022
714 Clouds 1 1005 93 2500 3.09 260 09:38 10.12.2022
715 Snow 1 1003 91 3100 2.57 310 07:20 10.12.2022
716 Drizzle 1 1003 92 2500 0.51 0 03:18 10.12.2022
717 Clouds 1 1003 90 1400 1.79 59 23:20 09.12.2022
718 Snow 1 1003 90 2000 1.34 59 22:41 09.12.2022
719 Snow 1 1003 90 2400 0.89 59 21:26 09.12.2022
720 Mist 1 1002 89 1800 1.03 110 20:44 09.12.2022
721 Mist 1 1002 89 1800 1.54 90 19:28 09.12.2022
722 Clouds 1 1002 88 1800 0.51 0 17:55 09.12.2022
723 Snow 1 1001 87 1500 1.03 150 16:36 09.12.2022
724 Snow 1 1001 87 1500 1.03 150 16:18 09.12.2022
725 Snow 2 1000 86 1400 0.51 180 15:19 09.12.2022
726 Snow 1 1001 87 1300 1.54 290 11:36 09.12.2022
727 Snow 1 1002 88 1200 1.03 260 10:37 09.12.2022
728 Snow 0 1002 86 1400 2.06 290 09:25 09.12.2022
729 Snow 1 1004 86 1500 0.89 57 03:33 09.12.2022
730 Snow 1 1006 82 10000 1.03 300 00:56 09.12.2022
731 Clouds 0 1006 80 10000 0.51 110 22:20 08.12.2022
732 Clouds 0 1007 81 10000 0.51 0 20:51 08.12.2022
733 Clouds 0 1007 77 10000 1.54 150 18:18 08.12.2022
734 Clear 4 1008 67 10000 1.79 26 15:44 08.12.2022
735 Clear 4 1008 65 10000 2.06 140 14:27 08.12.2022
736 Clouds 4 1008 66 10000 1.54 130 14:27 08.12.2022
737 Clouds 3 1010 74 10000 4.63 140 11:33 08.12.2022
738 Clouds 1 1010 80 10000 4.12 140 09:54 08.12.2022
739 Clouds 1 1011 81 10000 4.63 140 09:26 08.12.2022
740 Clouds 1 1013 86 8000 0.51 0 02:36 08.12.2022
741 Clouds 1 1014 89 8000 1.03 120 22:19 07.12.2022
742 Clouds 1 1014 89 9000 1.03 140 21:50 07.12.2022
743 Clouds 1 1014 89 9000 1.03 140 21:31 07.12.2022
744 Clouds 1 1014 88 8000 1.54 130 19:44 07.12.2022
745 Clouds 2 1015 88 8000 0.89 36 17:37 07.12.2022
746 Clouds 3 1016 87 10000 2.24 46 14:41 07.12.2022
747 Clouds 2 1017 88 10000 1.34 57 12:37 07.12.2022
748 Clouds 1 1018 90 10000 1.54 90 10:44 07.12.2022
749 Clouds 1 1017 90 10000 2.06 100 09:54 07.12.2022
750 Clouds 1 1017 90 10000 2.06 110 08:47 07.12.2022
751 Clouds 0 1017 90 10000 3.6 120 06:48 07.12.2022
752 Clouds 0 1017 91 10000 2.06 100 05:23 07.12.2022
753 Fog -1 1018 92 1200 0.51 0 23:37 06.12.2022
754 Fog -1 1017 91 900 2.06 300 20:53 06.12.2022
755 Mist 0 1017 90 2500 2.57 310 18:22 06.12.2022
756 Fog 1 1017 89 4000 3.6 310 16:43 06.12.2022
757 Clear 2 1017 88 10000 4.12 290 16:20 06.12.2022
758 Clear 3 1016 85 10000 4.12 290 15:34 06.12.2022
759 Clear 6 1016 64 10000 1.54 0 14:28 06.12.2022
760 Clear 4 1017 72 10000 1.03 0 12:59 06.12.2022
761 Clear 2 1017 87 10000 0.51 0 12:40 06.12.2022
762 Fog -1 1018 92 10000 1.03 0 09:43 06.12.2022
763 Clear -1 1018 88 10000 1.04 136 06:48 06.12.2022
764 Fog -1 1019 90 4500 1.03 0 01:32 06.12.2022
765 Mist -1 1020 90 4800 1.03 0 22:37 05.12.2022
766 Clouds 0 1020 87 10000 1.12 140 21:37 05.12.2022
767 Clouds 1 1020 86 10000 1.17 142 20:39 05.12.2022
768 Clouds 1 1020 86 10000 1.14 133 19:46 05.12.2022
769 Clouds 2 1020 85 10000 0.45 238 18:38 05.12.2022
770 Clouds 4 1019 83 10000 1.03 0 16:49 05.12.2022
771 Clouds 5 1019 84 10000 1.03 130 15:26 05.12.2022
772 Clouds 5 1019 87 10000 2.06 140 13:28 05.12.2022
773 Clouds 5 1019 88 10000 1.03 0 12:56 05.12.2022
774 Clouds 5 1019 88 10000 1.54 110 12:37 05.12.2022
775 Clouds 4 1019 90 8000 1.54 100 10:59 05.12.2022
776 Mist 3 1017 90 4900 1.54 0 05:22 05.12.2022
777 Clouds 3 1015 85 8000 2.06 330 23:33 04.12.2022
778 Clouds 3 1014 85 10000 2.24 263 22:40 04.12.2022
779 Clouds 2 1014 86 9000 1.79 269 22:18 04.12.2022
780 Clouds 2 1013 86 8000 1.79 255 21:30 04.12.2022
781 Clouds 3 1013 85 8000 1.03 0 19:49 04.12.2022
782 Clouds 3 1013 84 8000 1.03 0 19:23 04.12.2022
783 Clouds 3 1012 84 10000 2.57 250 17:58 04.12.2022
784 Clouds 3 1011 83 10000 2.57 280 17:21 04.12.2022
785 Clouds 3 1011 84 8000 2.06 320 16:36 04.12.2022
786 Clouds 3 1011 83 9000 2.06 320 16:18 04.12.2022
787 Clouds 4 1011 84 10000 1.03 0 14:54 04.12.2022
788 Clouds 3 1011 86 10000 0 0 13:51 04.12.2022
789 Rain 3 1011 84 8000 1.03 0 12:46 04.12.2022
790 Rain 3 1012 84 5000 0.51 0 12:21 04.12.2022
791 Rain 2 1012 86 5000 1.03 160 11:19 04.12.2022
792 Clouds 2 1012 84 10000 1.54 280 07:34 04.12.2022
793 Clouds 2 1011 85 7000 1.79 40 02:24 04.12.2022
794 Clouds 2 1012 84 8000 1.54 260 23:43 03.12.2022
795 Clouds 2 1012 84 9000 1.34 38 22:24 03.12.2022
796 Clouds 2 1012 84 9000 1.79 38 21:41 03.12.2022
797 Clouds 2 1012 84 10000 2.06 250 20:36 03.12.2022
798 Clouds 2 1012 84 10000 2.24 20 18:40 03.12.2022
799 Clouds 2 1012 83 10000 2.68 34 17:30 03.12.2022
800 Clouds 2 1013 83 10000 2.06 300 15:49 03.12.2022
801 Clouds 2 1013 85 8000 0.51 0 12:56 03.12.2022
802 Clouds 2 1014 84 8000 1.79 13 12:28 03.12.2022
803 Clouds 2 1014 83 10000 2.24 63 11:21 03.12.2022
804 Clouds 0 1014 81 10000 1.34 81 07:59 03.12.2022
805 Clouds -1 1015 84 8000 3.58 57 01:31 03.12.2022
806 Clouds -1 1015 84 8000 3.58 57 01:31 03.12.2022
807 Clouds -1 1015 84 8000 3.58 57 01:31 03.12.2022
808 Clouds 1 1015 79 10000 2.24 70 23:32 02.12.2022
809 Clouds 2 1015 75 10000 1.19 67 21:42 02.12.2022
810 Clouds 3 1015 77 10000 1.54 90 19:45 02.12.2022
811 Clouds 5 1015 69 10000 1.79 50 16:26 02.12.2022
812 Clouds 5 1015 68 10000 2.57 160 15:53 02.12.2022
813 Clear 6 1015 66 10000 4.12 160 14:28 02.12.2022
814 Clouds 6 1016 66 10000 3.58 102 13:42 02.12.2022
815 Clouds 5 1017 76 10000 3.58 128 11:49 02.12.2022
816 Clouds 4 1018 79 10000 1.54 120 10:26 02.12.2022
817 Clouds 2 1018 76 9000 1.79 60 07:48 02.12.2022
818 Clouds 3 1018 79 10000 0.89 46 07:18 02.12.2022
819 Clouds 3 1020 79 10000 2.24 30 22:49 01.12.2022
820 Clouds 3 1020 79 10000 2.68 19 21:41 01.12.2022
821 Clouds 3 1019 78 10000 2.24 46 20:37 01.12.2022
822 Clouds 3 1019 78 10000 2.68 50 18:58 01.12.2022
823 Clouds 3 1019 77 10000 4.02 9 16:57 01.12.2022
824 Clouds 4 1019 74 10000 3.58 21 14:21 01.12.2022
825 Clouds 3 1020 77 10000 2.68 46 10:56 01.12.2022
826 Clouds 3 1020 79 10000 2.57 330 09:54 01.12.2022
827 Clouds 3 1020 79 10000 1.79 38 09:36 01.12.2022
828 Clouds 3 1020 78 10000 3.13 26 06:19 01.12.2022
829 Clouds 4 1020 80 10000 4.47 28 22:41 30.11.2022
830 Clouds 4 1019 81 10000 5.81 39 21:40 30.11.2022
831 Clouds 4 1019 80 10000 4.92 26 21:18 30.11.2022
832 Clouds 4 1019 81 10000 4.02 42 20:23 30.11.2022
833 Clouds 4 1019 81 10000 4.02 32 20:23 30.11.2022
834 Clouds 5 1019 80 10000 2.24 42 18:36 30.11.2022
835 Clouds 5 1019 80 10000 4.02 14 17:40 30.11.2022
836 Clouds 5 1018 80 10000 5.36 38 16:26 30.11.2022
837 Clouds 6 1018 81 10000 2.06 10 14:45 30.11.2022
838 Clouds 6 1018 81 10000 4.47 18 14:25 30.11.2022
839 Clouds 6 1018 83 10000 3.13 62 11:58 30.11.2022
840 Clouds 6 1018 86 10000 4.02 70 09:21 30.11.2022
841 Clouds 5 1018 86 10000 2.24 36 07:59 30.11.2022
842 Clouds 6 1018 87 10000 4.47 32 05:22 30.11.2022
843 Clouds 6 1018 89 10000 1.34 54 23:26 29.11.2022
844 Clouds 6 1018 89 10000 0.89 50 21:50 29.11.2022
845 Clouds 6 1018 89 10000 0.51 0 20:52 29.11.2022
846 Clouds 6 1018 87 10000 0.89 44 19:48 29.11.2022
847 Clouds 6 1018 87 10000 0.45 44 17:53 29.11.2022
848 Clouds 7 1017 85 10000 1.34 44 16:31 29.11.2022
849 Clouds 7 1017 85 10000 1.79 51 15:22 29.11.2022
850 Clouds 7 1017 86 10000 0.51 0 13:50 29.11.2022
851 Drizzle 7 1017 87 10000 1.34 113 12:36 29.11.2022
852 Drizzle 6 1035 88 10000 2.06 110 11:31 29.11.2022
853 Clouds 6 1017 88 10000 1.54 110 10:26 29.11.2022
854 Clouds 5 1016 89 10000 2.06 120 09:26 29.11.2022
855 Rain 5 1016 88 10000 2.06 120 06:46 29.11.2022
856 Clouds 6 1016 86 10000 1.34 207 00:22 29.11.2022
857 Clouds 6 1015 86 10000 1.79 231 23:22 28.11.2022
858 Drizzle 7 1015 84 10000 1.79 270 21:56 28.11.2022
859 Clouds 7 1015 83 10000 2.57 250 21:36 28.11.2022
860 Clouds 7 1015 83 10000 2.57 300 20:20 28.11.2022
861 Rain 7 1015 82 10000 3.09 270 19:24 28.11.2022
862 Rain 8 1015 78 10000 3.13 268 18:28 28.11.2022
863 Clouds 7 1014 79 10000 1.79 257 17:22 28.11.2022
864 Clouds 8 1014 73 10000 2.24 218 14:45 28.11.2022
865 Clouds 8 1014 73 10000 1.03 290 13:53 28.11.2022
866 Clouds 8 1014 75 10000 1.03 0 12:52 28.11.2022
867 Clouds 6 1015 78 10000 2.57 100 11:31 28.11.2022
868 Clouds 4 1015 80 10000 2.06 140 07:54 28.11.2022
869 Clear 3 1016 81 10000 0.45 146 04:54 28.11.2022
870 Clear 3 1016 82 10000 0 0 04:36 28.11.2022
871 Clouds 4 1016 82 10000 1.03 150 03:20 28.11.2022
872 Clouds 4 1018 82 10000 0.51 0 23:44 27.11.2022
873 Clouds 4 1019 82 10000 0 0 21:54 27.11.2022
874 Clouds 4 1019 81 10000 0.51 0 20:38 27.11.2022
875 Clouds 5 1021 80 10000 1.03 0 18:18 27.11.2022
876 Clouds 6 1022 76 10000 0.89 296 15:36 27.11.2022
877 Clouds 6 1024 78 10000 1.34 291 13:37 27.11.2022
878 Clear 4 1026 84 10000 1.34 284 11:31 27.11.2022
879 Clouds 2 1027 85 10000 0.41 211 08:57 27.11.2022
880 Fog 0 1028 84 200 0.51 0 05:20 27.11.2022
881 Clouds 2 1029 84 10000 1.25 125 22:39 26.11.2022
882 Clear 2 1029 85 10000 1.03 120 20:56 26.11.2022
883 Clear 3 1029 87 10000 1.54 80 19:37 26.11.2022
884 Clouds 5 1029 82 10000 0.81 51 18:26 26.11.2022
885 Clear 7 1029 77 10000 2.68 9 16:25 26.11.2022
886 Clouds 9 1030 74 10000 2.24 33 13:51 26.11.2022
887 Clouds 8 1030 84 10000 2.57 150 12:23 26.11.2022
888 Fog 6 1031 92 8000 1.34 97 10:51 26.11.2022
889 Fog 3 1031 90 8000 0 0 09:31 26.11.2022
890 Fog 3 1030 90 700 1.54 0 06:41 26.11.2022
891 Clouds 6 1026 89 10000 2.06 110 21:46 25.11.2022
892 Clouds 6 1026 89 10000 2.06 110 21:46 25.11.2022
893 Clouds 6 1026 89 10000 2.06 110 21:24 25.11.2022
894 Clouds 7 1025 83 10000 1.54 90 19:57 25.11.2022
895 Clouds 8 1022 85 10000 2.06 170 16:50 25.11.2022
896 Clouds 9 1021 82 10000 1.03 0 14:37 25.11.2022
897 Clouds 5 1019 90 10000 0 0 09:24 25.11.2022
898 Clouds 5 1019 86 10000 1.03 130 08:41 25.11.2022
899 Clouds 4 1018 89 10000 1.03 120 06:55 25.11.2022
900 Clouds 5 1018 86 10000 3.6 120 06:24 25.11.2022
901 Clouds 4 1017 89 10000 0.51 0 23:55 24.11.2022
902 Clear 4 1017 88 10000 2.57 100 22:51 24.11.2022
903 Clear 4 1017 88 10000 3.09 110 21:59 24.11.2022
904 Clear 4 1017 89 10000 1.03 0 20:33 24.11.2022
905 Clear 5 1017 87 10000 1.54 80 18:54 24.11.2022
906 Clear 6 1017 86 10000 1.54 90 17:43 24.11.2022
907 Clear 7 1017 84 10000 0.51 0 17:20 24.11.2022
908 Clouds 10 1017 77 10000 3.13 272 15:23 24.11.2022
909 Clouds 10 1018 80 10000 2.24 225 13:49 24.11.2022
910 Clouds 8 1018 85 10000 2.24 260 11:58 24.11.2022
911 Clouds 8 1018 83 10000 4.02 270 10:36 24.11.2022
912 Rain 5 1016 91 10000 0 0 07:53 24.11.2022
913 Clear 6 1015 85 10000 3.13 234 03:22 24.11.2022
914 Clouds 6 1013 86 10000 2.06 120 23:46 23.11.2022
915 Clouds 7 1012 86 10000 2.24 226 21:57 23.11.2022
916 Clouds 7 1012 85 10000 3.58 200 21:24 23.11.2022
917 Clouds 7 1010 87 10000 4.47 210 20:21 23.11.2022
918 Drizzle 6 1009 89 10000 4.47 216 19:27 23.11.2022
919 Drizzle 6 1009 89 10000 4.47 216 19:27 23.11.2022
920 Rain 6 1008 88 10000 3.58 212 18:41 23.11.2022
921 Clouds 7 1004 74 10000 1.03 0 16:39 23.11.2022
922 Clouds 7 1005 72 10000 2.68 237 13:40 23.11.2022
923 Clear 7 1005 72 10000 2.24 279 13:20 23.11.2022
924 Clear 6 1005 73 10000 1.34 254 12:21 23.11.2022
925 Clear 6 1005 73 10000 1.03 190 11:41 23.11.2022
926 Clear 5 1005 78 10000 1.54 190 10:42 23.11.2022
927 Clear 3 1005 85 10000 2.06 170 09:43 23.11.2022
928 Clear 2 1005 85 10000 2.06 170 09:25 23.11.2022
929 Clear 1 1005 85 10000 2.06 120 08:37 23.11.2022
930 Clouds 1 1005 87 10000 1.53 150 05:22 23.11.2022
931 Clear 1 1005 89 10000 1.03 0 04:23 23.11.2022
932 Clouds 4 1005 87 10000 0.89 223 22:59 22.11.2022
933 Clouds 4 1005 85 10000 1.54 340 22:33 22.11.2022
934 Clouds 5 1005 81 10000 2.57 310 21:34 22.11.2022
935 Clouds 5 1005 81 10000 3.13 245 20:45 22.11.2022
936 Clouds 5 1005 81 10000 3.13 245 20:45 22.11.2022
937 Clouds 6 1004 78 10000 1.79 263 19:54 22.11.2022
938 Clouds 6 1004 73 10000 4.12 260 17:56 22.11.2022
939 Clouds 6 1004 71 10000 4.63 250 17:21 22.11.2022
940 Clouds 6 1004 71 10000 4.63 250 17:21 22.11.2022
941 Clouds 6 1004 71 10000 4.63 250 17:21 22.11.2022
942 Clouds 7 1003 68 10000 4.92 247 15:51 22.11.2022
943 Clouds 8 1003 68 10000 4.92 256 13:42 22.11.2022
944 Clouds 7 1003 74 10000 4.92 259 11:40 22.11.2022
945 Clouds 5 1003 81 10000 3.6 280 09:20 22.11.2022
946 Clouds 5 1001 81 10000 2.68 280 07:20 22.11.2022
947 Rain 5 1000 89 7000 1.79 213 01:46 22.11.2022
948 Clouds 5 1000 86 6000 2.06 140 23:40 21.11.2022
949 Rain 5 1000 86 9000 1.03 80 22:42 21.11.2022
950 Drizzle 5 1000 85 10000 2.57 330 21:58 21.11.2022
951 Clouds 5 1000 83 10000 3.6 320 20:52 21.11.2022
952 Rain 6 1000 78 10000 2.24 270 19:41 21.11.2022
953 Rain 6 1000 76 10000 1.79 280 18:54 21.11.2022
954 Rain 6 1000 74 10000 1.03 0 17:58 21.11.2022
955 Rain 7 1001 72 10000 3.09 300 16:55 21.11.2022
956 Clouds 7 1001 70 10000 3.09 300 16:37 21.11.2022
957 Clouds 8 1002 68 10000 3.09 310 15:37 21.11.2022
958 Clouds 8 1003 65 10000 1.79 341 14:29 21.11.2022
959 Clear 9 1004 65 10000 1.03 300 13:43 21.11.2022
960 Clear 8 1008 66 10000 1.03 0 11:37 21.11.2022
961 Clouds 5 1011 79 10000 2.68 215 09:18 21.11.2022
962 Clouds 6 1011 74 10000 3.6 320 07:39 21.11.2022
963 Clouds 5 1015 79 10000 6.26 263 22:38 20.11.2022
964 Clouds 5 1014 78 10000 3.58 270 21:34 20.11.2022
965 Rain 6 1013 74 10000 4.47 237 20:32 20.11.2022
966 Rain 6 1013 67 10000 2.68 227 18:26 20.11.2022
967 Clouds 8 1013 66 10000 2.57 280 16:24 20.11.2022
968 Clear 8 1014 62 10000 3.6 280 15:30 20.11.2022
969 Clouds 8 1014 63 10000 4.47 279 14:54 20.11.2022
970 Clouds 8 1015 64 10000 2.57 270 13:34 20.11.2022
971 Clouds 7 1016 69 10000 2.06 260 12:38 20.11.2022
972 Clouds 6 1016 76 10000 3.58 230 11:25 20.11.2022
973 Clouds 6 1016 78 10000 2.24 252 10:40 20.11.2022
974 Clouds 5 1016 83 10000 0.45 192 09:23 20.11.2022
975 Clouds 5 1016 81 10000 2.24 268 08:35 20.11.2022
976 Clouds 4 1016 84 10000 0.51 0 07:30 20.11.2022
977 Clouds 4 1016 84 10000 0.51 0 07:30 20.11.2022
978 Clouds 4 1015 83 10000 1.03 330 04:26 20.11.2022
979 Clouds 4 1014 83 10000 0.51 290 01:21 20.11.2022
980 Clouds 4 1014 83 10000 0.51 0 00:42 20.11.2022
981 Clouds 4 1014 82 10000 0.51 0 00:23 20.11.2022
982 Clouds 4 1014 82 10000 0.51 0 23:51 19.11.2022
983 Clouds 5 1014 81 10000 1.03 210 23:24 19.11.2022
984 Clouds 5 1014 83 10000 3.13 141 22:39 19.11.2022
985 Clouds 6 1014 80 10000 2.24 148 21:32 19.11.2022
986 Clouds 6 1014 78 10000 0.51 0 20:57 19.11.2022
987 Clouds 6 1013 78 10000 0.51 0 20:33 19.11.2022
988 Clouds 6 1013 76 10000 2.06 330 18:57 19.11.2022
989 Clouds 7 1012 78 10000 0.51 0 17:41 19.11.2022
990 Clouds 7 1012 75 10000 1.03 0 17:19 19.11.2022
991 Clouds 9 1011 69 10000 1.34 324 15:41 19.11.2022
992 Clouds 9 1011 66 10000 2.68 0 14:38 19.11.2022
993 Clouds 8 1012 78 10000 3.09 140 12:18 19.11.2022
994 Clear 7 1012 83 10000 2.06 140 10:56 19.11.2022
995 Clouds 4 1012 88 10000 2.06 130 08:40 19.11.2022
996 Clouds 3 1010 90 10000 0.51 0 04:55 19.11.2022
997 Clear 3 1010 87 10000 1.54 150 02:51 19.11.2022
998 Clouds 4 1010 87 10000 0.51 0 23:45 18.11.2022
999 Clouds 5 1010 86 10000 0.51 0 22:38 18.11.2022
1000 Clouds 5 1010 86 10000 1.03 0 21:37 18.11.2022
1001 Clouds 6 1010 85 10000 0.51 0 20:59 18.11.2022
1002 Clouds 6 1010 85 10000 1.03 0 20:30 18.11.2022
1003 Clouds 6 1009 78 10000 1.03 0 19:46 18.11.2022
1004 Clouds 6 1010 84 10000 1.34 198 18:38 18.11.2022
1005 Clouds 6 1009 81 10000 1.54 173 17:42 18.11.2022
1006 Clouds 9 1008 77 10000 3.58 259 13:57 18.11.2022
1007 Clouds 8 1008 86 10000 5.81 270 11:31 18.11.2022
1008 Drizzle 7 1007 88 10000 4.12 260 08:46 18.11.2022
1009 Clouds 8 1005 85 8000 4.02 263 07:51 18.11.2022
1010 Rain 8 1004 84 10000 4.02 206 05:19 18.11.2022
1011 Rain 9 1002 89 10000 4.47 275 00:50 18.11.2022
1012 Clouds 9 1001 86 10000 3.13 223 21:53 17.11.2022
1013 Rain 9 1001 87 10000 3.6 330 20:46 17.11.2022
1014 Rain 10 1001 82 10000 4.63 300 19:51 17.11.2022
1015 Clouds 10 999 79 10000 1.03 310 18:35 17.11.2022
1016 Clear 11 998 78 10000 0.45 216 17:33 17.11.2022
1017 Clouds 12 998 76 10000 2.57 190 16:53 17.11.2022
1018 Rain 12 1000 77 10000 6.69 290 14:40 17.11.2022
1019 Rain 13 1000 71 10000 5.66 280 11:22 17.11.2022
1020 Clouds 11 1000 69 10000 7.6 229 08:32 17.11.2022
1021 Clouds 9 1001 90 10000 0.45 142 05:30 17.11.2022
1022 Clouds 8 1001 89 10000 1.34 213 00:21 17.11.2022
1023 Clear 7 1002 90 10000 1.03 0 22:30 16.11.2022
1024 Clouds 8 1003 89 10000 1.3 138 20:36 16.11.2022
1025 Clear 8 1003 90 10000 1.03 0 19:49 16.11.2022
1026 Clear 8 1004 89 10000 1.03 150 18:43 16.11.2022
1027 Clouds 11 1004 80 10000 0.89 235 17:20 16.11.2022
1028 Clouds 13 1005 73 10000 5.36 271 13:54 16.11.2022
1029 Fog 10 1007 93 9000 1.54 150 09:48 16.11.2022
1030 Rain 9 1006 93 10000 2.06 90 05:27 16.11.2022
1031 Rain 9 1006 92 10000 1.79 304 01:25 16.11.2022
1032 Drizzle 9 1007 90 10000 1.34 132 22:27 15.11.2022
1033 Rain 9 1007 90 10000 2.06 160 20:45 15.11.2022
1034 Rain 9 1007 89 10000 1.03 310 19:34 15.11.2022
1035 Clouds 9 1008 89 10000 0.51 0 18:26 15.11.2022
1036 Clouds 10 1008 88 10000 1.03 0 17:21 15.11.2022
1037 Clouds 10 1009 87 10000 1.03 0 16:19 15.11.2022
1038 Rain 11 1010 87 10000 0.51 0 14:44 15.11.2022
1039 Clouds 11 1011 88 10000 0.51 0 12:59 15.11.2022
1040 Clouds 10 1012 90 10000 3.09 110 11:43 15.11.2022
1041 Rain 9 1013 91 10000 2.06 120 10:55 15.11.2022
1042 Clouds 7 1014 89 10000 1.03 0 07:40 15.11.2022
1043 Rain 6 1017 89 6000 0.45 201 00:36 15.11.2022
1044 Fog 6 1018 89 5000 1.03 330 22:59 14.11.2022
1045 Fog 6 1017 88 550 0.51 0 21:19 14.11.2022
1046 Fog 7 1017 87 8000 1.03 110 20:38 14.11.2022
1047 Fog 9 1018 88 6000 0.51 290 18:29 14.11.2022
1048 Clouds 10 1018 84 10000 1.34 80 15:45 14.11.2022
1049 Rain 10 1018 82 10000 0.51 0 12:54 14.11.2022
1050 Rain 9 1018 82 10000 0.51 0 11:41 14.11.2022
1051 Clouds 7 1017 92 6000 1.54 190 09:25 14.11.2022
1052 Rain 7 1017 91 7000 2.57 100 07:54 14.11.2022
1053 Clouds 5 1017 92 5000 3.09 110 06:19 14.11.2022
1054 Clouds 5 1019 92 7000 2.06 130 00:18 14.11.2022
1055 Clouds 6 1020 90 7000 2.57 120 21:53 13.11.2022
1056 Clouds 6 1020 90 7000 3.09 130 21:21 13.11.2022
1057 Clouds 6 1020 92 10000 1.54 0 19:44 13.11.2022
1058 Clouds 6 1020 91 10000 1.34 161 18:19 13.11.2022
1059 Clouds 6 1020 92 10000 1.03 0 17:21 13.11.2022
1060 Clouds 8 1020 66 8000 1.54 340 14:58 13.11.2022
1061 Clouds 8 1020 67 6000 1.03 0 14:23 13.11.2022
1062 Mist 8 1021 70 5000 0.51 0 12:37 13.11.2022
1063 Mist 7 1022 75 1400 1.03 150 10:58 13.11.2022
1064 Mist 5 1023 92 1200 1.03 90 08:55 13.11.2022
1065 Fog 6 1027 92 550 0.89 49 01:35 13.11.2022
1066 Fog 6 1028 91 300 1.54 0 22:51 12.11.2022
1067 Fog 6 1029 90 200 0.89 57 21:24 12.11.2022
1068 Mist 7 1029 88 3900 2.06 310 20:18 12.11.2022
1069 Clouds 8 1030 89 8000 2.06 320 18:18 12.11.2022
1070 Clouds 9 1030 89 10000 1.03 290 16:26 12.11.2022
1071 Clouds 10 1031 73 10000 1.03 0 15:23 12.11.2022
1072 Clouds 10 1032 77 1500 1.03 0 12:28 12.11.2022
1073 Clouds 6 1033 90 10000 0.37 137 09:20 12.11.2022
1074 Clouds 6 1033 89 10000 1.01 156 05:55 12.11.2022
1075 Clouds 6 1034 88 10000 0.92 159 22:31 11.11.2022
1076 Fog 7 1034 88 10000 0.51 260 20:51 11.11.2022
1077 Clouds 8 1033 87 10000 0.74 127 19:44 11.11.2022
1078 Fog 8 1034 87 10000 0.89 59 19:20 11.11.2022
1079 Clear 10 1033 84 10000 1.34 41 17:56 11.11.2022
1080 Clear 12 1033 82 10000 1.34 34 16:28 11.11.2022
1081 Clouds 12 1033 82 8000 1.54 290 14:21 11.11.2022
1082 Clouds 12 1034 83 10000 2.06 280 13:29 11.11.2022
1083 Clouds 8 1035 94 10000 0.74 100 09:49 11.11.2022
1084 Clouds 6 1034 88 10000 0.89 157 08:27 11.11.2022
1085 Clouds 7 1034 89 10000 1.29 159 06:26 11.11.2022
1086 Clouds 7 1032 88 10000 0.6 150 23:38 10.11.2022
1087 Fog 7 1032 90 100 0.89 96 22:38 10.11.2022
1088 Clouds 8 1032 87 10000 0.74 103 21:34 10.11.2022
1089 Fog 8 1031 89 8000 1.03 70 20:52 10.11.2022
1090 Clouds 8 1031 89 8000 1.03 0 20:22 10.11.2022
1091 Clear 9 1031 88 10000 1.03 0 19:43 10.11.2022
1092 Clear 9 1030 85 10000 1.34 63 18:32 10.11.2022
1093 Clouds 13 1028 78 10000 4.02 11 16:26 10.11.2022
1094 Clouds 14 1028 75 10000 4.02 12 13:59 10.11.2022
1095 Clouds 13 1029 79 10000 3.13 26 12:50 10.11.2022
1096 Fog 9 1027 91 10000 0.89 86 08:50 10.11.2022
1097 Clouds 10 1023 92 6000 0.89 177 01:35 10.11.2022
1098 Clouds 10 1022 92 8000 1.54 90 00:31 10.11.2022
1099 Clouds 10 1022 92 7000 1.54 90 22:45 09.11.2022
1100 Rain 10 1021 90 10000 3.09 140 20:49 09.11.2022
1101 Rain 10 1021 90 10000 2.57 120 20:29 09.11.2022
1102 Rain 10 1020 90 10000 1.54 100 19:43 09.11.2022
1103 Rain 10 1020 90 10000 0.45 177 19:24 09.11.2022
1104 Rain 11 1019 90 10000 1.03 100 16:50 09.11.2022
1105 Rain 11 1018 88 10000 1.54 150 14:48 09.11.2022
1106 Drizzle 11 1017 87 10000 0 0 14:26 09.11.2022
1107 Rain 11 1017 87 10000 2.06 130 13:31 09.11.2022
1108 Rain 11 1018 86 10000 2.06 150 12:49 09.11.2022
1109 Clouds 9 1018 86 10000 1.54 120 08:53 09.11.2022
1110 Rain 8 1018 84 10000 3.6 120 07:47 09.11.2022
1111 Clouds 8 1016 64 10000 2.06 130 01:45 09.11.2022
1112 Clouds 9 1016 71 10000 1.54 0 22:23 08.11.2022
1113 Clouds 8 1016 75 10000 2.06 0 21:36 08.11.2022
1114 Clouds 9 1016 75 10000 2.06 110 20:41 08.11.2022
1115 Clouds 9 1016 73 10000 3.09 130 19:47 08.11.2022
1116 Clear 10 1016 73 10000 3.09 120 19:20 08.11.2022
1117 Clear 11 1016 70 10000 2.57 110 17:34 08.11.2022
1118 Clear 15 1016 59 10000 1.54 160 14:57 08.11.2022
1119 Clear 15 1016 59 10000 1.54 150 14:23 08.11.2022
1120 Clear 14 1017 63 10000 1.54 140 13:26 08.11.2022
1121 Clear 9 1018 76 10000 3.09 150 10:28 08.11.2022
1122 Clear 5 1017 80 10000 1.03 310 07:38 08.11.2022
1123 Clouds 6 1018 81 10000 0.51 0 01:50 08.11.2022
1124 Clear 7 1019 81 10000 0.51 0 22:54 07.11.2022
1125 Clouds 7 1019 80 10000 0.89 195 21:40 07.11.2022
1126 Clear 8 1019 79 10000 1.54 110 20:46 07.11.2022
1127 Clear 9 1019 84 10000 1.54 130 19:37 07.11.2022
1128 Clear 11 1019 78 10000 0.51 0 17:41 07.11.2022
1129 Clear 15 1019 63 10000 2.57 140 15:38 07.11.2022
1130 Clear 15 1019 63 10000 2.68 225 14:55 07.11.2022
1131 Clear 15 1020 58 10000 3.58 225 13:21 07.11.2022
1132 Clear 14 1021 61 10000 2.68 265 12:22 07.11.2022
1133 Clear 10 1021 78 10000 2.24 232 09:50 07.11.2022
1134 Clear 6 1021 86 10000 0 0 08:30 07.11.2022
1135 Clouds 5 1020 89 10000 1.03 0 06:31 07.11.2022
1136 Clouds 7 1019 93 10000 1.03 0 01:45 07.11.2022
1137 Clouds 8 1019 86 10000 2.06 130 23:23 06.11.2022
1138 Clouds 7 1018 89 10000 1.54 0 21:22 06.11.2022
1139 Rain 7 1018 89 10000 1.54 160 20:43 06.11.2022
1140 Rain 7 1018 88 10000 0.89 196 19:56 06.11.2022
1141 Clouds 7 1017 89 10000 0.51 0 18:50 06.11.2022
1142 Clouds 7 1016 87 10000 1.03 0 18:20 06.11.2022
1143 Clouds 8 1016 85 10000 1.03 280 17:22 06.11.2022
1144 Clouds 8 1016 85 10000 1.54 300 16:58 06.11.2022
1145 Clouds 8 1016 84 10000 2.06 300 16:18 06.11.2022
1146 Clouds 9 1016 80 10000 1.54 320 14:45 06.11.2022
1147 Clear 8 1016 76 10000 0 0 12:44 06.11.2022
1148 Clouds 5 1017 93 6000 0 0 10:52 06.11.2022
1149 Fog 4 1018 93 3000 2.06 310 09:51 06.11.2022
1150 Fog 2 1020 92 400 1.54 160 06:40 06.11.2022
1151 Clouds 3 1022 90 6000 1.54 180 23:23 05.11.2022
1152 Clear 5 1022 89 10000 2.06 110 20:40 05.11.2022
1153 Clouds 7 1022 87 10000 2.06 160 18:22 05.11.2022
1154 Clouds 9 1021 79 10000 1.54 110 16:23 05.11.2022
1155 Clouds 10 1021 75 10000 1.03 0 14:34 05.11.2022
1156 Clouds 9 1021 78 10000 2.06 150 13:28 05.11.2022
1157 Clouds 8 1021 89 10000 3.09 160 10:43 05.11.2022
1158 Clouds 7 1020 91 10000 2.06 130 08:54 05.11.2022
1159 Clouds 6 1019 92 10000 2.06 140 07:22 05.11.2022
1160 Clouds 6 1019 90 6000 1.54 100 06:54 05.11.2022
1161 Clouds 6 1016 90 10000 1.03 0 23:36 04.11.2022
1162 Clouds 6 1016 89 10000 1.03 0 23:18 04.11.2022
1163 Clouds 6 1014 90 10000 1.03 0 20:33 04.11.2022
1164 -273 0 0 0 0 0 20:31 04.11.2022
1165 -273 0 0 0 0 0 20:30 04.11.2022
1166 -273 0 0 0 0 0 20:30 04.11.2022
1167 Rain 7 1011 86 10000 2.57 270 17:56 04.11.2022
1168 Rain 7 1010 86 10000 3.13 252 17:21 04.11.2022
1169 Rain 10 1008 82 10000 2.24 306 13:52 04.11.2022
1170 Clouds 10 1008 81 10000 2.06 300 12:27 04.11.2022
1171 Clouds 9 1008 81 10000 1.03 0 10:40 04.11.2022
1172 Clouds 6 1009 89 10000 0.45 140 08:45 04.11.2022
1173 Clouds 6 1009 87 10000 1.03 110 07:43 04.11.2022
1174 Clouds 6 1009 87 10000 1.03 110 07:43 04.11.2022
1175 Clouds 8 1010 83 10000 2.57 90 05:20 04.11.2022
1176 Rain 10 1012 88 10000 3.58 218 23:26 03.11.2022
1177 Rain 10 1009 88 7000 2.68 278 20:51 03.11.2022
1178 Rain 10 1009 87 8000 2.57 20 20:28 03.11.2022
1179 Rain 10 1010 88 8000 2.68 234 19:29 03.11.2022
1180 Clouds 10 1010 84 10000 2.06 10 17:49 03.11.2022
1181 Drizzle 11 1011 82 5000 2.24 240 16:52 03.11.2022
1182 Clear 11 1013 80 10000 1.03 240 14:19 03.11.2022
1183 Clear 11 1016 76 10000 1.54 130 12:39 03.11.2022
1184 Clouds 11 1016 88 10000 2.06 130 11:47 03.11.2022
1185 Clouds 8 1018 91 10000 0.45 114 09:37 03.11.2022
1186 Fog 6 1019 87 300 0 0 07:43 03.11.2022
1187 Clear 8 1023 85 10000 1.03 140 21:30 02.11.2022
1188 Clear 8 1023 83 10000 0.51 0 20:39 02.11.2022
1189 Clear 9 1023 81 10000 1.54 100 19:56 02.11.2022
1190 Clouds 13 1024 70 10000 1.54 250 16:51 02.11.2022
1191 Clouds 14 1025 67 10000 1.54 230 15:54 02.11.2022
1192 Clouds 15 1025 66 10000 1.79 32 14:47 02.11.2022
1193 Clouds 14 1026 77 10000 0 0 12:44 02.11.2022
1194 Clouds 13 1027 80 10000 0.51 0 11:39 02.11.2022
1195 Clouds 11 1043 90 10000 0 0 08:52 02.11.2022
1196 Clouds 11 1026 91 10000 1.54 0 05:30 02.11.2022
1197 Fog 9 1025 90 3600 1.03 0 00:21 02.11.2022
1198 Fog 11 1025 89 5000 0.51 0 22:19 01.11.2022
1199 Clouds 11 1024 89 10000 0.51 0 21:37 01.11.2022
1200 Clouds 11 1024 87 10000 1.03 150 20:26 01.11.2022
1201 Clouds 12 1024 88 10000 0.51 0 19:43 01.11.2022
1202 Clouds 12 1024 86 10000 1.03 0 18:49 01.11.2022
1203 Clouds 14 1023 78 10000 0.89 234 17:28 01.11.2022
1204 Clouds 16 1023 76 10000 2.68 245 16:20 01.11.2022
1205 Clouds 16 1023 78 10000 2.68 288 14:22 01.11.2022
1206 Clouds 15 1024 85 10000 2.24 252 12:27 01.11.2022
1207 Clouds 14 1024 87 10000 1.34 235 11:24 01.11.2022
1208 Clouds 14 1024 88 10000 1.34 235 10:23 01.11.2022
1209 Rain 13 1023 85 10000 0.51 0 08:43 01.11.2022
1210 Rain 13 1022 87 10000 3.09 20 07:30 01.11.2022
1211 Rain 13 1022 87 10000 3.09 20 07:30 01.11.2022
1212 Rain 13 1022 82 10000 6.17 280 06:47 01.11.2022
1213 Rain 13 1022 81 10000 6.26 244 05:57 01.11.2022
1214 Clouds 11 1020 84 7000 1.34 231 03:38 01.11.2022
1215 Clouds 11 1020 82 5000 0.89 317 21:55 31.10.2022
1216 Clear 12 1020 82 10000 2.06 120 20:40 31.10.2022
1217 Clear 13 1020 82 10000 1.54 0 18:54 31.10.2022
1218 Clear 15 1019 76 10000 3.6 320 17:51 31.10.2022
1219 Clear 17 1019 72 10000 2.24 250 16:42 31.10.2022
1220 Clear 18 1020 60 10000 2.06 120 13:24 31.10.2022
1221 Clear 16 1022 69 10000 0.51 0 11:52 31.10.2022
1222 Clear 11 1023 72 10000 0.89 142 08:38 31.10.2022
1223 Clouds 10 1023 76 10000 0 0 04:49 31.10.2022
1224 Clouds 11 1023 71 10000 1.29 154 02:23 31.10.2022
1225 Clouds 11 1024 77 10000 0.89 142 23:19 30.10.2022
1226 Clear 13 1024 74 10000 0.51 0 20:51 30.10.2022
1227 Clear 13 1024 74 10000 0.51 0 20:27 30.10.2022
1228 Clear 14 1022 80 10000 1.03 0 18:29 30.10.2022
1229 Clear 19 1022 63 10000 1.79 40 16:18 30.10.2022
1230 Clear 19 1022 63 10000 1.79 40 16:18 30.10.2022
1231 Clear 20 1023 62 10000 0.51 0 13:53 30.10.2022
1232 Clear 18 1023 64 10000 0.51 0 13:18 30.10.2022
1233 Clear 17 1024 65 10000 0.51 0 11:37 30.10.2022
1234 Clear 14 1024 69 10000 0.51 0 09:37 30.10.2022
1235 Clear 12 1024 68 10000 1.03 320 08:38 30.10.2022
1236 Clouds 12 1024 72 8000 0.51 0 02:56 30.10.2022
1237 Clouds 13 1025 75 9000 0.51 0 00:28 30.10.2022
1238 Clouds 13 1025 73 8000 1.03 0 23:44 29.10.2022
1239 Clouds 14 1025 76 9000 0 0 21:27 29.10.2022
1240 Clear 18 1024 70 10000 1.54 150 17:51 29.10.2022
1241 Clear 20 1024 61 10000 0.51 180 17:18 29.10.2022
1242 Clear 20 1025 58 10000 1.03 0 15:37 29.10.2022
1243 Clear 20 1025 57 10000 0.51 0 14:47 29.10.2022
1244 Clear 18 1027 64 10000 0.89 294 12:35 29.10.2022
1245 Clear 16 1027 66 10000 1.03 130 11:32 29.10.2022
1246 Clouds 11 1027 75 7000 0 0 07:38 29.10.2022
1247 Clouds 11 1027 75 7000 0.45 145 07:38 29.10.2022
1248 Clouds 12 1027 76 8000 1.03 0 05:56 29.10.2022
1249 Clouds 13 1027 76 10000 0.51 0 04:18 29.10.2022
1250 Clouds 14 1028 78 10000 0.51 0 23:42 28.10.2022
1251 Clouds 14 1028 84 10000 1.03 120 20:56 28.10.2022
1252 Clear 16 1027 82 10000 0.51 130 19:29 28.10.2022
1253 Clear 18 1026 74 10000 2.06 100 18:31 28.10.2022
1254 Clouds 21 1027 65 10000 1.34 235 15:37 28.10.2022
1255 Clouds 21 1027 62 10000 1.54 190 14:44 28.10.2022
1256 Clouds 20 1028 65 10000 2.06 140 12:58 28.10.2022
1257 Clear 16 1028 75 10000 1.34 281 11:35 28.10.2022
1258 Clear 15 1029 69 10000 1.03 200 10:59 28.10.2022
1259 Clouds 13 1028 81 10000 0.45 188 09:48 28.10.2022
1260 Clouds 11 1028 89 10000 0 0 08:29 28.10.2022
1261 Fog 11 1028 89 10000 0.89 188 03:51 28.10.2022
1262 Fog 11 1028 89 10000 0.89 188 03:51 28.10.2022
1263 Fog 11 1028 89 10000 0.89 188 03:51 28.10.2022
1264 Fog 11 1028 89 10000 0.89 188 03:51 28.10.2022
1265 Clouds 12 1028 86 7000 1.03 330 23:49 27.10.2022
1266 Clouds 12 1028 90 10000 0.51 0 22:58 27.10.2022
1267 Clouds 13 1028 91 10000 0.51 0 21:56 27.10.2022
1268 Clear 14 1028 82 10000 0.51 0 20:30 27.10.2022
1269 Clear 14 1028 82 10000 0.51 0 20:30 27.10.2022
1270 Clear 16 1027 80 10000 1.03 280 18:23 27.10.2022
1271 Clear 19 1027 66 10000 1.54 280 14:52 27.10.2022
1272 Clear 15 1028 77 10000 1.03 0 11:33 27.10.2022
1273 Clear 10 1027 90 10000 0.89 173 07:30 27.10.2022
1274 Clouds 12 1026 92 10000 0.51 0 00:22 27.10.2022
1275 Clouds 12 1026 92 10000 1.03 0 23:49 26.10.2022
1276 Clouds 13 1026 91 10000 2.06 90 22:38 26.10.2022
1277 Clear 14 1025 85 10000 2.57 80 20:36 26.10.2022
1278 Clear 18 1023 85 10000 1.54 170 17:36 26.10.2022
1279 Clear 20 1025 65 10000 1.79 311 14:53 26.10.2022
1280 Clear 17 1023 78 10000 1.54 230 12:52 26.10.2022
1281 Clear 16 1023 83 10000 0.51 0 11:35 26.10.2022
1282 Clouds 12 1022 92 10000 1.54 240 09:19 26.10.2022
1283 Clouds 12 1022 92 10000 1.54 260 08:51 26.10.2022
1284 Drizzle 12 1019 93 3900 1.03 50 00:51 26.10.2022
1285 Drizzle 12 1019 93 3900 1.03 50 00:30 26.10.2022
1286 Clouds 12 1019 93 5000 1.03 0 22:23 25.10.2022
1287 Fog 12 1019 92 1000 1.03 330 21:44 25.10.2022
1288 Clouds 12 1019 92 6000 1.79 16 20:27 25.10.2022
1289 Clouds 13 1020 91 10000 3.09 300 18:52 25.10.2022
1290 Clear 17 1020 73 10000 3.09 300 15:48 25.10.2022
1291 Clouds 13 1021 89 10000 1.03 0 11:41 25.10.2022
1292 Clouds 12 1022 92 10000 2.06 90 10:47 25.10.2022
1293 Clouds 12 1022 93 10000 2.06 90 10:29 25.10.2022
1294 Clouds 10 1022 94 10000 2.06 100 08:38 25.10.2022
1295 Clouds 10 1022 93 10000 2.57 110 08:18 25.10.2022
1296 Clouds 10 1022 94 10000 3.09 120 07:44 25.10.2022
1297 Clouds 10 1022 94 10000 3.6 120 06:43 25.10.2022
1298 Clouds 11 1022 93 10000 2.06 100 03:28 25.10.2022
1299 Fog 11 1021 92 1100 1.54 0 00:32 25.10.2022
1300 Fog 11 1020 93 400 1.03 0 22:26 24.10.2022
1301 Fog 11 1020 91 10000 0.51 0 21:37 24.10.2022
1302 Clouds 11 1020 92 10000 1.54 0 20:49 24.10.2022
1303 Clouds 12 1020 92 10000 1.54 0 20:19 24.10.2022
1304 Rain 13 1019 92 10000 3.09 110 17:53 24.10.2022
1305 Rain 13 1019 93 10000 1.54 0 16:54 24.10.2022
1306 Rain 13 1020 92 10000 4.12 160 15:24 24.10.2022
1307 Rain 13 1019 91 10000 4.02 235 14:18 24.10.2022
1308 Rain 14 1018 94 10000 2.57 320 12:26 24.10.2022
1309 Rain 14 1017 93 10000 2.06 250 09:18 24.10.2022
1310 Rain 15 1018 82 10000 6.17 190 03:21 24.10.2022
1311 Rain 16 1018 81 10000 9.77 250 22:29 23.10.2022
1312 Rain 15 1018 89 10000 4.63 310 20:38 23.10.2022
1313 Clouds 16 1015 84 10000 1.54 80 18:37 23.10.2022
1314 Rain 18 1015 72 10000 1.54 0 17:28 23.10.2022
1315 Clouds 19 1016 64 10000 1.03 0 15:40 23.10.2022
1316 Clouds 19 1015 64 10000 1.54 0 14:52 23.10.2022
1317 Clear 14 1018 80 10000 1.54 0 11:27 23.10.2022
1318 Clear 12 1018 79 10000 2.06 200 09:55 23.10.2022
1319 Clouds 10 1018 91 10000 0.89 109 04:40 23.10.2022
1320 Clear 13 1019 89 10000 2.06 100 22:49 22.10.2022
1321 Clear 13 1019 89 10000 2.06 100 21:43 22.10.2022
1322 Clear 14 1019 89 10000 2.06 110 20:57 22.10.2022
1323 Clear 14 1019 88 10000 1.54 140 19:57 22.10.2022
1324 Clear 15 1019 88 10000 1.03 90 19:30 22.10.2022
1325 Clear 18 1019 78 10000 1.54 200 17:39 22.10.2022
1326 Clouds 19 1019 70 10000 1.54 270 15:58 22.10.2022
1327 Clear 18 1020 72 10000 1.34 313 14:47 22.10.2022
1328 Clouds 18 1020 78 10000 2.06 310 13:57 22.10.2022
1329 Clouds 14 1020 91 10000 1.54 100 10:34 22.10.2022
1330 Clouds 13 1020 92 10000 0.51 0 09:40 22.10.2022
1331 Rain 13 1019 91 10000 2.06 120 08:37 22.10.2022
1332 Rain 14 1018 90 5000 2.24 139 04:21 22.10.2022
1333 Rain 14 1018 92 6000 1.54 300 00:18 22.10.2022
1334 Rain 14 1015 90 3900 1.03 0 21:41 21.10.2022
1335 Rain 14 1015 90 3900 1.03 0 21:41 21.10.2022
1336 Rain 15 1016 91 8000 0.51 0 21:23 21.10.2022
1337 Rain 15 1016 91 8000 0.51 0 19:56 21.10.2022
1338 Rain 16 1016 85 10000 1.54 140 17:20 21.10.2022
1339 Clouds 16 1016 88 10000 0.45 109 14:30 21.10.2022
1340 Rain 16 1017 91 10000 1.03 0 13:22 21.10.2022
1341 Clouds 14 1017 92 10000 1.34 109 11:33 21.10.2022
1342 Rain 14 1017 90 7000 3.09 330 10:21 21.10.2022
1343 Clouds 14 1015 91 7000 2.57 130 08:39 21.10.2022
1344 Rain 14 1014 91 5000 1.03 0 07:47 21.10.2022
1345 Mist 14 1017 90 3500 1.03 0 02:30 21.10.2022
1346 Mist 14 1017 87 4300 2.06 310 22:32 20.10.2022
1347 Clouds 15 1018 87 7000 2.06 150 20:48 20.10.2022
1348 Rain 16 1018 86 4900 2.06 130 19:40 20.10.2022
1349 Clouds 17 1018 80 10000 3.09 150 17:54 20.10.2022
1350 Clouds 17 1018 79 10000 3.09 150 17:33 20.10.2022
1351 Clouds 16 1018 92 10000 2.57 130 13:22 20.10.2022
1352 Clouds 15 1019 93 10000 3.09 150 12:28 20.10.2022
1353 Clouds 14 1020 91 5000 0 0 11:23 20.10.2022
1354 Clouds 14 1020 88 5000 1.54 340 10:50 20.10.2022
1355 Mist 12 1019 90 2800 1.34 192 08:22 20.10.2022
1356 Fog 12 1020 90 800 1.03 170 05:45 20.10.2022
1357 Fog 12 1021 89 600 2.57 140 01:52 20.10.2022
1358 Fog 12 1022 87 4500 1.03 0 22:46 19.10.2022
1359 Fog 13 1022 85 4400 0.51 0 21:58 19.10.2022
1360 Clouds 13 1022 86 6000 0.51 0 21:18 19.10.2022
1361 Clear 15 1022 79 10000 1.54 260 18:51 19.10.2022
1362 Clear 17 1022 76 10000 2.57 310 17:38 19.10.2022
1363 Clouds 18 1021 71 9000 4.63 300 15:58 19.10.2022
1364 Clouds 18 1023 64 10000 4.63 310 13:53 19.10.2022
1365 Clouds 12 1026 81 10000 0 0 09:42 19.10.2022
1366 Fog 10 1025 85 200 0 0 08:35 19.10.2022
1367 Clouds 10 1026 84 10000 0.51 0 06:30 19.10.2022
1368 Clear 13 1027 84 10000 0.51 0 01:26 19.10.2022
1369 Clear 14 1027 84 10000 0.51 0 23:19 18.10.2022
1370 Clear 15 1028 81 10000 1.54 150 21:45 18.10.2022
1371 Clear 15 1028 80 10000 0.51 0 20:59 18.10.2022
1372 Clear 16 1028 76 10000 0.89 49 20:18 18.10.2022
1373 Clouds 20 1028 64 10000 2.57 320 17:48 18.10.2022
1374 Clouds 21 1028 55 10000 1.03 0 16:52 18.10.2022
1375 Clear 21 1029 59 10000 2.24 215 14:32 18.10.2022
1376 Clear 20 1030 64 10000 1.79 314 12:34 18.10.2022
1377 Clouds 18 1030 69 10000 2.06 120 11:22 18.10.2022
1378 Clouds 15 1030 82 10000 0.51 0 09:58 18.10.2022
1379 Clouds 12 1030 80 10000 1.24 170 07:57 18.10.2022
1380 Clouds 13 1029 82 10000 2.57 90 03:45 18.10.2022
1381 Clouds 14 1029 82 10000 1.03 120 22:37 17.10.2022
1382 Clear 15 1028 79 10000 0.51 0 20:55 17.10.2022
1383 Clouds 16 1029 76 10000 1.14 179 20:32 17.10.2022
1384 Clear 16 1028 75 10000 1.54 0 19:52 17.10.2022
1385 Clear 19 1026 68 10000 1.03 210 18:52 17.10.2022
1386 Clear 22 1027 54 10000 1.03 0 16:55 17.10.2022
1387 Clouds 22 1027 54 10000 1.03 0 15:29 17.10.2022
1388 Clouds 22 1027 55 10000 1.03 0 15:29 17.10.2022
1389 Clouds 22 1027 54 10000 1.03 0 15:29 17.10.2022
1390 Clear 21 1027 57 10000 2.06 280 14:35 17.10.2022
1391 Clear 18 1028 69 10000 2.06 150 11:52 17.10.2022
1392 Clouds 11 1026 82 10000 2.06 110 06:41 17.10.2022
1393 Clouds 14 1024 80 10000 2.57 90 23:33 16.10.2022
1394 Clouds 14 1023 82 10000 2.57 90 21:56 16.10.2022
1395 Clear 16 1022 79 10000 3.6 100 20:47 16.10.2022
1396 Clear 16 1022 75 10000 2.57 110 19:46 16.10.2022
1397 Clear 20 1020 52 10000 1.54 0 17:58 16.10.2022
1398 Clear 21 1021 51 10000 1.54 0 17:33 16.10.2022
1399 Clear 22 1020 53 10000 1.79 281 15:58 16.10.2022
1400 Clear 22 1020 56 10000 2.24 306 14:33 16.10.2022
1401 Clear 19 1021 63 10000 2.06 150 12:23 16.10.2022
1402 Clear 14 1021 76 10000 1.54 130 10:27 16.10.2022
1403 Clear 13 1019 82 10000 2.06 80 08:47 16.10.2022
1404 Clouds 14 1018 82 10000 2.06 90 02:24 16.10.2022
1405 Clear 13 1018 84 10000 3.09 100 23:41 15.10.2022
1406 Clear 14 1016 80 10000 4.12 100 21:26 15.10.2022
1407 Clear 15 1016 79 10000 3.09 100 20:56 15.10.2022
1408 Clear 17 1014 72 10000 4.63 260 18:50 15.10.2022
1409 Clouds 20 1015 66 10000 4.92 281 15:49 15.10.2022
1410 Clouds 20 1015 63 10000 4.92 230 15:31 15.10.2022
1411 Clouds 17 1017 78 10000 3.58 265 11:58 15.10.2022
1412 Clouds 16 1016 83 10000 4.02 262 11:18 15.10.2022
1413 Clouds 14 1016 86 10000 3.13 268 08:55 15.10.2022
1414 Drizzle 15 1016 88 10000 2.57 90 03:40 15.10.2022
1415 Clouds 15 1016 90 10000 3.13 233 00:24 15.10.2022
1416 Rain 14 1017 90 10000 0.89 139 22:24 14.10.2022
1417 Clouds 14 1017 90 10000 1.03 0 21:36 14.10.2022
1418 Rain 14 1017 88 10000 2.24 232 20:25 14.10.2022
1419 Rain 16 1018 84 10000 4.02 267 16:59 14.10.2022
1420 Clouds 16 1018 83 10000 5.36 225 14:25 14.10.2022
1421 Clouds 15 1019 88 10000 1.79 275 12:44 14.10.2022
1422 Clouds 13 1019 91 10000 2.57 110 09:46 14.10.2022
1423 Clouds 12 1019 92 10000 2.06 120 07:57 14.10.2022
1424 Clouds 12 1019 92 10000 1.54 90 06:18 14.10.2022
1425 Drizzle 12 1020 91 10000 2.57 90 05:49 14.10.2022
1426 Rain 12 1020 91 10000 2.06 90 05:31 14.10.2022
1427 Clouds 13 1022 90 10000 2.06 100 00:53 14.10.2022
1428 Clouds 13 1021 91 10000 2.57 120 22:32 13.10.2022
1429 Clouds 13 1021 90 10000 1.03 0 21:29 13.10.2022
1430 Clouds 13 1021 88 10000 1.54 100 20:19 13.10.2022
1431 Rain 14 1021 87 10000 1.54 0 19:38 13.10.2022
1432 Rain 14 1021 83 10000 1.79 147 18:43 13.10.2022
1433 Clouds 16 1021 80 10000 0.51 0 17:24 13.10.2022
1434 Clouds 16 1021 79 10000 0.89 300 15:48 13.10.2022
1435 Clouds 16 1022 80 10000 1.03 0 14:25 13.10.2022
1436 Clouds 15 1023 83 10000 1.03 0 12:50 13.10.2022
1437 Clouds 14 1023 86 10000 1.03 0 11:36 13.10.2022
1438 Clouds 12 1023 88 10000 0.62 234 09:46 13.10.2022
1439 Clear 10 1023 87 10000 3.09 80 08:32 13.10.2022
1440 Clouds 11 1023 86 10000 3.09 90 07:35 13.10.2022
1441 Mist 10 1024 88 4100 0 0 01:53 13.10.2022
1442 Fog 10 1024 87 2900 0.51 0 00:57 13.10.2022
1443 Fog 11 1024 87 10000 1.03 110 22:47 12.10.2022
1444 Fog 11 1024 86 200 0.51 0 22:28 12.10.2022
1445 Mist 12 1024 86 3500 0.51 0 21:22 12.10.2022
1446 Mist 12 1024 84 3900 0.51 0 20:52 12.10.2022
1447 Clear 14 1023 80 10000 1.03 0 19:30 12.10.2022
1448 Clear 16 1023 72 10000 2.06 300 18:26 12.10.2022
1449 Clear 17 1023 79 10000 2.06 310 17:47 12.10.2022
1450 Clear 17 1023 79 10000 2.06 310 17:47 12.10.2022
1451 Clouds 18 1023 65 10000 2.06 270 15:40 12.10.2022
1452 Clouds 16 1023 83 10000 2.57 300 13:57 12.10.2022
1453 Clouds 16 1024 82 10000 2.57 290 13:22 12.10.2022
1454 Clouds 13 1024 89 8000 1.54 330 09:41 12.10.2022
1455 Clouds 12 1024 89 5000 0.51 0 07:58 12.10.2022
1456 Clouds 12 1024 89 5000 0.51 0 07:38 12.10.2022
1457 Clouds 12 1024 89 6000 1.54 290 06:43 12.10.2022
1458 Fog 12 1023 87 300 0 0 00:58 12.10.2022
1459 Clouds 13 1023 83 10000 1.34 58 22:19 11.10.2022
1460 Clouds 14 1023 81 10000 1.03 0 20:40 11.10.2022
1461 Clouds 15 1023 76 10000 1.54 0 19:21 11.10.2022
1462 Clouds 19 1022 69 10000 4.02 37 16:49 11.10.2022
1463 Clouds 19 1022 69 10000 4.02 37 16:49 11.10.2022
1464 Clouds 18 1023 71 10000 4.12 310 14:36 11.10.2022
1465 Clouds 17 1024 72 10000 1.79 40 12:53 11.10.2022
1466 Clouds 12 1024 90 10000 0.51 0 10:29 11.10.2022
1467 Clouds 11 1024 89 10000 0 0 09:30 11.10.2022
1468 Clouds 10 1023 89 10000 0.51 0 06:46 11.10.2022
1469 Clouds 12 1023 88 10000 3.09 100 02:26 11.10.2022
1470 Clouds 13 1023 86 10000 0.51 0 00:31 11.10.2022
1471 Clear 13 1022 85 10000 1.03 0 21:37 10.10.2022
1472 Clear 15 1021 80 10000 0.51 0 19:56 10.10.2022
1473 Clear 18 1020 70 10000 1.54 210 18:33 10.10.2022
1474 Clouds 20 1020 66 10000 1.03 140 16:58 10.10.2022
1475 Clouds 19 1021 68 10000 2.24 265 15:24 10.10.2022
1476 Clouds 17 1021 76 10000 1.34 288 12:54 10.10.2022
1477 Clouds 15 1021 84 10000 3.13 279 11:56 10.10.2022
1478 Clouds 12 1020 91 10000 1.03 0 08:58 10.10.2022
1479 Clouds 12 1020 89 9000 0.51 0 05:43 10.10.2022
1480 Clouds 11 1020 88 8000 0.51 130 04:39 10.10.2022
1481 Clouds 11 1020 88 7000 0.51 0 00:33 10.10.2022
1482 Clouds 12 1020 86 10000 0.51 0 22:51 09.10.2022
1483 Clouds 12 1020 86 10000 0.51 0 22:18 09.10.2022
1484 Clouds 12 1020 85 10000 1.03 300 21:22 09.10.2022
1485 Clouds 13 1020 83 10000 1.03 310 20:23 09.10.2022
1486 Clouds 13 1020 80 10000 1.03 310 19:45 09.10.2022
1487 Clouds 14 1019 77 10000 1.34 312 18:43 09.10.2022
1488 Clouds 15 1020 74 10000 2.06 260 16:56 09.10.2022
1489 Clouds 15 1020 75 10000 2.06 260 16:37 09.10.2022
1490 Clouds 15 1020 75 10000 1.54 260 15:38 09.10.2022
1491 Clouds 14 1021 77 10000 1.54 0 14:31 09.10.2022
1492 Clouds 14 1021 78 10000 2.57 270 13:34 09.10.2022
1493 Clouds 14 1022 81 10000 2.06 300 12:35 09.10.2022
1494 Clouds 11 1022 85 10000 2.57 290 10:49 09.10.2022
1495 Clouds 10 1022 88 10000 2.06 300 08:31 09.10.2022
1496 Fog 10 1022 88 10000 2.24 49 03:40 09.10.2022
1497 Clouds 11 1023 85 10000 1.79 58 02:53 09.10.2022
1498 Clouds 12 1024 87 10000 2.68 43 00:39 09.10.2022
1499 Clouds 13 1024 82 10000 2.68 51 22:58 08.10.2022
1500 Clouds 13 1024 83 10000 2.68 67 22:19 08.10.2022
1501 Clouds 14 1024 83 10000 1.79 58 20:31 08.10.2022
1502 Clouds 15 1023 83 10000 1.79 67 18:57 08.10.2022
1503 Clouds 16 1023 86 10000 2.68 33 17:33 08.10.2022
1504 Clouds 16 1023 85 10000 0.51 0 15:26 08.10.2022
1505 Clouds 16 1024 88 8000 0.89 244 13:31 08.10.2022
1506 Rain 14 1023 88 8000 1.54 110 10:48 08.10.2022
1507 Rain 14 1023 88 9000 1.03 190 10:24 08.10.2022
1508 Rain 13 1022 88 10000 0 0 08:49 08.10.2022
1509 Clouds 13 1022 86 10000 0.51 0 04:46 08.10.2022
1510 Clouds 14 1023 85 9000 0.89 219 00:58 08.10.2022
1511 Clouds 14 1023 84 9000 0.51 0 23:39 07.10.2022
1512 Clouds 14 1023 83 9000 1.03 0 23:20 07.10.2022
1513 Clouds 15 1023 82 10000 0.51 0 21:40 07.10.2022
1514 Clouds 16 1023 80 10000 0.51 0 19:51 07.10.2022
1515 Clear 19 1023 72 10000 1.03 0 17:54 07.10.2022
1516 Clear 20 1023 68 10000 1.54 280 16:42 07.10.2022
1517 Clear 20 1024 67 10000 2.24 286 15:25 07.10.2022
1518 Clouds 18 1026 69 10000 1.79 279 13:55 07.10.2022
1519 Clouds 15 1027 84 10000 1.54 140 11:29 07.10.2022
1520 Clouds 12 1028 90 5000 2.06 110 09:25 07.10.2022
1521 Clouds 11 1028 89 6000 2.06 110 08:21 07.10.2022
1522 Clear 11 1029 86 10000 0.54 138 02:52 07.10.2022
1523 Clear 13 1030 80 10000 0.89 55 22:54 06.10.2022
1524 Clear 14 1030 78 10000 0.45 55 21:57 06.10.2022
1525 Clear 14 1030 77 10000 1.34 55 21:36 06.10.2022
1526 Clouds 15 1030 74 10000 1.54 320 20:39 06.10.2022
1527 Clouds 18 1029 67 10000 3.13 84 18:56 06.10.2022
1528 Clouds 18 1029 59 10000 3.58 35 18:32 06.10.2022
1529 Clouds 20 1030 57 10000 3.6 330 15:38 06.10.2022
1530 Clear 19 1031 64 10000 1.79 38 12:59 06.10.2022
1531 Clear 12 1032 83 10000 2.57 100 09:27 06.10.2022
1532 Clear 10 1030 82 10000 0.51 0 04:42 06.10.2022
1533 Clear 12 1029 80 10000 1.34 180 01:47 06.10.2022
1534 Clear 13 1027 78 10000 1.03 0 21:59 05.10.2022
1535 Clear 16 1025 59 10000 1.72 191 19:45 05.10.2022
1536 Clear 21 1024 48 10000 3.09 280 17:37 05.10.2022
1537 Clear 22 1024 50 10000 3.13 256 16:45 05.10.2022
1538 Clear 21 1024 57 10000 3.13 263 14:59 05.10.2022
1539 Clear 21 1024 59 10000 2.68 265 14:37 05.10.2022
1540 Clear 18 1025 66 10000 1.34 286 12:45 05.10.2022
1541 Clear 16 1025 71 10000 0 0 11:45 05.10.2022
1542 Clear 9 1025 83 10000 1.03 0 08:25 05.10.2022
1543 Clear 9 1025 84 10000 1.03 0 07:19 05.10.2022
1544 Clouds 9 1025 84 10000 0.51 0 05:31 05.10.2022
1545 Clouds 10 1025 87 10000 1.03 0 02:31 05.10.2022
1546 Clear 11 1026 86 10000 0.51 0 00:28 05.10.2022
1547 Clear 11 1025 86 10000 3.09 90 23:22 04.10.2022
1548 Clear 13 1024 84 10000 2.06 90 21:25 04.10.2022
1549 Clear 14 1024 87 10000 1.54 90 19:56 04.10.2022
1550 Clear 16 1022 84 10000 0 0 18:55 04.10.2022
1551 Clear 18 1023 71 10000 2.06 200 17:57 04.10.2022
1552 Clear 19 1023 64 10000 1.03 0 16:56 04.10.2022
1553 Clear 18 1024 67 10000 1.54 0 14:31 04.10.2022
1554 Clouds 13 1024 87 10000 3.09 130 10:23 04.10.2022
1555 Clouds 11 1023 94 10000 1.54 120 08:28 04.10.2022
1556 Clouds 11 1023 93 10000 0.51 0 04:48 04.10.2022
1557 Clouds 11 1025 91 10000 1.03 300 23:59 03.10.2022
1558 Clouds 11 1025 90 10000 0 0 22:45 03.10.2022
1559 Clouds 12 1025 84 10000 1.03 0 21:30 03.10.2022
1560 Clouds 12 1025 82 10000 1.03 0 20:36 03.10.2022
1561 Clouds 14 1025 78 10000 3.58 29 18:52 03.10.2022
1562 Clouds 15 1025 78 10000 4.47 22 17:32 03.10.2022
1563 Clouds 16 1025 78 10000 4.92 21 15:59 03.10.2022
1564 Clouds 16 1026 81 10000 4.47 17 14:30 03.10.2022
1565 Clouds 15 1026 90 10000 2.68 105 12:46 03.10.2022
1566 Clouds 14 1027 92 10000 3.58 20 11:21 03.10.2022
1567 Clouds 13 1027 93 7000 2.68 44 09:56 03.10.2022
1568 Mist 12 1026 93 1500 0.51 0 08:46 03.10.2022
1569 Clouds 13 1026 91 10000 1.54 100 04:41 03.10.2022
1570 Rain 14 1026 90 10000 1.34 224 23:27 02.10.2022
1571 Clouds 14 1026 89 10000 4.63 280 22:19 02.10.2022
1572 Clouds 15 1024 80 10000 3.6 260 19:52 02.10.2022
1573 Clouds 18 1024 66 10000 7.15 263 17:56 02.10.2022
1574 Clouds 18 1023 72 10000 7.6 275 16:57 02.10.2022
1575 Clouds 18 1023 73 10000 7.15 269 16:32 02.10.2022
1576 Clouds 19 1023 73 10000 7.15 249 15:34 02.10.2022
1577 Clouds 19 1024 79 10000 5.81 277 13:46 02.10.2022
1578 Clouds 17 1024 83 10000 6.26 270 12:42 02.10.2022
1579 Clouds 17 1024 83 10000 4.47 212 12:20 02.10.2022
1580 Clouds 17 1024 85 10000 4.02 240 11:34 02.10.2022
1581 Clouds 15 1024 92 10000 1.79 253 10:19 02.10.2022
1582 Clouds 14 1025 92 10000 2.06 100 08:30 02.10.2022
1583 Clouds 14 1025 92 10000 2.06 100 08:30 02.10.2022
1584 Clouds 14 1025 92 10000 2.68 245 05:21 02.10.2022
1585 Clouds 14 1024 90 10000 3.58 231 01:29 02.10.2022
1586 Clouds 14 1024 93 10000 2.68 249 00:38 02.10.2022
1587 Clouds 14 1023 92 10000 2.68 273 23:29 01.10.2022
1588 Clouds 14 1022 86 6000 4.92 268 21:58 01.10.2022
1589 Rain 12 1020 93 4000 3.13 208 19:21 01.10.2022
1590 Rain 12 1019 92 7000 0.89 30 17:46 01.10.2022
1591 Rain 11 1019 91 4000 2.68 257 15:32 01.10.2022
1592 Rain 12 1018 87 10000 5.81 261 14:18 01.10.2022
1593 Clouds 12 1018 85 10000 4.02 232 12:35 01.10.2022
1594 Rain 11 1018 87 10000 2.68 237 11:23 01.10.2022
1595 Rain 11 1017 87 10000 3.58 259 10:53 01.10.2022
1596 Rain 10 1018 89 10000 2.24 272 10:30 01.10.2022
1597 Rain 9 1018 90 10000 3.09 110 09:26 01.10.2022
1598 Rain 9 1017 91 10000 3.13 252 08:39 01.10.2022
1599 Mist 7 1017 93 4400 0.89 248 03:50 01.10.2022
1600 Clouds 7 1017 93 9000 1.54 0 03:22 01.10.2022
1601 Clouds 8 1016 90 10000 1.7 181 23:21 30.09.2022
1602 Fog 8 1016 91 10000 1.34 103 22:19 30.09.2022
1603 Clear 10 1015 89 10000 1.03 90 20:57 30.09.2022
1604 Clouds 11 1015 87 10000 0.51 40 20:20 30.09.2022
1605 Clouds 12 1014 84 10000 1.03 270 18:32 30.09.2022
1606 Clouds 13 1013 79 10000 2.68 40 16:54 30.09.2022
1607 Clouds 13 1012 80 10000 3.13 100 14:49 30.09.2022
1608 Clouds 12 1012 87 10000 2.68 53 12:51 30.09.2022
1609 Clouds 11 1012 91 10000 2.57 290 11:56 30.09.2022
1610 Clouds 9 1010 93 10000 1.03 300 09:25 30.09.2022
1611 Clouds 8 1010 92 10000 1.54 320 07:58 30.09.2022
1612 Clouds 8 1008 93 10000 0.89 219 03:35 30.09.2022
1613 Clouds 8 1008 93 10000 0.51 0 01:45 30.09.2022
1614 Rain 9 1007 93 9000 1.03 220 21:40 29.09.2022
1615 Rain 9 1006 92 10000 0.51 0 21:19 29.09.2022
1616 Rain 10 1005 91 10000 1.03 0 19:56 29.09.2022
1617 Rain 10 1004 89 10000 1.03 290 17:49 29.09.2022
1618 Rain 11 1004 86 10000 1.03 0 16:29 29.09.2022
1619 Rain 11 1003 84 10000 2.06 310 15:37 29.09.2022
1620 Clouds 11 1003 86 10000 1.79 0 14:59 29.09.2022
1621 Drizzle 10 1003 89 10000 1.34 54 12:39 29.09.2022
1622 Rain 9 1002 93 6000 2.06 310 08:45 29.09.2022
1623 Rain 9 1001 93 4500 1.54 90 04:46 29.09.2022
1624 Rain 9 1002 92 10000 1.79 104 02:36 29.09.2022
1625 Rain 9 1003 91 10000 2.06 120 23:21 28.09.2022
1626 Rain 9 1003 92 10000 1.54 0 21:40 28.09.2022
1627 Rain 9 1004 91 10000 1.03 0 21:22 28.09.2022
1628 Rain 9 1003 92 10000 1.34 41 19:56 28.09.2022
1629 Rain 10 1001 91 3500 2.57 300 16:46 28.09.2022
1630 Rain 12 1001 91 10000 2.24 279 14:19 28.09.2022
1631 Rain 11 1001 92 7000 3.09 100 11:45 28.09.2022
1632 Rain 10 1001 92 7000 5.36 275 09:37 28.09.2022
1633 Rain 10 1001 90 5000 4.02 263 07:43 28.09.2022
1634 Rain 9 1001 86 10000 2.24 265 05:48 28.09.2022
1635 Rain 10 1005 76 10000 4.92 272 01:44 28.09.2022
1636 Clouds 10 1007 80 10000 5.36 253 00:36 28.09.2022
1637 Clouds 10 1008 74 10000 5.81 182 22:40 27.09.2022
1638 Rain 10 1008 77 10000 4.92 246 21:20 27.09.2022
1639 Clouds 10 1008 77 10000 4.92 207 20:31 27.09.2022
1640 Rain 10 1007 77 10000 4.47 229 19:40 27.09.2022
1641 Clouds 11 1007 73 10000 4.92 229 17:47 27.09.2022
1642 Clouds 12 1007 70 10000 5.81 243 16:50 27.09.2022
1643 Clouds 12 1007 73 10000 6.26 267 15:18 27.09.2022
1644 Clouds 12 1007 76 10000 6.71 255 13:53 27.09.2022
1645 Clouds 11 1007 79 7000 4.63 300 12:37 27.09.2022
1646 Clouds 11 1007 79 7000 4.63 300 12:37 27.09.2022
1647 Clouds 11 1007 78 10000 6.17 260 10:35 27.09.2022
1648 Clouds 9 1006 84 10000 4.12 260 07:55 27.09.2022
1649 Rain 10 1004 85 10000 6.26 244 04:52 27.09.2022
1650 Rain 10 1004 84 10000 5.36 252 01:40 27.09.2022
1651 Rain 10 1005 80 10000 4.92 259 00:23 27.09.2022
1652 Rain 11 1006 80 10000 5.14 280 23:24 26.09.2022
1653 Rain 12 1007 73 10000 3.13 246 21:35 26.09.2022
1654 Clouds 12 1008 73 10000 3.13 236 19:49 26.09.2022
1655 Clouds 13 1008 74 10000 1.79 259 18:55 26.09.2022
1656 Rain 14 1008 68 10000 3.13 269 17:25 26.09.2022
1657 Clouds 14 1009 67 10000 3.13 241 15:25 26.09.2022
1658 Clouds 13 1011 76 10000 2.68 220 12:31 26.09.2022
1659 Clouds 11 1012 87 10000 2.06 100 10:44 26.09.2022
1660 Clouds 11 1012 87 10000 2.06 100 10:23 26.09.2022
1661 Clouds 11 1012 88 10000 2.57 120 09:59 26.09.2022
1662 Clouds 10 1012 89 10000 2.57 90 09:41 26.09.2022
1663 Clouds 10 1012 89 10000 3.09 120 09:20 26.09.2022
1664 Clouds 9 1013 92 10000 1.54 90 05:30 26.09.2022
1665 Clouds 11 1015 89 10000 1.54 110 02:35 26.09.2022
1666 Clouds 11 1016 90 10000 1.54 100 23:24 25.09.2022
1667 Clouds 11 1015 87 10000 1.54 130 21:47 25.09.2022
1668 Clouds 11 1015 87 10000 1.54 130 21:25 25.09.2022
1669 Clouds 11 1015 85 10000 1.79 195 20:36 25.09.2022
1670 Clouds 13 1014 82 10000 3.13 245 18:55 25.09.2022
1671 Clouds 14 1014 82 10000 2.06 290 18:24 25.09.2022
1672 Clouds 14 1014 81 10000 2.57 250 17:23 25.09.2022
1673 Clouds 14 1014 81 10000 2.06 300 16:21 25.09.2022
1674 Clouds 14 1014 85 10000 2.24 274 14:49 25.09.2022
1675 Clouds 13 1014 87 10000 1.79 274 14:18 25.09.2022
1676 Rain 12 1014 92 7000 2.06 130 10:40 25.09.2022
1677 Rain 12 1014 92 10000 2.57 140 09:44 25.09.2022
1678 Rain 11 1014 92 9000 1.54 110 07:42 25.09.2022
1679 Clouds 11 1013 91 10000 2.57 130 05:22 25.09.2022
1680 Clouds 11 1014 92 10000 1.54 0 23:37 24.09.2022
1681 Clouds 12 1014 87 10000 1.54 80 21:20 24.09.2022
1682 Clouds 13 1014 84 10000 2.57 130 19:45 24.09.2022
1683 Clouds 14 1014 81 10000 3.6 150 19:20 24.09.2022
1684 Drizzle 16 1014 79 10000 2.06 140 16:51 24.09.2022
1685 Clouds 15 1014 78 10000 1.34 317 15:29 24.09.2022
1686 Clouds 14 1015 81 10000 0.51 0 14:37 24.09.2022
1687 Rain 14 1015 80 10000 2.24 207 13:22 24.09.2022
1688 Clouds 14 1016 86 10000 1.79 234 12:23 24.09.2022
1689 Rain 13 1016 89 3500 1.03 0 09:59 24.09.2022
1690 Rain 13 1015 89 3000 0.45 205 08:58 24.09.2022
1691 Rain 13 1015 86 3200 1.34 205 07:41 24.09.2022
1692 Rain 13 1015 82 5000 1.54 130 04:55 24.09.2022
1693 Rain 13 1015 87 10000 1.03 0 04:21 24.09.2022
1694 Clouds 14 1017 77 10000 0.51 0 22:58 23.09.2022
1695 Clouds 15 1017 68 10000 1.33 163 21:37 23.09.2022
1696 Clouds 15 1017 70 10000 2.06 250 21:19 23.09.2022
1697 Clouds 15 1017 64 10000 1.03 0 20:43 23.09.2022
1698 Clouds 17 1017 57 10000 0.89 239 19:20 23.09.2022
1699 Clouds 17 1017 57 10000 0.89 239 19:20 23.09.2022
1700 Clear 20 1018 51 10000 4.02 288 16:48 23.09.2022
1701 Clear 17 1020 61 10000 1.79 281 12:52 23.09.2022
1702 Clear 12 1020 83 10000 1.54 110 10:18 23.09.2022
1703 Fog 6 1020 83 10000 0.51 0 07:29 23.09.2022
1704 Clear 9 1020 77 10000 0.89 123 01:21 23.09.2022
1705 Clear 9 1021 79 10000 0.51 0 23:29 22.09.2022
1706 Clear 10 1021 76 10000 0.89 69 22:27 22.09.2022
1707 Clear 11 1021 83 10000 0.51 0 21:24 22.09.2022
1708 Clear 12 1019 80 10000 0.51 0 20:18 22.09.2022
1709 Clear 18 1020 50 10000 2.57 290 18:30 22.09.2022
1710 Clear 17 1021 52 10000 3.09 260 14:48 22.09.2022
1711 Clear 11 1023 78 10000 1.03 0 10:38 22.09.2022
1712 Clear 11 1023 78 10000 1.03 0 10:38 22.09.2022
1713 Clear 9 1023 79 10000 0.51 0 10:18 22.09.2022
1714 Fog 4 1023 82 800 1.03 0 07:48 22.09.2022
1715 Clear 6 1022 74 10000 0.52 113 04:37 22.09.2022
1716 Clear 8 1023 81 10000 0.89 68 23:46 21.09.2022
1717 Clear 8 1022 84 10000 0.51 0 22:26 21.09.2022
1718 Clouds 10 1022 71 10000 0.51 0 20:54 21.09.2022
1719 Clouds 15 1022 43 10000 4.47 46 18:30 21.09.2022
1720 Clear 16 1022 39 10000 4.47 42 17:22 21.09.2022
1721 Clouds 16 1022 42 10000 5.81 18 15:29 21.09.2022
1722 Clouds 15 1022 48 10000 4.92 51 13:39 21.09.2022
1723 Clear 13 1023 60 10000 4.92 47 11:34 21.09.2022
1724 Clear 12 1023 65 10000 3.58 15 10:50 21.09.2022
1725 Clear 9 1024 73 10000 4.47 42 09:38 21.09.2022
1726 Clear 6 1023 80 10000 2.68 54 08:23 21.09.2022
1727 Clouds 8 1023 69 10000 2.24 46 02:52 21.09.2022
1728 Clouds 8 1023 67 10000 2.06 290 02:33 21.09.2022
1729 Clouds 8 1023 68 10000 1.79 74 01:50 21.09.2022
1730 Clouds 9 1023 81 10000 1.54 290 23:50 20.09.2022
1731 Clouds 10 1023 69 10000 1.03 0 21:40 20.09.2022
1732 Clear 12 1024 56 10000 2.24 39 20:26 20.09.2022
1733 Clear 16 1022 43 10000 4.92 23 17:53 20.09.2022
1734 Smoke 16 1022 41 10000 3.58 25 15:18 20.09.2022
1735 Smoke 16 1023 43 10000 3.13 11 13:59 20.09.2022
1736 Smoke 12 1023 61 10000 3.58 35 11:24 20.09.2022
1737 Smoke 6 1023 79 10000 1.34 88 08:30 20.09.2022
1738 Smoke 6 1023 79 10000 1.34 88 08:29 20.09.2022
1739 Clear 6 1023 75 10000 1.14 91 07:32 20.09.2022
1740 Clear 6 1022 78 10000 1.34 69 04:33 20.09.2022
1741 Clouds 8 1022 89 10000 1.03 0 01:28 20.09.2022
1742 Clouds 9 1021 78 10000 1.03 40 22:33 19.09.2022
1743 Clouds 11 1022 66 10000 1.03 0 21:28 19.09.2022
1744 Clouds 12 1021 70 10000 1.03 0 20:39 19.09.2022
1745 Clouds 14 1021 44 10000 3.09 320 18:43 19.09.2022
1746 Clouds 14 1021 44 10000 3.09 320 18:43 19.09.2022
1747 Clouds 16 1021 45 10000 3.58 45 16:37 19.09.2022
1748 Clouds 15 1021 49 10000 4.92 40 13:45 19.09.2022
1749 Clouds 14 1022 57 10000 3.58 47 11:43 19.09.2022
1750 Clear 11 1021 71 10000 0.51 0 09:38 19.09.2022
1751 Clouds 8 1021 77 10000 0.89 155 08:20 19.09.2022
1752 Clouds 11 1020 66 10000 0.51 0 03:28 19.09.2022
1753 Clouds 12 1020 57 10000 2.57 300 23:39 18.09.2022
1754 Clouds 13 1020 56 10000 5.14 270 22:29 18.09.2022
1755 Clear 13 1019 67 10000 0.51 0 20:41 18.09.2022
1756 Clear 15 1019 54 10000 1.34 278 19:26 18.09.2022
1757 Clear 17 1019 47 10000 4.02 272 17:49 18.09.2022
1758 Clear 17 1019 42 10000 4.92 270 16:46 18.09.2022
1759 Clear 16 1020 37 10000 4.47 283 14:40 18.09.2022
1760 Clear 14 1021 51 10000 1.79 248 12:58 18.09.2022
1761 Clear 14 1021 58 10000 1.34 323 11:53 18.09.2022
1762 Clear 5 1021 83 10000 1.03 0 06:57 18.09.2022
1763 Clouds 9 1021 82 10000 2.06 180 01:37 18.09.2022
1764 Clouds 9 1021 87 10000 0.51 0 01:18 18.09.2022
1765 Clouds 8 1021 84 10000 0.89 198 22:55 17.09.2022
1766 Clear 9 1020 74 10000 2.06 320 20:51 17.09.2022
1767 Clouds 12 1020 57 10000 3.6 280 19:30 17.09.2022
1768 Clouds 14 1019 53 10000 4.63 250 17:36 17.09.2022
1769 Clouds 13 1019 58 10000 3.6 270 14:22 17.09.2022
1770 Clouds 12 1019 65 10000 4.12 240 12:44 17.09.2022
1771 Clouds 10 1019 70 10000 2.57 230 10:48 17.09.2022
1772 Clouds 9 1017 78 10000 1.03 0 06:31 17.09.2022
1773 Clouds 9 1016 82 10000 1.34 267 03:55 17.09.2022
1774 Clouds 12 1015 70 10000 2.06 290 23:23 16.09.2022
1775 Clouds 13 1015 67 10000 3.09 290 21:47 16.09.2022
1776 Clouds 14 1014 72 10000 4.12 310 20:42 16.09.2022
1777 Clouds 16 1013 69 10000 3.6 260 18:29 16.09.2022
1778 Clouds 17 1014 67 10000 4.12 280 16:21 16.09.2022
1779 Clouds 17 1013 70 10000 3.6 280 14:44 16.09.2022
1780 Clouds 17 1013 75 10000 4.02 304 12:35 16.09.2022
1781 Clouds 15 1013 86 10000 3.09 270 09:39 16.09.2022
1782 Fog 13 1013 91 8000 1.34 255 07:22 16.09.2022
1783 Clouds 13 1013 91 8000 0.51 0 06:48 16.09.2022
1784 Clouds 14 1013 91 10000 0.51 0 05:43 16.09.2022
1785 Clouds 15 1014 91 10000 1.34 239 01:30 16.09.2022
1786 Clouds 17 1013 89 10000 3.13 246 21:31 15.09.2022
1787 Rain 17 1012 90 10000 1.79 243 20:28 15.09.2022
1788 Rain 17 1012 91 10000 2.57 330 18:57 15.09.2022
1789 Rain 18 1012 88 10000 2.68 263 17:38 15.09.2022
1790 Rain 19 1012 89 10000 2.24 254 17:18 15.09.2022
1791 Rain 18 1013 89 10000 3.58 272 15:22 15.09.2022
1792 Rain 18 1011 91 10000 4.12 150 12:49 15.09.2022
1793 Rain 17 1012 92 10000 2.57 100 11:47 15.09.2022
1794 Rain 16 1012 92 9000 2.24 157 09:43 15.09.2022
1795 Clouds 15 1012 87 10000 1.03 0 05:22 15.09.2022
1796 Clouds 17 1012 85 10000 1.54 0 02:57 15.09.2022
1797 Rain 17 1012 79 6000 4.63 210 22:44 14.09.2022
1798 Clouds 20 1009 64 10000 7.72 280 20:24 14.09.2022
1799 Clouds 22 1008 68 10000 1.03 120 19:32 14.09.2022
1800 Clouds 25 1008 53 10000 5.66 260 17:28 14.09.2022
1801 Clouds 24 1010 48 10000 5.81 250 16:36 14.09.2022
1802 Clouds 23 1010 64 10000 3.58 288 14:46 14.09.2022
1803 Clouds 21 1011 72 10000 3.13 265 12:33 14.09.2022
1804 Clouds 20 1012 75 10000 2.68 259 09:50 14.09.2022
1805 Clouds 18 1011 74 10000 1.34 260 07:47 14.09.2022
1806 Clouds 17 1011 81 10000 1.03 0 06:48 14.09.2022
1807 Clouds 18 1012 76 10000 3.09 100 05:22 14.09.2022
1808 Clouds 19 1012 74 10000 1.03 90 01:53 14.09.2022
1809 Clouds 20 1012 74 10000 0.51 0 01:30 14.09.2022
1810 Rain 20 1012 72 10000 2.57 90 00:52 14.09.2022
1811 Clouds 20 1012 71 10000 1.54 140 23:54 13.09.2022
1812 Clouds 20 1012 71 10000 1.54 140 23:36 13.09.2022
1813 Clouds 20 1012 73 10000 1.03 0 23:18 13.09.2022
1814 Clouds 20 1013 74 10000 2.57 100 22:21 13.09.2022
1815 Clouds 21 1012 71 10000 1.54 100 20:29 13.09.2022
1816 Clouds 25 1012 53 10000 1.54 20 18:21 13.09.2022
1817 Clear 25 1013 49 10000 3.09 290 15:56 13.09.2022
1818 Clouds 26 1012 45 10000 1.54 260 14:47 13.09.2022
1819 Clear 25 1014 47 10000 1.34 34 13:20 13.09.2022
1820 Clear 17 1015 75 10000 0 0 09:23 13.09.2022
1821 Clouds 13 1016 81 10000 1.03 170 06:59 13.09.2022
1822 Clear 15 1016 78 10000 0.51 0 00:30 13.09.2022
1823 Clouds 16 1016 76 10000 1.54 0 22:51 12.09.2022
1824 Clear 17 1016 74 10000 2.06 100 22:18 12.09.2022
1825 Clear 18 1016 69 10000 0.51 0 20:42 12.09.2022
1826 Clear 22 1016 56 10000 0.5 144 18:52 12.09.2022
1827 Clear 25 1016 46 10000 1.03 0 17:25 12.09.2022
1828 Clear 23 1017 48 10000 2.24 263 14:54 12.09.2022
1829 Clear 20 1017 59 10000 0.51 0 11:51 12.09.2022
1830 Clear 16 1019 79 10000 0.45 59 09:57 12.09.2022
1831 Clouds 11 1018 83 10000 0.51 40 04:57 12.09.2022
1832 Clouds 11 1018 78 10000 1.06 161 04:30 12.09.2022
1833 Clear 13 1019 79 10000 0.51 0 23:58 11.09.2022
1834 Clear 14 1018 88 10000 1.03 80 22:43 11.09.2022
1835 Clear 16 1018 76 10000 0.51 0 20:53 11.09.2022
1836 Clear 18 1017 64 10000 1.03 0 20:21 11.09.2022
1837 Clear 20 1019 53 10000 2.68 26 19:26 11.09.2022
1838 Clear 22 1019 37 10000 1.54 20 18:37 11.09.2022
1839 Clear 22 1019 41 10000 2.68 21 16:56 11.09.2022
1840 Clear 22 1020 46 10000 2.06 330 14:56 11.09.2022
1841 Clear 19 1021 56 10000 2.24 28 12:53 11.09.2022
1842 Clear 15 1022 76 10000 2.06 110 09:45 11.09.2022
1843 Clear 11 1021 83 10000 1.03 0 07:43 11.09.2022
1844 Clouds 13 1020 92 10000 1.03 0 02:55 11.09.2022
1845 Clouds 15 1021 76 10000 1.03 100 23:27 10.09.2022
1846 Clouds 15 1021 70 10000 0.45 279 21:33 10.09.2022
1847 Clouds 16 1020 64 10000 2.57 270 19:56 10.09.2022
1848 Clouds 17 1020 59 10000 2.57 270 19:37 10.09.2022
1849 Clouds 17 1020 63 10000 3.6 280 19:19 10.09.2022
1850 Clouds 18 1020 59 10000 5.14 270 16:58 10.09.2022
1851 Clouds 19 1020 63 10000 4.02 270 15:28 10.09.2022
1852 Clouds 18 1020 69 10000 4.63 290 12:55 10.09.2022
1853 Clouds 17 1020 72 10000 4.02 265 11:36 10.09.2022
1854 Clouds 15 1020 83 10000 2.24 240 10:25 10.09.2022
1855 Rain 14 1020 84 10000 4.02 262 08:37 10.09.2022
1856 Rain 14 1019 84 10000 2.57 110 07:57 10.09.2022
1857 Clouds 13 1019 85 10000 1.03 0 02:54 10.09.2022
1858 Rain 13 1020 79 10000 0.89 194 23:35 09.09.2022
1859 Rain 14 1020 79 10000 7.2 280 22:21 09.09.2022
1860 Rain 15 1018 79 10000 1.03 0 20:48 09.09.2022
1861 Clouds 16 1018 67 10000 8.75 290 19:25 09.09.2022
1862 Rain 17 1018 62 10000 8.75 290 18:55 09.09.2022
1863 Clouds 21 1017 44 10000 7.6 268 16:34 09.09.2022
1864 Clouds 21 1017 51 10000 5.66 250 14:27 09.09.2022
1865 Clouds 20 1017 57 10000 6.17 310 12:56 09.09.2022
1866 Rain 17 1017 81 10000 1.79 290 10:23 09.09.2022
1867 Clouds 14 1017 87 10000 2.06 100 07:18 09.09.2022
1868 Clear 14 1017 77 10000 1.47 186 03:28 09.09.2022
1869 Clouds 14 1016 78 10000 0.51 0 22:19 08.09.2022
1870 Clear 15 1016 72 10000 0.51 0 21:43 08.09.2022
1871 Clouds 16 1016 66 10000 0.51 0 20:46 08.09.2022
1872 Clouds 18 1015 61 10000 2.06 280 20:21 08.09.2022
1873 Clouds 21 1015 45 10000 5.66 280 18:34 08.09.2022
1874 Clouds 23 1015 46 10000 5.14 270 16:38 08.09.2022
1875 Clouds 22 1015 50 10000 4.92 261 14:42 08.09.2022
1876 Clouds 21 1017 60 10000 5.81 251 13:27 08.09.2022
1877 Clear 21 1016 60 10000 6.69 280 12:33 08.09.2022
1878 Clouds 18 1016 80 10000 4.02 214 10:58 08.09.2022
1879 Clouds 16 1016 90 10000 1.03 160 09:20 08.09.2022
1880 Clouds 15 1015 89 10000 2.24 221 06:43 08.09.2022
1881 Rain 16 1016 90 4900 1.54 70 02:37 08.09.2022
1882 Rain 16 1016 90 6000 2.57 300 02:19 08.09.2022
1883 Rain 16 1016 91 10000 2.57 290 01:58 08.09.2022
1884 Thunderstorm 17 1016 87 10000 5.66 170 22:55 07.09.2022
1885 Rain 18 1014 85 10000 1.03 0 21:43 07.09.2022
1886 Rain 18 1014 84 10000 4.12 110 21:18 07.09.2022
1887 Clouds 20 1015 68 10000 3.13 90 19:54 07.09.2022
1888 Clouds 23 1011 74 10000 1.67 43 18:39 07.09.2022
1889 Clouds 25 1016 62 10000 3.6 310 14:56 07.09.2022
1890 Clouds 21 1019 82 10000 1.54 110 10:50 07.09.2022
1891 Clouds 19 1019 89 10000 2.06 120 09:52 07.09.2022
1892 Fog 15 1019 86 8000 1.54 0 07:36 07.09.2022
1893 Clouds 16 1019 84 9000 1.54 180 03:34 07.09.2022
1894 Clouds 17 1019 83 6000 1.54 130 00:25 07.09.2022
1895 Rain 19 1019 78 10000 2.57 320 21:45 06.09.2022
1896 Clouds 19 1018 78 10000 2.06 210 21:24 06.09.2022
1897 Clouds 23 1018 62 10000 2.06 280 18:53 06.09.2022
1898 Clear 24 1017 50 10000 2.06 330 18:23 06.09.2022
1899 Clouds 25 1018 54 10000 1.54 0 17:23 06.09.2022
1900 Clouds 25 1018 57 10000 1.03 0 16:38 06.09.2022
1901 Clouds 22 1020 68 10000 2.06 60 15:23 06.09.2022
1902 Clouds 21 1020 83 10000 5.66 300 13:45 06.09.2022
1903 Rain 20 1021 63 10000 3.6 300 13:25 06.09.2022
1904 Thunderstorm 22 1022 62 9000 4.12 220 12:31 06.09.2022
1905 Clouds 21 1021 65 10000 3.09 110 10:45 06.09.2022
1906 Clouds 18 1021 79 10000 1.54 0 08:50 06.09.2022
1907 Clouds 17 1021 80 10000 2.06 80 07:49 06.09.2022
1908 Clouds 17 1021 78 10000 2.06 100 03:41 06.09.2022
1909 Clear 18 1021 76 10000 2.57 90 23:28 05.09.2022
1910 Clear 19 1021 70 10000 2.06 80 22:29 05.09.2022
1911 Clear 21 1020 68 10000 0.51 0 20:43 05.09.2022
1912 Clear 25 1020 46 10000 1.03 0 19:26 05.09.2022
1913 Clear 26 1020 43 10000 1.03 0 18:46 05.09.2022
1914 Clear 28 1020 44 10000 1.03 0 18:21 05.09.2022
1915 Clouds 28 1021 39 10000 1.79 331 16:43 05.09.2022
1916 Clear 27 1022 43 10000 2.06 320 15:50 05.09.2022
1917 Clear 25 1022 48 10000 3.13 327 13:26 05.09.2022
1918 Clouds 24 1023 51 10000 2.68 338 12:28 05.09.2022
1919 Clouds 20 1024 67 10000 3.58 315 10:18 05.09.2022
1920 Rain 15 1023 83 10000 0.51 0 06:42 05.09.2022
1921 Clouds 16 1023 79 10000 0.51 0 02:42 05.09.2022
1922 Clear 17 1022 77 10000 0.51 0 23:26 04.09.2022
1923 Clear 18 1022 75 10000 1.03 0 22:27 04.09.2022
1924 Clear 19 1021 68 10000 0.51 0 21:31 04.09.2022
1925 Clear 24 1021 45 10000 0.51 0 19:38 04.09.2022
1926 Clear 26 1021 47 10000 2.06 320 18:19 04.09.2022
1927 Clear 25 1021 44 10000 2.57 280 16:44 04.09.2022
1928 Clouds 25 1021 50 10000 2.06 310 14:33 04.09.2022
1929 Clouds 24 1021 53 10000 2.24 324 13:49 04.09.2022
1930 Clouds 23 1021 63 10000 1.03 0 11:54 04.09.2022
1931 Clouds 20 1022 79 10000 2.06 120 10:47 04.09.2022
1932 Clear 15 1022 89 10000 0.89 157 08:20 04.09.2022
1933 Clear 14 1020 85 10000 1.06 159 05:35 04.09.2022
1934 Clear 16 1018 87 10000 2.57 60 00:50 04.09.2022
1935 Clouds 17 1018 85 10000 3.6 90 22:24 03.09.2022
1936 Clear 17 1017 84 10000 2.57 100 21:23 03.09.2022
1937 Clouds 20 1017 78 10000 1.54 160 19:42 03.09.2022
1938 Clouds 23 1015 64 10000 1.03 0 17:28 03.09.2022
1939 Clouds 23 1015 64 10000 3.09 140 16:31 03.09.2022
1940 Clouds 21 1016 59 10000 1.54 90 14:45 03.09.2022
1941 Clouds 20 1016 66 10000 2.57 90 14:22 03.09.2022
1942 Clouds 17 1017 82 10000 2.57 80 12:32 03.09.2022
1943 Rain 16 1017 88 6000 1.34 233 10:49 03.09.2022
1944 Clear 15 1016 89 10000 1.54 0 08:29 03.09.2022
1945 Clear 15 1016 89 10000 1.54 0 08:29 03.09.2022
1946 Rain 15 1016 83 10000 5.14 60 06:58 03.09.2022
1947 Rain 15 1017 82 9000 1.03 0 04:38 03.09.2022
1948 Rain 16 1016 74 10000 2.06 310 00:32 03.09.2022
1949 Clouds 16 1015 81 10000 2.57 90 23:20 02.09.2022
1950 Clouds 18 1015 69 10000 2.57 100 20:59 02.09.2022
1951 Clouds 18 1015 62 10000 2.57 100 20:39 02.09.2022
1952 Clouds 20 1015 63 10000 3.6 160 19:30 02.09.2022
1953 Clouds 20 1015 63 10000 3.6 160 18:43 02.09.2022
1954 Clouds 21 1014 65 10000 3.6 160 18:24 02.09.2022
1955 Clouds 22 1014 62 10000 5.14 290 16:48 02.09.2022
1956 Clouds 24 1013 54 10000 2.06 300 15:21 02.09.2022
1957 Clear 23 1015 65 10000 2.06 250 12:39 02.09.2022
1958 Clear 18 1016 79 10000 0.89 346 10:22 02.09.2022
1959 Clear 16 1016 86 10000 0 0 09:41 02.09.2022
1960 Fog 12 1017 86 7000 0 0 07:36 02.09.2022
1961 Clouds 12 1017 85 6000 0.51 0 06:40 02.09.2022
1962 Mist 13 1017 81 3700 0.51 20 02:55 02.09.2022
1963 Clouds 15 1018 76 10000 0.51 0 22:35 01.09.2022
1964 Clouds 16 1018 79 10000 1.34 64 21:44 01.09.2022
1965 Clear 17 1018 67 10000 2.24 57 21:25 01.09.2022
1966 Clear 18 1017 72 10000 2.24 63 20:46 01.09.2022
1967 Clear 21 1018 55 10000 3.58 59 18:57 01.09.2022
1968 Clear 22 1018 50 10000 3.58 39 17:33 01.09.2022
1969 Clouds 22 1018 52 10000 3.58 355 15:59 01.09.2022
1970 Clouds 22 1018 58 10000 3.13 349 14:33 01.09.2022
1971 Clouds 21 1018 63 9000 4.12 310 12:58 01.09.2022
1972 Clouds 19 1019 68 8000 2.68 36 11:53 01.09.2022
1973 Clouds 18 1019 74 10000 3.6 250 11:32 01.09.2022
1974 Clouds 17 1019 79 10000 2.57 250 10:38 01.09.2022
1975 Clouds 14 1019 85 10000 0.45 47 08:30 01.09.2022
1976 Clouds 14 1019 82 10000 1.34 71 06:22 01.09.2022
1977 Clouds 15 1020 84 10000 1.34 57 01:32 01.09.2022
1978 Clouds 15 1020 84 10000 1.34 57 01:32 01.09.2022
1979 Clouds 16 1019 81 10000 1.79 59 23:29 31.08.2022
1980 Clouds 17 1020 64 10000 3.13 34 21:33 31.08.2022
1981 Clear 20 1019 61 10000 5.36 38 19:50 31.08.2022
1982 Clouds 22 1019 60 10000 3.13 69 18:18 31.08.2022
1983 Clouds 22 1020 55 10000 4.92 26 15:56 31.08.2022
1984 Clouds 22 1020 61 10000 4.47 19 14:27 31.08.2022
1985 Clouds 21 1020 76 10000 4.47 23 12:22 31.08.2022
1986 Clouds 19 1021 80 10000 1.34 5 11:22 31.08.2022
1987 Clouds 17 1021 91 10000 1.03 0 08:36 31.08.2022
1988 Clouds 16 1020 90 10000 1.03 0 04:47 31.08.2022
1989 Clouds 17 1021 86 10000 1.54 110 23:20 30.08.2022
1990 Rain 17 1021 78 10000 6.17 320 21:38 30.08.2022
1991 Rain 18 1020 77 10000 6.26 225 20:57 30.08.2022
1992 Clouds 23 1017 56 10000 4.63 70 18:23 30.08.2022
1993 Clear 28 1019 39 10000 4.47 261 14:44 30.08.2022
1994 Clear 27 1019 40 10000 1.79 307 13:24 30.08.2022
1995 Clear 23 1020 59 10000 1.03 170 11:21 30.08.2022
1996 Clear 22 1020 66 10000 1.54 120 10:40 30.08.2022
1997 Clouds 15 1020 80 10000 0.51 320 06:51 30.08.2022
1998 Clouds 17 1020 74 10000 1.34 208 01:53 30.08.2022
1999 Clouds 19 1019 66 10000 1.03 0 22:58 29.08.2022
2000 Clear 20 1019 65 10000 1.03 0 22:24 29.08.2022
2001 Clear 21 1019 68 10000 1.03 0 21:25 29.08.2022
2002 Clear 26 1017 51 10000 1.54 360 19:51 29.08.2022
2003 Clear 28 1018 33 10000 2.57 260 17:50 29.08.2022
2004 Clear 28 1019 33 10000 3.13 259 17:24 29.08.2022
2005 Clear 28 1019 37 10000 2.06 340 16:22 29.08.2022
2006 Clear 27 1020 45 10000 3.09 290 14:44 29.08.2022
2007 Clear 25 1020 56 10000 2.06 300 12:52 29.08.2022
2008 Clear 22 1021 73 10000 1.03 0 10:56 29.08.2022
2009 Clear 19 1021 81 10000 0 0 09:45 29.08.2022
2010 Clear 16 1021 85 10000 0.69 125 08:28 29.08.2022
2011 Clear 16 1019 83 7000 0.51 0 02:49 29.08.2022
2012 Clear 18 1020 77 10000 1.12 82 23:55 28.08.2022
2013 Clear 18 1020 73 10000 1.29 76 22:36 28.08.2022
2014 Clear 19 1017 80 10000 0.51 0 21:40 28.08.2022
2015 Clear 21 1018 71 10000 1.54 0 20:43 28.08.2022
2016 Clear 24 1018 55 10000 2.68 46 19:20 28.08.2022
2017 Clear 25 1018 52 10000 2.57 320 18:20 28.08.2022
2018 Clouds 25 1017 54 10000 3.13 19 16:57 28.08.2022
2019 Clouds 25 1018 56 10000 2.68 15 15:50 28.08.2022
2020 Clouds 24 1018 59 10000 3.09 280 14:21 28.08.2022
2021 Clouds 22 1018 66 10000 3.09 280 12:31 28.08.2022
2022 Clouds 19 1018 79 10000 1.34 62 10:40 28.08.2022
2023 Clouds 18 1018 84 10000 0.45 75 09:41 28.08.2022
2024 Fog 16 1018 88 6000 0 0 08:36 28.08.2022
2025 Clouds 15 1018 86 10000 0.85 105 07:41 28.08.2022
2026 Clouds 17 1017 79 10000 1.79 63 01:31 28.08.2022
2027 Clouds 17 1017 77 10000 1.79 48 00:25 28.08.2022
2028 Clouds 18 1017 66 10000 1.79 63 22:32 27.08.2022
2029 Clouds 20 1016 66 10000 4.02 30 21:24 27.08.2022
2030 Clouds 23 1015 47 10000 2.06 10 19:39 27.08.2022
2031 Clouds 25 1015 50 10000 4.92 28 16:42 27.08.2022
2032 Clouds 25 1015 51 10000 4.47 59 15:39 27.08.2022
2033 Clouds 24 1015 59 10000 4.12 280 14:35 27.08.2022
2034 Clouds 22 1016 68 10000 4.92 30 12:23 27.08.2022
2035 Clouds 20 1016 77 10000 4.02 39 11:24 27.08.2022
2036 Clouds 18 1016 82 10000 1.79 38 09:40 27.08.2022
2037 Clouds 16 1016 88 10000 1.54 130 07:31 27.08.2022
2038 Rain 17 1017 87 10000 2.06 70 02:33 27.08.2022
2039 Clouds 17 1017 81 10000 2.06 60 23:53 26.08.2022
2040 Clouds 18 1017 77 10000 4.12 120 22:31 26.08.2022
2041 Clouds 19 1017 80 10000 4.12 120 20:39 26.08.2022
2042 Rain 20 1017 78 10000 1.54 60 19:20 26.08.2022
2043 Thunderstorm 23 1015 64 10000 7.2 240 16:46 26.08.2022
2044 Clouds 26 1016 45 10000 5.81 269 15:27 26.08.2022
2045 Clear 27 1016 39 10000 2.68 337 13:46 26.08.2022
2046 Clear 26 1016 43 10000 2.24 325 12:35 26.08.2022
2047 Clear 24 1017 52 10000 2.68 257 11:22 26.08.2022
2048 Clear 23 1017 58 10000 2.24 68 10:25 26.08.2022
2049 Clouds 17 1017 75 10000 1.49 169 06:50 26.08.2022
2050 Clouds 19 1017 70 10000 0.51 0 01:22 26.08.2022
2051 Clouds 21 1017 65 10000 1.03 0 23:29 25.08.2022
2052 Clouds 22 1014 69 10000 1.03 0 21:00 25.08.2022
2053 Clouds 25 1016 49 10000 1.54 330 20:21 25.08.2022
2054 Clear 29 1015 33 10000 2.57 270 18:48 25.08.2022
2055 Clouds 30 1016 33 10000 3.58 273 17:32 25.08.2022
2056 Clouds 30 1016 31 10000 3.58 286 16:50 25.08.2022
2057 Clear 30 1016 37 10000 3.6 280 15:39 25.08.2022
2058 Clear 28 1017 36 10000 3.58 250 14:31 25.08.2022
2059 Clear 25 1018 51 10000 2.24 278 11:49 25.08.2022
2060 Clear 23 1018 56 10000 1.54 250 10:46 25.08.2022
2061 Clear 18 1018 74 10000 1.03 0 08:52 25.08.2022
2062 Clouds 15 1019 76 10000 1.03 100 04:59 25.08.2022
2063 Clouds 18 1020 68 10000 1.79 80 00:26 25.08.2022
2064 Clouds 18 1017 71 10000 1.32 96 23:25 24.08.2022
2065 Clouds 18 1018 72 10000 0.51 0 22:18 24.08.2022
2066 Clouds 18 1018 77 10000 0.51 0 21:32 24.08.2022
2067 Clear 23 1017 46 10000 1.03 0 20:23 24.08.2022
2068 Clear 26 1018 32 10000 3.13 34 17:38 24.08.2022
2069 Clear 27 1019 31 10000 3.13 43 16:23 24.08.2022
2070 Clear 27 1018 33 10000 3.09 350 15:48 24.08.2022
2071 Clear 24 1019 45 10000 3.13 25 12:53 24.08.2022
2072 Clear 22 1020 52 10000 2.24 46 11:22 24.08.2022
2073 Clear 17 1019 70 10000 0.45 64 09:19 24.08.2022
2074 Clear 13 1019 73 10000 0 0 07:33 24.08.2022
2075 Clouds 16 1020 63 10000 1.79 86 01:43 24.08.2022
2076 Clouds 18 1019 68 10000 1.16 111 22:51 23.08.2022
2077 Clouds 18 1020 51 10000 1.3 105 22:24 23.08.2022
2078 Clear 21 1018 55 10000 1.54 0 21:21 23.08.2022
2079 Clear 25 1017 33 10000 1.54 350 19:43 23.08.2022
2080 Clear 26 1018 31 10000 3.58 61 18:30 23.08.2022
2081 Clear 26 1018 30 10000 4.47 28 17:46 23.08.2022
2082 Clear 27 1018 29 10000 5.81 21 16:33 23.08.2022
2083 Clear 27 1018 33 10000 5.36 54 14:55 23.08.2022
2084 Clear 25 1019 36 10000 4.47 37 13:25 23.08.2022
2085 Clear 22 1019 54 10000 2.24 16 11:21 23.08.2022
2086 Clear 21 1019 60 10000 2.57 90 10:35 23.08.2022
2087 Clear 20 1019 67 10000 1.54 110 09:46 23.08.2022
2088 Clear 17 1019 76 10000 0 0 08:48 23.08.2022
2089 Clear 15 1019 76 10000 0.51 0 08:20 23.08.2022
2090 Clear 14 1018 76 10000 0.89 164 07:34 23.08.2022
2091 Clouds 13 1018 82 10000 1.03 120 06:26 23.08.2022
2092 Clouds 15 1018 69 10000 1.3 139 01:55 23.08.2022
2093 Clouds 16 1017 66 10000 1.34 132 00:27 23.08.2022
2094 Clouds 17 1017 63 10000 1.34 132 23:32 22.08.2022
2095 Clouds 18 1017 59 10000 1.47 140 22:32 22.08.2022
2096 Clear 20 1016 50 10000 0 0 21:22 22.08.2022
2097 Clear 25 1014 36 10000 2.57 30 19:47 22.08.2022
2098 Clear 25 1015 32 10000 2.68 49 18:44 22.08.2022
2099 Clear 26 1016 31 10000 4.02 77 16:31 22.08.2022
2100 Clear 26 1015 30 10000 3.58 61 15:38 22.08.2022
2101 Clouds 25 1016 40 10000 3.13 44 13:44 22.08.2022
2102 Clear 20 1017 66 10000 3.13 15 10:26 22.08.2022
2103 Clear 15 1016 82 10000 0.45 57 07:41 22.08.2022
2104 Clouds 16 1018 75 10000 0.45 30 02:56 22.08.2022
2105 Clouds 17 1018 72 10000 1.26 140 00:38 22.08.2022
2106 Clouds 17 1017 76 10000 0.51 0 23:58 21.08.2022
2107 Clouds 19 1018 67 10000 0.89 19 21:57 21.08.2022
2108 Clear 20 1017 66 10000 1.34 19 21:23 21.08.2022
2109 Clear 22 1017 60 10000 1.54 0 20:27 21.08.2022
2110 Clear 23 1016 51 10000 2.68 19 19:23 21.08.2022
2111 Clouds 25 1017 42 10000 3.58 332 16:54 21.08.2022
2112 Clouds 25 1017 46 10000 3.13 342 15:53 21.08.2022
2113 Clouds 24 1017 47 10000 3.09 280 15:18 21.08.2022
2114 Clouds 24 1018 59 10000 3.6 310 13:51 21.08.2022
2115 Clouds 23 1018 62 10000 3.13 81 12:57 21.08.2022
2116 Clouds 20 1019 80 10000 2.68 46 10:49 21.08.2022
2117 Clouds 17 1019 88 10000 1.54 0 09:24 21.08.2022
2118 Clouds 17 1019 89 10000 1.54 0 08:56 21.08.2022
2119 Clouds 17 1019 91 10000 1.54 0 08:38 21.08.2022
2120 Clouds 15 1020 89 10000 0.45 105 07:26 21.08.2022
2121 Clouds 16 1020 89 8000 0.51 0 02:52 21.08.2022
2122 Clouds 17 1021 87 10000 0.51 0 23:45 20.08.2022
2123 Clouds 18 1021 85 10000 0.51 0 22:23 20.08.2022
2124 Clouds 19 1021 86 10000 0.51 0 21:26 20.08.2022
2125 Clouds 23 1019 64 10000 1.54 320 19:58 20.08.2022
2126 Clouds 22 1020 65 10000 1.54 320 19:39 20.08.2022
2127 Clouds 22 1020 75 10000 2.68 261 18:27 20.08.2022
2128 Clouds 23 1020 68 10000 3.13 235 17:38 20.08.2022
2129 Clouds 23 1020 66 10000 3.58 235 16:40 20.08.2022
2130 Clouds 23 1020 65 10000 3.6 250 15:23 20.08.2022
2131 Clouds 21 1021 78 10000 3.13 220 12:46 20.08.2022
2132 Clouds 20 1021 84 10000 2.06 110 11:47 20.08.2022
2133 Rain 17 1021 93 10000 1.03 0 09:33 20.08.2022
2134 Rain 16 1021 92 6000 0.51 140 08:29 20.08.2022
2135 Clouds 15 1020 93 10000 1.54 80 05:49 20.08.2022
2136 Clouds 16 1021 91 10000 3.6 120 00:58 20.08.2022
2137 Clouds 16 1021 91 10000 4.12 120 00:30 20.08.2022
2138 Clouds 16 1021 91 10000 4.12 120 22:53 19.08.2022
2139 Clouds 17 1021 88 10000 5.14 120 21:38 19.08.2022
2140 Clouds 18 1020 88 10000 3.6 120 19:43 19.08.2022
2141 Clouds 20 1019 76 10000 4.63 130 16:40 19.08.2022
2142 Clouds 20 1019 83 10000 4.12 120 14:51 19.08.2022
2143 Clouds 18 1019 90 10000 4.12 140 12:47 19.08.2022
2144 Rain 17 1018 91 4000 2.06 240 10:43 19.08.2022
2145 Rain 17 1017 90 7000 3.58 234 09:39 19.08.2022
2146 Clouds 17 1015 89 10000 0.51 0 05:30 19.08.2022
2147 Rain 17 1016 85 10000 1.34 67 00:46 19.08.2022
2148 Rain 18 1016 84 5000 2.06 70 00:22 19.08.2022
2149 Rain 18 1015 82 10000 1.54 80 22:59 18.08.2022
2150 Clouds 18 1015 81 10000 2.06 90 22:30 18.08.2022
2151 Clouds 18 1015 82 10000 1.03 0 21:53 18.08.2022
2152 Clouds 18 1015 81 10000 1.54 50 21:18 18.08.2022
2153 Rain 19 1014 73 10000 1.79 131 19:54 18.08.2022
2154 Rain 20 1032 73 10000 3.13 100 19:21 18.08.2022
2155 Clouds 21 1014 63 10000 0.51 0 17:46 18.08.2022
2156 Clouds 22 1014 64 10000 1.54 0 16:25 18.08.2022
2157 Clouds 22 1014 68 10000 1.79 15 14:22 18.08.2022
2158 Clouds 21 1014 69 10000 2.06 320 13:45 18.08.2022
2159 Clouds 20 1015 74 10000 4.02 21 12:31 18.08.2022
2160 Clouds 19 1015 80 10000 2.68 57 11:21 18.08.2022
2161 Clouds 18 1015 83 10000 1.54 0 09:43 18.08.2022
2162 Clouds 16 1015 89 10000 1.03 120 07:57 18.08.2022
2163 Clouds 15 1015 89 10000 1.03 130 07:18 18.08.2022
2164 Clouds 16 1016 85 10000 3.09 120 02:59 18.08.2022
2165 Rain 16 1018 83 10000 2.68 95 22:51 17.08.2022
2166 Thunderstorm 17 1017 79 7000 7.2 230 21:26 17.08.2022
2167 Rain 22 1012 60 10000 3.13 312 19:59 17.08.2022
2168 Clouds 24 1011 52 10000 4.47 340 18:39 17.08.2022
2169 Clouds 28 1012 36 10000 4.92 24 17:27 17.08.2022
2170 Clouds 28 1012 35 10000 3.6 320 16:20 17.08.2022
2171 Clouds 28 1013 35 10000 2.68 58 14:48 17.08.2022
2172 Clear 26 1013 45 10000 2.24 19 12:50 17.08.2022
2173 Clouds 25 1014 54 10000 3.09 310 11:36 17.08.2022
2174 Clouds 21 1013 64 10000 1.03 340 09:30 17.08.2022
2175 Clouds 18 1015 77 10000 0.45 121 07:28 17.08.2022
2176 Clouds 21 1012 57 10000 1.54 20 01:45 17.08.2022
2177 Clouds 20 1010 67 10000 2.57 110 23:33 16.08.2022
2178 Clear 21 1010 59 10000 1.54 80 21:52 16.08.2022
2179 Clear 28 1009 38 10000 1.54 80 20:26 16.08.2022
2180 Clear 29 1011 30 10000 2.06 100 19:40 16.08.2022
2181 Clear 29 1011 27 10000 1.79 227 18:18 16.08.2022
2182 Clouds 29 1012 27 10000 2.24 260 17:28 16.08.2022
2183 Clear 29 1012 31 10000 1.54 0 15:46 16.08.2022
2184 Clear 28 1012 33 10000 2.57 290 14:55 16.08.2022
2185 Clear 28 1012 32 10000 3.58 332 14:36 16.08.2022
2186 Clear 26 1013 38 10000 1.79 311 12:41 16.08.2022
2187 Clear 22 1012 59 10000 1.54 100 10:35 16.08.2022
2188 Clear 20 1013 66 10000 1.54 0 09:31 16.08.2022
2189 Clear 16 1013 76 10000 1.54 0 08:26 16.08.2022
2190 Clear 14 1013 81 10000 0.51 0 07:23 16.08.2022
2191 Clouds 16 1013 74 10000 2.06 90 01:35 16.08.2022
2192 Clouds 17 1011 82 10000 1.03 0 22:29 15.08.2022
2193 Clouds 18 1011 77 10000 0.51 0 21:53 15.08.2022
2194 Clouds 22 1010 56 10000 1.54 310 20:47 15.08.2022
2195 Clouds 22 1011 60 10000 3.6 310 20:18 15.08.2022
2196 Clouds 22 1011 52 10000 2.68 283 18:31 15.08.2022
2197 Clouds 22 1011 53 10000 7.72 290 16:40 15.08.2022
2198 Clouds 22 1011 53 10000 7.72 290 16:40 15.08.2022
2199 Clouds 23 1011 51 10000 5.66 280 16:20 15.08.2022
2200 Clouds 24 1010 55 10000 5.81 310 13:55 15.08.2022
2201 Clouds 24 1010 55 10000 5.81 310 13:55 15.08.2022
2202 Clouds 23 1010 56 10000 3.13 280 12:24 15.08.2022
2203 Clouds 20 1011 75 10000 2.06 130 09:57 15.08.2022
2204 Clouds 17 1011 83 10000 2.57 90 08:21 15.08.2022
2205 Clear 16 1012 82 10000 1.79 156 04:54 15.08.2022
2206 Clouds 17 1012 79 10000 0.51 0 01:35 15.08.2022
2207 Rain 19 1010 77 10000 0.51 0 22:39 14.08.2022
2208 Clouds 21 1010 64 10000 1.54 280 21:38 14.08.2022
2209 Clouds 22 1011 56 10000 1.03 20 20:21 14.08.2022
2210 Clouds 23 1011 49 10000 1.54 270 19:30 14.08.2022
2211 Clouds 24 1011 48 10000 2.06 290 18:19 14.08.2022
2212 Clouds 23 1012 47 10000 3.6 290 16:54 14.08.2022
2213 Clouds 24 1012 44 10000 4.63 300 15:50 14.08.2022
2214 Clouds 25 1011 39 10000 4.63 260 14:36 14.08.2022
2215 Clear 24 1011 39 10000 4.12 310 13:50 14.08.2022
2216 Clear 24 1011 34 10000 4.12 310 13:22 14.08.2022
2217 Clear 24 1011 36 10000 4.63 300 12:34 14.08.2022
2218 Clear 22 1012 48 10000 2.57 310 10:55 14.08.2022
2219 Clear 18 1012 61 10000 1.54 100 08:52 14.08.2022
2220 Clear 13 1013 70 10000 0.51 0 06:22 14.08.2022
2221 Clouds 15 1014 57 10000 0.9 163 03:36 14.08.2022
2222 Clouds 16 1015 63 10000 0.89 59 00:39 14.08.2022
2223 Clear 16 1014 67 10000 0.51 0 22:56 13.08.2022
2224 Clear 20 1013 52 10000 1.03 0 21:47 13.08.2022
2225 Clear 25 1013 29 10000 2.57 30 20:47 13.08.2022
2226 Clear 27 1013 28 10000 2.06 10 19:46 13.08.2022
2227 Clear 28 1015 25 10000 3.58 19 18:19 13.08.2022
2228 Clear 28 1016 24 10000 3.58 22 15:40 13.08.2022
2229 Clear 27 1016 27 10000 3.09 310 14:32 13.08.2022
2230 Clear 27 1015 33 10000 3.13 25 13:46 13.08.2022
2231 Clear 23 1017 39 10000 3.13 61 11:59 13.08.2022
2232 Clear 20 1017 48 10000 3.13 46 10:33 13.08.2022
2233 Clear 18 1016 59 10000 2.68 60 09:22 13.08.2022
2234 Clear 14 1017 69 10000 2.24 65 05:59 13.08.2022
2235 Clear 18 1016 61 10000 1.36 99 00:36 13.08.2022
2236 Clear 17 1016 63 10000 0.51 0 22:26 12.08.2022
2237 Clear 23 1015 38 10000 1.03 0 21:20 12.08.2022
2238 Clear 26 1015 27 10000 4.12 20 19:44 12.08.2022
2239 Clear 26 1016 27 10000 4.47 59 19:21 12.08.2022
2240 Clear 27 1016 25 10000 5.36 32 17:58 12.08.2022
2241 Clear 28 1016 25 10000 5.36 11 16:25 12.08.2022
2242 Clear 28 1017 29 10000 3.58 341 14:50 12.08.2022
2243 Clear 26 1017 36 10000 4.47 19 12:59 12.08.2022
2244 Clear 24 1018 44 10000 4.02 43 11:39 12.08.2022
2245 Clear 19 1018 61 10000 0.45 119 08:47 12.08.2022
2246 Clouds 17 1018 65 10000 1.05 46 07:44 12.08.2022
2247 Clouds 17 1019 57 10000 2.68 79 03:41 12.08.2022
2248 Clouds 19 1017 69 10000 1.31 82 00:31 12.08.2022
2249 Clouds 19 1017 69 10000 0.51 0 23:42 11.08.2022
2250 Clouds 18 1017 77 10000 0.51 0 22:37 11.08.2022
2251 Clouds 22 1017 56 10000 0.51 0 21:47 11.08.2022
2252 Clear 24 1017 44 10000 2.06 30 21:23 11.08.2022
2253 Clear 26 1018 40 10000 3.58 66 20:30 11.08.2022
2254 Clear 28 1018 28 10000 4.02 63 19:33 11.08.2022
2255 Clear 29 1018 31 10000 4.47 46 18:41 11.08.2022
2256 Clear 29 1019 31 10000 4.12 300 16:42 11.08.2022
2257 Clear 29 1019 30 10000 3.13 304 15:37 11.08.2022
2258 Clear 28 1020 35 10000 2.68 304 14:20 11.08.2022
2259 Clear 24 1021 45 10000 2.57 270 11:51 11.08.2022
2260 Clear 17 1021 66 10000 0.51 0 08:34 11.08.2022
2261 Clear 16 1021 60 10000 0.74 88 04:53 11.08.2022
2262 Clear 16 1020 77 10000 0.51 0 01:56 11.08.2022
2263 Clear 18 1020 72 10000 0.51 0 22:54 10.08.2022
2264 Clear 23 1020 41 10000 1.03 0 21:45 10.08.2022
2265 Clear 25 1019 38 10000 2.57 40 20:56 10.08.2022
2266 Clear 26 1019 41 10000 3.09 20 19:58 10.08.2022
2267 Clear 27 1021 33 10000 4.47 19 18:45 10.08.2022
2268 Clear 28 1021 31 10000 5.36 36 17:20 10.08.2022
2269 Clear 27 1022 39 10000 4.02 0 13:49 10.08.2022
2270 Clear 25 1022 42 10000 4.02 36 12:50 10.08.2022
2271 Clear 20 1023 50 10000 2.68 43 10:21 10.08.2022
2272 Clear 18 1023 60 10000 2.24 31 08:37 10.08.2022
2273 Clear 15 1023 57 10000 1.34 93 07:22 10.08.2022
2274 Clear 15 1024 68 10000 1.79 92 04:50 10.08.2022
2275 Clear 17 1022 72 10000 0.51 0 00:50 10.08.2022
2276 Clear 17 1022 71 10000 0.51 0 23:27 09.08.2022
2277 Clear 22 1022 46 10000 0.51 0 21:38 09.08.2022
2278 Clear 25 1021 38 10000 2.06 50 20:56 09.08.2022
2279 Clear 27 1022 29 10000 5.36 61 18:56 09.08.2022
2280 Clear 28 1023 28 10000 5.81 38 17:31 09.08.2022
2281 Clear 28 1023 28 10000 5.36 42 16:46 09.08.2022
2282 Clear 28 1023 29 10000 6.26 30 15:59 09.08.2022
2283 Clear 28 1023 36 10000 6.26 52 14:50 09.08.2022
2284 Clear 23 1023 51 10000 4.02 26 11:29 09.08.2022
2285 Clear 18 1023 68 10000 2.68 57 08:52 09.08.2022
2286 Clear 16 1023 72 10000 2.24 69 07:57 09.08.2022
2287 Clear 15 1024 76 10000 0.45 87 04:49 09.08.2022
2288 Clear 16 1021 83 10000 0.51 0 00:36 09.08.2022
2289 Clear 17 1021 77 10000 0.51 0 23:24 08.08.2022
2290 Clear 18 1021 72 10000 0 0 22:40 08.08.2022
2291 Clear 22 1021 53 10000 1.54 50 21:44 08.08.2022
2292 Clear 24 1022 36 10000 4.02 59 20:34 08.08.2022
2293 Clear 26 1021 31 10000 4.02 49 19:34 08.08.2022
2294 Clear 27 1021 31 10000 5.36 40 17:56 08.08.2022
2295 Clear 26 1022 39 10000 5.36 41 15:48 08.08.2022
2296 Clear 26 1022 43 10000 5.81 11 14:46 08.08.2022
2297 Clear 24 1022 55 10000 4.02 27 12:30 08.08.2022
2298 Clear 20 1022 67 10000 3.58 53 10:28 08.08.2022
2299 Clouds 15 1022 86 10000 1.79 73 07:51 08.08.2022
2300 Clear 15 1021 81 9000 1.34 74 03:42 08.08.2022
2301 Clouds 17 1022 70 10000 1.34 61 23:28 07.08.2022
2302 Clouds 19 1021 75 10000 1.34 64 21:41 07.08.2022
2303 Clouds 20 1021 66 10000 1.79 64 20:55 07.08.2022
2304 Clouds 21 1021 66 10000 1.79 75 20:18 07.08.2022
2305 Clouds 21 1021 64 10000 2.24 88 19:51 07.08.2022
2306 Clouds 22 1020 57 10000 2.57 0 18:41 07.08.2022
2307 Clouds 23 1020 60 10000 3.6 30 17:21 07.08.2022
2308 Clouds 23 1020 57 10000 3.09 40 16:41 07.08.2022
2309 Clouds 23 1020 61 10000 2.06 290 15:26 07.08.2022
2310 Clouds 21 1021 67 10000 4.47 24 13:47 07.08.2022
2311 Clouds 20 1022 68 10000 4.02 16 12:38 07.08.2022
2312 Clouds 19 1022 74 10000 2.68 5 10:42 07.08.2022
2313 Clouds 18 1021 76 10000 2.24 31 09:35 07.08.2022
2314 Clouds 16 1020 94 10000 1.54 240 04:33 07.08.2022
2315 Clouds 16 1022 75 10000 2.24 33 01:58 07.08.2022
2316 Clouds 18 1023 73 10000 4.02 50 22:30 06.08.2022
2317 Clouds 18 1023 73 10000 4.47 46 21:48 06.08.2022
2318 Clouds 19 1023 68 10000 4.92 57 19:42 06.08.2022
2319 Clouds 21 1023 63 10000 4.47 39 18:35 06.08.2022
2320 Clouds 21 1023 63 10000 4.92 53 17:44 06.08.2022
2321 Clouds 21 1024 68 10000 6.26 19 15:21 06.08.2022
2322 Clouds 20 1024 66 10000 6.26 30 13:50 06.08.2022
2323 Clouds 20 1024 74 10000 5.36 42 12:21 06.08.2022
2324 Clouds 20 1023 84 10000 3.58 24 10:40 06.08.2022
2325 Clouds 19 1023 88 10000 3.58 59 09:24 06.08.2022
2326 Clouds 18 1022 86 6000 2.24 76 04:38 06.08.2022
2327 Rain 19 1022 82 10000 2.06 260 00:46 06.08.2022
2328 Rain 19 1022 79 9000 3.09 70 22:35 05.08.2022
2329 Rain 21 1019 88 10000 4.12 110 20:37 05.08.2022
2330 Rain 28 1015 45 10000 6.17 150 18:56 05.08.2022
2331 Clouds 29 1015 45 10000 6.17 150 18:38 05.08.2022
2332 Clouds 32 1016 25 10000 3.09 290 16:52 05.08.2022
2333 Clear 32 1017 25 10000 3.13 115 15:24 05.08.2022
2334 Clear 33 1016 32 10000 1.03 0 14:35 05.08.2022
2335 Clouds 31 1016 37 10000 1.03 0 13:36 05.08.2022
2336 Clouds 31 1017 37 10000 0 0 13:18 05.08.2022
2337 Clouds 29 1017 46 10000 2.06 140 11:29 05.08.2022
2338 Clouds 24 1018 58 10000 3.09 90 09:18 05.08.2022
2339 Clouds 22 1018 64 10000 2.57 100 07:53 05.08.2022
2340 Clouds 22 1016 70 10000 7.2 130 04:48 05.08.2022
2341 Clouds 24 1017 53 10000 2.57 80 23:36 04.08.2022
2342 Clouds 28 1016 36 10000 8.23 170 21:28 04.08.2022
2343 Clouds 31 1014 29 10000 3.09 280 20:57 04.08.2022
2344 Clouds 31 1015 28 10000 1.54 320 20:37 04.08.2022
2345 Clear 34 1014 24 10000 2.06 310 18:59 04.08.2022
2346 Clear 33 1015 21 10000 2.06 310 18:34 04.08.2022
2347 Clouds 36 1015 22 10000 2.57 230 15:59 04.08.2022
2348 Clear 33 1016 30 10000 2.06 320 13:32 04.08.2022
2349 Clear 31 1017 36 10000 1.03 0 11:40 04.08.2022
2350 Clear 28 1017 42 10000 1.54 130 10:22 04.08.2022
2351 Clear 28 1017 42 10000 1.54 130 10:22 04.08.2022
2352 Clear 20 1018 65 10000 1.03 0 07:49 04.08.2022
2353 Clear 20 1017 66 10000 1.03 0 03:29 04.08.2022
2354 Clear 21 1017 62 10000 0.51 0 00:52 04.08.2022
2355 Clear 22 1016 68 10000 1.54 130 23:41 03.08.2022
2356 Clear 25 1015 61 10000 0.51 0 21:34 03.08.2022
2357 Clear 30 1015 40 10000 1.54 20 20:21 03.08.2022
2358 Clear 32 1016 26 10000 2.06 320 19:27 03.08.2022
2359 Clear 32 1017 22 10000 2.06 0 16:53 03.08.2022
2360 Clear 33 1017 25 10000 4.12 290 16:23 03.08.2022
2361 Clear 31 1017 32 10000 2.57 320 13:53 03.08.2022
2362 Clear 27 1018 47 10000 0.51 0 10:57 03.08.2022
2363 Clear 18 1019 73 10000 0 0 07:45 03.08.2022
2364 Clouds 17 1019 74 10000 0.51 0 04:22 03.08.2022
2365 Clouds 17 1019 73 10000 0.51 100 03:24 03.08.2022
2366 Clouds 20 1019 61 10000 1.07 128 00:58 03.08.2022
2367 Clouds 21 1018 69 10000 0.51 0 22:49 02.08.2022
2368 Clouds 24 1017 57 10000 1.54 210 21:52 02.08.2022
2369 Clear 27 1017 34 10000 1.54 340 20:37 02.08.2022
2370 Clear 30 1017 29 10000 2.57 290 18:39 02.08.2022
2371 Clear 30 1018 33 10000 3.09 300 15:27 02.08.2022
2372 Clear 24 1020 53 10000 2.57 300 11:30 02.08.2022
2373 Clouds 21 1020 61 10000 0.51 0 09:18 02.08.2022
2374 Clear 17 1020 80 10000 0 0 07:52 02.08.2022
2375 Clouds 16 1020 79 10000 0.51 0 06:42 02.08.2022
2376 Clear 16 1019 87 10000 1.03 0 04:54 02.08.2022
2377 Clouds 21 1019 72 10000 1.03 0 23:35 01.08.2022
2378 Rain 23 1019 62 10000 0.51 0 22:23 01.08.2022
2379 Clouds 26 1018 44 10000 1.03 360 20:51 01.08.2022
2380 Clouds 27 1018 35 10000 2.06 330 19:23 01.08.2022
2381 Clouds 29 1018 26 10000 4.12 290 18:30 01.08.2022
2382 Clouds 30 1018 23 10000 3.6 270 16:53 01.08.2022
2383 Clouds 30 1018 24 10000 4.12 300 15:52 01.08.2022
2384 Clouds 30 1019 23 10000 4.63 310 15:30 01.08.2022
2385 Clouds 29 1018 31 10000 3.09 290 13:48 01.08.2022
2386 Clear 27 1019 38 10000 1.03 0 11:50 01.08.2022
2387 Clouds 22 1020 59 10000 2.57 80 09:39 01.08.2022
2388 Clouds 18 1021 67 10000 2.06 120 08:25 01.08.2022
2389 Clear 17 1021 69 10000 1.22 167 04:48 01.08.2022
2390 Clear 18 1021 67 10000 1.51 169 02:32 01.08.2022
2391 Clear 19 1020 67 10000 0.51 0 23:54 31.07.2022
2392 Clear 20 1020 62 10000 0.51 0 22:38 31.07.2022
2393 Clear 24 1018 58 10000 1.03 240 21:24 31.07.2022
2394 Clouds 28 1018 27 10000 2.57 310 19:41 31.07.2022
2395 Clouds 29 1020 27 10000 3.09 290 17:47 31.07.2022
2396 Clouds 29 1019 28 10000 2.57 0 15:35 31.07.2022
2397 Clouds 28 1020 32 10000 2.06 240 13:42 31.07.2022
2398 Clear 27 1021 40 10000 1.03 0 11:55 31.07.2022
2399 Clear 21 1022 57 10000 3.09 90 09:36 31.07.2022
2400 Clouds 15 1022 77 10000 2.57 80 06:48 31.07.2022
2401 Clear 16 1022 71 10000 2.57 90 02:57 31.07.2022
2402 Clouds 18 1022 61 10000 1.58 154 23:35 30.07.2022
2403 Clouds 19 1021 74 10000 0.51 0 22:19 30.07.2022
2404 Clouds 20 1020 71 10000 0.51 0 21:48 30.07.2022
2405 Clouds 23 1020 56 10000 0.51 0 20:56 30.07.2022
2406 Clouds 25 1021 42 10000 0.51 50 19:58 30.07.2022
2407 Clouds 26 1021 36 10000 1.54 0 18:53 30.07.2022
2408 Clouds 27 1020 41 10000 2.06 310 17:42 30.07.2022
2409 Clouds 26 1022 35 10000 2.06 290 15:49 30.07.2022
2410 Clouds 26 1022 36 10000 1.79 296 15:21 30.07.2022
2411 Clouds 25 1021 38 10000 1.54 0 12:55 30.07.2022
2412 Clouds 24 1021 42 10000 0.51 0 11:55 30.07.2022
2413 Clear 22 1021 65 10000 2.06 110 10:31 30.07.2022
2414 Clear 20 1021 74 10000 1.54 100 09:47 30.07.2022
2415 Clouds 16 1022 90 10000 2.57 100 07:55 30.07.2022
2416 Clouds 16 1021 88 10000 2.06 90 02:37 30.07.2022
2417 Clouds 17 1021 88 10000 2.57 90 01:49 30.07.2022
2418 Clouds 17 1021 86 10000 1.54 90 22:25 29.07.2022
2419 Clouds 18 1020 83 10000 2.57 110 21:23 29.07.2022
2420 Clouds 20 1020 77 10000 4.12 150 19:57 29.07.2022
2421 Clouds 19 1020 77 10000 3.09 140 17:53 29.07.2022
2422 Rain 20 1020 74 10000 3.09 310 15:21 29.07.2022
2423 Clouds 24 1017 65 10000 1.03 0 13:18 29.07.2022
2424 Clouds 21 1017 80 10000 1.54 110 10:42 29.07.2022
2425 Clouds 18 1018 83 10000 2.06 110 08:50 29.07.2022
2426 Rain 17 1018 83 10000 1.03 0 07:54 29.07.2022
2427 Clouds 17 1017 84 10000 2.57 90 01:47 29.07.2022
2428 Clouds 18 1017 74 10000 2.57 0 22:49 28.07.2022
2429 Thunderstorm 22 1016 54 10000 5.66 110 21:00 28.07.2022
2430 Rain 23 1015 47 10000 8.75 150 20:30 28.07.2022
2431 Clouds 25 1015 49 10000 8.75 150 19:43 28.07.2022
2432 Clouds 28 1014 33 10000 5.66 280 18:50 28.07.2022
2433 Clouds 27 1013 33 10000 1.54 0 17:43 28.07.2022
2434 Clouds 28 1014 29 10000 3.6 290 16:51 28.07.2022
2435 Clear 28 1014 30 10000 3.09 300 15:30 28.07.2022
2436 Clear 26 1014 42 10000 2.06 250 12:58 28.07.2022
2437 Clear 21 1016 56 10000 0.45 346 10:36 28.07.2022
2438 Clear 14 1016 70 10000 0.45 76 06:25 28.07.2022
2439 Clear 15 1016 68 10000 0.61 105 05:27 28.07.2022
2440 Clouds 17 1015 76 10000 1.2 88 00:45 28.07.2022
2441 Clouds 18 1015 72 10000 1.03 0 22:34 27.07.2022
2442 Clouds 22 1014 53 10000 1.03 0 21:27 27.07.2022
2443 Clouds 24 1016 39 10000 2.57 360 19:37 27.07.2022
2444 Clouds 26 1016 38 10000 4.47 15 17:39 27.07.2022
2445 Clouds 25 1016 39 10000 3.6 350 15:52 27.07.2022
2446 Clouds 25 1016 39 10000 3.6 350 15:52 27.07.2022
2447 Clouds 24 1017 42 10000 3.09 330 14:57 27.07.2022
2448 Clouds 24 1017 40 10000 4.47 5 14:34 27.07.2022
2449 Clouds 23 1017 40 10000 3.09 30 12:49 27.07.2022
2450 Clouds 16 1018 67 10000 0.51 0 07:53 27.07.2022
2451 Clouds 15 1017 70 10000 0.62 93 06:21 27.07.2022
2452 Clouds 18 1018 58 10000 0.51 0 01:35 27.07.2022
2453 Clouds 21 1018 43 10000 1.03 0 22:29 26.07.2022
2454 Clouds 23 1016 49 10000 1.03 0 21:20 26.07.2022
2455 Clouds 23 1017 45 10000 2.06 350 20:28 26.07.2022
2456 Clouds 24 1017 43 10000 2.06 10 18:43 26.07.2022
2457 Clouds 24 1017 43 10000 2.06 330 17:58 26.07.2022
2458 Clouds 24 1018 48 10000 2.57 290 16:31 26.07.2022
2459 Clouds 25 1017 47 10000 3.09 300 15:30 26.07.2022
2460 Clouds 23 1019 54 10000 2.06 350 13:38 26.07.2022
2461 Clouds 22 1019 65 10000 2.06 320 11:38 26.07.2022
2462 Clouds 19 1018 89 10000 1.03 0 08:57 26.07.2022
2463 Rain 20 1019 66 10000 3.6 290 05:53 26.07.2022
2464 Clouds 21 1017 73 10000 0.51 0 00:44 26.07.2022
2465 Clouds 22 1018 65 10000 3.6 290 23:32 25.07.2022
2466 Clouds 27 1016 44 10000 5.14 260 22:26 25.07.2022
2467 Clouds 28 1015 44 10000 3.6 270 21:43 25.07.2022
2468 Clouds 29 1014 39 10000 4.63 290 20:41 25.07.2022
2469 Clouds 31 1013 37 10000 3.6 270 19:46 25.07.2022
2470 Clouds 30 1015 33 10000 1.79 285 18:19 25.07.2022
2471 Clouds 32 1016 27 10000 4.02 260 17:27 25.07.2022
2472 Clouds 32 1016 27 10000 4.02 260 17:27 25.07.2022
2473 Clear 33 1015 25 10000 4.63 240 15:20 25.07.2022
2474 Clear 31 1015 38 10000 3.6 290 12:22 25.07.2022
2475 Clear 26 1017 50 10000 1.34 286 09:58 25.07.2022
2476 Clear 19 1017 75 10000 0.51 0 04:38 25.07.2022
2477 Clear 21 1018 65 10000 1.03 0 23:54 24.07.2022
2478 Clear 22 1018 63 10000 1.79 118 23:18 24.07.2022
2479 Clear 23 1018 59 10000 0.51 0 22:29 24.07.2022
2480 Clear 24 1016 64 10000 1.03 0 21:25 24.07.2022
2481 Clear 29 1016 45 10000 1.54 330 20:51 24.07.2022
2482 Clear 29 1016 50 10000 1.54 330 20:26 24.07.2022
2483 Clear 30 1018 34 10000 2.57 310 18:48 24.07.2022
2484 Clear 31 1018 36 10000 3.09 320 16:32 24.07.2022
2485 Clouds 31 1018 37 10000 3.09 280 15:50 24.07.2022
2486 Clouds 30 1019 41 10000 3.09 310 14:35 24.07.2022
2487 Clouds 28 1021 54 10000 2.57 320 12:55 24.07.2022
2488 Clear 26 1020 58 10000 1.54 0 11:40 24.07.2022
2489 Clear 25 1021 57 10000 1.54 0 11:18 24.07.2022
2490 Clear 21 1022 74 10000 0.45 46 08:48 24.07.2022
2491 Clear 19 1022 83 10000 1.79 46 07:52 24.07.2022
2492 Clouds 17 1022 84 9000 0.51 0 06:18 24.07.2022
2493 Clouds 20 1022 75 10000 1.03 126 01:27 24.07.2022
2494 Clouds 22 1020 80 10000 0 0 22:21 23.07.2022
2495 Clouds 24 1021 63 10000 1.54 40 20:28 23.07.2022
2496 Clouds 26 1020 60 10000 2.57 290 18:51 23.07.2022
2497 Clouds 28 1019 55 10000 2.57 300 17:29 23.07.2022
2498 Clouds 27 1019 49 10000 1.54 0 16:35 23.07.2022
2499 Clouds 27 1020 54 10000 2.57 340 15:31 23.07.2022
2500 Clouds 27 1020 57 10000 2.06 320 14:59 23.07.2022
2501 Clouds 27 1020 59 10000 3.09 310 14:30 23.07.2022
2502 Clouds 26 1020 65 10000 2.57 290 13:36 23.07.2022
2503 Clouds 23 1020 73 10000 0 0 10:49 23.07.2022
2504 Clouds 20 1021 85 10000 0.89 56 10:21 23.07.2022
2505 Rain 19 1021 88 9000 1.03 0 08:50 23.07.2022
2506 Clouds 18 1018 86 10000 2.06 300 03:40 23.07.2022
2507 Clouds 19 1020 77 10000 2.57 290 01:33 23.07.2022
2508 Clouds 25 1019 61 10000 2.06 300 22:56 22.07.2022
2509 Clear 28 1017 51 10000 2.06 330 20:56 22.07.2022
2510 Clear 30 1016 39 10000 3.09 310 19:41 22.07.2022
2511 Clear 31 1019 30 10000 2.24 349 18:28 22.07.2022
2512 Clear 32 1018 29 10000 3.6 310 16:55 22.07.2022
2513 Clear 30 1019 38 10000 3.13 287 14:55 22.07.2022
2514 Clear 27 1019 58 10000 2.57 290 11:36 22.07.2022
2515 Clear 22 1021 67 10000 0.45 241 09:26 22.07.2022
2516 Clear 20 1021 71 10000 0 0 08:37 22.07.2022
2517 Clear 16 1021 81 8000 1.03 60 06:59 22.07.2022
2518 Clear 18 1021 76 10000 1.03 110 02:25 22.07.2022
2519 Clear 21 1021 73 10000 0.51 0 22:45 21.07.2022
2520 Clear 24 1021 57 10000 1.54 300 21:34 21.07.2022
2521 Clear 28 1022 38 10000 2.68 294 19:28 21.07.2022
2522 Clouds 28 1022 33 10000 2.68 336 17:41 21.07.2022
2523 Clear 29 1022 34 10000 2.24 329 17:19 21.07.2022
2524 Clouds 28 1022 39 10000 2.57 320 15:22 21.07.2022
2525 Clear 27 1023 41 10000 2.68 309 14:39 21.07.2022
2526 Clouds 24 1024 66 10000 1.34 300 12:28 21.07.2022
2527 Clouds 23 1024 71 10000 1.03 0 11:19 21.07.2022
2528 Clouds 21 1024 84 10000 1.34 308 09:38 21.07.2022
2529 Clouds 20 1024 89 10000 0.51 0 08:52 21.07.2022
2530 Clouds 19 1024 91 7000 1.03 0 07:50 21.07.2022
2531 Mist 19 1024 89 4900 0.51 0 06:24 21.07.2022
2532 Rain 19 1024 86 6000 1.34 175 00:48 21.07.2022
2533 Clouds 19 1023 83 10000 1.54 340 22:22 20.07.2022
2534 Clouds 20 1022 78 10000 3.09 70 20:59 20.07.2022
2535 Rain 22 1020 59 10000 4.12 130 19:53 20.07.2022
2536 Rain 23 1019 64 10000 4.63 120 19:25 20.07.2022
2537 Clouds 23 1019 68 10000 4.12 120 18:51 20.07.2022
2538 Clouds 23 1019 61 10000 5.66 140 18:22 20.07.2022
2539 Rain 25 1019 65 10000 4.63 150 16:45 20.07.2022
2540 Rain 28 1018 35 10000 2.06 290 15:32 20.07.2022
2541 Clouds 31 1020 43 10000 1.54 270 14:20 20.07.2022
2542 Clouds 31 1020 43 10000 1.54 270 14:20 20.07.2022
2543 Thunderstorm 28 1020 45 10000 3.6 250 11:37 20.07.2022
2544 Clouds 26 1021 51 10000 2.68 220 09:41 20.07.2022
2545 Clear 21 1020 59 10000 1.62 179 03:49 20.07.2022
2546 Clouds 22 1019 55 10000 1.34 159 00:51 20.07.2022
2547 Clouds 24 1019 49 10000 1.03 0 23:41 19.07.2022
2548 Clouds 25 1019 41 10000 0.45 177 22:33 19.07.2022
2549 Clouds 26 1018 45 10000 0.51 0 21:35 19.07.2022
2550 Clear 29 1016 35 10000 1.03 0 20:48 19.07.2022
2551 Clear 33 1018 27 10000 2.24 30 19:21 19.07.2022
2552 Clear 34 1019 24 10000 2.57 330 18:31 19.07.2022
2553 Clear 34 1019 23 10000 3.13 343 17:46 19.07.2022
2554 Clear 33 1020 22 10000 3.13 307 14:57 19.07.2022
2555 Clear 29 1021 33 10000 2.24 281 11:58 19.07.2022
2556 Clear 28 1021 34 10000 2.24 286 11:18 19.07.2022
2557 Clear 22 1022 45 10000 1.03 150 09:26 19.07.2022
2558 Clear 22 1022 56 10000 1.54 120 08:39 19.07.2022
2559 Clear 16 1022 66 10000 0 0 07:19 19.07.2022
2560 Clear 16 1022 57 10000 0.89 41 05:48 19.07.2022
2561 Clear 17 1022 58 10000 0.81 166 04:56 19.07.2022
2562 Clear 19 1021 68 10000 1.32 114 01:58 19.07.2022
2563 Clear 19 1021 69 10000 1.03 60 23:50 18.07.2022
2564 Clear 21 1021 59 10000 1.03 0 23:19 18.07.2022
2565 Clear 22 1021 56 10000 1.03 0 22:22 18.07.2022
2566 Clear 30 1021 30 10000 1.03 0 20:52 18.07.2022
2567 Clear 31 1021 25 10000 3.09 20 19:52 18.07.2022
2568 Clear 32 1022 22 10000 5.36 59 17:53 18.07.2022
2569 Clear 32 1023 24 10000 5.36 36 16:28 18.07.2022
2570 Clear 32 1023 25 10000 4.02 24 15:19 18.07.2022
2571 Clear 30 1024 36 10000 2.24 32 13:26 18.07.2022
2572 Clear 26 1025 37 10000 2.24 38 11:31 18.07.2022
2573 Clear 24 1025 54 10000 2.24 46 09:53 18.07.2022
2574 Clear 18 1026 67 10000 1.03 140 07:48 18.07.2022
2575 Clouds 16 1025 72 10000 2.24 77 02:34 18.07.2022
2576 Clouds 18 1024 72 10000 0.51 0 22:52 17.07.2022
2577 Clouds 21 1024 56 10000 0.51 0 22:25 17.07.2022
2578 Clear 26 1023 36 10000 2.06 50 21:26 17.07.2022
2579 Clear 27 1023 34 10000 2.57 340 20:44 17.07.2022
2580 Clear 28 1023 32 10000 2.57 30 19:49 17.07.2022
2581 Clear 28 1024 28 10000 4.47 14 19:19 17.07.2022
2582 Clear 29 1024 29 10000 4.92 47 17:39 17.07.2022
2583 Clear 30 1024 27 10000 4.47 351 16:53 17.07.2022
2584 Clear 30 1024 28 10000 4.02 355 16:27 17.07.2022
2585 Clear 29 1024 29 10000 3.58 36 15:34 17.07.2022
2586 Clear 28 1025 31 10000 4.47 34 13:47 17.07.2022
2587 Clear 25 1025 35 10000 4.47 0 12:32 17.07.2022
2588 Clear 20 1025 47 10000 3.13 24 09:31 17.07.2022
2589 Clear 15 1025 56 10000 2.24 71 06:58 17.07.2022
2590 Clear 17 1024 62 10000 1.51 83 02:34 17.07.2022
2591 Clear 18 1023 61 10000 1.03 0 23:23 16.07.2022
2592 Clear 24 1022 31 10000 1.54 240 21:57 16.07.2022
2593 Clear 25 1023 34 10000 4.47 25 20:28 16.07.2022
2594 Clear 27 1023 28 10000 5.36 0 18:43 16.07.2022
2595 Clear 27 1022 27 10000 4.47 19 17:24 16.07.2022
2596 Clear 28 1022 28 10000 3.58 5 15:50 16.07.2022
2597 Clear 24 1022 37 10000 3.13 34 11:55 16.07.2022
2598 Clear 21 1022 53 10000 2.24 41 09:41 16.07.2022
2599 Clear 20 1022 50 10000 2.24 40 09:22 16.07.2022
2600 Clear 19 1022 56 10000 2.24 52 08:35 16.07.2022
2601 Clear 15 1022 65 10000 1.03 0 06:57 16.07.2022
2602 Clear 16 1021 69 10000 0.51 0 03:32 16.07.2022
2603 Clear 19 1020 69 10000 1.03 0 23:54 15.07.2022
2604 Clear 21 1020 60 10000 0.51 0 22:46 15.07.2022
2605 Clear 24 1019 46 10000 2.06 330 21:55 15.07.2022
2606 Clear 26 1020 32 10000 2.06 340 20:35 15.07.2022
2607 Clouds 28 1020 32 10000 2.68 22 18:55 15.07.2022
2608 Clear 28 1020 32 10000 4.02 36 18:22 15.07.2022
2609 Clear 29 1020 30 10000 3.6 320 16:46 15.07.2022
2610 Clouds 28 1020 35 10000 3.09 340 13:58 15.07.2022
2611 Clear 26 1021 39 10000 3.6 290 12:22 15.07.2022
2612 Clear 24 1021 44 10000 3.09 300 10:52 15.07.2022
2613 Clouds 19 1021 58 10000 0.51 0 07:47 15.07.2022
2614 Clear 19 1020 40 10000 0.87 88 02:51 15.07.2022
2615 Clear 20 1019 61 10000 1.03 0 00:39 15.07.2022
2616 Clear 21 1020 45 10000 1.03 0 00:39 15.07.2022
2617 Clear 22 1019 57 10000 0.51 0 22:56 14.07.2022
2618 Clear 24 1018 46 10000 0.51 110 21:59 14.07.2022
2619 Clear 24 1018 46 10000 0.51 110 21:37 14.07.2022
2620 Clear 29 1018 28 10000 4.12 290 21:18 14.07.2022
2621 Clear 30 1018 30 10000 5.66 290 20:42 14.07.2022
2622 Clear 31 1017 33 10000 6.17 310 20:18 14.07.2022
2623 Clear 33 1019 18 10000 5.14 250 17:25 14.07.2022
2624 Clear 33 1020 18 10000 6.26 305 16:18 14.07.2022
2625 Clear 32 1020 21 10000 6.17 280 14:55 14.07.2022
2626 Clear 31 1021 25 10000 4.47 292 13:51 14.07.2022
2627 Clear 30 1021 30 10000 4.02 265 12:34 14.07.2022
2628 Clear 28 1022 35 10000 3.13 265 11:26 14.07.2022
2629 Clear 27 1022 37 10000 2.24 276 10:51 14.07.2022
2630 Clear 23 1023 49 10000 2.57 280 08:45 14.07.2022
2631 Clouds 20 1023 59 10000 2.06 80 04:18 14.07.2022
2632 Clouds 22 1024 50 10000 1.54 0 00:55 14.07.2022
2633 Clouds 23 1024 48 10000 1.79 138 00:18 14.07.2022
2634 Clouds 24 1023 36 10000 1.02 156 22:28 13.07.2022
2635 Clouds 24 1022 53 10000 1.54 0 21:37 13.07.2022
2636 Clear 28 1021 34 10000 1.54 350 20:38 13.07.2022
2637 Clear 31 1023 25 10000 3.58 342 18:23 13.07.2022
2638 Clear 31 1023 22 10000 2.57 320 17:22 13.07.2022
2639 Clear 30 1023 23 10000 2.57 290 15:59 13.07.2022
2640 Clear 28 1025 30 10000 1.79 115 13:50 13.07.2022
2641 Clear 25 1025 44 10000 3.6 290 11:30 13.07.2022
2642 Clear 23 1025 49 10000 1.79 259 10:44 13.07.2022
2643 Clear 20 1025 55 10000 1.03 0 09:29 13.07.2022
2644 Clouds 17 1025 62 10000 1.34 220 08:24 13.07.2022
2645 Clouds 14 1025 64 10000 1.18 105 04:50 13.07.2022
2646 Clouds 15 1024 72 10000 1.54 50 00:47 13.07.2022
2647 Clouds 17 1024 65 10000 0.51 0 22:47 12.07.2022
2648 Clouds 21 1024 49 10000 0.51 0 21:49 12.07.2022
2649 Clear 24 1023 38 10000 2.57 20 20:53 12.07.2022
2650 Clear 25 1024 32 10000 4.92 28 19:54 12.07.2022
2651 Clear 26 1024 29 10000 3.58 59 18:51 12.07.2022
2652 Clear 27 1024 28 10000 4.63 20 17:23 12.07.2022
2653 Clouds 27 1024 28 10000 4.47 40 15:32 12.07.2022
2654 Clouds 25 1024 37 10000 4.02 27 13:43 12.07.2022
2655 Clear 24 1024 50 10000 3.6 300 11:54 12.07.2022
2656 Clear 22 1025 57 10000 4.02 5 10:45 12.07.2022
2657 Clear 19 1024 61 10000 2.24 40 08:59 12.07.2022
2658 Clear 16 1024 70 10000 1.79 76 07:48 12.07.2022
2659 Clouds 14 1024 66 10000 1.79 72 05:47 12.07.2022
2660 Clouds 15 1024 65 10000 1.79 69 05:29 12.07.2022
2661 Clouds 16 1024 71 10000 1.34 71 01:32 12.07.2022
2662 Clear 17 1022 72 10000 0.51 0 22:48 11.07.2022
2663 Clear 21 1021 52 10000 1.03 0 21:34 11.07.2022
2664 Clear 24 1021 43 10000 1.54 20 20:33 11.07.2022
2665 Clear 25 1022 37 10000 3.6 10 19:27 11.07.2022
2666 Clear 25 1022 35 10000 5.81 25 18:30 11.07.2022
2667 Clear 25 1022 36 10000 5.81 355 16:31 11.07.2022
2668 Clear 25 1022 36 10000 5.81 17 15:33 11.07.2022
2669 Clear 23 1022 45 10000 4.47 63 13:26 11.07.2022
2670 Clear 20 1022 49 10000 4.92 51 11:24 11.07.2022
2671 Clear 20 1022 49 10000 4.92 51 11:24 11.07.2022
2672 Clear 19 1023 55 10000 3.58 16 10:18 11.07.2022
2673 Clear 18 1023 54 10000 3.58 5 09:40 11.07.2022
2674 Clear 16 1023 57 10000 3.13 24 08:32 11.07.2022
2675 Clear 15 1023 61 10000 3.58 60 01:54 11.07.2022
2676 Clear 17 1023 59 10000 1.54 0 00:18 11.07.2022
2677 Clear 19 1022 52 10000 1.03 0 22:52 10.07.2022
2678 Clear 22 1021 40 10000 3.09 20 21:20 10.07.2022
2679 Clear 22 1021 40 10000 1.54 50 20:37 10.07.2022
2680 Clear 23 1022 40 10000 4.92 22 19:40 10.07.2022
2681 Clear 24 1022 34 10000 4.02 26 18:43 10.07.2022
2682 Clear 25 1023 35 10000 4.02 37 17:35 10.07.2022
2683 Clear 25 1023 37 10000 4.02 27 16:41 10.07.2022
2684 Clouds 25 1023 39 10000 4.47 43 15:24 10.07.2022
2685 Clouds 24 1023 45 10000 4.02 26 13:48 10.07.2022
2686 Clouds 23 1023 46 10000 3.58 48 12:26 10.07.2022
2687 Clear 20 1024 55 10000 3.58 74 09:57 10.07.2022
2688 Clouds 18 1024 63 10000 2.68 42 08:44 10.07.2022
2689 Clouds 15 1024 75 10000 2.06 120 07:29 10.07.2022
2690 Clouds 16 1025 66 10000 1.4 148 01:31 10.07.2022
2691 Clear 16 1024 82 10000 0.51 0 22:43 09.07.2022
2692 Clear 19 1024 67 10000 1.03 0 22:19 09.07.2022
2693 Clear 24 1024 43 10000 1.54 30 20:45 09.07.2022
2694 Clear 25 1025 33 10000 4.92 19 18:35 09.07.2022
2695 Clear 26 1025 34 10000 5.36 21 17:45 09.07.2022
2696 Clear 26 1025 31 10000 4.92 14 16:44 09.07.2022
2697 Clear 26 1026 34 10000 4.47 59 15:40 09.07.2022
2698 Clear 25 1026 36 10000 3.13 47 14:27 09.07.2022
2699 Clear 24 1026 38 10000 3.58 21 13:49 09.07.2022
2700 Clear 23 1027 42 10000 4.02 355 12:45 09.07.2022
2701 Clear 21 1028 48 10000 3.13 5 11:22 09.07.2022
2702 Clear 20 1028 50 10000 3.13 13 10:22 09.07.2022
2703 Clear 14 1028 73 10000 1.79 63 07:45 09.07.2022
2704 Clear 13 1029 64 10000 2.24 55 04:57 09.07.2022
2705 Clear 14 1028 83 10000 1.6 76 01:50 09.07.2022
2706 Clear 15 1028 77 10000 0.51 0 22:54 08.07.2022
2707 Clear 19 1027 55 10000 1.03 0 21:43 08.07.2022
2708 Clear 22 1027 40 10000 2.57 10 20:40 08.07.2022
2709 Clear 22 1028 45 10000 4.92 38 19:52 08.07.2022
2710 Clouds 24 1028 32 10000 4.92 23 18:24 08.07.2022
2711 Clouds 24 1029 36 10000 5.36 19 16:40 08.07.2022
2712 Clear 23 1029 42 10000 5.81 28 14:51 08.07.2022
2713 Clouds 22 1029 45 10000 3.58 346 13:29 08.07.2022
2714 Clouds 20 1029 49 10000 4.02 15 11:42 08.07.2022
2715 Clouds 19 1029 54 10000 4.47 34 10:28 08.07.2022
2716 Clouds 17 1029 59 10000 4.02 10 08:27 08.07.2022
2717 Clouds 14 1029 71 10000 2.24 54 06:50 08.07.2022
2718 Clouds 16 1028 63 10000 1.34 73 01:31 08.07.2022
2719 Clouds 17 1028 67 10000 2.24 44 22:59 07.07.2022
2720 Clouds 18 1026 68 10000 1.03 0 22:34 07.07.2022
2721 Clouds 20 1025 60 10000 3.6 320 20:35 07.07.2022
2722 Clouds 23 1026 41 10000 4.63 320 18:20 07.07.2022
2723 Clouds 23 1025 40 10000 5.81 346 16:51 07.07.2022
2724 Clouds 24 1025 40 10000 3.6 290 14:34 07.07.2022
2725 Clouds 23 1025 38 10000 3.13 218 13:18 07.07.2022
2726 Clouds 22 1025 41 10000 2.24 270 12:24 07.07.2022
2727 Clear 22 1025 43 10000 3.6 300 11:45 07.07.2022
2728 Clear 21 1025 43 10000 3.6 300 11:24 07.07.2022
2729 Clear 20 1025 45 10000 1.03 0 10:41 07.07.2022
2730 Clear 20 1025 49 10000 1.03 0 10:23 07.07.2022
2731 Clouds 12 1024 74 10000 1.34 336 06:48 07.07.2022
2732 Clouds 15 1024 76 10000 0.51 0 01:43 07.07.2022
2733 Clouds 17 1026 61 10000 0.89 40 23:36 06.07.2022
2734 Clouds 18 1024 63 10000 3.09 300 23:18 06.07.2022
2735 Clouds 18 1024 61 10000 3.09 300 22:52 06.07.2022
2736 Clouds 19 1023 63 10000 3.09 300 22:34 06.07.2022
2737 Clear 22 1022 57 10000 2.06 330 20:33 06.07.2022
2738 Clouds 23 1023 44 10000 3.13 5 19:34 06.07.2022
2739 Clouds 24 1023 37 10000 3.58 57 17:22 06.07.2022
2740 Clouds 25 1023 38 10000 3.58 57 17:22 06.07.2022
2741 Clouds 25 1024 33 10000 3.6 330 15:58 06.07.2022
2742 Clear 24 1024 39 10000 4.12 310 13:56 06.07.2022
2743 Clouds 23 1024 42 10000 3.13 54 12:30 06.07.2022
2744 Clouds 23 1024 42 10000 3.13 54 12:30 06.07.2022
2745 Clear 22 1025 45 10000 4.02 35 11:44 06.07.2022
2746 Clear 21 1024 53 10000 1.79 50 10:18 06.07.2022
2747 Clear 16 1024 73 10000 0.51 0 07:44 06.07.2022
2748 Clear 15 1024 75 10000 0.45 18 07:19 06.07.2022
2749 Clouds 16 1023 78 10000 0.51 290 00:38 06.07.2022
2750 Clouds 18 1022 72 10000 1.54 110 22:43 05.07.2022
2751 Clouds 22 1023 53 10000 2.57 330 21:29 05.07.2022
2752 Clouds 24 1021 50 10000 3.09 340 20:35 05.07.2022
2753 Clouds 24 1022 50 10000 2.24 338 19:40 05.07.2022
2754 Clouds 25 1022 42 10000 1.54 290 18:23 05.07.2022
2755 Clouds 25 1022 43 10000 2.68 310 17:39 05.07.2022
2756 Clouds 25 1023 43 10000 1.79 71 16:36 05.07.2022
2757 Clouds 25 1023 44 10000 3.09 340 14:55 05.07.2022
2758 Clouds 24 1023 51 10000 2.06 0 13:36 05.07.2022
2759 Clouds 23 1023 58 10000 1.79 312 12:26 05.07.2022
2760 Clouds 21 1023 69 10000 1.79 314 10:46 05.07.2022
2761 Clouds 20 1023 79 10000 0.51 0 09:58 05.07.2022
2762 Clouds 18 1023 86 10000 1.03 0 08:23 05.07.2022
2763 Clouds 17 1023 87 10000 1.54 70 07:20 05.07.2022
2764 Clouds 17 1022 78 10000 1.03 280 04:39 05.07.2022
2765 Rain 18 1021 94 10000 1.03 0 01:33 05.07.2022
2766 Clouds 19 1022 76 10000 1.34 52 23:38 04.07.2022
2767 Clouds 19 1022 75 10000 1.54 70 22:57 04.07.2022
2768 Mist 19 1021 75 4200 1.54 0 22:19 04.07.2022
2769 Clouds 21 1021 70 10000 2.57 120 20:57 04.07.2022
2770 Clouds 21 1021 70 10000 2.57 120 20:36 04.07.2022
2771 Clouds 21 1021 74 10000 1.54 140 19:57 04.07.2022
2772 Clouds 22 1021 74 10000 1.79 40 19:37 04.07.2022
2773 Clouds 23 1020 68 10000 2.06 140 18:54 04.07.2022
2774 Clouds 23 1021 72 10000 2.24 38 16:58 04.07.2022
2775 Clouds 21 1019 83 10000 5.66 290 15:40 04.07.2022
2776 Clouds 24 1020 63 10000 3.13 298 14:19 04.07.2022
2777 Clouds 24 1021 69 10000 1.54 0 12:56 04.07.2022
2778 Clouds 23 1021 76 10000 3.09 300 11:32 04.07.2022
2779 Clouds 22 1021 84 10000 2.57 310 10:33 04.07.2022
2780 Clouds 19 1021 89 10000 5.14 120 09:23 04.07.2022
2781 Clouds 18 1022 89 10000 1.79 140 06:28 04.07.2022
2782 Rain 18 1021 88 10000 2.24 248 02:59 04.07.2022
2783 Clouds 19 1022 81 10000 2.06 90 23:53 03.07.2022
2784 Thunderstorm 19 1022 77 10000 2.24 195 22:36 03.07.2022
2785 Clouds 28 1018 45 10000 1.54 220 20:46 03.07.2022
2786 Clouds 29 1019 45 10000 2.06 320 19:59 03.07.2022
2787 Clouds 29 1019 38 10000 1.54 0 19:25 03.07.2022
2788 Clouds 29 1019 32 10000 3.09 270 18:30 03.07.2022
2789 Clouds 29 1020 31 10000 3.09 310 17:41 03.07.2022
2790 Clouds 29 1020 35 10000 3.13 305 15:28 03.07.2022
2791 Clouds 29 1020 35 10000 2.68 280 14:53 03.07.2022
2792 Clear 28 1021 38 10000 2.06 310 13:50 03.07.2022
2793 Clear 27 1021 38 10000 2.24 348 12:47 03.07.2022
2794 Clear 27 1021 42 10000 1.54 0 12:18 03.07.2022
2795 Clear 24 1022 51 10000 1.54 0 10:54 03.07.2022
2796 Clear 24 1022 52 10000 1.54 0 10:35 03.07.2022
2797 Clouds 17 1023 76 10000 0 0 07:38 03.07.2022
2798 Clear 15 1023 74 10000 0.51 0 06:52 03.07.2022
2799 Clear 17 1022 74 10000 0.51 0 00:39 03.07.2022
2800 Clear 18 1021 70 10000 0.51 0 23:37 02.07.2022
2801 Clear 19 1021 62 6000 1.03 0 22:31 02.07.2022
2802 Clear 25 1020 49 10000 1.54 280 20:28 02.07.2022
2803 Clear 26 1019 48 10000 2.06 330 19:49 02.07.2022
2804 Clear 26 1020 34 10000 1.54 0 18:36 02.07.2022
2805 Clear 26 1021 37 10000 3.13 256 17:39 02.07.2022
2806 Clear 25 1021 41 10000 3.09 270 16:30 02.07.2022
2807 Clouds 23 1021 59 10000 1.54 300 13:40 02.07.2022
2808 Clear 20 1023 67 10000 3.09 270 11:49 02.07.2022
2809 Clouds 19 1023 70 10000 1.79 42 10:51 02.07.2022
2810 Clear 17 1023 72 10000 2.68 44 10:21 02.07.2022
2811 Clear 15 1023 85 10000 1.34 55 08:37 02.07.2022
2812 Clear 14 1023 87 10000 1.54 0 08:19 02.07.2022
2813 Clear 11 1023 87 10000 1.79 69 04:19 02.07.2022
2814 Clouds 14 1024 82 10000 1.79 75 00:28 02.07.2022
2815 Clouds 14 1024 80 10000 1.34 76 23:26 01.07.2022
2816 Clouds 15 1023 77 10000 1.34 92 22:33 01.07.2022
2817 Clouds 17 1023 67 10000 2.24 96 21:38 01.07.2022
2818 Clouds 18 1022 74 10000 1.54 0 20:58 01.07.2022
2819 Clouds 18 1022 73 10000 1.79 96 20:34 01.07.2022
2820 Clouds 19 1022 70 10000 2.24 107 19:37 01.07.2022
2821 Clouds 19 1022 70 10000 2.57 140 17:18 01.07.2022
2822 Clouds 18 1022 77 10000 1.79 92 14:34 01.07.2022
2823 Clouds 17 1021 84 10000 1.03 0 13:51 01.07.2022
2824 Clouds 14 1021 84 10000 1.03 0 11:22 01.07.2022
2825 Clouds 14 1021 88 7000 2.06 340 10:19 01.07.2022
2826 Rain 14 1021 91 5000 1.03 160 07:38 01.07.2022
2827 Rain 14 1019 87 10000 1.03 0 02:43 01.07.2022
2828 Clouds 14 1019 87 10000 3.09 260 00:21 01.07.2022
2829 Rain 15 1018 88 10000 4.12 290 22:52 30.06.2022
2830 Rain 15 1018 88 10000 4.12 290 22:32 30.06.2022
2831 Rain 15 1018 88 10000 4.12 290 22:32 30.06.2022
2832 Rain 15 1018 88 10000 4.12 290 22:32 30.06.2022
2833 Rain 17 1016 94 10000 1.54 150 21:54 30.06.2022
2834 Thunderstorm 18 1016 78 10000 2.06 120 20:53 30.06.2022
2835 Thunderstorm 19 1015 77 10000 3.6 100 20:21 30.06.2022
2836 Thunderstorm 19 1012 94 10000 1.54 0 19:48 30.06.2022
2837 Thunderstorm 22 1011 76 10000 5.66 160 18:56 30.06.2022
2838 Clouds 26 1010 51 10000 2.06 140 18:22 30.06.2022
2839 Clouds 27 1010 54 10000 4.12 150 17:34 30.06.2022
2840 Clouds 28 1012 44 10000 4.63 160 16:20 30.06.2022
2841 Clouds 28 1013 42 10000 3.6 280 14:20 30.06.2022
2842 Clouds 27 1014 45 10000 2.68 271 13:29 30.06.2022
2843 Clear 26 1014 54 10000 3.09 290 12:34 30.06.2022
2844 Clouds 25 1014 59 10000 3.09 260 11:21 30.06.2022
2845 Clouds 23 1014 68 10000 1.34 273 09:52 30.06.2022
2846 Clouds 21 1014 69 10000 2.24 220 09:26 30.06.2022
2847 Clouds 18 1014 83 10000 0.45 204 07:41 30.06.2022
2848 Clear 15 1014 83 10000 1.03 0 05:46 30.06.2022
2849 Clouds 18 1017 80 10000 0.45 59 00:26 30.06.2022
2850 Clouds 19 1015 77 10000 0.51 0 22:53 29.06.2022
2851 Clouds 19 1015 75 10000 1.34 59 22:33 29.06.2022
2852 Clear 24 1013 53 10000 2.06 20 20:56 29.06.2022
2853 Clear 24 1014 54 10000 2.68 38 20:32 29.06.2022
2854 Clouds 26 1014 40 10000 2.24 61 19:33 29.06.2022
2855 Clouds 26 1015 52 10000 3.09 40 17:40 29.06.2022
2856 Clouds 26 1016 46 10000 3.09 300 16:33 29.06.2022
2857 Clouds 25 1016 55 10000 1.54 60 14:19 29.06.2022
2858 Clouds 23 1017 58 10000 1.79 38 12:39 29.06.2022
2859 Clear 21 1017 72 10000 2.24 230 10:20 29.06.2022
2860 Clear 20 1017 77 10000 3.09 110 09:31 29.06.2022
2861 Clouds 16 1018 89 10000 0.51 0 07:30 29.06.2022
2862 Clouds 15 1018 87 10000 1.4 219 04:49 29.06.2022
2863 Clouds 17 1019 85 10000 0.45 67 00:55 29.06.2022
2864 Clouds 17 1019 84 10000 0.45 67 00:35 29.06.2022
2865 Clouds 17 1019 83 10000 0.45 67 22:53 28.06.2022
2866 Clouds 17 1019 82 10000 0.77 9 22:21 28.06.2022
2867 Clouds 18 1018 83 10000 1.03 80 21:50 28.06.2022
2868 Clouds 18 1018 81 10000 1.54 90 21:30 28.06.2022
2869 Clouds 18 1018 81 10000 1.54 110 20:20 28.06.2022
2870 Clouds 19 1018 78 10000 1.03 0 19:32 28.06.2022
2871 Clouds 19 1018 78 10000 1.03 0 19:32 28.06.2022
2872 Clouds 19 1018 78 10000 1.34 19 18:44 28.06.2022
2873 Clouds 20 1017 82 10000 0 0 17:38 28.06.2022
2874 Clouds 20 1018 79 10000 1.54 40 15:56 28.06.2022
2875 Clouds 20 1018 79 10000 1.54 40 15:56 28.06.2022
2876 Clouds 19 1018 80 10000 1.54 70 14:59 28.06.2022
2877 Clouds 19 1018 73 10000 2.06 50 14:20 28.06.2022
2878 Clouds 19 1019 79 10000 1.54 50 13:49 28.06.2022
2879 Clouds 19 1020 74 10000 2.57 40 12:48 28.06.2022
2880 Clouds 19 1020 76 10000 1.54 0 10:46 28.06.2022
2881 Clouds 17 1021 87 10000 2.57 150 09:25 28.06.2022
2882 Clouds 15 1021 87 10000 1.79 51 08:43 28.06.2022
2883 Clouds 14 1022 88 10000 2.06 40 07:20 28.06.2022
2884 Clouds 14 1023 85 10000 2.06 100 04:59 28.06.2022
2885 Clouds 16 1023 82 10000 1.79 65 23:59 27.06.2022
2886 Clouds 16 1023 81 10000 2.24 40 23:36 27.06.2022
2887 Clouds 16 1023 82 10000 1.79 90 22:50 27.06.2022
2888 Clouds 17 1022 81 10000 4.47 125 21:30 27.06.2022
2889 Clouds 17 1023 76 10000 4.47 109 20:38 27.06.2022
2890 Clouds 18 1022 77 10000 2.24 90 18:55 27.06.2022
2891 Clouds 18 1021 74 10000 1.54 70 17:46 27.06.2022
2892 Rain 21 1020 64 10000 1.54 220 16:18 27.06.2022
2893 Clouds 20 1020 62 10000 4.12 280 14:44 27.06.2022
2894 Clouds 20 1020 61 10000 4.12 260 13:24 27.06.2022
2895 Clouds 20 1020 63 10000 3.09 310 12:49 27.06.2022
2896 Clouds 21 1019 63 10000 3.6 310 10:22 27.06.2022
2897 Clouds 20 1018 71 10000 1.03 0 08:43 27.06.2022
2898 Clouds 19 1017 77 10000 0.51 0 07:53 27.06.2022
2899 Clouds 18 1016 76 10000 0.51 0 06:38 27.06.2022
2900 Clouds 20 1016 77 10000 4.12 320 01:54 27.06.2022
2901 Clouds 19 1012 80 10000 0.51 0 23:39 26.06.2022
2902 Clouds 22 1011 73 10000 1.54 320 21:51 26.06.2022
2903 Clouds 24 1013 55 10000 2.68 30 20:34 26.06.2022
2904 Clouds 26 1013 56 10000 4.47 19 19:22 26.06.2022
2905 Clouds 26 1014 53 10000 4.47 14 18:24 26.06.2022
2906 Clouds 26 1014 57 10000 3.6 310 15:53 26.06.2022
2907 Clouds 26 1015 58 10000 3.13 348 14:34 26.06.2022
2908 Clouds 24 1016 67 10000 2.68 348 13:29 26.06.2022
2909 Clouds 23 1016 71 10000 2.68 44 12:44 26.06.2022
2910 Clouds 22 1015 81 10000 3.09 330 10:53 26.06.2022
2911 Clouds 20 1017 85 10000 3.09 330 10:23 26.06.2022
2912 Clouds 18 1017 92 10000 1.34 281 08:45 26.06.2022
2913 Clouds 17 1018 92 10000 0.45 170 07:23 26.06.2022
2914 Rain 17 1017 88 9000 2.57 10 00:48 26.06.2022
2915 Rain 18 1017 85 6000 3.6 260 00:20 26.06.2022
2916 Rain 19 1016 73 10000 4.47 285 23:33 25.06.2022
2917 Clouds 20 1014 70 10000 4.92 132 22:51 25.06.2022
2918 Clouds 20 1014 64 10000 4.47 146 22:26 25.06.2022
2919 Clouds 22 1014 57 10000 2.68 132 21:23 25.06.2022
2920 Clouds 24 1012 57 10000 2.06 100 20:59 25.06.2022
2921 Clouds 24 1014 53 10000 1.03 0 20:25 25.06.2022
2922 Clouds 26 1013 41 10000 1.54 0 18:45 25.06.2022
2923 Clouds 26 1014 41 10000 1.54 0 17:28 25.06.2022
2924 Clouds 26 1014 43 10000 2.57 320 16:44 25.06.2022
2925 Clouds 25 1014 47 10000 3.09 330 14:50 25.06.2022
2926 Clouds 23 1015 59 10000 2.68 17 12:56 25.06.2022
2927 Clouds 23 1015 61 10000 2.68 30 12:37 25.06.2022
2928 Clear 20 1016 67 10000 3.13 35 10:30 25.06.2022
2929 Clear 17 1017 84 10000 3.09 100 08:56 25.06.2022
2930 Clear 16 1017 88 10000 3.09 100 08:28 25.06.2022
2931 Clouds 13 1017 92 10000 2.06 110 06:46 25.06.2022
2932 Clouds 13 1017 90 10000 1.54 90 01:53 25.06.2022
2933 Clouds 14 1017 88 10000 2.57 120 00:21 25.06.2022
2934 Clouds 16 1016 87 10000 1.54 140 22:31 24.06.2022
2935 Clouds 17 1016 83 10000 3.6 170 21:29 24.06.2022
2936 Clouds 18 1015 82 10000 2.57 120 20:25 24.06.2022
2937 Clouds 18 1015 81 10000 1.34 236 19:43 24.06.2022
2938 Clouds 18 1015 83 10000 2.68 254 19:18 24.06.2022
2939 Clouds 18 1015 82 10000 2.06 320 18:46 24.06.2022
2940 Clouds 18 1015 83 10000 2.57 260 18:28 24.06.2022
2941 Rain 16 1015 87 10000 3.6 250 16:52 24.06.2022
2942 Rain 16 1014 88 10000 5.66 290 15:27 24.06.2022
2943 Rain 16 1015 85 6934 4.92 263 14:25 24.06.2022
2944 Rain 18 1013 85 10000 2.57 310 13:46 24.06.2022
2945 Clouds 20 1012 84 10000 3.6 300 11:42 24.06.2022
2946 Clouds 20 1013 84 10000 1.79 209 10:42 24.06.2022
2947 Clouds 19 1012 88 10000 2.24 286 09:42 24.06.2022
2948 Clouds 18 1013 90 10000 1.79 100 08:54 24.06.2022
2949 Clouds 17 1013 93 10000 2.57 100 08:32 24.06.2022
2950 Rain 16 1014 91 10000 2.06 110 06:45 24.06.2022
2951 Rain 15 1014 92 10000 1.03 0 06:26 24.06.2022
2952 Clouds 15 1014 91 10000 2.06 90 04:50 24.06.2022
2953 Clouds 17 1015 88 10000 3.6 100 23:43 23.06.2022
2954 Clouds 17 1015 88 10000 2.06 90 22:43 23.06.2022
2955 Clouds 17 1016 87 10000 2.68 95 21:40 23.06.2022
2956 Rain 17 1016 84 6000 3.09 70 20:42 23.06.2022
2957 Thunderstorm 18 1015 80 800 10.8 240 19:55 23.06.2022
2958 Clouds 25 1011 48 10000 3.6 140 18:38 23.06.2022
2959 Rain 27 1011 44 10000 2.57 320 17:35 23.06.2022
2960 Clouds 27 1012 43 10000 3.09 310 16:32 23.06.2022
2961 Clear 28 1013 43 10000 3.09 310 15:26 23.06.2022
2962 Clouds 28 1013 48 10000 2.06 330 14:36 23.06.2022
2963 Clear 24 1015 64 10000 2.24 78 11:42 23.06.2022
2964 Clear 22 1015 69 10000 0 0 10:41 23.06.2022
2965 Clouds 20 1016 76 10000 2.57 90 09:19 23.06.2022
2966 Clouds 16 1016 91 10000 1.03 0 04:48 23.06.2022
2967 Rain 17 1017 88 10000 1.03 0 00:27 23.06.2022
2968 Rain 17 1017 86 10000 2.06 110 23:52 22.06.2022
2969 Clouds 17 1016 85 10000 2.06 60 23:18 22.06.2022
2970 Clouds 17 1015 85 10000 3.09 100 21:36 22.06.2022
2971 Clouds 17 1015 85 10000 2.06 60 20:51 22.06.2022
2972 Clouds 18 1016 81 10000 1.03 170 20:19 22.06.2022
2973 Clouds 19 1014 81 2400 12.86 310 19:30 22.06.2022
2974 Clouds 26 1012 59 10000 3.6 310 17:40 22.06.2022
2975 Clouds 26 1012 59 10000 3.09 300 16:41 22.06.2022
2976 Clear 25 1012 59 10000 1.54 0 15:29 22.06.2022
2977 Clouds 25 1013 61 10000 2.24 312 14:47 22.06.2022
2978 Clouds 22 1013 72 10000 3.09 120 13:47 22.06.2022
2979 Clouds 21 1014 74 10000 1.54 90 13:24 22.06.2022
2980 Rain 20 1015 82 10000 1.54 100 11:54 22.06.2022
2981 Clouds 19 1015 85 8000 2.06 360 10:58 22.06.2022
2982 Rain 19 1015 83 8000 2.06 360 10:36 22.06.2022
2983 Rain 19 1015 82 7000 2.24 253 09:18 22.06.2022
2984 Clouds 19 1014 77 10000 1.54 0 06:55 22.06.2022
2985 Clouds 19 1012 88 10000 1.54 0 01:59 22.06.2022
2986 Clouds 19 1012 88 10000 2.06 70 00:57 22.06.2022
2987 Clouds 21 1012 83 10000 0.51 0 22:49 21.06.2022
2988 Clouds 23 1011 78 10000 1.03 0 20:47 21.06.2022
2989 Thunderstorm 28 1012 32 10000 1.54 0 19:20 21.06.2022
2990 Clouds 30 1012 31 10000 1.54 290 17:47 21.06.2022
2991 Clear 31 1013 31 10000 3.13 215 16:38 21.06.2022
2992 Clouds 27 1015 50 10000 2.06 20 11:57 21.06.2022
2993 Clouds 24 1015 58 10000 1.34 340 10:38 21.06.2022
2994 Clouds 22 1015 61 10000 0.89 190 09:20 21.06.2022
2995 Clouds 19 1015 75 10000 1.03 0 07:40 21.06.2022
2996 Clouds 18 1014 80 10000 1.34 69 04:42 21.06.2022
2997 Clouds 22 1014 60 10000 1.03 0 00:21 21.06.2022
2998 Clouds 24 1013 57 9000 1.03 0 22:21 20.06.2022
2999 Clouds 26 1013 47 10000 1.54 0 21:36 20.06.2022
3000 Clear 29 1014 39 10000 4.92 34 20:27 20.06.2022
3001 Clear 30 1012 25 10000 4.12 290 19:35 20.06.2022
3002 Clear 32 1014 24 10000 6.69 310 18:25 20.06.2022
3003 Clear 31 1014 24 10000 5.66 310 17:45 20.06.2022
3004 Clear 31 1014 24 10000 5.66 290 16:24 20.06.2022
3005 Clear 31 1015 26 10000 5.81 292 14:41 20.06.2022
3006 Clear 28 1016 33 10000 4.63 300 11:47 20.06.2022
3007 Clear 26 1016 38 10000 2.68 281 09:57 20.06.2022
3008 Clear 23 1016 44 10000 3.58 270 08:46 20.06.2022
3009 Clear 21 1015 60 10000 2.24 234 07:36 20.06.2022
3010 Clear 18 1013 88 10000 0.51 0 04:56 20.06.2022
3011 Clouds 21 1012 73 10000 4.63 100 01:32 20.06.2022
3012 Clouds 24 1011 64 10000 5.14 130 23:49 19.06.2022
3013 Clouds 26 1011 57 10000 4.63 120 22:25 19.06.2022
3014 Clouds 27 1011 47 10000 5.66 160 21:42 19.06.2022
3015 Clouds 30 1010 35 10000 3.09 230 20:52 19.06.2022
3016 Clouds 34 1010 27 10000 3.6 270 19:49 19.06.2022
3017 Clouds 34 1010 27 10000 3.6 270 19:49 19.06.2022
3018 Clouds 32 1010 23 10000 3.6 250 19:25 19.06.2022
3019 Clouds 33 1011 23 10000 4.12 290 18:32 19.06.2022
3020 Clear 34 1012 27 10000 4.47 267 17:43 19.06.2022
3021 Clear 34 1012 29 10000 4.02 280 17:20 19.06.2022
3022 Clear 34 1012 27 10000 3.13 265 16:34 19.06.2022
3023 Clear 34 1013 28 10000 3.13 230 15:35 19.06.2022
3024 Clear 33 1013 31 10000 3.58 260 14:43 19.06.2022
3025 Clear 32 1013 35 10000 2.57 290 13:52 19.06.2022
3026 Clear 31 1014 40 10000 2.68 286 12:26 19.06.2022
3027 Clear 28 1014 46 10000 1.79 314 10:53 19.06.2022
3028 Clear 26 1015 52 10000 1.03 0 09:31 19.06.2022
3029 Clear 24 1015 60 10000 1.03 0 08:35 19.06.2022
3030 Clouds 20 1015 73 10000 0.51 0 07:30 19.06.2022
3031 Clouds 19 1015 70 10000 0.51 0 04:33 19.06.2022
3032 Clouds 22 1016 64 10000 1.03 0 01:28 19.06.2022
3033 Clouds 23 1017 57 10000 1.48 158 00:23 19.06.2022
3034 Clouds 23 1016 58 10000 1.03 0 23:35 18.06.2022
3035 Clouds 23 1015 68 10000 0.51 0 22:36 18.06.2022
3036 Clear 32 1015 29 10000 1.54 340 20:55 18.06.2022
3037 Clear 31 1015 39 10000 1.54 0 20:26 18.06.2022
3038 Clear 32 1017 32 10000 2.06 30 19:25 18.06.2022
3039 Clear 32 1017 27 10000 2.57 30 18:44 18.06.2022
3040 Clear 34 1017 27 10000 4.92 51 17:30 18.06.2022
3041 Clear 34 1017 27 10000 4.92 51 17:30 18.06.2022
3042 Clear 34 1018 26 10000 4.02 52 16:23 18.06.2022
3043 Clear 33 1020 27 10000 3.58 35 15:18 18.06.2022
3044 Clear 33 1021 28 10000 3.13 49 14:42 18.06.2022
3045 Clear 30 1022 38 10000 3.13 51 12:51 18.06.2022
3046 Clear 28 1022 44 10000 1.34 46 11:33 18.06.2022
3047 Clear 25 1023 47 10000 1.79 55 10:26 18.06.2022
3048 Clear 23 1023 55 10000 2.57 90 09:20 18.06.2022
3049 Clear 20 1024 63 10000 1.54 0 08:18 18.06.2022
3050 Clouds 16 1024 70 10000 0.51 0 06:43 18.06.2022
3051 Clouds 17 1025 69 10000 1.79 211 03:24 18.06.2022
3052 Clouds 19 1025 59 10000 0.45 71 01:24 18.06.2022
3053 Clouds 18 1024 73 10000 0.51 0 00:42 18.06.2022
3054 Clouds 19 1024 70 10000 1.03 0 23:52 17.06.2022
3055 Clouds 20 1024 62 10000 0.51 0 22:56 17.06.2022
3056 Clear 27 1024 36 10000 2.06 10 20:42 17.06.2022
3057 Clear 29 1024 28 10000 3.13 22 19:29 17.06.2022
3058 Clear 30 1024 26 10000 3.09 310 18:34 17.06.2022
3059 Clear 30 1024 24 10000 2.57 290 17:34 17.06.2022
3060 Clear 30 1024 25 10000 3.13 24 16:42 17.06.2022
3061 Clear 30 1024 28 10000 4.02 313 15:42 17.06.2022
3062 Clear 29 1025 30 10000 4.63 310 14:50 17.06.2022
3063 Clear 29 1025 32 10000 3.13 11 14:19 17.06.2022
3064 Clear 29 1025 32 10000 2.24 55 13:44 17.06.2022
3065 Clear 27 1025 37 10000 2.68 15 12:45 17.06.2022
3066 Clear 26 1025 41 10000 3.13 28 11:56 17.06.2022
3067 Clear 26 1025 46 10000 3.58 12 11:35 17.06.2022
3068 Clear 24 1026 48 10000 1.79 19 10:48 17.06.2022
3069 Clear 24 1026 48 10000 1.79 19 10:48 17.06.2022
3070 Clouds 18 1026 67 10000 0.45 44 08:29 17.06.2022
3071 Clouds 16 1025 73 10000 1.03 40 06:58 17.06.2022
3072 Clouds 16 1024 71 10000 0.46 86 05:35 17.06.2022
3073 Clear 18 1026 69 10000 0.94 108 02:42 17.06.2022
3074 Clear 19 1026 67 10000 0.45 350 00:36 17.06.2022
3075 Clear 21 1022 68 10000 0.51 0 22:44 16.06.2022
3076 Clear 25 1021 41 10000 2.06 310 21:36 16.06.2022
3077 Clouds 27 1021 39 10000 3.09 320 21:18 16.06.2022
3078 Clouds 28 1021 36 10000 2.57 330 20:36 16.06.2022
3079 Clouds 29 1020 34 10000 3.6 360 19:56 16.06.2022
3080 Clouds 30 1021 30 10000 4.02 329 18:30 16.06.2022
3081 Clouds 30 1021 31 10000 4.63 280 17:44 16.06.2022
3082 Clouds 30 1021 30 10000 4.92 302 16:40 16.06.2022
3083 Clouds 30 1022 32 10000 4.47 322 15:24 16.06.2022
3084 Clear 29 1022 31 10000 5.14 300 14:56 16.06.2022
3085 Clouds 29 1022 34 10000 5.14 270 13:45 16.06.2022
3086 Clouds 28 1022 38 10000 4.63 290 12:37 16.06.2022
3087 Clouds 28 1022 43 10000 3.13 303 11:53 16.06.2022
3088 Clouds 27 1022 46 10000 3.13 290 11:18 16.06.2022
3089 Clouds 26 1022 51 10000 1.79 224 10:33 16.06.2022
3090 Clouds 23 1021 55 10000 2.57 90 09:25 16.06.2022
3091 Clouds 22 1021 61 10000 2.57 90 08:46 16.06.2022
3092 Clouds 19 1020 73 10000 3.09 100 07:29 16.06.2022
3093 Clouds 18 1019 83 10000 1.54 90 05:31 16.06.2022
3094 Clouds 18 1019 72 10000 3.09 80 02:54 16.06.2022
3095 Rain 19 1019 72 10000 2.57 110 01:51 16.06.2022
3096 Clouds 20 1019 74 10000 3.09 100 01:21 16.06.2022
3097 Clouds 20 1019 74 10000 3.09 100 01:21 16.06.2022
3098 Clouds 21 1019 60 10000 5.14 120 23:56 15.06.2022
3099 Clouds 21 1019 60 10000 5.14 120 23:56 15.06.2022
3100 Clouds 22 1018 60 10000 4.63 140 22:45 15.06.2022
3101 Clouds 26 1017 58 10000 1.54 110 21:28 15.06.2022
3102 Clouds 26 1017 50 10000 2.57 100 20:57 15.06.2022
3103 Clouds 27 1018 38 10000 2.57 100 20:35 15.06.2022
3104 Clouds 29 1016 39 10000 4.63 260 19:46 15.06.2022
3105 Clouds 29 1018 39 10000 4.92 259 18:29 15.06.2022
3106 Rain 29 1018 39 10000 4.63 250 17:42 15.06.2022
3107 Clouds 31 1018 32 10000 3.6 270 16:20 15.06.2022
3108 Clear 30 1019 35 10000 4.12 300 14:33 15.06.2022
3109 Clouds 28 1019 38 10000 3.13 281 13:20 15.06.2022
3110 Clouds 27 1019 39 10000 2.24 240 12:33 15.06.2022
3111 Clouds 25 1020 47 10000 1.34 273 10:53 15.06.2022
3112 Clouds 24 1020 52 10000 1.79 279 10:20 15.06.2022
3113 Clouds 21 1019 62 10000 2.06 160 08:58 15.06.2022
3114 Clouds 16 1019 72 10000 1.03 0 07:32 15.06.2022
3115 Clear 15 1020 72 10000 1.49 191 05:24 15.06.2022
3116 Clouds 16 1019 71 10000 0.89 105 02:31 15.06.2022
3117 Clouds 15 1019 71 10000 0.51 0 01:36 15.06.2022
3118 Clouds 16 1019 75 10000 0.89 34 00:18 15.06.2022
3119 Clouds 16 1019 75 10000 0.45 34 23:38 14.06.2022
3120 Clouds 17 1017 72 10000 0 0 22:45 14.06.2022
3121 Clouds 21 1017 60 10000 0.51 0 21:43 14.06.2022
3122 Clear 25 1017 44 10000 2.06 40 20:58 14.06.2022
3123 Clear 25 1017 44 10000 2.06 40 20:36 14.06.2022
3124 Clear 27 1017 39 10000 2.06 330 19:47 14.06.2022
3125 Clear 27 1018 34 10000 2.68 11 18:33 14.06.2022
3126 Clear 28 1019 31 10000 4.12 320 16:50 14.06.2022
3127 Clear 27 1019 31 10000 5.14 290 16:25 14.06.2022
3128 Clear 27 1019 30 10000 3.09 310 15:36 14.06.2022
3129 Clear 27 1020 33 10000 3.13 120 14:53 14.06.2022
3130 Clear 25 1020 38 10000 3.09 310 13:57 14.06.2022
3131 Clear 24 1021 43 10000 2.24 355 12:58 14.06.2022
3132 Clear 22 1021 48 10000 2.68 21 11:54 14.06.2022
3133 Clear 20 1022 50 10000 3.13 42 10:51 14.06.2022
3134 Clear 19 1022 51 10000 2.24 48 10:25 14.06.2022
3135 Clear 19 1022 51 10000 2.24 48 10:25 14.06.2022
3136 Clear 17 1022 59 10000 1.79 59 08:52 14.06.2022
3137 Clear 16 1022 62 10000 0.45 197 08:23 14.06.2022
3138 Clear 12 1022 69 10000 0.45 185 06:19 14.06.2022
3139 Clear 13 1023 69 10000 0.89 61 03:45 14.06.2022
3140 Clear 12 1022 80 10000 0.51 0 01:37 14.06.2022
3141 Clear 14 1023 67 10000 0.51 0 00:21 14.06.2022
3142 Clear 15 1021 67 10000 0.51 0 22:39 13.06.2022
3143 Clear 16 1021 63 10000 0.51 0 22:19 13.06.2022
3144 Clear 22 1021 35 10000 1.54 350 21:26 13.06.2022
3145 Clear 25 1020 27 10000 3.6 320 19:59 13.06.2022
3146 Clear 25 1022 25 10000 3.13 340 18:54 13.06.2022
3147 Clouds 25 1022 28 10000 4.02 33 17:55 13.06.2022
3148 Clouds 25 1022 27 10000 3.6 310 17:23 13.06.2022
3149 Clouds 25 1022 31 10000 3.13 340 16:30 13.06.2022
3150 Clouds 25 1022 38 10000 2.57 320 14:49 13.06.2022
3151 Clouds 25 1022 40 10000 3.58 322 14:31 13.06.2022
3152 Clouds 24 1022 45 10000 4.47 291 13:31 13.06.2022
3153 Clouds 23 1023 52 10000 3.58 300 12:22 13.06.2022
3154 Clouds 22 1023 58 10000 3.09 310 10:37 13.06.2022
3155 Clouds 21 1022 63 10000 1.34 302 09:54 13.06.2022
3156 Clouds 20 1022 70 10000 1.03 0 08:40 13.06.2022
3157 Clouds 18 1021 79 10000 1.54 60 06:36 13.06.2022
3158 Clouds 17 1020 86 10000 1.03 0 04:43 13.06.2022
3159 Clouds 19 1021 74 10000 1.03 0 01:55 13.06.2022
3160 Clouds 19 1021 75 10000 1.03 0 01:34 13.06.2022
3161 Clouds 19 1021 71 10000 3.09 110 23:48 12.06.2022
3162 Rain 20 1021 72 10000 2.57 90 22:39 12.06.2022
3163 Clouds 23 1020 59 10000 0.51 0 21:46 12.06.2022
3164 Clouds 25 1019 49 10000 2.06 260 20:53 12.06.2022
3165 Clouds 27 1020 35 10000 3.6 280 19:59 12.06.2022
3166 Clear 28 1021 35 10000 3.13 296 19:25 12.06.2022
3167 Clouds 29 1021 27 10000 3.6 270 17:40 12.06.2022
3168 Clouds 29 1022 25 10000 3.6 310 15:54 12.06.2022
3169 Clear 29 1022 28 10000 3.09 270 14:51 12.06.2022
3170 Clouds 29 1022 29 10000 2.68 210 14:19 12.06.2022
3171 Clear 28 1023 33 10000 1.79 273 13:46 12.06.2022
3172 Clear 26 1024 40 10000 1.34 235 12:31 12.06.2022
3173 Clear 24 1024 43 10000 0.89 264 11:19 12.06.2022
3174 Clear 22 1025 49 10000 1.03 150 10:21 12.06.2022
3175 Clear 19 1025 64 10000 0.45 231 08:52 12.06.2022
3176 Clear 19 1025 62 10000 0.45 222 08:33 12.06.2022
3177 Clear 13 1025 77 10000 0.51 0 06:49 12.06.2022
3178 Clear 13 1025 78 10000 0.51 0 06:49 12.06.2022
3179 Clear 13 1025 70 10000 0.45 95 04:35 12.06.2022
3180 Clear 14 1025 69 10000 1.29 153 02:32 12.06.2022
3181 Clear 15 1025 72 10000 0.51 0 01:36 12.06.2022
3182 Clear 15 1025 67 10000 1.54 0 00:57 12.06.2022
3183 Clear 16 1026 70 10000 0.45 67 00:19 12.06.2022
3184 Clear 16 1026 70 10000 0.45 67 00:19 12.06.2022
3185 Clear 17 1026 66 10000 1.79 67 23:21 11.06.2022
3186 Clear 17 1023 72 10000 0.51 0 22:37 11.06.2022
3187 Clear 23 1023 48 10000 1.03 0 21:31 11.06.2022
3188 Clear 25 1024 38 10000 1.79 33 20:27 11.06.2022
3189 Clear 26 1024 25 10000 1.79 13 19:36 11.06.2022
3190 Clear 26 1024 27 10000 2.57 320 18:45 11.06.2022
3191 Clear 27 1024 31 10000 2.06 310 18:27 11.06.2022
3192 Clear 27 1024 31 10000 3.09 310 17:48 11.06.2022
3193 Clouds 27 1024 30 10000 4.12 300 17:26 11.06.2022
3194 Clouds 27 1024 30 10000 4.12 300 17:26 11.06.2022
3195 Clear 26 1024 31 10000 3.6 310 16:44 11.06.2022
3196 Clear 26 1024 32 10000 4.12 280 16:25 11.06.2022
3197 Clear 26 1024 34 10000 2.57 300 15:18 11.06.2022
3198 Clear 24 1025 42 10000 3.6 320 13:52 11.06.2022
3199 Clear 23 1025 46 10000 1.79 113 12:19 11.06.2022
3200 Clear 20 1025 56 10000 2.68 350 10:32 11.06.2022
3201 Clear 18 1026 62 10000 2.06 90 09:42 11.06.2022
3202 Clear 16 1026 72 10000 2.57 90 08:45 11.06.2022
3203 Clear 11 1025 80 10000 1.34 309 06:34 11.06.2022
3204 Clear 11 1025 82 10000 0.51 0 05:53 11.06.2022
3205 Clear 11 1025 75 10000 1.27 137 03:31 11.06.2022
3206 Clear 12 1026 81 10000 1.18 134 01:51 11.06.2022
3207 Clear 13 1025 72 10000 1.28 133 01:26 11.06.2022
3208 Clear 14 1023 80 10000 0.51 0 23:27 10.06.2022
3209 Clear 16 1023 71 10000 1.03 0 22:27 10.06.2022
3210 Clear 18 1023 55 10000 1.03 0 21:46 10.06.2022
3211 Clear 21 1023 46 10000 2.06 340 20:39 10.06.2022
3212 Clear 21 1023 50 10000 3.58 15 20:19 10.06.2022
3213 Clear 22 1023 42 10000 3.58 26 19:19 10.06.2022
3214 Clouds 22 1023 42 10000 4.02 355 18:44 10.06.2022
3215 Clouds 22 1023 41 10000 3.58 40 17:54 10.06.2022
3216 Clouds 23 1023 40 10000 3.09 50 17:22 10.06.2022
3217 Clouds 22 1024 40 10000 3.13 355 16:26 10.06.2022
3218 Clouds 22 1024 41 10000 2.68 17 15:39 10.06.2022
3219 Clouds 21 1024 45 10000 3.58 26 14:28 10.06.2022
3220 Clouds 20 1025 48 10000 3.58 22 12:58 10.06.2022
3221 Clouds 18 1025 55 10000 2.68 16 11:59 10.06.2022
3222 Clear 17 1025 60 10000 3.58 90 10:46 10.06.2022
3223 Clear 15 1025 64 10000 2.68 40 09:56 10.06.2022
3224 Clear 13 1025 73 10000 3.09 100 08:48 10.06.2022
3225 Clear 11 1025 82 10000 2.57 100 07:41 10.06.2022
3226 Clear 9 1025 83 10000 3.09 100 06:46 10.06.2022
3227 Clear 8 1025 84 10000 2.57 110 06:27 10.06.2022
3228 Clear 9 1024 80 10000 1.07 137 04:47 10.06.2022
3229 Clear 10 1024 85 10000 2.57 100 01:59 10.06.2022
3230 Clear 10 1024 84 10000 2.57 100 01:36 10.06.2022
3231 Clear 10 1024 84 10000 2.57 100 01:36 10.06.2022
3232 Clouds 11 1023 81 10000 4.12 130 23:57 09.06.2022
3233 Clouds 12 1023 76 10000 1.03 0 22:22 09.06.2022
3234 Clouds 14 1022 67 10000 1.03 0 21:37 09.06.2022
3235 Clouds 14 1022 65 10000 2.57 340 21:18 09.06.2022
3236 Clouds 16 1022 57 10000 3.6 330 20:27 09.06.2022
3237 Clouds 17 1021 50 10000 3.58 310 19:31 09.06.2022
3238 Clouds 17 1021 50 10000 3.58 310 19:31 09.06.2022
3239 Clouds 17 1020 51 10000 3.09 270 18:35 09.06.2022
3240 Clouds 18 1020 46 10000 4.47 270 17:25 09.06.2022
3241 Clouds 18 1020 49 10000 5.14 270 16:21 09.06.2022
3242 Clouds 17 1020 59 10000 6.26 275 14:42 09.06.2022
3243 Clouds 16 1020 61 10000 3.6 230 14:23 09.06.2022
3244 Clouds 16 1020 61 10000 4.12 260 13:29 09.06.2022
3245 Clouds 15 1020 69 10000 4.63 270 12:21 09.06.2022
3246 Rain 15 1018 71 10000 3.58 280 11:19 09.06.2022
3247 Clouds 16 1018 68 10000 1.54 90 09:50 09.06.2022
3248 Clouds 15 1018 68 10000 1.54 110 09:31 09.06.2022
3249 Clouds 13 1018 77 10000 3.6 130 08:21 09.06.2022
3250 Clouds 12 1017 77 10000 1.03 0 06:55 09.06.2022
3251 Clouds 12 1016 74 10000 2.06 220 03:22 09.06.2022
3252 Clouds 14 1014 81 10000 3.13 240 23:55 08.06.2022
3253 Rain 16 1013 72 10000 1.54 270 22:59 08.06.2022
3254 Clouds 15 1013 79 10000 3.09 310 22:27 08.06.2022
3255 Clouds 16 1013 73 10000 2.06 280 21:57 08.06.2022
3256 Clouds 16 1013 70 10000 2.68 253 21:24 08.06.2022
3257 Clouds 17 1014 64 10000 2.68 241 20:22 08.06.2022
3258 Clouds 17 1012 63 10000 3.6 250 19:39 08.06.2022
3259 Clouds 18 1012 68 10000 5.14 280 18:48 08.06.2022
3260 Clouds 17 1012 72 10000 2.57 300 17:35 08.06.2022
3261 Rain 16 1014 67 10000 4.63 280 15:52 08.06.2022
3262 Rain 19 1013 58 10000 5.36 277 14:18 08.06.2022
3263 Clouds 20 1013 54 10000 2.24 240 12:46 08.06.2022
3264 Clouds 19 1013 55 10000 2.24 275 11:35 08.06.2022
3265 Clouds 18 1013 63 10000 1.03 0 10:37 08.06.2022
3266 Clear 15 1014 68 10000 2.06 130 09:28 08.06.2022
3267 Clear 15 1015 71 10000 1.03 0 08:49 08.06.2022
3268 Clouds 10 1015 80 10000 0.51 0 06:43 08.06.2022
3269 Clouds 10 1016 78 10000 1.54 0 04:35 08.06.2022
3270 Clouds 13 1018 69 10000 0.87 128 00:57 08.06.2022
3271 Clouds 14 1018 72 10000 1.03 0 23:31 07.06.2022
3272 Clouds 14 1018 74 10000 1.03 0 22:51 07.06.2022
3273 Clouds 15 1018 65 10000 1.03 0 22:33 07.06.2022
3274 Clouds 17 1017 55 10000 3.09 280 21:37 07.06.2022
3275 Clear 18 1017 52 10000 4.12 290 21:18 07.06.2022
3276 Clouds 19 1017 48 10000 4.63 280 20:37 07.06.2022
3277 Clouds 19 1017 60 10000 6.17 270 19:49 07.06.2022
3278 Clouds 20 1017 58 10000 4.47 291 18:25 07.06.2022
3279 Clouds 21 1017 62 10000 4.02 355 17:31 07.06.2022
3280 Clouds 20 1017 66 10000 4.47 300 16:44 07.06.2022
3281 Clouds 20 1017 68 10000 1.79 254 15:58 07.06.2022
3282 Clouds 20 1017 69 10000 2.68 281 15:30 07.06.2022
3283 Clouds 19 1018 70 10000 3.13 279 14:56 07.06.2022
3284 Clouds 19 1018 73 10000 3.09 300 14:38 07.06.2022
3285 Clouds 18 1018 80 10000 4.02 270 13:33 07.06.2022
3286 Clouds 17 1019 83 10000 3.13 250 12:54 07.06.2022
3287 Clouds 18 1019 73 10000 2.06 220 11:51 07.06.2022
3288 Clouds 18 1019 78 10000 2.57 180 10:48 07.06.2022
3289 Clouds 16 1019 89 10000 3.09 130 08:53 07.06.2022
3290 Clouds 15 1019 91 10000 1.54 90 07:47 07.06.2022
3291 Rain 15 1019 90 4200 1.34 252 06:39 07.06.2022
3292 Rain 15 1018 88 9000 1.54 350 04:41 07.06.2022
3293 Rain 16 1019 82 10000 1.54 260 01:27 07.06.2022
3294 Clouds 17 1019 80 10000 1.03 0 23:53 06.06.2022
3295 Clouds 17 1019 77 10000 2.06 290 22:54 06.06.2022
3296 Clouds 18 1019 76 10000 2.06 260 22:29 06.06.2022
3297 Clouds 19 1019 61 10000 0.45 355 20:47 06.06.2022
3298 Clouds 22 1019 54 10000 0.89 207 19:29 06.06.2022
3299 Clouds 23 1018 54 10000 2.24 311 18:49 06.06.2022
3300 Clouds 24 1018 49 10000 4.12 290 18:21 06.06.2022
3301 Clouds 25 1018 44 10000 4.92 284 17:26 06.06.2022
3302 Clouds 24 1018 54 10000 3.09 310 16:18 06.06.2022
3303 Clouds 23 1019 58 10000 3.13 300 15:28 06.06.2022
3304 Clouds 23 1019 61 10000 1.54 0 14:30 06.06.2022
3305 Clouds 22 1020 64 10000 3.09 300 13:22 06.06.2022
3306 Clouds 21 1020 66 10000 2.68 263 12:36 06.06.2022
3307 Clouds 20 1021 69 10000 2.24 346 11:53 06.06.2022
3308 Clouds 19 1021 76 10000 2.24 250 10:21 06.06.2022
3309 Clouds 17 1021 82 10000 2.24 254 09:24 06.06.2022
3310 Clouds 16 1021 87 10000 0.89 232 08:31 06.06.2022
3311 Clouds 14 1020 91 10000 0.51 0 07:28 06.06.2022
3312 Clouds 13 1020 89 5000 0.51 0 05:18 06.06.2022
3313 Clouds 14 1021 92 10000 1.03 250 02:42 06.06.2022
3314 Clouds 15 1022 87 10000 0.51 0 00:57 06.06.2022
3315 Clouds 15 1022 88 10000 0.51 0 00:37 06.06.2022
3316 Clear 15 1021 87 10000 1.03 0 23:28 05.06.2022
3317 Clouds 15 1021 87 10000 0.51 0 22:45 05.06.2022
3318 Clouds 18 1021 80 10000 1.03 0 20:46 05.06.2022
3319 Clouds 18 1020 83 9000 4.63 270 19:38 05.06.2022
3320 Rain 21 1020 65 10000 6.71 282 18:29 05.06.2022
3321 Clouds 22 1019 66 10000 5.14 280 17:51 05.06.2022
3322 Clouds 22 1019 64 10000 4.47 248 17:24 05.06.2022
3323 Clouds 22 1018 67 10000 4.92 290 16:49 05.06.2022
3324 Rain 23 1017 65 10000 5.36 267 16:30 05.06.2022
3325 Clouds 20 1019 82 10000 3.09 130 14:24 05.06.2022
3326 Rain 19 1018 87 10000 3.09 130 12:49 05.06.2022
3327 Thunderstorm 19 1017 88 10000 2.06 0 11:43 05.06.2022
3328 Rain 21 1017 78 10000 1.03 0 10:33 05.06.2022
3329 Clouds 20 1016 88 10000 1.03 100 09:59 05.06.2022
3330 Clouds 18 1018 89 10000 1.54 80 08:28 05.06.2022
3331 Clouds 18 1018 90 10000 1.03 160 07:41 05.06.2022
3332 Clouds 18 1017 86 10000 4.63 300 05:21 05.06.2022
3333 Clouds 18 1015 74 10000 0.45 230 03:43 05.06.2022
3334 Clouds 18 1015 88 10000 0.51 0 01:32 05.06.2022
3335 Clouds 19 1017 86 10000 2.25 60 00:29 05.06.2022
3336 Clouds 21 1016 78 10000 2.06 40 21:58 04.06.2022
3337 Clear 24 1018 63 10000 2.06 0 20:21 04.06.2022
3338 Clouds 27 1017 49 10000 2.68 355 18:19 04.06.2022
3339 Clear 29 1018 48 10000 2.06 0 16:44 04.06.2022
3340 Clear 28 1018 48 10000 3.58 267 16:18 04.06.2022
3341 Clear 27 1018 52 10000 2.06 30 14:53 04.06.2022
3342 Clouds 25 1018 59 10000 3.09 260 12:35 04.06.2022
3343 Clear 22 1019 74 10000 1.54 0 11:18 04.06.2022
3344 Clear 22 1018 75 10000 1.03 0 10:43 04.06.2022
3345 Clear 20 1020 79 10000 1.79 34 09:42 04.06.2022
3346 Clear 18 1020 86 10000 1.79 54 08:41 04.06.2022
3347 Clouds 16 1020 88 10000 1.54 0 07:40 04.06.2022
3348 Rain 17 1020 86 10000 4.92 254 05:29 04.06.2022
3349 Clouds 17 1018 86 10000 2.57 90 01:27 04.06.2022
3350 Clouds 17 1018 83 10000 3.09 80 23:59 03.06.2022
3351 Clouds 19 1018 69 10000 0.98 129 22:40 03.06.2022
3352 Clear 20 1018 70 10000 2.06 70 21:30 03.06.2022
3353 Clouds 22 1017 53 10000 1.54 90 20:37 03.06.2022
3354 Clouds 23 1018 59 10000 4.12 140 18:28 03.06.2022
3355 Clouds 22 1018 65 10000 3.6 150 16:47 03.06.2022
3356 Rain 21 1018 74 10000 1.34 51 15:37 03.06.2022
3357 Clouds 22 1018 63 10000 6.17 280 13:28 03.06.2022
3358 Rain 23 1016 58 10000 3.58 282 11:40 03.06.2022
3359 Clear 20 1017 68 10000 3.13 336 09:50 03.06.2022
3360 Clear 20 1017 70 10000 2.57 120 09:24 03.06.2022
3361 Clouds 16 1018 82 10000 1.03 0 07:27 03.06.2022
3362 Clouds 15 1018 83 10000 1.03 0 06:39 03.06.2022
3363 Clouds 15 1018 83 10000 1.03 0 06:20 03.06.2022
3364 Clouds 17 1019 78 10000 0.51 0 00:41 03.06.2022
3365 Clouds 18 1019 77 10000 1.03 0 23:31 02.06.2022
3366 Rain 20 1017 75 10000 0.51 0 21:57 02.06.2022
3367 Clouds 23 1018 59 10000 2.06 320 20:22 02.06.2022
3368 Clear 23 1018 54 10000 3.13 323 19:52 02.06.2022
3369 Clear 23 1018 54 10000 4.02 19 19:33 02.06.2022
3370 Clouds 24 1018 55 10000 2.68 41 17:58 02.06.2022
3371 Clouds 25 1018 51 10000 2.57 300 16:28 02.06.2022
3372 Clouds 22 1019 62 10000 1.79 0 14:34 02.06.2022
3373 Clouds 21 1020 65 10000 2.06 310 13:30 02.06.2022
3374 Clouds 21 1020 70 10000 3.13 230 12:40 02.06.2022
3375 Clouds 18 1020 85 10000 1.34 230 10:31 02.06.2022
3376 Clouds 16 1020 89 10000 0.89 286 09:28 02.06.2022
3377 Clouds 15 1019 90 10000 0.51 0 08:28 02.06.2022
3378 Clouds 14 1019 91 10000 0.51 0 07:48 02.06.2022
3379 Clouds 13 1018 89 10000 1.54 290 05:33 02.06.2022
3380 Clouds 14 1019 90 10000 2.06 60 03:48 02.06.2022
3381 Clouds 15 1019 85 10000 2.06 70 23:55 01.06.2022
3382 Clouds 15 1019 82 10000 1.34 191 22:55 01.06.2022
3383 Clouds 15 1018 81 10000 2.06 100 21:45 01.06.2022
3384 Clouds 16 1018 80 10000 2.57 120 21:20 01.06.2022
3385 Clouds 17 1018 75 10000 2.06 140 20:38 01.06.2022
3386 Rain 18 1018 77 10000 3.09 150 19:48 01.06.2022
3387 Clouds 19 1018 66 10000 2.06 290 17:57 01.06.2022
3388 Clouds 18 1018 71 10000 3.13 294 16:41 01.06.2022
3389 Rain 18 1018 72 10000 2.06 290 15:37 01.06.2022
3390 Clouds 19 1018 73 10000 3.13 292 13:57 01.06.2022
3391 Clouds 19 1018 72 10000 2.68 215 12:42 01.06.2022
3392 Clouds 18 1018 73 10000 1.54 110 10:37 01.06.2022
3393 Clouds 16 1018 80 10000 2.06 110 09:26 01.06.2022
3394 Clouds 13 1018 89 10000 2.06 110 07:56 01.06.2022
3395 Clouds 12 1018 90 10000 2.06 140 06:41 01.06.2022
3396 Clouds 12 1018 88 6000 0.51 0 01:30 01.06.2022
3397 Clouds 13 1018 84 10000 0.51 0 23:41 31.05.2022
3398 Clouds 13 1018 83 10000 1.03 0 22:38 31.05.2022
3399 Clouds 13 1018 83 10000 1.03 0 22:38 31.05.2022
3400 Clouds 14 1017 77 10000 1.54 100 21:46 31.05.2022
3401 Clouds 15 1017 74 10000 1.54 0 20:57 31.05.2022
3402 Clouds 15 1017 81 10000 1.54 120 20:33 31.05.2022
3403 Clouds 15 1016 86 10000 1.03 0 18:57 31.05.2022
3404 Rain 15 1016 76 10000 3.58 270 17:51 31.05.2022
3405 Rain 15 1016 74 10000 4.12 250 17:31 31.05.2022
3406 Rain 16 1016 60 10000 4.63 300 15:42 31.05.2022
3407 Clouds 19 1015 42 10000 4.92 275 14:34 31.05.2022
3408 Rain 17 1015 54 10000 8.75 240 12:39 31.05.2022
3409 Rain 17 1015 53 10000 8.75 260 12:18 31.05.2022
3410 Clouds 16 1014 53 10000 4.02 285 09:50 31.05.2022
3411 Clouds 12 1014 67 10000 1.54 110 07:41 31.05.2022
3412 Clouds 12 1014 67 10000 1.54 110 07:41 31.05.2022
3413 Clouds 10 1013 70 10000 1.03 0 05:24 31.05.2022
3414 Clouds 11 1013 65 10000 1.34 90 02:51 31.05.2022
3415 Clouds 13 1011 68 10000 0.51 0 23:29 30.05.2022
3416 Clouds 14 1011 58 10000 1.03 0 23:00 30.05.2022
3417 Clouds 13 1011 67 10000 1.03 0 22:31 30.05.2022
3418 Clouds 15 1010 55 10000 1.03 0 21:35 30.05.2022
3419 Clear 18 1010 44 10000 2.06 20 20:31 30.05.2022
3420 Clouds 20 1011 34 10000 3.09 330 19:38 30.05.2022
3421 Clouds 20 1011 32 10000 2.24 305 17:44 30.05.2022
3422 Clouds 20 1011 33 10000 2.57 310 17:18 30.05.2022
3423 Clouds 19 1011 34 10000 3.13 309 15:44 30.05.2022
3424 Clouds 16 1012 46 10000 2.24 105 12:58 30.05.2022
3425 Clouds 15 1011 50 10000 2.57 300 11:26 30.05.2022
3426 Clouds 12 1011 59 10000 1.34 100 09:39 30.05.2022
3427 Clouds 8 1010 72 10000 0.89 103 07:24 30.05.2022
3428 Clouds 7 1009 83 10000 0.89 67 05:52 30.05.2022
3429 Clouds 10 1010 65 10000 1.34 68 03:18 30.05.2022
3430 Clouds 10 1011 69 10000 0.89 68 23:32 29.05.2022
3431 Clouds 9 1010 71 10000 0.51 0 22:40 29.05.2022
3432 Clear 12 1011 54 10000 2.68 71 21:40 29.05.2022
3433 Clouds 14 1011 49 10000 4.47 80 20:18 29.05.2022
3434 Clouds 16 1010 40 10000 4.47 86 19:28 29.05.2022
3435 Clouds 17 1010 38 10000 4.47 10 17:56 29.05.2022
3436 Clouds 17 1011 38 10000 3.6 310 15:59 29.05.2022
3437 Clouds 17 1011 35 10000 3.6 310 15:40 29.05.2022
3438 Clouds 17 1011 40 10000 4.63 320 14:44 29.05.2022
3439 Clouds 16 1012 38 10000 3.13 342 12:21 29.05.2022
3440 Clouds 15 1012 42 10000 3.58 78 10:56 29.05.2022
3441 Clouds 13 1012 45 10000 2.68 33 09:54 29.05.2022
3442 Clouds 11 1012 58 10000 3.58 62 07:42 29.05.2022
3443 Clouds 10 1011 66 10000 1.03 0 04:51 29.05.2022
3444 Clouds 9 1013 65 10000 1.34 55 04:31 29.05.2022
3445 Clouds 13 1014 47 10000 1.54 310 00:53 29.05.2022
3446 Clouds 14 1014 38 10000 1.54 300 23:47 28.05.2022
3447 Clouds 14 1015 38 10000 1.54 0 23:18 28.05.2022
3448 Clouds 15 1015 38 10000 3.09 310 21:46 28.05.2022
3449 Clouds 17 1015 34 10000 2.06 320 20:40 28.05.2022
3450 Clouds 18 1016 38 10000 4.92 19 19:19 28.05.2022
3451 Clouds 18 1017 40 10000 4.92 21 18:21 28.05.2022
3452 Clouds 19 1017 42 10000 5.81 5 17:30 28.05.2022
3453 Clouds 19 1018 43 10000 4.92 39 15:45 28.05.2022
3454 Clouds 19 1018 42 10000 4.02 355 15:19 28.05.2022
3455 Clouds 19 1019 43 10000 2.57 120 13:29 28.05.2022
3456 Clouds 19 1020 48 10000 3.13 28 12:42 28.05.2022
3457 Clouds 17 1020 53 10000 3.58 36 11:28 28.05.2022
3458 Clouds 16 1021 56 10000 3.13 43 10:34 28.05.2022
3459 Clouds 16 1021 57 10000 4.02 105 09:54 28.05.2022
3460 Clouds 14 1021 65 10000 3.13 59 08:21 28.05.2022
3461 Clouds 14 1021 66 10000 2.24 15 06:33 28.05.2022
3462 Clouds 14 1021 62 10000 2.57 310 04:43 28.05.2022
3463 Clouds 15 1021 74 10000 1.54 300 02:18 28.05.2022
3464 Clouds 16 1022 72 10000 2.06 320 23:55 27.05.2022
3465 Clouds 17 1022 63 10000 3.09 320 22:38 27.05.2022
3466 Clear 17 1022 62 10000 4.63 320 21:22 27.05.2022
3467 Clear 19 1021 49 10000 3.6 330 20:43 27.05.2022
3468 Clear 20 1022 47 10000 3.6 340 20:18 27.05.2022
3469 Clear 22 1021 30 10000 4.12 300 19:37 27.05.2022
3470 Clear 22 1022 40 10000 4.12 280 19:19 27.05.2022
3471 Clear 24 1022 41 10000 4.92 283 16:53 27.05.2022
3472 Clear 24 1023 37 10000 3.6 260 15:55 27.05.2022
3473 Clear 23 1023 43 10000 3.13 292 14:47 27.05.2022
3474 Clear 22 1024 48 10000 3.13 230 13:40 27.05.2022
3475 Clear 20 1025 55 10000 1.79 260 11:55 27.05.2022
3476 Clear 19 1025 56 10000 1.79 267 11:30 27.05.2022
3477 Clear 19 1025 59 10000 1.79 215 10:38 27.05.2022
3478 Clear 17 1026 63 10000 1.34 240 09:58 27.05.2022
3479 Clear 16 1026 66 10000 1.03 170 09:28 27.05.2022
3480 Clear 12 1026 81 10000 0.51 0 07:30 27.05.2022
3481 Clear 11 1026 76 10000 0.45 38 03:38 27.05.2022
3482 Clear 12 1026 84 10000 1.03 320 01:19 27.05.2022
3483 Clear 14 1027 72 10000 0.35 97 23:23 26.05.2022
3484 Clear 14 1027 72 10000 0.35 97 23:23 26.05.2022
3485 Clear 18 1024 59 10000 2.06 320 21:57 26.05.2022
3486 Clear 17 1024 62 10000 2.68 5 21:27 26.05.2022
3487 Clouds 21 1024 43 10000 3.58 355 19:34 26.05.2022
3488 Clouds 22 1024 40 10000 2.24 46 18:45 26.05.2022
3489 Clouds 22 1024 37 10000 2.68 350 17:36 26.05.2022
3490 Clear 22 1025 39 10000 3.13 5 16:18 26.05.2022
3491 Clouds 22 1025 38 10000 2.68 334 15:24 26.05.2022
3492 Clouds 21 1026 43 10000 3.58 9 13:58 26.05.2022
3493 Clouds 19 1026 47 10000 2.57 250 11:59 26.05.2022
3494 Clouds 18 1026 50 10000 1.54 0 11:18 26.05.2022
3495 Clouds 16 1026 57 10000 2.06 330 09:38 26.05.2022
3496 Clouds 15 1026 66 10000 1.34 30 08:40 26.05.2022
3497 Clouds 10 1025 80 10000 0.51 0 05:43 26.05.2022
3498 Clouds 12 1024 79 10000 0.51 330 02:24 26.05.2022
3499 Clouds 14 1023 77 10000 0 0 23:53 25.05.2022
3500 Clouds 15 1022 74 10000 0.51 0 22:53 25.05.2022
3501 Clouds 17 1020 55 10000 2.57 310 21:42 25.05.2022
3502 Clouds 19 1019 55 10000 3.09 340 20:49 25.05.2022
3503 Clouds 19 1020 50 10000 0.51 30 19:45 25.05.2022
3504 Clouds 21 1020 41 10000 1.34 323 18:48 25.05.2022
3505 Clouds 20 1019 45 10000 1.79 306 17:24 25.05.2022
3506 Clouds 21 1019 40 10000 2.06 0 16:33 25.05.2022
3507 Clouds 20 1019 43 10000 2.57 300 15:36 25.05.2022
3508 Clouds 20 1019 45 10000 2.68 89 14:50 25.05.2022
3509 Clouds 20 1019 46 10000 3.13 336 14:32 25.05.2022
3510 Clouds 19 1019 50 10000 1.54 300 13:23 25.05.2022
3511 Clouds 17 1019 62 10000 3.13 86 11:50 25.05.2022
3512 Clouds 16 1019 69 10000 2.68 37 10:41 25.05.2022
3513 Clear 16 1018 74 10000 2.57 130 09:45 25.05.2022
3514 Clouds 12 1018 85 10000 0.65 56 07:42 25.05.2022
3515 Clouds 11 1016 89 10000 2.06 100 05:41 25.05.2022
3516 Drizzle 12 1016 87 10000 2.57 100 02:44 25.05.2022
3517 Rain 12 1016 85 10000 3.58 130 23:50 24.05.2022
3518 Clouds 13 1015 83 10000 2.57 320 22:59 24.05.2022
3519 Clouds 13 1015 79 10000 1.34 67 21:58 24.05.2022
3520 Clouds 13 1014 78 10000 1.34 86 21:37 24.05.2022
3521 Clouds 14 1014 77 10000 1.54 110 21:19 24.05.2022
3522 Clouds 15 1013 72 10000 2.57 130 19:27 24.05.2022
3523 Clouds 15 1013 71 10000 3.09 120 18:38 24.05.2022
3524 Clouds 15 1013 69 10000 3.6 140 16:40 24.05.2022
3525 Clouds 15 1013 70 10000 2.24 215 15:54 24.05.2022
3526 Clouds 15 1013 69 10000 3.09 250 14:45 24.05.2022
3527 Clouds 14 1013 73 10000 4.63 280 13:48 24.05.2022
3528 Clouds 14 1013 77 10000 5.66 290 12:35 24.05.2022
3529 Clouds 13 1012 86 10000 4.12 280 09:52 24.05.2022
3530 Rain 13 1012 86 10000 4.12 290 09:27 24.05.2022
3531 Clouds 14 1011 83 10000 4.12 270 08:42 24.05.2022
3532 Clouds 14 1010 87 10000 1.54 0 06:42 24.05.2022
3533 Clouds 14 1009 83 10000 2.06 80 03:48 24.05.2022
3534 Clouds 15 1009 81 10000 1.34 192 01:47 24.05.2022
3535 Clouds 15 1010 79 10000 3.6 290 00:57 24.05.2022
3536 Clouds 17 1009 81 10000 3.09 230 22:29 23.05.2022
3537 Clouds 17 1008 77 10000 1.34 202 21:53 23.05.2022
3538 Clouds 17 1008 79 10000 4.12 260 20:55 23.05.2022
3539 Rain 17 1008 80 10000 3.09 290 20:21 23.05.2022
3540 Rain 19 1008 73 10000 2.68 279 19:30 23.05.2022
3541 Clouds 19 1008 74 10000 2.06 90 18:42 23.05.2022
3542 Clouds 19 1008 75 10000 4.12 130 18:22 23.05.2022
3543 Clouds 20 1006 66 10000 2.57 90 16:51 23.05.2022
3544 Rain 25 1006 53 10000 4.02 299 14:49 23.05.2022
3545 Clouds 24 1008 60 10000 5.36 290 12:30 23.05.2022
3546 Clouds 23 1008 68 10000 4.92 258 11:25 23.05.2022
3547 Clouds 22 1008 72 10000 1.54 80 09:49 23.05.2022
3548 Clouds 20 1009 80 10000 2.06 90 08:51 23.05.2022
3549 Clouds 18 1009 81 10000 0.95 120 07:46 23.05.2022
3550 Clouds 17 1009 87 6000 1.54 0 06:43 23.05.2022
3551 Clouds 17 1010 84 6000 1.79 113 05:21 23.05.2022
3552 Clouds 17 1011 85 9000 1.54 280 02:19 23.05.2022
3553 Mist 17 1011 84 4300 1.03 0 01:35 23.05.2022
3554 Clouds 18 1012 84 10000 1.03 0 23:42 22.05.2022
3555 Clouds 19 1012 84 9000 1.34 248 22:35 22.05.2022
3556 Clouds 19 1011 81 10000 1.54 0 21:54 22.05.2022
3557 Clouds 20 1012 76 10000 4.63 110 20:51 22.05.2022
3558 Clouds 21 1012 77 10000 3.09 140 20:25 22.05.2022
3559 Rain 21 1012 79 10000 4.92 126 19:56 22.05.2022
3560 Thunderstorm 21 1014 73 10000 3.6 310 18:55 22.05.2022
3561 Rain 23 1014 60 10000 3.6 300 18:24 22.05.2022
3562 Clouds 24 1012 44 10000 1.54 0 17:33 22.05.2022
3563 Clouds 26 1013 49 10000 2.06 300 16:31 22.05.2022
3564 Clear 26 1014 54 10000 2.06 300 14:48 22.05.2022
3565 Clear 26 1014 52 10000 1.03 0 13:45 22.05.2022
3566 Clouds 24 1015 54 10000 1.54 140 12:50 22.05.2022
3567 Clear 22 1016 56 10000 2.06 310 11:44 22.05.2022
3568 Clouds 19 1016 71 10000 2.57 310 09:45 22.05.2022
3569 Clear 16 1017 72 10000 1.54 310 08:37 22.05.2022
3570 Clouds 15 1018 80 9000 1.34 130 07:22 22.05.2022
3571 Clouds 15 1018 79 10000 0.45 116 06:23 22.05.2022
3572 Clear 16 1019 73 10000 0.45 36 02:23 22.05.2022
3573 Clear 17 1022 79 10000 0.54 92 00:43 22.05.2022
3574 Clear 17 1020 82 10000 0.51 0 23:55 21.05.2022
3575 Clear 18 1020 80 10000 0.51 0 23:20 21.05.2022
3576 Clear 19 1019 77 10000 0.51 0 21:43 21.05.2022
3577 Clear 21 1018 74 10000 2.06 30 21:23 21.05.2022
3578 Clear 24 1020 57 10000 1.54 20 20:25 21.05.2022
3579 Clear 24 1020 58 10000 1.79 38 19:35 21.05.2022
3580 Clouds 26 1021 52 10000 3.13 30 17:51 21.05.2022
3581 Clouds 26 1021 47 10000 3.58 21 16:46 21.05.2022
3582 Clouds 26 1022 47 10000 3.09 340 14:38 21.05.2022
3583 Clouds 25 1022 48 10000 3.13 300 13:52 21.05.2022
3584 Clouds 24 1023 48 10000 4.02 272 12:57 21.05.2022
3585 Clouds 24 1023 51 10000 4.02 301 12:37 21.05.2022
3586 Clouds 22 1024 55 10000 3.13 260 10:44 21.05.2022
3587 Clouds 21 1024 53 10000 1.79 327 09:48 21.05.2022
3588 Clouds 20 1024 62 10000 2.06 310 08:57 21.05.2022
3589 Clouds 20 1024 64 10000 1.03 0 08:33 21.05.2022
3590 Clouds 20 1023 64 10000 2.57 300 04:33 21.05.2022
3591 Clouds 23 1023 35 10000 1.54 270 00:38 21.05.2022
3592 Clouds 23 1022 38 10000 0.51 0 22:59 20.05.2022
3593 Clouds 23 1022 38 10000 2.57 280 22:24 20.05.2022
3594 Clear 25 1021 38 10000 3.09 230 21:47 20.05.2022
3595 Clear 26 1021 36 10000 5.14 250 20:57 20.05.2022
3596 Clear 26 1022 35 10000 5.36 238 20:25 20.05.2022
3597 Clouds 27 1021 33 10000 7.6 254 19:26 20.05.2022
3598 Clear 28 1021 32 10000 6.69 260 18:47 20.05.2022
3599 Clear 29 1021 31 10000 7.15 273 17:37 20.05.2022
3600 Clear 30 1021 31 10000 4.92 267 16:20 20.05.2022
3601 Clear 30 1021 34 10000 4.92 300 15:53 20.05.2022
3602 Clear 28 1022 40 10000 3.13 280 14:31 20.05.2022
3603 Clear 28 1022 43 10000 2.24 280 13:55 20.05.2022
3604 Clouds 25 1024 49 10000 3.13 290 11:45 20.05.2022
3605 Clear 22 1025 51 10000 2.68 314 10:23 20.05.2022
3606 Clear 20 1025 60 10000 1.03 0 08:45 20.05.2022
3607 Clouds 16 1025 75 10000 0.51 0 07:18 20.05.2022
3608 Clouds 15 1025 75 10000 1.54 0 06:34 20.05.2022
3609 Clouds 16 1026 78 10000 2.57 80 04:59 20.05.2022
3610 Clouds 17 1025 85 10000 2.57 90 00:54 20.05.2022
3611 Clouds 19 1024 68 10000 3.6 90 22:57 19.05.2022
3612 Clouds 19 1024 64 10000 2.57 100 22:25 19.05.2022
3613 Clouds 20 1024 64 10000 5.14 100 21:48 19.05.2022
3614 Clouds 20 1024 64 10000 5.14 100 21:23 19.05.2022
3615 Clear 22 1023 56 10000 5.14 120 20:39 19.05.2022
3616 Clear 22 1023 49 10000 5.66 150 19:52 19.05.2022
3617 Clouds 26 1023 47 10000 6.17 190 18:31 19.05.2022
3618 Clouds 27 1024 37 10000 7.15 235 17:31 19.05.2022
3619 Clouds 28 1023 29 10000 7.72 270 15:21 19.05.2022
3620 Clouds 28 1023 31 10000 6.71 281 14:26 19.05.2022
3621 Clouds 27 1024 40 10000 4.47 296 13:47 19.05.2022
3622 Clear 25 1024 50 10000 3.6 290 11:41 19.05.2022
3623 Clear 21 1025 55 10000 0.45 238 09:29 19.05.2022
3624 Clear 18 1024 75 10000 1.54 0 08:18 19.05.2022
3625 Clear 15 1023 78 10000 0.51 50 06:18 19.05.2022
3626 Clouds 16 1022 72 10000 0.51 0 02:27 19.05.2022
3627 Clouds 17 1022 76 10000 0.89 248 00:44 19.05.2022
3628 Clouds 18 1022 71 10000 1.03 0 22:53 18.05.2022
3629 Clouds 17 1020 75 10000 0.51 0 22:35 18.05.2022
3630 Clouds 20 1020 68 10000 0.51 0 21:31 18.05.2022
3631 Clear 24 1019 44 10000 1.54 20 20:50 18.05.2022
3632 Clear 24 1021 51 10000 1.79 54 20:18 18.05.2022
3633 Clear 27 1021 37 10000 2.68 57 18:33 18.05.2022
3634 Clear 27 1021 37 10000 2.68 57 18:33 18.05.2022
3635 Clouds 27 1021 39 10000 3.58 9 17:41 18.05.2022
3636 Clouds 27 1021 36 10000 4.47 22 17:23 18.05.2022
3637 Clear 27 1021 35 10000 3.58 333 16:35 18.05.2022
3638 Clouds 27 1022 35 10000 4.12 30 15:42 18.05.2022
3639 Clouds 27 1022 38 10000 3.13 335 14:48 18.05.2022
3640 Clear 26 1022 43 10000 3.13 28 13:44 18.05.2022
3641 Clear 25 1023 48 10000 3.6 290 12:49 18.05.2022
3642 Clear 23 1023 54 10000 2.68 5 11:36 18.05.2022
3643 Clear 23 1023 54 10000 2.24 355 11:18 18.05.2022
3644 Clear 20 1024 60 10000 1.03 150 09:50 18.05.2022
3645 Clear 15 1024 77 10000 1.03 0 07:54 18.05.2022
3646 Clouds 13 1023 79 10000 1.03 140 06:48 18.05.2022
3647 Clear 15 1022 80 10000 0.51 0 01:53 18.05.2022
3648 Clear 17 1023 74 10000 0.45 49 00:23 18.05.2022
3649 Clear 17 1020 75 10000 0.51 0 22:18 17.05.2022
3650 Clear 22 1019 49 10000 1.54 0 21:20 17.05.2022
3651 Clear 23 1019 52 10000 1.54 0 20:22 17.05.2022
3652 Clear 25 1020 42 10000 3.09 10 19:28 17.05.2022
3653 Clear 26 1020 37 10000 2.57 250 17:52 17.05.2022
3654 Clear 26 1020 35 10000 1.54 280 16:59 17.05.2022
3655 Clear 26 1020 36 10000 1.03 300 16:30 17.05.2022
3656 Clouds 26 1021 40 10000 3.6 310 15:32 17.05.2022
3657 Clouds 25 1021 43 10000 3.09 330 14:30 17.05.2022
3658 Clouds 24 1022 49 10000 3.09 310 13:37 17.05.2022
3659 Clouds 22 1022 56 10000 2.06 290 11:58 17.05.2022
3660 Clouds 18 1023 68 10000 2.57 140 09:38 17.05.2022
3661 Clear 17 1023 76 10000 0 0 08:36 17.05.2022
3662 Clouds 13 1023 84 10000 1.03 0 06:50 17.05.2022
3663 Clouds 14 1023 77 10000 0.45 138 04:24 17.05.2022
3664 Clouds 15 1022 87 10000 1.54 130 00:46 17.05.2022
3665 Clouds 16 1022 82 10000 1.03 0 22:44 16.05.2022
3666 Clouds 19 1021 63 10000 1.54 0 21:52 16.05.2022
3667 Clouds 22 1020 53 10000 2.06 320 20:49 16.05.2022
3668 Clear 23 1019 46 10000 3.6 300 19:49 16.05.2022
3669 Clouds 24 1021 36 10000 3.58 325 18:21 16.05.2022
3670 Clouds 24 1021 42 10000 4.63 280 16:24 16.05.2022
3671 Clouds 22 1022 52 10000 2.68 275 14:38 16.05.2022
3672 Clouds 21 1022 55 10000 1.79 242 13:23 16.05.2022
3673 Rain 21 1022 56 10000 4.63 270 11:33 16.05.2022
3674 Clouds 19 1022 57 10000 3.58 336 09:58 16.05.2022
3675 Clouds 15 1021 75 10000 1.54 100 07:21 16.05.2022
3676 Clouds 14 1020 75 10000 2.57 70 04:41 16.05.2022
3677 Clouds 17 1018 73 10000 6.69 140 23:44 15.05.2022
3678 Clouds 17 1018 72 10000 4.63 120 22:34 15.05.2022
3679 Clouds 17 1018 72 10000 4.63 120 22:34 15.05.2022
3680 Thunderstorm 17 1018 72 10000 8.23 110 21:47 15.05.2022
3681 Clouds 21 1017 53 10000 5.66 140 20:59 15.05.2022
3682 Clouds 26 1015 44 10000 1.03 0 19:56 15.05.2022
3683 Clear 26 1016 30 10000 2.06 270 17:52 15.05.2022
3684 Clear 26 1016 30 10000 2.06 270 17:52 15.05.2022
3685 Clear 26 1017 34 10000 2.68 286 16:35 15.05.2022
3686 Clear 25 1018 42 10000 2.57 290 14:18 15.05.2022
3687 Clear 24 1019 43 10000 2.57 320 13:23 15.05.2022
3688 Clear 22 1020 54 10000 1.54 0 11:41 15.05.2022
3689 Clear 20 1019 59 10000 0.89 307 10:35 15.05.2022
3690 Clear 17 1020 75 10000 1.03 0 08:47 15.05.2022
3691 Clear 12 1020 81 10000 1.03 0 06:59 15.05.2022
3692 Clouds 11 1020 81 10000 1.03 100 06:38 15.05.2022
3693 Clouds 14 1021 77 10000 0.45 69 01:43 15.05.2022
3694 Clouds 15 1019 80 10000 0.51 0 23:52 14.05.2022
3695 Clouds 14 1019 80 10000 0.51 0 23:33 14.05.2022
3696 Clouds 18 1019 59 10000 1.54 300 21:43 14.05.2022
3697 Clear 21 1018 52 10000 1.54 210 21:18 14.05.2022
3698 Clear 23 1018 40 10000 2.06 340 19:40 14.05.2022
3699 Clouds 23 1020 39 10000 2.24 11 19:20 14.05.2022
3700 Clouds 25 1020 34 10000 1.54 0 18:47 14.05.2022
3701 Clouds 25 1020 28 10000 1.34 311 17:28 14.05.2022
3702 Clouds 25 1020 37 10000 1.54 0 15:47 14.05.2022
3703 Clouds 24 1021 48 10000 2.68 327 14:36 14.05.2022
3704 Clouds 22 1022 59 10000 3.09 290 12:51 14.05.2022
3705 Clouds 21 1022 61 10000 2.24 323 11:37 14.05.2022
3706 Clear 19 1022 64 10000 1.34 55 10:23 14.05.2022
3707 Clear 18 1022 67 10000 1.34 71 09:54 14.05.2022
3708 Clouds 17 1022 73 10000 0 0 08:56 14.05.2022
3709 Clouds 14 1022 85 10000 0 0 07:20 14.05.2022
3710 Clouds 14 1021 91 10000 0.51 0 03:41 14.05.2022
3711 Clouds 16 1022 88 10000 0.51 0 23:48 13.05.2022
3712 Clouds 16 1023 79 10000 0.51 0 23:22 13.05.2022
3713 Clouds 18 1022 72 10000 0.51 0 22:52 13.05.2022
3714 Clouds 17 1023 76 10000 1.03 300 22:20 13.05.2022
3715 Clouds 18 1022 72 10000 2.57 290 20:56 13.05.2022
3716 Clouds 19 1022 65 10000 3.6 290 20:28 13.05.2022
3717 Clouds 19 1022 61 10000 3.09 310 19:40 13.05.2022
3718 Clouds 20 1022 61 10000 4.02 5 18:44 13.05.2022
3719 Clouds 20 1022 62 10000 4.12 320 17:29 13.05.2022
3720 Clouds 21 1022 58 10000 4.47 345 16:23 13.05.2022
3721 Clouds 22 1022 54 10000 3.09 310 15:43 13.05.2022
3722 Clouds 21 1023 57 10000 3.09 300 14:24 13.05.2022
3723 Clouds 20 1023 60 10000 4.12 320 12:46 13.05.2022
3724 Clouds 20 1023 62 10000 2.57 310 11:29 13.05.2022
3725 Clouds 17 1023 80 10000 1.34 232 09:43 13.05.2022
3726 Clouds 16 1023 84 10000 1.03 240 08:51 13.05.2022
3727 Clouds 15 1023 83 10000 2.06 130 07:49 13.05.2022
3728 Rain 15 1022 83 10000 1.03 0 06:44 13.05.2022
3729 Rain 15 1023 80 10000 0.51 0 04:48 13.05.2022
3730 Rain 17 1023 70 10000 1.03 0 00:42 13.05.2022
3731 Clouds 18 1022 60 10000 1.78 206 22:47 12.05.2022
3732 Clouds 18 1021 75 10000 1.03 70 21:59 12.05.2022
3733 Clouds 20 1021 54 10000 0.89 153 20:38 12.05.2022
3734 Rain 22 1021 49 10000 1.03 260 19:24 12.05.2022
3735 Clouds 23 1021 45 10000 7.2 290 17:59 12.05.2022
3736 Clouds 26 1020 32 10000 6.26 292 16:34 12.05.2022
3737 Clouds 26 1021 31 10000 4.63 310 14:51 12.05.2022
3738 Clear 25 1021 32 10000 5.36 272 13:47 12.05.2022
3739 Clear 22 1022 43 10000 4.02 249 11:25 12.05.2022
3740 Clear 19 1023 57 10000 2.06 130 09:37 12.05.2022
3741 Clear 19 1024 60 10000 0.89 186 08:52 12.05.2022
3742 Clouds 16 1023 59 10000 0.45 109 07:57 12.05.2022
3743 Clouds 14 1022 58 10000 0.89 279 06:55 12.05.2022
3744 Clouds 16 1022 64 10000 0.45 222 03:31 12.05.2022
3745 Clear 16 1019 68 10000 1.54 0 00:41 12.05.2022
3746 Clear 21 1018 38 10000 2.57 240 22:41 11.05.2022
3747 Clear 22 1018 35 10000 4.12 240 21:59 11.05.2022
3748 Clear 22 1018 33 10000 3.6 220 21:24 11.05.2022
3749 Clear 25 1017 29 10000 4.63 250 19:42 11.05.2022
3750 Clear 26 1018 30 10000 7.15 245 17:24 11.05.2022
3751 Clear 26 1018 33 10000 6.71 269 15:59 11.05.2022
3752 Clear 25 1019 34 10000 5.81 255 14:45 11.05.2022
3753 Clear 25 1019 38 10000 6.71 259 14:24 11.05.2022
3754 Clear 23 1020 49 10000 2.57 320 12:23 11.05.2022
3755 Clear 22 1021 51 10000 2.24 243 11:47 11.05.2022
3756 Clear 19 1021 59 10000 2.57 100 09:29 11.05.2022
3757 Clear 11 1021 79 10000 1.54 0 06:24 11.05.2022
3758 Clouds 15 1021 68 10000 1.71 178 01:29 11.05.2022
3759 Clear 15 1020 78 10000 1.03 0 22:53 10.05.2022
3760 Clear 17 1021 63 10000 1.03 100 22:19 10.05.2022
3761 Clear 18 1020 63 10000 0 0 20:59 10.05.2022
3762 Clear 23 1020 43 10000 2.57 270 20:21 10.05.2022
3763 Clouds 23 1021 37 10000 3.13 270 18:36 10.05.2022
3764 Clouds 23 1021 42 10000 3.58 257 17:37 10.05.2022
3765 Clouds 24 1022 41 10000 3.58 255 15:49 10.05.2022
3766 Clear 21 1024 53 10000 2.24 235 12:48 10.05.2022
3767 Clear 20 1024 58 10000 2.68 281 11:53 10.05.2022
3768 Clear 19 1024 60 10000 2.24 279 11:21 10.05.2022
3769 Clear 19 1024 61 10000 0.89 233 10:55 10.05.2022
3770 Clear 16 1024 69 10000 1.54 0 09:27 10.05.2022
3771 Clear 12 1024 79 10000 1.54 150 07:47 10.05.2022
3772 Clear 10 1024 81 10000 3.09 90 04:35 10.05.2022
3773 Clear 12 1024 76 10000 2.57 110 01:37 10.05.2022
3774 Clear 13 1024 82 10000 2.06 80 23:42 09.05.2022
3775 Clear 13 1024 82 10000 2.06 80 23:42 09.05.2022
3776 Clear 14 1026 77 10000 1 99 22:30 09.05.2022
3777 Clear 15 1023 77 10000 1.54 0 21:25 09.05.2022
3778 Clouds 20 1022 56 10000 1.03 190 19:52 09.05.2022
3779 Clouds 20 1022 56 10000 1.03 190 19:52 09.05.2022
3780 Clouds 21 1023 46 10000 2.57 250 18:22 09.05.2022
3781 Clouds 21 1023 50 10000 1.79 281 16:55 09.05.2022
3782 Clouds 20 1024 54 10000 1.79 332 15:54 09.05.2022
3783 Clouds 20 1024 55 10000 2.24 360 15:35 09.05.2022
3784 Clouds 19 1024 59 10000 3.58 62 14:33 09.05.2022
3785 Clouds 19 1025 62 10000 3.09 310 13:51 09.05.2022
3786 Clouds 18 1025 63 10000 2.24 349 12:51 09.05.2022
3787 Clouds 17 1025 67 10000 4.02 5 11:52 09.05.2022
3788 Clouds 16 1025 72 10000 2.24 44 10:46 09.05.2022
3789 Clouds 15 1025 78 10000 1.79 100 09:59 09.05.2022
3790 Clouds 12 1024 86 10000 1.54 120 07:56 09.05.2022
3791 Clouds 10 1023 96 7000 0.51 0 04:34 09.05.2022
3792 Clouds 12 1023 90 10000 2.24 67 00:23 09.05.2022
3793 Clouds 12 1023 89 10000 1.54 0 23:27 08.05.2022
3794 Clouds 14 1023 78 10000 1.79 72 22:29 08.05.2022
3795 Clouds 15 1023 74 10000 2.06 130 20:53 08.05.2022
3796 Clouds 15 1022 73 10000 2.24 69 20:18 08.05.2022
3797 Clouds 16 1022 69 10000 1.79 53 19:32 08.05.2022
3798 Clouds 16 1022 69 10000 3.58 59 18:35 08.05.2022
3799 Clouds 16 1022 68 10000 2.24 54 17:22 08.05.2022
3800 Clouds 17 1022 69 10000 2.24 35 15:46 08.05.2022
3801 Clouds 16 1022 69 10000 2.57 30 15:21 08.05.2022
3802 Clouds 15 1022 76 10000 4.47 14 12:46 08.05.2022
3803 Clouds 14 1022 79 10000 5.81 30 10:56 08.05.2022
3804 Clouds 14 1022 82 10000 4.47 34 10:22 08.05.2022
3805 Clouds 13 1022 84 10000 3.58 48 09:51 08.05.2022
3806 Clouds 10 1021 91 8000 1.34 47 07:41 08.05.2022
3807 Clouds 9 1021 88 8000 1.54 110 05:22 08.05.2022
3808 Clouds 10 1021 88 10000 1.03 0 03:20 08.05.2022
3809 Clouds 11 1022 87 10000 0.51 0 00:42 08.05.2022
3810 Clouds 11 1022 86 10000 0.51 0 23:55 07.05.2022
3811 Clouds 11 1022 85 10000 1.54 280 22:59 07.05.2022
3812 Clouds 12 1022 84 10000 2.57 250 22:35 07.05.2022
3813 Rain 12 1022 83 10000 3.09 270 21:55 07.05.2022
3814 Rain 12 1021 80 10000 2.06 230 21:20 07.05.2022
3815 Clouds 13 1021 73 10000 5.81 26 19:59 07.05.2022
3816 Clouds 17 1020 59 10000 6.26 22 18:41 07.05.2022
3817 Clouds 17 1021 60 10000 6.71 30 16:19 07.05.2022
3818 Clouds 17 1021 66 10000 5.36 36 14:46 07.05.2022
3819 Clouds 14 1022 75 10000 4.02 40 11:19 07.05.2022
3820 Clouds 13 1022 85 7000 4.02 0 09:39 07.05.2022
3821 Clouds 11 1022 91 7000 1.79 44 08:28 07.05.2022
3822 Fog 10 1022 92 800 1.79 59 06:44 07.05.2022
3823 Mist 10 1022 91 2000 1.79 80 05:41 07.05.2022
3824 Clouds 11 1022 89 9000 1.79 44 03:54 07.05.2022
3825 Clouds 11 1024 88 10000 2.57 290 23:41 06.05.2022
3826 Clouds 12 1024 87 10000 1.54 300 22:34 06.05.2022
3827 Clouds 12 1023 86 10000 2.68 25 21:47 06.05.2022
3828 Rain 12 1023 86 8000 2.24 36 20:39 06.05.2022
3829 Clouds 13 1023 81 10000 4.02 38 19:43 06.05.2022
3830 Clouds 13 1023 83 10000 4.02 39 19:19 06.05.2022
3831 Clouds 13 1023 82 10000 4.02 30 18:25 06.05.2022
3832 Clouds 13 1023 85 10000 3.58 38 17:34 06.05.2022
3833 Clouds 13 1023 89 10000 5.36 40 15:51 06.05.2022
3834 Clouds 12 1023 89 10000 4.92 29 14:58 06.05.2022
3835 Clouds 12 1023 90 10000 4.92 27 13:38 06.05.2022
3836 Clouds 12 1023 87 10000 4.92 22 12:42 06.05.2022
3837 Clouds 12 1022 89 10000 4.47 36 11:58 06.05.2022
3838 Clouds 12 1022 92 10000 4.47 36 10:36 06.05.2022
3839 Clouds 11 1022 92 10000 3.58 24 09:46 06.05.2022
3840 Clouds 10 1022 94 10000 3.58 48 08:59 06.05.2022
3841 Clouds 10 1022 92 10000 2.68 51 07:27 06.05.2022
3842 Clouds 10 1022 92 10000 3.13 44 06:24 06.05.2022
3843 Clouds 10 1022 93 5000 1.34 29 02:54 06.05.2022
3844 Drizzle 10 1023 92 2700 1.03 0 01:57 06.05.2022
3845 Clouds 10 1023 92 6000 0.51 0 22:48 05.05.2022
3846 Clouds 10 1023 92 9000 0.51 50 21:45 05.05.2022
3847 Clouds 11 1022 92 9000 1.54 0 20:28 05.05.2022
3848 Clouds 11 1022 91 7000 1.34 20 18:43 05.05.2022
3849 Rain 11 1022 91 5000 1.54 250 16:40 05.05.2022
3850 Rain 11 1022 90 4000 3.13 265 14:55 05.05.2022
3851 Rain 11 1022 90 4500 2.06 280 13:27 05.05.2022
3852 Rain 11 1022 90 4500 2.06 280 12:54 05.05.2022
3853 Rain 11 1021 90 6000 2.57 280 10:53 05.05.2022
3854 Rain 11 1021 91 7000 1.34 248 09:40 05.05.2022
3855 Drizzle 11 1037 91 7000 0 0 08:30 05.05.2022
3856 Clouds 10 1020 90 10000 0.51 0 05:44 05.05.2022
3857 Drizzle 10 1020 88 10000 2.06 100 02:20 05.05.2022
3858 Drizzle 10 1020 87 10000 2.06 100 01:35 05.05.2022
3859 Rain 11 1020 85 10000 0.51 0 23:55 04.05.2022
3860 Rain 11 1020 81 10000 0.89 202 22:50 04.05.2022
3861 Clouds 12 1020 75 10000 0.89 242 21:59 04.05.2022
3862 Clouds 12 1018 72 10000 2.24 61 21:29 04.05.2022
3863 Clouds 13 1018 68 10000 3.6 130 20:42 04.05.2022
3864 Clouds 14 1018 66 10000 5.66 140 19:56 04.05.2022
3865 Clouds 14 1018 64 10000 5.14 140 19:31 04.05.2022
3866 Clouds 17 1017 60 10000 3.6 150 18:22 04.05.2022
3867 Clouds 17 1018 60 10000 3.6 150 17:59 04.05.2022
3868 Clouds 16 1017 66 10000 2.57 110 15:57 04.05.2022
3869 Rain 15 1017 72 10000 9.26 260 15:30 04.05.2022
3870 Rain 17 1017 54 10000 4.47 235 14:22 04.05.2022
3871 Rain 17 1017 52 10000 2.68 190 13:50 04.05.2022
3872 Clouds 17 1018 54 10000 1.34 301 12:34 04.05.2022
3873 Clouds 15 1018 67 10000 1.03 110 10:57 04.05.2022
3874 Clouds 13 1019 74 10000 1.54 120 09:46 04.05.2022
3875 Clouds 11 1018 80 10000 0 0 08:49 04.05.2022
3876 Clouds 9 1018 82 10000 1.03 280 07:33 04.05.2022
3877 Mist 8 1018 82 5000 1.03 60 03:50 04.05.2022
3878 Clouds 9 1018 80 10000 0.51 0 01:41 04.05.2022
3879 Clouds 11 1017 78 10000 0.51 0 22:54 03.05.2022
3880 Clouds 11 1017 77 10000 1.03 0 21:47 03.05.2022
3881 Clouds 12 1017 76 10000 1.03 0 21:21 03.05.2022
3882 Clouds 13 1016 73 10000 1.03 0 20:38 03.05.2022
3883 Clouds 14 1016 77 10000 1.34 80 18:55 03.05.2022
3884 Clouds 15 1016 74 10000 2.68 81 18:37 03.05.2022
3885 Rain 17 1012 58 10000 1.01 4 17:19 03.05.2022
3886 Rain 19 1012 46 10000 1.91 6 15:43 03.05.2022
3887 Clouds 19 1015 41 10000 3.13 285 13:32 03.05.2022
3888 Clouds 18 1016 46 10000 1.79 38 12:31 03.05.2022
3889 Clear 16 1016 50 10000 1.79 312 11:23 03.05.2022
3890 Clear 14 1016 59 10000 1.03 0 09:58 03.05.2022
3891 Clear 9 1016 77 10000 0.51 0 07:59 03.05.2022
3892 Clouds 7 1015 75 7000 0.51 0 06:45 03.05.2022
3893 Clouds 11 1015 65 10000 0.45 79 01:56 03.05.2022
3894 Clouds 12 1015 70 10000 1.54 60 22:47 02.05.2022
3895 Clouds 12 1015 67 10000 1.54 60 22:28 02.05.2022
3896 Clouds 14 1013 56 10000 1.03 0 21:26 02.05.2022
3897 Clouds 18 1014 37 10000 2.24 44 18:57 02.05.2022
3898 Clouds 18 1014 36 10000 2.24 76 18:25 02.05.2022
3899 Clouds 18 1014 35 10000 3.13 5 17:38 02.05.2022
3900 Clouds 19 1015 35 10000 4.02 326 16:25 02.05.2022
3901 Clouds 18 1015 36 10000 3.58 306 15:41 02.05.2022
3902 Clouds 17 1015 42 10000 3.6 320 14:20 02.05.2022
3903 Clouds 16 1016 52 10000 2.24 180 12:52 02.05.2022
3904 Clear 14 1016 57 10000 1.79 42 11:24 02.05.2022
3905 Clear 10 1017 70 10000 0.89 54 09:32 02.05.2022
3906 Clear 7 1017 81 10000 0 0 07:57 02.05.2022
3907 Clouds 5 1017 75 10000 1 98 05:59 02.05.2022
3908 Clouds 8 1019 81 10000 1.03 113 00:40 02.05.2022
3909 Clouds 7 1017 86 10000 0.51 0 00:21 02.05.2022
3910 Clouds 8 1018 79 10000 1.03 0 22:49 01.05.2022
3911 Clouds 12 1017 61 10000 1.54 0 21:41 01.05.2022
3912 Clear 14 1018 50 10000 3.13 49 20:23 01.05.2022
3913 Clouds 16 1018 40 10000 3.13 79 19:20 01.05.2022
3914 Clouds 16 1018 39 10000 2.68 79 18:51 01.05.2022
3915 Clouds 17 1018 39 10000 3.09 0 17:47 01.05.2022
3916 Clouds 16 1019 39 10000 2.68 90 16:26 01.05.2022
3917 Clouds 16 1019 42 10000 4.63 300 15:45 01.05.2022
3918 Clouds 15 1019 49 10000 4.47 30 14:41 01.05.2022
3919 Clouds 13 1021 66 10000 3.6 310 12:22 01.05.2022
3920 Clear 9 1021 80 10000 2.24 40 09:34 01.05.2022
3921 Clear 8 1021 85 10000 0 0 08:49 01.05.2022
3922 Clear 6 1021 80 10000 0.45 65 05:42 01.05.2022
3923 Clouds 7 1022 73 10000 1.03 86 01:32 01.05.2022
3924 Clouds 10 1021 83 10000 1.54 70 21:59 30.04.2022
3925 Clouds 10 1022 66 10000 4.12 160 21:30 30.04.2022
3926 Clouds 12 1022 61 10000 0.51 0 19:48 30.04.2022
3927 Rain 13 1022 59 10000 3.13 49 18:52 30.04.2022
3928 Clouds 13 1022 57 10000 4.02 9 17:26 30.04.2022
3929 Rain 14 1021 52 9000 6.69 310 15:51 30.04.2022
3930 Thunderstorm 15 1021 48 10000 7.15 346 14:58 30.04.2022
3931 Clouds 16 1021 41 10000 3.13 76 13:41 30.04.2022
3932 Clouds 15 1023 49 10000 1.54 0 11:39 30.04.2022
3933 Clouds 15 1023 52 10000 1.79 323 10:56 30.04.2022
3934 Clouds 13 1023 61 10000 1.54 130 09:54 30.04.2022
3935 Clear 10 1023 79 10000 2.06 90 07:36 30.04.2022
3936 Rain 11 1023 71 10000 1.03 0 03:53 30.04.2022
3937 Clouds 12 1024 59 10000 0.51 0 23:55 29.04.2022
3938 Clouds 13 1024 55 10000 2.06 310 22:37 29.04.2022
3939 Clouds 13 1024 60 10000 3.6 280 21:55 29.04.2022
3940 Clouds 13 1023 64 10000 2.06 280 21:24 29.04.2022
3941 Clouds 16 1023 41 10000 3.09 310 19:55 29.04.2022
3942 Clouds 17 1023 45 10000 2.06 300 19:26 29.04.2022
3943 Clouds 19 1023 41 10000 3.6 280 17:34 29.04.2022
3944 Clear 20 1023 41 10000 3.09 260 16:30 29.04.2022
3945 Clear 19 1024 44 10000 3.58 292 14:34 29.04.2022
3946 Clear 18 1024 47 10000 4.12 290 13:27 29.04.2022
3947 Clear 16 1025 51 10000 3.13 244 12:33 29.04.2022
3948 Clear 12 1026 63 10000 1.03 200 09:52 29.04.2022
3949 Clouds 8 1026 75 10000 0.45 186 07:52 29.04.2022
3950 Clouds 6 1026 74 10000 0.45 94 07:24 29.04.2022
3951 Clouds 6 1025 73 10000 0.46 104 06:29 29.04.2022
3952 Clear 9 1027 68 10000 1.79 92 00:52 29.04.2022
3953 Clear 9 1025 72 10000 0 0 23:52 28.04.2022
3954 Clear 9 1025 76 10000 0 0 22:47 28.04.2022
3955 Clear 14 1025 44 10000 1.54 0 21:59 28.04.2022
3956 Clear 14 1025 44 10000 1.54 0 21:37 28.04.2022
3957 Clear 16 1024 41 10000 2.06 0 20:41 28.04.2022
3958 Clear 18 1024 39 10000 2.57 20 19:49 28.04.2022
3959 Clear 18 1025 37 10000 4.92 45 19:23 28.04.2022
3960 Clear 18 1024 36 10000 4.92 51 18:38 28.04.2022
3961 Clear 19 1024 37 10000 4.92 26 17:32 28.04.2022
3962 Clear 19 1024 39 10000 4.92 62 16:50 28.04.2022
3963 Clear 19 1024 40 10000 5.14 360 16:20 28.04.2022
3964 Clear 19 1024 40 10000 5.14 360 16:20 28.04.2022
3965 Clear 19 1025 43 10000 4.92 36 15:41 28.04.2022
3966 Clear 18 1025 49 10000 4.02 15 14:47 28.04.2022
3967 Clear 16 1025 59 10000 4.12 290 13:20 28.04.2022
3968 Clear 15 1025 61 10000 3.09 260 12:28 28.04.2022
3969 Clear 12 1025 68 10000 3.13 170 10:51 28.04.2022
3970 Clear 12 1025 69 10000 1.54 270 10:26 28.04.2022
3971 Clear 10 1025 74 10000 1.79 61 09:41 28.04.2022
3972 Clear 6 1024 81 10000 1.2 43 07:38 28.04.2022
3973 Clear 5 1024 77 10000 0.45 81 06:37 28.04.2022
3974 Clear 6 1023 75 10000 0.85 69 05:39 28.04.2022
3975 Clear 6 1023 73 10000 0.88 75 04:41 28.04.2022
3976 Clear 8 1023 79 10000 2.68 56 00:51 28.04.2022
3977 Clear 9 1022 75 10000 2.24 56 22:52 27.04.2022
3978 Clear 10 1022 69 10000 2.24 47 21:58 27.04.2022
3979 Clear 11 1022 57 10000 3.13 55 21:29 27.04.2022
3980 Clear 14 1020 54 10000 1.03 0 20:44 27.04.2022
3981 Clear 15 1020 53 10000 4.92 59 19:40 27.04.2022
3982 Clear 15 1020 48 10000 5.36 22 19:19 27.04.2022
3983 Clear 16 1020 46 10000 5.81 21 18:38 27.04.2022
3984 Clouds 17 1020 46 10000 5.36 340 17:26 27.04.2022
3985 Clouds 17 1020 48 10000 4.02 26 15:56 27.04.2022
3986 Clouds 14 1021 61 10000 3.6 300 12:34 27.04.2022
3987 Clouds 12 1021 67 10000 3.13 41 11:23 27.04.2022
3988 Clear 10 1021 73 10000 4.02 29 10:22 27.04.2022
3989 Fog 4 1020 87 9000 1.34 70 07:29 27.04.2022
3990 Clear 4 1020 81 10000 1.79 69 06:30 27.04.2022
3991 Clear 6 1020 80 10000 1.11 122 02:21 27.04.2022
3992 Mist 6 1019 91 3300 0.51 0 00:57 27.04.2022
3993 Clouds 7 1019 84 10000 0.51 0 00:27 27.04.2022
3994 Clouds 7 1018 93 10000 1.54 130 23:23 26.04.2022
3995 Clouds 8 1018 93 10000 0.51 0 22:43 26.04.2022
3996 Clouds 9 1018 87 10000 0.51 0 21:57 26.04.2022
3997 Clouds 10 1017 81 10000 1.54 0 20:56 26.04.2022
3998 Clouds 10 1017 81 10000 1.54 0 20:35 26.04.2022
3999 Clouds 12 1016 62 10000 2.06 110 19:34 26.04.2022
4000 Clouds 13 1017 59 10000 3.09 140 18:51 26.04.2022
4001 Clouds 14 1017 57 10000 3.09 130 18:18 26.04.2022
4002 Clouds 14 1017 57 10000 3.09 130 18:18 26.04.2022
4003 Clouds 13 1017 55 10000 2.57 120 17:33 26.04.2022
4004 Clouds 12 1018 74 10000 6.69 150 14:46 26.04.2022
4005 Clouds 11 1018 78 10000 5.36 105 13:34 26.04.2022
4006 Clouds 9 1018 82 10000 4.63 160 12:25 26.04.2022
4007 Rain 7 1017 92 10000 2.24 138 10:46 26.04.2022
4008 Rain 7 1016 92 5000 2.57 290 09:41 26.04.2022
4009 Rain 8 1014 92 6000 3.58 326 07:59 26.04.2022
4010 Clouds 8 1013 93 6000 1.54 100 04:33 26.04.2022
4011 Clouds 8 1014 92 10000 1.03 120 02:20 26.04.2022
4012 Clouds 8 1014 88 8000 2.06 100 00:26 26.04.2022
4013 Clouds 9 1014 85 10000 1.54 80 22:50 25.04.2022
4014 Clouds 9 1014 89 6000 0.51 0 21:44 25.04.2022
4015 Clouds 10 1013 89 10000 1.34 227 20:45 25.04.2022
4016 Clouds 10 1013 89 10000 1.34 227 20:45 25.04.2022
4017 Clouds 10 1013 87 10000 1.03 80 19:39 25.04.2022
4018 Clouds 11 1013 85 10000 1.54 0 18:25 25.04.2022
4019 Rain 10 1013 88 10000 1.54 100 17:32 25.04.2022
4020 Rain 10 1013 88 6000 2.06 100 15:38 25.04.2022
4021 Rain 10 1013 88 10000 2.06 100 15:18 25.04.2022
4022 Rain 10 1013 90 6000 3.09 130 13:43 25.04.2022
4023 Rain 10 1011 91 8000 3.09 130 11:53 25.04.2022
4024 Rain 9 1011 91 10000 2.06 130 10:27 25.04.2022
4025 Rain 9 1010 90 9000 1.03 0 09:20 25.04.2022
4026 Clouds 9 1009 89 10000 0.51 0 06:49 25.04.2022
4027 Clouds 9 1009 89 10000 1.54 0 05:32 25.04.2022
4028 Rain 9 1009 87 7000 2.24 252 01:24 25.04.2022
4029 Rain 9 1008 83 10000 4.02 266 23:53 24.04.2022
4030 Clouds 9 1008 83 10000 3.13 245 22:52 24.04.2022
4031 Clouds 9 1008 83 10000 3.13 239 22:31 24.04.2022
4032 Clouds 9 1007 84 10000 3.58 256 21:42 24.04.2022
4033 Rain 9 1007 83 10000 3.13 219 21:18 24.04.2022
4034 Clouds 9 1007 87 9000 3.13 213 20:37 24.04.2022
4035 Clouds 10 1006 85 10000 2.24 195 19:50 24.04.2022
4036 Rain 9 1006 82 8000 4.92 240 18:28 24.04.2022
4037 Rain 10 1006 74 10000 4.47 250 17:37 24.04.2022
4038 Rain 11 1005 73 10000 4.63 270 17:19 24.04.2022
4039 Rain 11 1005 68 10000 5.36 263 16:48 24.04.2022
4040 Rain 11 1004 69 10000 6.26 265 16:20 24.04.2022
4041 Clouds 11 1004 68 10000 5.66 260 15:31 24.04.2022
4042 Clouds 11 1004 68 10000 5.66 260 15:31 24.04.2022
4043 Clouds 12 1004 69 10000 6.71 254 14:19 24.04.2022
4044 Clouds 11 1004 71 10000 5.36 256 13:26 24.04.2022
4045 Clouds 10 1003 76 10000 5.36 221 12:35 24.04.2022
4046 Clouds 9 1003 79 10000 5.36 249 11:34 24.04.2022
4047 Clouds 8 1003 84 10000 1.54 130 10:30 24.04.2022
4048 Clouds 7 1003 83 10000 1.03 0 09:29 24.04.2022
4049 Clouds 6 1000 88 10000 1.54 310 06:46 24.04.2022
4050 Clouds 6 1001 85 10000 1.03 0 04:43 24.04.2022
4051 Rain 8 1000 77 5000 9.77 260 01:39 24.04.2022
4052 Clouds 10 999 71 10000 7.15 265 00:30 24.04.2022
4053 Clouds 10 997 74 9000 1.54 0 23:45 23.04.2022
4054 Clouds 10 996 73 10000 1.54 0 23:22 23.04.2022
4055 Clouds 11 996 70 10000 3.58 51 21:53 23.04.2022
4056 Clouds 12 997 67 10000 3.13 63 21:34 23.04.2022
4057 Clouds 12 997 67 10000 5.36 63 20:57 23.04.2022
4058 Clouds 13 997 64 10000 4.02 53 19:48 23.04.2022
4059 Clouds 14 998 63 10000 4.47 62 19:19 23.04.2022
4060 Clouds 14 998 64 10000 4.12 30 18:52 23.04.2022
4061 Clouds 14 999 62 10000 3.58 56 17:51 23.04.2022
4062 Clouds 14 1000 61 10000 4.47 55 17:30 23.04.2022
4063 Clouds 15 999 61 10000 4.92 5 16:42 23.04.2022
4064 Clouds 15 1000 59 10000 5.36 32 15:28 23.04.2022
4065 Clouds 13 1002 71 10000 2.68 65 12:44 23.04.2022
4066 Rain 10 1002 81 9000 2.57 320 10:44 23.04.2022
4067 Clouds 10 1002 76 10000 2.57 300 09:38 23.04.2022
4068 Clouds 8 1001 80 8000 1.79 168 06:41 23.04.2022
4069 Clouds 8 1001 78 10000 1.03 0 03:54 23.04.2022
4070 Clouds 8 1002 74 10000 0.51 0 01:20 23.04.2022
4071 Clouds 10 1002 68 10000 1.03 0 23:30 22.04.2022
4072 Clouds 11 1002 62 10000 0.51 0 22:20 22.04.2022
4073 Clouds 12 1002 59 10000 1.54 0 21:43 22.04.2022
4074 Clouds 13 1002 50 10000 0.89 279 20:47 22.04.2022
4075 Clouds 14 1002 47 10000 0.45 321 20:27 22.04.2022
4076 Clouds 17 1001 42 10000 3.09 300 19:20 22.04.2022
4077 Clouds 17 1001 40 10000 3.13 331 18:41 22.04.2022
4078 Clear 18 1000 45 10000 2.24 26 17:40 22.04.2022
4079 Clear 18 1000 39 10000 2.57 260 16:46 22.04.2022
4080 Clear 17 1000 40 10000 2.57 320 15:32 22.04.2022
4081 Clear 16 1001 43 10000 2.06 300 14:46 22.04.2022
4082 Clear 15 1001 48 10000 2.57 300 13:49 22.04.2022
4083 Clear 14 1001 50 10000 3.09 260 12:57 22.04.2022
4084 Clear 12 1001 53 10000 2.24 105 11:48 22.04.2022
4085 Clear 12 1001 54 10000 2.57 290 11:21 22.04.2022
4086 Clear 11 1001 55 10000 2.57 280 10:48 22.04.2022
4087 Clear 11 1001 58 10000 2.57 280 10:29 22.04.2022
4088 Clear 9 1001 63 10000 1.03 0 09:50 22.04.2022
4089 Clear 7 1001 68 10000 1.03 0 08:50 22.04.2022
4090 Clouds 5 1002 64 10000 1.06 66 06:56 22.04.2022
4091 Clouds 7 1003 57 10000 2.68 70 02:45 22.04.2022
4092 Clouds 10 1003 90 10000 1.83 64 00:51 22.04.2022
4093 Clouds 9 1003 52 10000 0.51 0 22:59 21.04.2022
4094 Clouds 10 1004 49 10000 1.03 0 22:27 21.04.2022
4095 Clear 14 1003 38 10000 3.09 40 20:36 21.04.2022
4096 Clear 14 1003 44 10000 2.57 360 20:18 21.04.2022
4097 Clear 17 1004 36 10000 3.6 30 18:35 21.04.2022
4098 Clear 17 1004 33 10000 4.12 30 17:54 21.04.2022
4099 Clear 17 1004 33 10000 5.14 40 16:30 21.04.2022
4100 Clear 17 1005 33 10000 2.57 20 15:21 21.04.2022
4101 Clear 17 1005 34 10000 3.09 340 14:38 21.04.2022
4102 Clear 15 1006 39 10000 3.09 300 13:23 21.04.2022
4103 Clear 14 1007 41 10000 4.12 300 12:42 21.04.2022
4104 Clear 11 1008 44 10000 2.06 320 10:47 21.04.2022
4105 Clear 7 1008 61 10000 0.89 75 08:55 21.04.2022
4106 Clouds 4 1009 62 10000 0.69 53 07:24 21.04.2022
4107 Clouds 5 1009 55 10000 0.52 83 04:58 21.04.2022
4108 Clouds 6 1010 52 10000 0.99 70 03:28 21.04.2022
4109 Clouds 6 1010 67 10000 0.89 67 02:47 21.04.2022
4110 Clouds 6 1010 67 10000 0.89 67 02:47 21.04.2022
4111 Clouds 9 1011 57 10000 1.34 76 00:43 21.04.2022
4112 Clouds 8 1009 76 10000 0.51 0 23:50 20.04.2022
4113 Clouds 9 1009 71 10000 0.51 0 23:22 20.04.2022
4114 Clouds 8 1009 76 10000 0.51 0 22:46 20.04.2022
4115 Clouds 9 1010 64 10000 1.79 67 22:26 20.04.2022
4116 Clear 12 1010 53 10000 2.24 51 21:27 20.04.2022
4117 Clear 14 1008 52 10000 3.6 30 20:23 20.04.2022
4118 Clear 14 1009 45 10000 3.13 63 19:52 20.04.2022
4119 Clear 16 1009 38 10000 2.57 20 19:20 20.04.2022
4120 Clear 17 1009 40 10000 4.92 40 17:56 20.04.2022
4121 Clear 18 1009 34 10000 4.47 13 16:48 20.04.2022
4122 Clear 18 1009 34 10000 4.47 0 16:30 20.04.2022
4123 Clear 16 1009 40 10000 4.92 0 13:51 20.04.2022
4124 Clear 13 1010 44 10000 4.12 310 11:47 20.04.2022
4125 Clear 12 1010 48 10000 3.58 49 10:56 20.04.2022
4126 Clear 10 1010 56 10000 3.13 39 09:58 20.04.2022
4127 Clouds 9 1011 54 10000 3.58 49 09:24 20.04.2022
4128 Clouds 7 1011 61 10000 2.68 63 08:22 20.04.2022
4129 Clouds 7 1011 61 10000 2.68 63 08:22 20.04.2022
4130 Clouds 6 1011 62 10000 1.79 79 07:32 20.04.2022
4131 Clouds 7 1011 49 10000 1.34 61 03:34 20.04.2022
4132 Clouds 9 1012 52 10000 1.33 82 00:22 20.04.2022
4133 Clouds 10 1012 51 10000 1.33 82 23:41 19.04.2022
4134 Clouds 10 1011 51 10000 1.03 0 22:26 19.04.2022
4135 Clouds 11 1010 56 10000 1.03 0 21:56 19.04.2022
4136 Clear 13 1009 50 10000 1.54 0 21:23 19.04.2022
4137 Clouds 15 1009 36 10000 1.54 330 20:45 19.04.2022
4138 Clouds 16 1009 36 10000 3.09 340 19:56 19.04.2022
4139 Clear 19 1008 26 10000 2.57 320 18:49 19.04.2022
4140 Clear 18 1010 27 10000 2.06 10 17:40 19.04.2022
4141 Clear 19 1010 26 10000 2.06 260 16:43 19.04.2022
4142 Clear 19 1010 23 10000 2.06 270 16:23 19.04.2022
4143 Clear 19 1011 28 10000 2.57 0 14:50 19.04.2022
4144 Clear 17 1012 29 10000 2.24 290 13:54 19.04.2022
4145 Clear 16 1012 32 10000 1.54 230 12:50 19.04.2022
4146 Clear 15 1013 35 10000 1.03 0 12:20 19.04.2022
4147 Clear 13 1013 47 10000 1.54 0 10:46 19.04.2022
4148 Clear 9 1014 60 10000 0.51 0 09:19 19.04.2022
4149 Clouds 3 1014 75 10000 0.51 0 05:56 19.04.2022
4150 Clouds 5 1014 61 10000 1 132 03:26 19.04.2022
4151 Clear 6 1015 61 10000 0.51 0 00:55 19.04.2022
4152 Clear 8 1015 53 10000 1.12 124 23:30 18.04.2022
4153 Clear 9 1016 65 10000 1.03 0 21:30 18.04.2022
4154 Clear 10 1014 53 10000 1.54 0 20:55 18.04.2022
4155 Clear 14 1013 38 10000 1.03 0 20:32 18.04.2022
4156 Clear 14 1013 38 10000 1.03 0 20:32 18.04.2022
4157 Clear 16 1013 33 10000 2.57 60 19:51 18.04.2022
4158 Clear 17 1014 32 10000 2.57 70 18:57 18.04.2022
4159 Clear 17 1015 25 10000 2.57 300 17:57 18.04.2022
4160 Clear 17 1015 23 10000 2.57 300 17:34 18.04.2022
4161 Clear 17 1015 28 10000 3.09 300 16:55 18.04.2022
4162 Clear 17 1015 29 10000 2.57 320 16:31 18.04.2022
4163 Clear 16 1016 33 10000 1.79 306 14:51 18.04.2022
4164 Clear 14 1016 38 10000 2.06 0 13:36 18.04.2022
4165 Clear 12 1017 42 10000 2.57 290 12:30 18.04.2022
4166 Clear 11 1017 50 10000 1.54 0 11:34 18.04.2022
4167 Clear 8 1018 50 10000 1.03 0 10:31 18.04.2022
4168 Clear 6 1018 56 10000 1.79 90 09:31 18.04.2022
4169 Clear 3 1018 62 10000 0 0 07:54 18.04.2022
4170 Clear 3 1018 53 10000 0.8 87 05:41 18.04.2022
4171 Clouds 5 1018 75 10000 1.03 0 00:47 18.04.2022
4172 Clouds 6 1018 65 10000 0.51 0 22:41 17.04.2022
4173 Clouds 9 1018 50 10000 0.51 0 21:46 17.04.2022
4174 Clear 10 1019 44 10000 4.47 57 21:24 17.04.2022
4175 Clear 11 1019 38 10000 2.68 61 20:36 17.04.2022
4176 Clear 13 1018 35 10000 3.09 30 19:38 17.04.2022
4177 Clear 15 1019 31 10000 7.15 32 17:48 17.04.2022
4178 Clear 15 1020 29 10000 7.15 61 15:40 17.04.2022
4179 Clear 15 1021 32 10000 7.6 37 14:55 17.04.2022
4180 Clear 14 1022 35 10000 7.15 29 13:48 17.04.2022
4181 Clear 12 1022 37 10000 6.26 11 12:58 17.04.2022
4182 Clear 11 1022 40 10000 5.81 13 12:27 17.04.2022
4183 Clear 9 1023 50 10000 5.81 24 10:46 17.04.2022
4184 Clear 8 1023 52 10000 5.36 21 10:28 17.04.2022
4185 Clear 8 1023 53 10000 5.36 42 10:28 17.04.2022
4186 Clear 7 1023 57 10000 5.36 16 09:34 17.04.2022
4187 Clear 5 1024 61 10000 4.92 9 08:51 17.04.2022
4188 Clear 3 1023 67 10000 4.02 40 07:30 17.04.2022
4189 Clear 5 1024 67 10000 4.47 30 04:29 17.04.2022
4190 Clear 7 1025 59 10000 3.13 71 00:55 17.04.2022
4191 Clear 8 1025 67 10000 4.47 67 23:50 16.04.2022
4192 Clear 9 1025 60 10000 4.47 76 22:35 16.04.2022
4193 Clear 9 1025 63 10000 4.02 71 21:38 16.04.2022
4194 Clear 11 1025 49 10000 5.36 66 20:32 16.04.2022
4195 Clear 14 1024 46 10000 7.15 95 18:59 16.04.2022
4196 Clouds 15 1024 44 10000 6.71 71 17:46 16.04.2022
4197 Clouds 16 1024 44 10000 8.05 19 16:40 16.04.2022
4198 Clouds 15 1024 48 10000 7.15 34 15:45 16.04.2022
4199 Clouds 15 1025 50 10000 7.6 36 14:56 16.04.2022
4200 Clouds 15 1024 55 10000 8.49 46 13:58 16.04.2022
4201 Clouds 15 1024 53 10000 8.49 62 13:37 16.04.2022
4202 Clouds 14 1024 55 10000 7.15 28 12:26 16.04.2022
4203 Clear 13 1024 62 10000 4.47 45 10:50 16.04.2022
4204 Clear 12 1024 66 10000 4.92 28 09:56 16.04.2022
4205 Clear 11 1024 67 10000 4.92 39 08:57 16.04.2022
4206 Clouds 9 1024 67 10000 2.68 45 07:52 16.04.2022
4207 Clouds 9 1024 64 10000 3.58 49 06:58 16.04.2022
4208 Clouds 11 1024 62 10000 2.68 61 02:46 16.04.2022
4209 Clouds 12 1024 63 10000 4.47 55 00:30 16.04.2022
4210 Clouds 13 1024 62 10000 1.6 62 23:21 15.04.2022
4211 Clouds 13 1024 63 10000 1.79 46 22:32 15.04.2022
4212 Clouds 14 1022 71 10000 0.51 0 21:50 15.04.2022
4213 Clear 15 1023 62 10000 2.68 52 21:18 15.04.2022
4214 Clear 17 1023 53 10000 2.24 45 20:21 15.04.2022
4215 Clear 19 1022 48 10000 2.57 360 19:39 15.04.2022
4216 Clear 19 1022 49 10000 4.02 38 18:54 15.04.2022
4217 Clear 20 1023 39 10000 4.92 42 18:25 15.04.2022
4218 Clouds 20 1023 42 10000 4.92 10 17:34 15.04.2022
4219 Clouds 20 1023 41 10000 5.36 37 16:37 15.04.2022
4220 Clouds 20 1023 42 10000 5.14 330 16:18 15.04.2022
4221 Clouds 20 1023 45 10000 4.47 36 14:51 15.04.2022
4222 Clouds 19 1023 50 10000 3.13 96 13:40 15.04.2022
4223 Clouds 18 1024 57 10000 3.13 347 12:40 15.04.2022
4224 Clouds 17 1024 61 10000 3.13 28 11:56 15.04.2022
4225 Clear 17 1024 62 10000 3.58 15 11:30 15.04.2022
4226 Clear 15 1024 66 10000 2.24 50 10:40 15.04.2022
4227 Clear 14 1024 75 10000 2.24 59 09:44 15.04.2022
4228 Clear 13 1024 79 10000 1.03 160 09:19 15.04.2022
4229 Clouds 10 1023 76 10000 0.9 50 07:28 15.04.2022
4230 Clouds 10 1023 80 10000 1.54 0 06:28 15.04.2022
4231 Clouds 12 1023 76 9000 1.03 0 02:39 15.04.2022
4232 Clouds 13 1021 83 10000 1.03 0 23:31 14.04.2022
4233 Clouds 14 1022 80 10000 1.22 145 22:49 14.04.2022
4234 Clouds 14 1021 79 10000 0.51 0 22:29 14.04.2022
4235 Clouds 15 1021 77 10000 0.51 0 21:59 14.04.2022
4236 Clouds 19 1019 52 10000 2.06 330 20:37 14.04.2022
4237 Clouds 20 1018 49 10000 2.06 40 19:23 14.04.2022
4238 Clouds 21 1018 46 10000 2.06 350 18:19 14.04.2022
4239 Clouds 21 1018 48 10000 2.57 300 17:38 14.04.2022
4240 Clouds 21 1019 31 10000 3.09 300 16:36 14.04.2022
4241 Clouds 21 1020 41 10000 2.68 319 14:58 14.04.2022
4242 Clear 19 1020 42 10000 4.02 317 13:45 14.04.2022
4243 Clear 19 1020 48 10000 3.13 329 12:56 14.04.2022
4244 Clear 18 1020 47 10000 1.34 280 12:31 14.04.2022
4245 Clear 17 1021 50 10000 1.03 0 11:29 14.04.2022
4246 Clear 16 1021 52 10000 1.03 0 10:52 14.04.2022
4247 Clear 15 1020 56 10000 1.03 0 10:26 14.04.2022
4248 Clouds 12 1020 70 10000 3.6 90 08:54 14.04.2022
4249 Clouds 9 1020 76 10000 1.03 160 06:53 14.04.2022
4250 Clouds 10 1019 70 10000 1.03 0 03:32 14.04.2022
4251 Clouds 12 1019 64 10000 0.51 0 23:26 13.04.2022
4252 Clouds 14 1018 57 10000 0.51 0 22:20 13.04.2022
4253 Clouds 14 1018 62 10000 1.03 0 21:36 13.04.2022
4254 Clear 18 1017 52 10000 1.54 280 20:22 13.04.2022
4255 Clear 19 1016 34 10000 2.57 320 19:36 13.04.2022
4256 Clear 21 1016 37 10000 2.68 320 18:27 13.04.2022
4257 Clear 21 1016 35 10000 2.24 303 17:24 13.04.2022
4258 Clear 21 1016 33 10000 1.79 311 16:34 13.04.2022
4259 Clouds 21 1016 33 10000 1.79 130 15:40 13.04.2022
4260 Clear 21 1016 34 10000 2.24 325 14:51 13.04.2022
4261 Clear 20 1016 35 10000 3.09 280 14:26 13.04.2022
4262 Clear 19 1017 35 10000 3.09 310 13:28 13.04.2022
4263 Clear 18 1017 41 10000 3.13 305 12:27 13.04.2022
4264 Clouds 16 1017 53 10000 0.45 261 10:54 13.04.2022
4265 Clear 14 1017 65 10000 2.24 261 09:44 13.04.2022
4266 Clear 12 1016 75 10000 0 0 08:43 13.04.2022
4267 Clear 10 1016 74 10000 1.03 0 06:52 13.04.2022
4268 Clouds 11 1015 74 10000 2.06 90 06:26 13.04.2022
4269 Clouds 11 1016 70 10000 0.91 162 05:52 13.04.2022
4270 Clouds 13 1015 68 10000 0.51 0 00:23 13.04.2022
4271 Clouds 13 1015 66 10000 0.51 0 23:46 12.04.2022
4272 Clouds 14 1015 60 10000 0.51 0 22:19 12.04.2022
4273 Clear 15 1014 58 10000 0.89 260 21:29 12.04.2022
4274 Clear 16 1013 59 10000 2.06 300 20:41 12.04.2022
4275 Clear 19 1012 42 10000 2.06 320 19:50 12.04.2022
4276 Clear 19 1013 39 10000 2.57 330 19:31 12.04.2022
4277 Clear 20 1013 36 10000 2.68 332 18:31 12.04.2022
4278 Clear 21 1013 33 10000 2.06 340 17:28 12.04.2022
4279 Clear 21 1013 33 10000 2.06 340 17:28 12.04.2022
4280 Clear 21 1013 33 10000 2.57 310 16:23 12.04.2022
4281 Clear 20 1013 34 10000 2.57 280 15:33 12.04.2022
4282 Clear 19 1014 39 10000 1.54 0 14:29 12.04.2022
4283 Clear 18 1014 43 10000 1.79 255 13:37 12.04.2022
4284 Clear 17 1014 46 10000 1.54 0 12:52 12.04.2022
4285 Clear 16 1014 54 10000 0.51 0 11:47 12.04.2022
4286 Clear 12 1015 65 10000 1.03 0 10:47 12.04.2022
4287 Clear 8 1015 71 10000 0.51 0 09:21 12.04.2022
4288 Clear 5 1015 77 10000 0.51 0 07:56 12.04.2022
4289 Clouds 4 1015 79 10000 0.51 0 06:32 12.04.2022
4290 Clouds 4 1015 76 10000 0.51 0 05:34 12.04.2022
4291 Clouds 7 1015 73 10000 3.09 90 00:46 12.04.2022
4292 Clouds 9 1016 63 10000 0.45 82 22:47 11.04.2022
4293 Clouds 9 1016 64 10000 0.51 0 21:41 11.04.2022
4294 Clear 12 1014 60 10000 1.54 290 20:57 11.04.2022
4295 Clear 13 1013 59 10000 1.03 0 20:29 11.04.2022
4296 Clear 15 1013 41 10000 2.06 290 19:55 11.04.2022
4297 Clouds 15 1015 31 10000 1.79 318 19:18 11.04.2022
4298 Clouds 15 1015 30 10000 2.24 323 18:47 11.04.2022
4299 Clear 16 1015 32 10000 1.03 0 17:57 11.04.2022
4300 Clear 16 1015 36 10000 2.57 10 16:54 11.04.2022
4301 Clear 16 1016 38 10000 2.57 250 15:56 11.04.2022
4302 Clear 14 1017 44 10000 2.57 270 14:24 11.04.2022
4303 Clear 12 1017 49 10000 3.58 254 12:52 11.04.2022
4304 Clear 11 1017 52 10000 1.79 248 12:32 11.04.2022
4305 Clouds 9 1018 56 10000 1.03 0 11:31 11.04.2022
4306 Clear 7 1018 64 10000 1.79 85 10:28 11.04.2022
4307 Clear 5 1018 70 10000 2.06 110 09:20 11.04.2022
4308 Clouds 0 1018 80 10000 1.03 0 06:24 11.04.2022
4309 Clouds 2 1020 74 10000 2.57 70 01:53 11.04.2022
4310 Clouds 3 1019 69 10000 2.06 100 22:37 10.04.2022
4311 Clouds 4 1019 70 10000 1.54 110 21:55 10.04.2022
4312 Clouds 5 1019 61 10000 1.54 110 21:28 10.04.2022
4313 Clear 9 1018 49 10000 1.03 0 20:30 10.04.2022
4314 Clear 11 1018 43 10000 2.06 100 19:43 10.04.2022
4315 Clear 10 1019 40 10000 2.68 63 19:18 10.04.2022
4316 Clear 11 1019 37 10000 2.06 100 18:41 10.04.2022
4317 Clouds 12 1020 34 10000 2.24 55 17:52 10.04.2022
4318 Clouds 11 1020 34 10000 2.24 26 17:32 10.04.2022
4319 Clear 11 1021 38 10000 1.03 0 15:56 10.04.2022
4320 Clouds 10 1021 48 10000 2.24 96 14:51 10.04.2022
4321 Clouds 9 1021 52 10000 2.06 80 13:54 10.04.2022
4322 Clouds 8 1022 59 10000 3.13 69 12:33 10.04.2022
4323 Clouds 7 1022 69 10000 3.13 92 11:46 10.04.2022
4324 Clouds 6 1023 72 10000 2.68 65 11:28 10.04.2022
4325 Clouds 6 1022 77 10000 3.6 140 10:41 10.04.2022
4326 Clouds 4 1022 84 10000 4.92 95 09:49 10.04.2022
4327 Mist 3 1022 91 2000 2.57 70 08:55 10.04.2022
4328 Mist 2 1022 91 3300 2.57 90 08:20 10.04.2022
4329 Clouds 1 1021 85 10000 2.06 90 06:59 10.04.2022
4330 Clouds 1 1021 89 10000 1.54 50 04:42 10.04.2022
4331 Rain 2 1021 86 10000 2.24 70 02:19 10.04.2022
4332 Clouds 2 1019 78 10000 2.57 100 23:54 09.04.2022
4333 Clouds 2 1019 80 10000 2.57 90 23:25 09.04.2022
4334 Clouds 2 1019 81 10000 2.57 90 22:39 09.04.2022
4335 Clouds 3 1018 79 10000 4.12 120 21:28 09.04.2022
4336 Clouds 3 1017 80 10000 3.6 120 20:31 09.04.2022
4337 Clouds 4 1017 77 10000 2.68 144 19:59 09.04.2022
4338 Clouds 4 1017 75 10000 2.68 95 19:39 09.04.2022
4339 Clouds 5 1016 73 10000 4.63 150 18:24 09.04.2022
4340 Drizzle 5 1016 72 10000 5.14 150 17:50 09.04.2022
4341 Clouds 6 1016 71 10000 5.14 130 16:59 09.04.2022
4342 Clouds 6 1015 71 10000 5.14 130 16:40 09.04.2022
4343 Clouds 7 1015 72 10000 3.6 100 15:51 09.04.2022
4344 Clouds 7 1015 72 10000 3.09 130 15:26 09.04.2022
4345 Clouds 5 1015 77 10000 2.68 105 14:26 09.04.2022
4346 Mist 5 1014 82 4600 2.06 260 13:34 09.04.2022
4347 Clouds 5 1014 77 10000 3.6 230 12:57 09.04.2022
4348 Clouds 5 1014 73 10000 2.24 260 11:51 09.04.2022
4349 Clouds 4 1014 78 10000 1.54 280 10:52 09.04.2022
4350 Clouds 3 1014 82 10000 2.24 242 10:18 09.04.2022
4351 Clouds 3 1014 82 10000 2.06 330 09:23 09.04.2022
4352 Clouds 3 1013 80 9000 2.57 300 08:26 09.04.2022
4353 Clouds 6 1006 84 10000 6.17 280 04:38 09.04.2022
4354 Clouds 12 1000 60 10000 4.63 230 00:35 09.04.2022
4355 Drizzle 12 1000 57 10000 7.6 227 23:24 08.04.2022
4356 Clouds 12 1001 62 10000 8.05 199 21:53 08.04.2022
4357 Clouds 12 1000 66 10000 6.71 260 20:44 08.04.2022
4358 Clouds 11 1002 72 10000 5.81 250 19:50 08.04.2022
4359 Clouds 11 1002 78 10000 6.71 225 18:56 08.04.2022
4360 Clouds 11 1002 79 10000 2.24 265 18:22 08.04.2022
4361 Clouds 11 1003 73 10000 5.81 211 17:29 08.04.2022
4362 Clouds 11 1003 72 10000 7.6 219 16:58 08.04.2022
4363 Clouds 11 1003 75 10000 6.71 240 16:31 08.04.2022
4364 Clouds 11 1003 70 10000 7.15 219 15:37 08.04.2022
4365 Clouds 13 1003 65 10000 9.83 260 14:52 08.04.2022
4366 Clouds 12 1004 65 10000 9.83 260 14:20 08.04.2022
4367 Clouds 12 1004 72 10000 7.6 255 13:31 08.04.2022
4368 Clouds 12 1004 72 10000 10.28 270 12:55 08.04.2022
4369 Rain 11 1005 76 10000 8.23 180 11:41 08.04.2022
4370 Rain 10 1005 81 10000 6.71 229 10:20 08.04.2022
4371 Rain 9 1005 85 10000 3.09 100 09:20 08.04.2022
4372 Rain 8 1007 83 10000 3.58 228 07:44 08.04.2022
4373 Rain 9 1007 80 10000 4.63 150 06:45 08.04.2022
4374 Clouds 10 1008 79 10000 6.71 213 03:35 08.04.2022
4375 Clouds 10 1007 77 9990 9.39 235 00:31 08.04.2022
4376 Rain 10 1007 76 10000 8.94 245 23:52 07.04.2022
4377 Clouds 10 1006 75 10000 7.6 224 22:55 07.04.2022
4378 Rain 10 1006 74 10000 8.49 270 22:36 07.04.2022
4379 Rain 10 1005 74 10000 8.05 221 22:18 07.04.2022
4380 Clouds 10 1005 73 10000 7.15 270 21:30 07.04.2022
4381 Clouds 10 1004 73 10000 7.6 250 20:55 07.04.2022
4382 Clouds 10 1004 74 10000 8.05 219 20:21 07.04.2022
4383 Rain 9 1004 75 9000 6.26 248 17:43 07.04.2022
4384 Rain 9 1004 76 9000 7.15 275 17:23 07.04.2022
4385 Drizzle 10 1004 73 10000 8.05 258 16:35 07.04.2022
4386 Clouds 10 1005 74 7205 9.39 270 15:56 07.04.2022
4387 Rain 10 1004 72 10000 7.6 260 13:59 07.04.2022
4388 Rain 10 1004 71 10000 7.6 260 13:26 07.04.2022
4389 Rain 11 1005 68 10000 7.6 270 12:28 07.04.2022
4390 Rain 10 1005 65 10000 6.71 245 10:56 07.04.2022
4391 Clouds 10 1006 65 10000 7.15 270 09:34 07.04.2022
4392 Clouds 9 1006 64 10000 4.02 255 08:27 07.04.2022
4393 Clouds 9 1007 71 10000 4.92 226 06:18 07.04.2022
4394 Clouds 9 1008 79 10000 5.36 253 02:38 07.04.2022
4395 Rain 10 1008 69 10000 4.92 264 00:47 07.04.2022
4396 Clouds 10 1008 61 10000 3.13 214 23:39 06.04.2022
4397 Clouds 11 1007 66 10000 2.57 260 22:45 06.04.2022
4398 Clouds 11 1007 66 10000 3.09 280 22:21 06.04.2022
4399 Clouds 11 1006 66 10000 3.09 260 20:54 06.04.2022
4400 Clouds 12 1007 63 10000 4.47 244 20:26 06.04.2022
4401 Clouds 12 1006 66 10000 2.57 220 19:48 06.04.2022
4402 Clouds 13 1006 55 10000 4.12 290 18:48 06.04.2022
4403 Clouds 14 1008 53 10000 3.58 296 17:38 06.04.2022
4404 Clouds 14 1006 50 10000 4.47 292 17:20 06.04.2022
4405 Clouds 15 1007 51 10000 4.92 309 16:34 06.04.2022
4406 Clouds 15 1008 44 10000 4.02 275 15:45 06.04.2022
4407 Clouds 15 1008 49 10000 2.68 250 13:57 06.04.2022
4408 Clouds 14 1009 61 10000 1.54 190 12:37 06.04.2022
4409 Clouds 12 1010 66 10000 1.79 266 11:48 06.04.2022
4410 Clouds 11 1010 69 10000 2.06 120 10:42 06.04.2022
4411 Clouds 10 1010 72 10000 1.79 274 10:18 06.04.2022
4412 Clouds 9 1011 78 10000 2.06 90 09:26 06.04.2022
4413 Clouds 7 1011 87 10000 1.03 0 08:26 06.04.2022
4414 Clouds 6 1012 84 10000 1.12 175 07:37 06.04.2022
4415 Clouds 6 1013 85 10000 1.54 170 02:19 06.04.2022
4416 Clouds 7 1013 79 10000 3.09 110 23:50 05.04.2022
4417 Clouds 8 1013 79 10000 1.54 0 22:28 05.04.2022
4418 Clouds 10 1013 68 10000 2.06 110 21:18 05.04.2022
4419 Clouds 11 1012 66 10000 0 0 20:25 05.04.2022
4420 Clouds 13 1012 50 10000 1.54 0 18:56 05.04.2022
4421 Clouds 12 1013 52 10000 4.12 300 17:31 05.04.2022
4422 Clouds 13 1013 50 10000 2.57 280 16:47 05.04.2022
4423 Clouds 12 1014 51 10000 3.13 286 15:52 05.04.2022
4424 Clouds 12 1015 49 10000 1.79 281 15:33 05.04.2022
4425 Clouds 12 1015 49 10000 1.79 281 15:33 05.04.2022
4426 Clouds 11 1015 49 10000 2.06 100 14:22 05.04.2022
4427 Clouds 10 1016 54 10000 1.03 0 12:56 05.04.2022
4428 Clouds 8 1016 62 10000 3.58 270 11:50 05.04.2022
4429 Clouds 7 1016 64 10000 1.54 0 11:32 05.04.2022
4430 Rain 5 1016 69 10000 2.57 110 09:49 05.04.2022
4431 Clouds 4 1016 72 10000 2.06 90 08:52 05.04.2022
4432 Clouds 3 1015 93 9000 2.57 110 06:43 05.04.2022
4433 Clouds 3 1016 87 8000 1.03 0 00:39 05.04.2022
4434 Clouds 2 1017 87 10000 1.03 0 22:41 04.04.2022
4435 Clouds 3 1016 81 10000 3.6 110 21:57 04.04.2022
4436 Clouds 3 1016 81 10000 0.51 0 21:21 04.04.2022
4437 Clouds 4 1015 70 10000 1.03 0 20:49 04.04.2022
4438 Clear 7 1016 49 10000 2.57 210 19:44 04.04.2022
4439 Clear 7 1016 55 10000 3.13 211 19:25 04.04.2022
4440 Clear 8 1017 47 10000 5.14 220 17:55 04.04.2022
4441 Clear 7 1017 50 10000 4.92 265 16:36 04.04.2022
4442 Clear 7 1017 50 10000 4.92 265 16:36 04.04.2022
4443 Clear 6 1018 54 10000 5.14 280 15:43 04.04.2022
4444 Clear 6 1018 54 10000 5.36 280 15:25 04.04.2022
4445 Clouds 6 1018 57 10000 4.47 285 14:45 04.04.2022
4446 Clouds 5 1019 61 10000 2.24 235 13:22 04.04.2022
4447 Clouds 3 1020 67 10000 1.54 180 11:55 04.04.2022
4448 Clouds 2 1020 70 10000 2.24 270 11:28 04.04.2022
4449 Clouds -1 1020 82 10000 0.51 0 08:36 04.04.2022
4450 Clouds -2 1019 86 10000 1.03 70 03:52 04.04.2022
4451 Clouds 0 1019 80 10000 1.03 0 00:41 04.04.2022
4452 Clouds 1 1019 75 10000 1.54 330 22:36 03.04.2022
4453 Clouds 1 1019 75 10000 1.03 0 21:45 03.04.2022
4454 Clouds 1 1019 75 10000 1.03 0 20:54 03.04.2022
4455 Clouds 1 1019 71 10000 3.58 54 19:49 03.04.2022
4456 Clouds 2 1019 67 10000 4.47 37 18:32 03.04.2022
4457 Clouds 3 1018 66 10000 3.09 360 17:47 03.04.2022
4458 Clouds 3 1018 65 10000 2.68 90 16:57 03.04.2022
4459 Clouds 3 1018 67 10000 4.47 39 16:39 03.04.2022
4460 Clouds 3 1018 66 10000 5.81 13 14:48 03.04.2022
4461 Clouds 3 1018 62 10000 4.12 40 13:53 03.04.2022
4462 Rain 2 1018 69 10000 4.47 57 12:42 03.04.2022
4463 Clouds 1 1018 79 10000 4.92 46 10:58 03.04.2022
4464 Clouds -1 1017 82 10000 4.02 46 09:38 03.04.2022
4465 Clouds -2 1017 82 10000 4.92 28 08:33 03.04.2022
4466 Clouds -1 1015 74 10000 1.54 30 05:38 03.04.2022
4467 Clouds -1 1015 80 10000 2.57 330 01:54 03.04.2022
4468 Clouds -1 1015 84 10000 4.92 32 23:21 02.04.2022
4469 Snow 0 1014 85 10000 3.58 46 22:18 02.04.2022
4470 Clouds 0 1014 83 10000 1.03 0 21:47 02.04.2022
4471 Clouds 0 1013 88 10000 2.68 55 21:18 02.04.2022
4472 Snow 0 1013 86 6000 1.79 55 19:54 02.04.2022
4473 Snow 1 1012 83 8000 3.13 75 18:23 02.04.2022
4474 Snow 1 1011 84 8000 1.54 260 17:53 02.04.2022
4475 Snow 2 1010 81 9000 4.47 28 16:29 02.04.2022
4476 Clouds 2 1009 79 8000 3.6 330 15:22 02.04.2022
4477 Snow 2 1009 80 10000 5.81 40 14:51 02.04.2022
4478 Clouds 2 1008 83 6000 3.6 320 13:51 02.04.2022
4479 Clouds 2 1008 82 1500 2.57 310 13:19 02.04.2022
4480 Snow 1 1007 87 3500 2.68 38 11:33 02.04.2022
4481 Mist 0 1006 90 1500 1.34 34 09:30 02.04.2022
4482 Snow -1 1004 91 2500 2.06 280 06:51 02.04.2022
4483 Clouds -1 1003 88 10000 1.54 270 03:55 02.04.2022
4484 Clouds -1 1003 91 2400 0.51 290 00:19 02.04.2022
4485 Snow -1 1003 91 1700 0.51 210 23:40 01.04.2022
4486 Snow 0 1003 91 1000 1.03 90 21:52 01.04.2022
4487 Snow 0 1003 91 1200 1.03 90 20:52 01.04.2022
4488 Drizzle 0 1003 90 1200 1.03 90 20:30 01.04.2022
4489 Snow 0 1003 90 1500 1.34 225 19:37 01.04.2022
4490 Snow 0 1002 89 2600 1.54 300 18:51 01.04.2022
4491 Snow 0 1002 88 2700 2.06 280 17:59 01.04.2022
4492 Snow 0 1002 89 3000 1.54 280 17:34 01.04.2022
4493 Snow 0 1002 89 1000 3.09 270 15:42 01.04.2022
4494 Snow 1 1002 91 1600 3.09 280 14:26 01.04.2022
4495 Snow 1 1001 89 1500 3.58 267 13:35 01.04.2022
4496 Snow 1 1000 90 1000 3.58 267 12:33 01.04.2022
4497 Snow 1 1000 89 1000 3.58 267 12:33 01.04.2022
4498 Snow 1 1000 89 2000 5.66 320 11:44 01.04.2022
4499 Snow 1 999 90 1600 2.57 310 10:19 01.04.2022
4500 Snow 1 998 89 2300 2.68 11 09:29 01.04.2022
4501 Rain 3 997 86 8000 3.6 330 06:55 01.04.2022
4502 Drizzle 4 997 88 10000 1.03 0 04:53 01.04.2022
4503 Drizzle 4 997 88 8000 1.03 260 04:34 01.04.2022
4504 Rain 5 998 87 8000 1.54 100 01:58 01.04.2022
4505 Rain 5 998 86 10000 1.03 0 00:44 01.04.2022
4506 Rain 6 998 84 10000 2.06 250 21:54 31.03.2022
4507 Drizzle 6 998 85 10000 2.06 240 21:32 31.03.2022
4508 Rain 6 997 84 10000 2.24 233 20:30 31.03.2022
4509 Drizzle 7 997 83 10000 2.68 182 19:50 31.03.2022
4510 Clouds 7 996 84 10000 2.24 232 18:51 31.03.2022
4511 Clouds 7 996 80 5000 4.63 290 17:50 31.03.2022
4512 Clouds 9 995 77 10000 2.68 240 16:39 31.03.2022
4513 Clouds 9 995 77 10000 2.24 234 15:48 31.03.2022
4514 Rain 8 995 80 8000 5.14 270 15:20 31.03.2022
4515 Rain 9 996 77 9000 4.47 260 14:40 31.03.2022
4516 Clouds 9 996 81 10000 2.24 210 12:30 31.03.2022
4517 Clouds 9 996 81 10000 2.24 210 12:30 31.03.2022
4518 Clouds 8 996 84 9000 2.24 207 11:26 31.03.2022
4519 Rain 7 996 85 6000 0.89 214 09:47 31.03.2022
4520 Drizzle 7 996 84 8000 0.51 0 08:23 31.03.2022
4521 Clouds 7 997 84 6000 1.54 140 05:42 31.03.2022
4522 Clouds 8 1000 79 10000 2.06 110 00:32 31.03.2022
4523 Clouds 8 1000 77 10000 1.54 100 22:45 30.03.2022
4524 Clouds 9 1000 75 10000 1.03 0 21:39 30.03.2022
4525 Clouds 10 1000 69 10000 4.02 285 20:54 30.03.2022
4526 Clouds 10 1000 69 10000 4.12 120 20:20 30.03.2022
4527 Clouds 11 1000 71 10000 3.6 150 19:35 30.03.2022
4528 Clouds 12 1000 58 10000 4.63 150 18:28 30.03.2022
4529 Clouds 13 1000 58 10000 3.6 160 17:47 30.03.2022
4530 Clouds 13 1001 56 10000 4.12 140 16:57 30.03.2022
4531 Clouds 13 1001 56 10000 3.6 130 16:38 30.03.2022
4532 Clouds 12 1003 60 10000 2.57 110 15:24 30.03.2022
4533 Clouds 11 1004 71 8000 3.13 280 13:44 30.03.2022
4534 Clouds 10 1004 74 10000 3.13 244 12:57 30.03.2022
4535 Rain 9 1005 73 8000 3.13 250 11:34 30.03.2022
4536 Rain 9 1005 74 8000 3.13 250 11:34 30.03.2022
4537 Drizzle 9 1005 72 7000 3.58 268 10:28 30.03.2022
4538 Drizzle 9 1005 68 8000 3.13 242 09:24 30.03.2022
4539 Clouds 10 1005 58 10000 3.13 197 07:33 30.03.2022
4540 Clouds 11 1005 68 10000 3.09 240 05:41 30.03.2022
4541 Clouds 12 1006 58 10000 3.58 260 03:59 30.03.2022
4542 Clouds 11 1007 54 10000 1.54 0 00:42 30.03.2022
4543 Clouds 13 1008 62 10000 1.79 222 22:28 29.03.2022
4544 Clouds 13 1008 63 10000 2.06 160 21:45 29.03.2022
4545 Clouds 14 1008 56 10000 1.54 0 20:53 29.03.2022
4546 Clouds 15 1008 54 10000 2.68 217 20:18 29.03.2022
4547 Clouds 16 1008 27 10000 5.14 270 18:55 29.03.2022
4548 Clouds 17 1009 42 10000 4.92 266 18:19 29.03.2022
4549 Clouds 17 1009 39 10000 5.14 260 17:22 29.03.2022
4550 Clouds 17 1009 40 10000 5.14 260 16:56 29.03.2022
4551 Clouds 18 1010 41 10000 7.6 270 15:57 29.03.2022
4552 Clouds 17 1011 45 10000 4.12 290 14:52 29.03.2022
4553 Clouds 17 1012 44 10000 4.02 279 13:56 29.03.2022
4554 Clear 15 1013 47 10000 2.24 225 12:51 29.03.2022
4555 Clear 14 1014 51 10000 1.34 83 11:43 29.03.2022
4556 Clear 11 1014 49 10000 1.03 0 10:30 29.03.2022
4557 Clear 9 1015 52 10000 0.51 0 09:33 29.03.2022
4558 Clouds 5 1015 60 10000 0.51 0 06:58 29.03.2022
4559 Clouds 6 1017 76 10000 0.45 146 03:54 29.03.2022
4560 Clouds 7 1018 71 10000 0.51 0 00:33 29.03.2022
4561 Clouds 9 1019 68 10000 1.54 0 23:22 28.03.2022
4562 Clouds 9 1019 68 10000 0.45 288 22:51 28.03.2022
4563 Clouds 10 1019 66 10000 0.89 288 22:23 28.03.2022
4564 Clear 10 1019 68 10000 1.54 180 20:54 28.03.2022
4565 Clear 13 1019 59 10000 0.89 288 20:20 28.03.2022
4566 Clear 16 1018 33 10000 1.03 0 19:41 28.03.2022
4567 Clear 17 1020 66 10000 1.79 285 18:55 28.03.2022
4568 Clear 19 1019 29 10000 1.03 0 18:36 28.03.2022
4569 Clear 19 1021 38 10000 2.24 275 17:38 28.03.2022
4570 Clear 19 1022 36 10000 3.58 240 16:19 28.03.2022
4571 Clear 18 1023 39 10000 3.6 350 14:27 28.03.2022
4572 Clear 17 1024 42 10000 2.68 235 13:47 28.03.2022
4573 Clear 14 1026 37 10000 0.89 46 11:58 28.03.2022
4574 Clear 12 1026 46 10000 1.79 323 10:50 28.03.2022
4575 Clear 9 1027 51 10000 0.51 0 09:41 28.03.2022
4576 Clear 7 1027 58 10000 0.51 0 09:19 28.03.2022
4577 Clear 3 1027 65 10000 0.51 0 08:22 28.03.2022
4578 Clear 3 1027 78 10000 0.51 0 07:27 28.03.2022
4579 Clear 4 1027 77 10000 0.51 0 03:27 28.03.2022
4580 Clear 8 1028 70 10000 0.45 155 23:24 27.03.2022
4581 Clear 9 1027 67 10000 1.34 127 22:23 27.03.2022
4582 Clear 9 1027 63 10000 1.54 80 21:41 27.03.2022
4583 Clear 10 1025 50 10000 1.03 0 20:54 27.03.2022
4584 Clear 15 1025 41 10000 1.03 0 19:46 27.03.2022
4585 Clear 19 1025 22 10000 1.54 0 18:54 27.03.2022
4586 Clear 18 1026 44 10000 2.06 280 18:26 27.03.2022
4587 Clear 18 1026 45 10000 2.06 10 17:38 27.03.2022
4588 Clear 18 1026 38 10000 1.79 110 15:59 27.03.2022
4589 Clear 18 1026 38 10000 1.79 110 15:59 27.03.2022
4590 Clear 17 1027 43 10000 2.06 270 14:26 27.03.2022
4591 Clear 17 1027 31 10000 1.54 0 13:54 27.03.2022
4592 Clear 17 1027 31 10000 1.54 0 13:54 27.03.2022
4593 Clear 13 1028 40 10000 1.54 0 11:52 27.03.2022
4594 Clear 9 1028 49 10000 0.51 0 10:28 27.03.2022
4595 Clear 3 1028 61 10000 0.45 71 08:21 27.03.2022
4596 Clear 4 1027 75 10000 1.26 158 05:44 27.03.2022
4597 Clear 7 1026 78 10000 0.45 51 00:47 27.03.2022
4598 Clear 8 1026 89 10000 1.57 109 23:30 26.03.2022
4599 Clear 10 1027 54 10000 1.79 69 22:29 26.03.2022
4600 Clear 6 1025 70 10000 1.03 0 21:32 26.03.2022
4601 Clear 11 1024 52 10000 1.03 0 20:20 26.03.2022
4602 Clear 15 1023 33 10000 1.54 180 18:59 26.03.2022
4603 Clear 17 1023 35 10000 3.09 360 17:46 26.03.2022
4604 Clear 17 1024 49 10000 4.92 73 17:28 26.03.2022
4605 Clear 18 1024 43 10000 5.81 29 16:24 26.03.2022
4606 Clear 18 1025 46 10000 4.12 310 14:50 26.03.2022
4607 Clear 17 1025 48 10000 4.12 280 13:52 26.03.2022
4608 Clear 16 1026 39 10000 3.09 240 12:41 26.03.2022
4609 Clear 13 1026 55 10000 2.06 240 11:28 26.03.2022
4610 Clear 8 1026 53 10000 2.24 34 09:23 26.03.2022
4611 Clear 6 1026 60 10000 0.89 104 08:28 26.03.2022
4612 Clear 4 1025 71 10000 1.02 102 05:54 26.03.2022
4613 Clear 5 1025 68 10000 1.34 105 03:58 26.03.2022
4614 Clear 8 1025 68 10000 1.34 88 23:21 25.03.2022
4615 Clouds 10 1024 72 10000 1.59 78 21:28 25.03.2022
4616 Clouds 10 1026 58 10000 1.59 78 20:45 25.03.2022
4617 Clear 13 1023 42 10000 1.03 0 19:28 25.03.2022
4618 Clear 16 1023 27 10000 2.57 30 18:46 25.03.2022
4619 Clear 16 1023 27 10000 2.57 30 18:46 25.03.2022
4620 Clear 16 1023 57 10000 3.6 40 17:35 25.03.2022
4621 Clear 16 1023 57 10000 3.6 40 17:35 25.03.2022
4622 Clear 18 1024 46 10000 6.26 36 16:41 25.03.2022
4623 Clear 18 1024 42 10000 5.81 44 15:52 25.03.2022
4624 Clear 17 1025 43 10000 3.13 90 13:51 25.03.2022
4625 Clear 15 1026 53 10000 3.13 40 12:20 25.03.2022
4626 Clear 11 1027 56 10000 1.03 0 09:52 25.03.2022
4627 Clear 10 1027 59 10000 1.03 0 09:23 25.03.2022
4628 Clear 4 1026 70 7000 1.03 0 07:48 25.03.2022
4629 Clear 4 1026 56 10000 0.9 141 07:21 25.03.2022
4630 Clear 3 1026 75 9000 0.51 0 04:47 25.03.2022
4631 Clear 5 1026 81 10000 1.03 0 00:29 25.03.2022
4632 Clear 8 1026 64 10000 1.4 141 22:29 24.03.2022
4633 Clear 9 1026 62 10000 1.4 141 21:33 24.03.2022
4634 Clear 11 1025 49 10000 1.03 0 19:50 24.03.2022
4635 Clear 16 1024 27 10000 1.54 70 18:49 24.03.2022
4636 Clear 18 1024 24 10000 2.57 10 17:38 24.03.2022
4637 Clear 18 1025 46 10000 3.13 90 16:44 24.03.2022
4638 Clear 18 1026 43 10000 3.09 310 14:59 24.03.2022
4639 Clear 18 1026 42 10000 3.6 320 14:40 24.03.2022
4640 Clear 16 1027 45 10000 3.09 280 13:41 24.03.2022
4641 Clear 14 1028 49 10000 1.34 95 12:39 24.03.2022
4642 Clear 13 1028 53 10000 1.34 140 11:31 24.03.2022
4643 Clear 10 1029 54 10000 0.51 0 09:36 24.03.2022
4644 Clear 7 1029 61 10000 1.54 130 08:39 24.03.2022
4645 Clear 1 1028 73 10000 0 0 06:19 24.03.2022
4646 Clear 4 1028 79 10000 1.03 0 01:28 24.03.2022
4647 Clear 7 1029 73 10000 1.3 150 22:29 23.03.2022
4648 Clear 8 1029 69 10000 0.45 5 21:25 23.03.2022
4649 Clear 8 1029 67 10000 0.45 5 20:47 23.03.2022
4650 Clear 10 1027 49 10000 1.54 290 19:40 23.03.2022
4651 Clear 15 1028 52 10000 3.09 330 18:22 23.03.2022
4652 Clear 17 1026 27 10000 3.09 320 17:36 23.03.2022
4653 Clear 17 1028 42 10000 2.57 350 16:18 23.03.2022
4654 Clear 17 1028 42 10000 2.57 350 16:18 23.03.2022
4655 Clear 16 1028 44 10000 4.12 310 14:49 23.03.2022
4656 Clear 15 1029 46 10000 2.68 256 13:34 23.03.2022
4657 Clear 13 1031 52 10000 2.68 34 11:51 23.03.2022
4658 Clear 8 1031 63 9000 1.54 0 09:21 23.03.2022
4659 Clear 1 1031 71 7000 0.45 149 06:29 23.03.2022
4660 Clear 1 1030 72 8000 0.51 0 03:57 23.03.2022
4661 Clear 4 1030 78 10000 1.57 163 00:29 23.03.2022
4662 Clear 6 1030 73 10000 1.47 156 22:25 22.03.2022
4663 Clear 7 1030 71 10000 0.89 148 21:29 22.03.2022
4664 Clear 8 1049 69 10000 1.34 189 20:34 22.03.2022
4665 Clear 10 1029 62 10000 1.03 330 19:31 22.03.2022
4666 Clear 11 1028 49 10000 0.51 0 18:57 22.03.2022
4667 Clear 14 1028 61 10000 1.54 0 17:46 22.03.2022
4668 Clear 15 1029 47 10000 3.09 290 17:23 22.03.2022
4669 Clear 15 1029 45 10000 1.54 0 15:52 22.03.2022
4670 Clear 15 1029 45 10000 2.06 290 15:21 22.03.2022
4671 Clear 15 1030 46 10000 3.13 48 14:46 22.03.2022
4672 Clear 15 1030 48 10000 3.09 280 14:24 22.03.2022
4673 Clear 13 1031 54 10000 1.54 0 12:41 22.03.2022
4674 Clear 12 1031 46 10000 1.54 270 11:26 22.03.2022
4675 Clear 9 1032 50 10000 1.79 155 10:23 22.03.2022
4676 Clear 4 1032 71 10000 1 170 07:48 22.03.2022
4677 Clear 1 1031 75 9000 1.03 0 05:19 22.03.2022
4678 Clear 2 1031 73 10000 0.51 0 03:38 22.03.2022
4679 Clouds 4 1030 77 10000 0.51 0 23:41 21.03.2022
4680 Clouds 7 1030 73 10000 1.35 147 21:51 21.03.2022
4681 Clouds 7 1030 73 10000 1.35 147 21:51 21.03.2022
4682 Clear 8 1030 68 10000 1.03 0 20:45 21.03.2022
4683 Clear 9 1029 61 10000 1.03 0 20:26 21.03.2022
4684 Clear 9 1029 66 10000 0.51 0 19:53 21.03.2022
4685 Clear 10 1029 63 10000 1.03 0 19:23 21.03.2022
4686 Clear 13 1029 56 10000 3.13 40 17:45 21.03.2022
4687 Clear 14 1029 47 10000 4.02 40 17:18 21.03.2022
4688 Clear 15 1029 46 10000 4.02 36 16:37 21.03.2022
4689 Clear 16 1029 47 10000 3.13 100 15:46 21.03.2022
4690 Clear 15 1029 50 10000 3.13 288 14:51 21.03.2022
4691 Clear 14 1030 53 10000 3.58 67 13:43 21.03.2022
4692 Clear 13 1031 42 10000 2.57 300 12:33 21.03.2022
4693 Clear 12 1031 48 10000 2.24 286 11:44 21.03.2022
4694 Clear 10 1032 53 10000 1.54 0 10:20 21.03.2022
4695 Clear 4 1032 74 10000 0 0 08:29 21.03.2022
4696 Clear 2 1031 71 10000 1.21 153 06:36 21.03.2022
4697 Clear 3 1031 72 10000 0.51 90 02:40 21.03.2022
4698 Clear 5 1030 66 10000 1.03 0 23:40 20.03.2022
4699 Clear 6 1030 78 10000 0.45 221 22:43 20.03.2022
4700 Clear 6 1029 82 10000 1.46 151 21:50 20.03.2022
4701 Clear 6 1030 75 10000 1.03 70 21:20 20.03.2022
4702 Clear 6 1029 70 10000 1.03 0 20:43 20.03.2022
4703 Clear 7 1028 67 10000 1.03 0 19:57 20.03.2022
4704 Clouds 11 1028 56 10000 2.06 280 19:26 20.03.2022
4705 Clear 13 1029 64 10000 2.24 279 17:52 20.03.2022
4706 Clouds 14 1028 53 10000 4.12 310 17:30 20.03.2022
4707 Clear 14 1028 50 10000 3.13 329 16:52 20.03.2022
4708 Clear 15 1028 52 10000 2.57 270 15:27 20.03.2022
4709 Clear 14 1028 49 10000 3.13 347 13:49 20.03.2022
4710 Clear 12 1029 50 10000 2.06 260 12:29 20.03.2022
4711 Clear 10 1029 51 10000 1.03 0 10:55 20.03.2022
4712 Clouds 5 1029 67 10000 0.45 188 08:42 20.03.2022
4713 Clouds 1 1028 75 10000 1.46 172 06:55 20.03.2022
4714 Clouds 2 1027 71 10000 1.29 162 04:23 20.03.2022
4715 Clouds 2 1027 70 5000 0.89 180 01:29 20.03.2022
4716 Clouds 3 1026 63 10000 1.79 142 00:37 20.03.2022
4717 Clouds 4 1026 81 10000 0.89 61 22:56 19.03.2022
4718 Clouds 6 1026 73 8000 0.51 0 21:27 19.03.2022
4719 Clouds 7 1027 76 10000 1.79 65 20:28 19.03.2022
4720 Clouds 9 1027 67 8000 3.13 66 18:58 19.03.2022
4721 Clouds 11 1027 59 7000 3.6 40 18:23 19.03.2022
4722 Clouds 11 1027 60 8000 4.92 93 17:35 19.03.2022
4723 Clouds 12 1028 59 9000 7.15 95 15:43 19.03.2022
4724 Clear 12 1029 63 10000 4.92 69 14:34 19.03.2022
4725 Clear 11 1031 54 10000 5.36 90 12:59 19.03.2022
4726 Clear 10 1031 55 10000 4.47 19 12:39 19.03.2022
4727 Clear 9 1031 56 10000 3.58 32 11:51 19.03.2022
4728 Clouds 8 1032 57 9000 2.68 115 10:45 19.03.2022
4729 Clouds 4 1032 68 10000 1.34 61 06:29 19.03.2022
4730 Clouds 5 1032 62 10000 1.79 69 03:24 19.03.2022
4731 Clouds 6 1032 60 10000 2.68 55 01:41 19.03.2022
4732 Clouds 7 1032 60 10000 3.13 73 23:36 18.03.2022
4733 Clouds 8 1032 59 10000 5.36 53 22:27 18.03.2022
4734 Clouds 8 1032 58 10000 6.71 63 21:37 18.03.2022
4735 Clouds 9 1032 63 8000 5.81 49 19:51 18.03.2022
4736 Clouds 9 1031 64 8000 5.36 69 19:21 18.03.2022
4737 Clouds 9 1031 68 10000 5.81 69 17:43 18.03.2022
4738 Clouds 9 1031 68 7000 6.71 84 16:47 18.03.2022
4739 Clouds 9 1032 71 6000 6.71 69 14:51 18.03.2022
4740 Clouds 9 1032 72 6000 7.15 74 14:21 18.03.2022
4741 Clouds 8 1032 75 5000 8.05 76 12:26 18.03.2022
4742 Clouds 8 1032 77 6000 7.6 32 10:47 18.03.2022
4743 Clouds 7 1031 78 6000 7.15 51 09:28 18.03.2022
4744 Clouds 7 1031 79 6000 6.26 39 08:30 18.03.2022
4745 Clouds 7 1031 78 6000 7.15 61 06:34 18.03.2022
4746 Clouds 8 1030 76 7000 6.26 54 02:51 18.03.2022
4747 Clouds 10 1029 74 8000 6.26 62 00:22 18.03.2022
4748 Clouds 10 1029 74 8000 6.26 62 00:22 18.03.2022
4749 Clouds 10 1029 74 9000 6.26 16 23:22 17.03.2022
4750 Clouds 10 1029 73 9000 7.15 23 22:24 17.03.2022
4751 Clouds 11 1028 73 10000 7.6 32 21:48 17.03.2022
4752 Clouds 11 1028 74 10000 7.6 46 21:21 17.03.2022
4753 Clouds 11 1027 71 10000 6.26 24 20:42 17.03.2022
4754 Clouds 11 1027 70 10000 6.71 30 19:47 17.03.2022
4755 Clouds 12 1026 67 10000 6.71 38 18:57 17.03.2022
4756 Clouds 12 1026 66 10000 6.26 27 18:37 17.03.2022
4757 Clear 15 1025 58 10000 7.15 28 16:48 17.03.2022
4758 Clear 16 1024 53 10000 6.26 41 15:44 17.03.2022
4759 Clear 16 1024 55 10000 5.36 22 15:24 17.03.2022
4760 Clear 16 1025 55 10000 5.36 355 14:28 17.03.2022
4761 Clear 14 1025 66 10000 3.58 80 12:51 17.03.2022
4762 Clear 14 1025 70 10000 4.02 17 12:22 17.03.2022
4763 Clear 12 1025 75 10000 2.68 40 11:27 17.03.2022
4764 Clouds 10 1025 88 8000 2.06 120 09:57 17.03.2022
4765 Mist 7 1025 87 9000 0 0 08:34 17.03.2022
4766 Fog 6 1024 86 8000 1.54 290 07:33 17.03.2022
4767 Clouds 6 1024 86 10000 0.75 152 05:47 17.03.2022
4768 Mist 7 1022 86 3800 0.51 0 01:23 17.03.2022
4769 Clouds 8 1022 81 10000 0.99 172 23:45 16.03.2022
4770 Mist 9 1022 83 4500 0 0 22:45 16.03.2022
4771 Mist 9 1022 82 4700 0.51 0 22:21 16.03.2022
4772 Clouds 9 1022 77 10000 0.76 171 21:37 16.03.2022
4773 Clear 11 1021 77 10000 1.54 310 19:40 16.03.2022
4774 Clear 11 1021 75 10000 1.54 290 19:19 16.03.2022
4775 Clear 12 1021 71 10000 2.06 280 18:36 16.03.2022
4776 Clear 14 1021 67 10000 2.57 280 17:41 16.03.2022
4777 Clear 15 1020 67 10000 2.57 270 16:56 16.03.2022
4778 Clear 15 1020 65 10000 3.09 290 15:55 16.03.2022
4779 Clear 15 1021 68 10000 3.6 310 14:25 16.03.2022
4780 Clear 15 1022 58 10000 3.09 290 13:24 16.03.2022
4781 Clear 13 1023 63 10000 1.03 0 11:54 16.03.2022
4782 Clear 12 1023 68 10000 0.51 0 11:20 16.03.2022
4783 Clear 10 1024 75 10000 1.03 170 10:22 16.03.2022
4784 Clouds 7 1023 75 9000 1.03 100 08:51 16.03.2022
4785 Fog 5 1024 86 5000 0 0 04:45 16.03.2022
4786 Clouds 6 1025 86 8000 1.54 0 00:48 16.03.2022
4787 Fog 7 1025 86 1200 0.51 0 22:38 15.03.2022
4788 Clouds 8 1024 84 8000 0.89 76 21:52 15.03.2022
4789 Clouds 9 1024 81 9000 1.03 300 20:18 15.03.2022
4790 Clear 10 1023 79 10000 1.54 0 18:54 15.03.2022
4791 Clouds 12 1023 74 10000 1.79 213 16:55 15.03.2022
4792 Clouds 12 1023 75 10000 2.24 215 16:20 15.03.2022
4793 Clouds 12 1023 78 10000 3.6 300 14:57 15.03.2022
4794 Clouds 11 1023 79 10000 3.6 300 14:34 15.03.2022
4795 Clouds 11 1024 85 10000 3.09 330 13:28 15.03.2022
4796 Clouds 8 1025 94 9000 3.6 320 12:21 15.03.2022
4797 Clouds 8 1025 89 8000 3.6 310 11:28 15.03.2022
4798 Drizzle 7 1027 93 7000 1.03 60 09:39 15.03.2022
4799 Drizzle 6 1028 83 7000 2.57 110 08:32 15.03.2022
4800 Rain 6 1028 83 4000 2.57 130 07:50 15.03.2022
4801 Rain 6 1028 85 4800 1.54 120 06:51 15.03.2022
4802 Rain 7 1029 67 10000 1.03 60 02:38 15.03.2022
4803 Clouds 7 1028 64 10000 1.34 175 23:39 14.03.2022
4804 Clouds 7 1028 60 10000 0.89 173 23:21 14.03.2022
4805 Clouds 7 1028 63 10000 0.51 280 22:19 14.03.2022
4806 Clear 8 1028 60 10000 0.51 0 21:22 14.03.2022
4807 Clear 9 1028 73 10000 1.03 0 20:35 14.03.2022
4808 Clear 9 1027 69 10000 1.03 0 19:59 14.03.2022
4809 Clear 11 1026 72 10000 1.03 0 18:31 14.03.2022
4810 Clear 13 1026 44 10000 3.58 13 17:44 14.03.2022
4811 Clear 14 1027 53 10000 3.58 14 16:57 14.03.2022
4812 Clear 14 1027 54 10000 2.68 51 15:34 14.03.2022
4813 Clear 13 1028 42 10000 2.24 81 14:33 14.03.2022
4814 Clear 10 1028 56 10000 2.06 260 11:53 14.03.2022
4815 Clear 8 1029 67 10000 2.24 85 10:35 14.03.2022
4816 Clear 7 1028 72 10000 1.54 0 09:39 14.03.2022
4817 Clear 6 1028 75 10000 1.54 160 09:20 14.03.2022
4818 Clear 5 1028 82 10000 0.89 146 08:49 14.03.2022
4819 Clouds 2 1027 81 10000 1.03 40 07:21 14.03.2022
4820 Rain 5 1025 76 10000 3.6 330 04:27 14.03.2022
4821 Rain 6 1023 69 10000 8.05 275 01:52 14.03.2022
4822 Clouds 8 1021 63 10000 7.72 250 00:38 14.03.2022
4823 Clouds 11 1016 43 10000 1.03 0 21:56 13.03.2022
4824 Clouds 9 1017 79 10000 1.79 275 21:27 13.03.2022
4825 Rain 9 1015 59 10000 1.54 180 20:49 13.03.2022
4826 Rain 10 1016 76 10000 1.54 180 20:26 13.03.2022
4827 Rain 11 1014 50 10000 1.54 0 19:43 13.03.2022
4828 Rain 11 1015 70 10000 1.54 0 19:24 13.03.2022
4829 Clouds 11 1013 52 10000 2.06 310 18:49 13.03.2022
4830 Clouds 12 1015 58 10000 2.06 310 18:26 13.03.2022
4831 Clouds 14 1012 38 10000 2.57 280 17:39 13.03.2022
4832 Clouds 14 1014 57 10000 2.06 290 16:48 13.03.2022
4833 Clouds 14 1014 50 10000 2.06 290 16:27 13.03.2022
4834 Clouds 14 1014 50 10000 3.58 240 15:43 13.03.2022
4835 Clouds 14 1014 52 10000 3.6 270 14:49 13.03.2022
4836 Clouds 13 1015 53 10000 4.47 245 13:30 13.03.2022
4837 Clear 13 1015 52 10000 4.92 274 12:26 13.03.2022
4838 Clear 12 1015 51 10000 1.03 0 11:45 13.03.2022
4839 Clouds 11 1016 53 10000 2.57 120 10:51 13.03.2022
4840 Clouds 10 1016 59 10000 2.57 120 10:30 13.03.2022
4841 Clouds 8 1016 46 10000 5.36 125 09:43 13.03.2022
4842 Clouds 7 1016 52 10000 1.34 80 08:51 13.03.2022
4843 Clouds 6 1017 56 10000 1.34 80 08:31 13.03.2022
4844 Clouds 5 1017 56 10000 2.24 86 07:34 13.03.2022
4845 Clouds 3 1017 63 10000 1.16 135 05:39 13.03.2022
4846 Clouds 3 1017 71 10000 0.51 0 01:48 13.03.2022
4847 Clouds 4 1017 77 8000 1.79 166 23:28 12.03.2022
4848 Clouds 6 1017 74 10000 1.74 154 21:43 12.03.2022
4849 Clear 7 1016 70 10000 0.45 64 20:20 12.03.2022
4850 Clear 8 1016 73 10000 1.03 0 19:46 12.03.2022
4851 Clear 11 1015 40 10000 0 0 18:41 12.03.2022
4852 Clear 11 1016 60 10000 2.68 28 18:19 12.03.2022
4853 Clear 13 1017 50 10000 3.6 320 16:32 12.03.2022
4854 Clear 13 1017 51 10000 2.68 51 15:52 12.03.2022
4855 Clear 13 1017 58 10000 4.12 320 15:21 12.03.2022
4856 Clouds 13 1017 52 10000 2.68 20 13:54 12.03.2022
4857 Clouds 13 1017 52 10000 2.68 20 13:54 12.03.2022
4858 Clear 12 1019 54 10000 2.24 15 12:28 12.03.2022
4859 Clear 11 1019 53 10000 2.24 14 11:53 12.03.2022
4860 Clear 11 1019 55 10000 2.68 63 11:33 12.03.2022
4861 Clear 10 1020 44 10000 1.54 0 10:26 12.03.2022
4862 Clear 8 1020 55 10000 1.54 140 09:43 12.03.2022
4863 Clouds 5 1019 70 10000 0.51 0 07:58 12.03.2022
4864 Clouds 5 1019 65 10000 0.96 91 06:40 12.03.2022
4865 Clouds 5 1019 70 6000 0.51 0 00:31 12.03.2022
4866 Clouds 5 1018 68 7000 1.54 190 23:43 11.03.2022
4867 Clouds 6 1018 62 10000 0.89 164 22:32 11.03.2022
4868 Clouds 5 1017 71 8000 1.03 0 21:24 11.03.2022
4869 Clouds 5 1016 71 10000 0.89 150 20:46 11.03.2022
4870 Clouds 6 1016 70 10000 0.89 236 20:26 11.03.2022
4871 Clouds 7 1016 67 10000 0.51 0 19:33 11.03.2022
4872 Clouds 11 1016 51 9000 1.54 330 18:30 11.03.2022
4873 Clouds 12 1015 45 10000 3.09 300 17:24 11.03.2022
4874 Clear 14 1015 44 10000 2.68 335 15:59 11.03.2022
4875 Clear 13 1016 58 10000 3.09 250 15:32 11.03.2022
4876 Clear 12 1017 56 10000 2.68 24 13:42 11.03.2022
4877 Clear 11 1017 48 10000 3.13 5 12:39 11.03.2022
4878 Clear 10 1017 48 10000 3.58 33 12:19 11.03.2022
4879 Clouds 7 1018 58 10000 2.57 320 10:44 11.03.2022
4880 Clouds 5 1019 64 10000 1.03 0 09:35 11.03.2022
4881 Clouds 1 1019 77 9000 0.51 0 08:28 11.03.2022
4882 Clouds 1 1018 74 8000 0.51 0 07:48 11.03.2022
4883 Clouds 0 1019 68 8000 1.03 0 06:42 11.03.2022
4884 Clouds 0 1019 71 6000 1.03 0 04:37 11.03.2022
4885 Clouds 0 1020 73 8000 0.51 0 01:29 11.03.2022
4886 Clouds 3 1020 79 10000 0.89 128 22:32 10.03.2022
4887 Clouds 3 1020 77 10000 0.45 128 21:53 10.03.2022
4888 Clouds 4 1020 76 10000 0.89 126 21:25 10.03.2022
4889 Clouds 5 1020 74 10000 0.89 82 20:34 10.03.2022
4890 Clear 7 1020 70 10000 1.03 240 19:20 10.03.2022
4891 Clear 13 1019 38 10000 2.57 240 17:50 10.03.2022
4892 Clear 13 1020 35 10000 2.06 270 16:52 10.03.2022
4893 Clear 13 1021 34 10000 2.06 290 15:28 10.03.2022
4894 Clear 11 1022 52 8000 3.13 304 13:42 10.03.2022
4895 Clear 10 1022 44 10000 3.09 290 12:38 10.03.2022
4896 Clear 8 1024 50 10000 1.03 0 11:28 10.03.2022
4897 Clear 4 1024 69 8000 1.03 0 09:42 10.03.2022
4898 Clear -1 1024 73 5000 1.54 0 07:48 10.03.2022
4899 Mist -2 1024 84 4500 0.51 0 05:30 10.03.2022
4900 Clear 0 1024 82 4800 1.34 196 01:59 10.03.2022
4901 Clear 1 1023 77 6000 0.51 0 23:32 09.03.2022
4902 Clear 2 1023 76 10000 1.03 110 22:20 09.03.2022
4903 Clear 2 1023 74 10000 1.54 120 21:36 09.03.2022
4904 Clear 4 1024 69 10000 0.45 179 20:31 09.03.2022
4905 Clear 7 1022 61 10000 1.03 0 18:35 09.03.2022
4906 Clear 11 1022 41 10000 2.06 270 17:28 09.03.2022
4907 Clear 12 1022 41 10000 2.06 320 16:36 09.03.2022
4908 Clear 12 1022 39 10000 1.03 0 15:32 09.03.2022
4909 Clear 11 1022 42 10000 1.54 0 13:58 09.03.2022
4910 Clear 10 1023 47 10000 2.57 320 12:59 09.03.2022
4911 Clear 9 1023 49 10000 1.54 0 12:19 09.03.2022
4912 Clear 7 1023 50 10000 1.34 319 11:36 09.03.2022
4913 Clear 5 1024 60 10000 0.51 0 10:39 09.03.2022
4914 Clear 1 1023 77 8000 0 0 08:59 09.03.2022
4915 Clear -1 1023 82 6000 0.51 0 08:25 09.03.2022
4916 Mist -2 1023 76 3400 0 0 03:50 09.03.2022
4917 Clouds -1 1022 83 4900 0.51 0 00:52 09.03.2022
4918 Mist -1 1021 82 5000 0.51 0 23:18 08.03.2022
4919 Clouds 0 1021 77 5000 0.51 0 22:44 08.03.2022
4920 Clouds 1 1021 80 7000 0.51 0 21:24 08.03.2022
4921 Clear 1 1020 71 10000 0.51 0 20:49 08.03.2022
4922 Clouds 2 1019 72 8000 1.03 80 19:53 08.03.2022
4923 Clear 5 1018 49 10000 2.06 300 18:44 08.03.2022
4924 Clear 8 1017 45 10000 3.6 310 17:40 08.03.2022
4925 Clear 8 1018 51 10000 2.06 290 16:29 08.03.2022
4926 Clear 8 1018 46 10000 1.54 270 14:20 08.03.2022
4927 Clear 5 1019 56 10000 2.06 240 12:44 08.03.2022
4928 Clear 3 1019 61 10000 2.57 300 11:45 08.03.2022
4929 Clear 2 1019 66 7000 1.54 0 10:55 08.03.2022
4930 Clear 1 1019 68 7000 1.34 267 10:19 08.03.2022
4931 Clear -5 1020 70 10000 0.66 51 07:33 08.03.2022
4932 Clear -4 1019 67 10000 0.74 58 05:43 08.03.2022
4933 Clear -2 1020 81 10000 2.24 58 23:52 07.03.2022
4934 Clear -1 1020 77 10000 1.34 59 21:59 07.03.2022
4935 Clear -1 1019 77 8000 1.34 73 21:32 07.03.2022
4936 Clear 0 1018 71 10000 1.79 65 20:49 07.03.2022
4937 Clear 1 1019 74 10000 1.34 78 20:20 07.03.2022
4938 Clear 2 1019 71 10000 3.13 57 19:33 07.03.2022
4939 Clear 3 1018 56 10000 2.68 73 18:44 07.03.2022
4940 Clear 4 1018 66 10000 3.58 19 17:50 07.03.2022
4941 Clear 5 1018 58 10000 4.02 21 16:55 07.03.2022
4942 Clear 6 1018 56 10000 4.02 35 15:50 07.03.2022
4943 Clear 5 1019 59 10000 3.6 300 13:52 07.03.2022
4944 Clear 3 1019 61 10000 3.13 38 12:28 07.03.2022
4945 Clear 1 1019 56 10000 3.13 33 10:38 07.03.2022
4946 Clear -2 1019 67 10000 2.24 24 08:57 07.03.2022
4947 Clear -3 1018 74 10000 1.79 96 04:51 07.03.2022
4948 Clear -1 1019 79 10000 2.68 51 00:23 07.03.2022
4949 Clear -1 1019 79 10000 2.24 71 23:35 06.03.2022
4950 Clear -1 1019 76 10000 3.13 26 22:42 06.03.2022
4951 Clear -1 1018 74 10000 2.68 55 21:58 06.03.2022
4952 Clear 0 1018 70 10000 1.79 50 20:49 06.03.2022
4953 Clear 1 1018 70 10000 2.24 57 20:22 06.03.2022
4954 Clear 3 1017 52 10000 4.92 56 18:56 06.03.2022
4955 Clear 3 1017 60 10000 4.92 59 18:23 06.03.2022
4956 Clear 5 1017 56 10000 5.81 39 17:21 06.03.2022
4957 Clear 6 1017 56 10000 4.92 32 16:41 06.03.2022
4958 Clear 6 1017 55 8000 4.47 53 15:52 06.03.2022
4959 Clear 6 1017 56 8000 4.12 50 14:49 06.03.2022
4960 Clear 6 1017 56 8000 4.12 50 14:49 06.03.2022
4961 Clear 6 1017 56 8000 4.12 50 14:31 06.03.2022
4962 Clouds 5 1018 60 8000 4.47 95 13:18 06.03.2022
4963 Clouds 4 1018 61 8000 3.58 33 12:35 06.03.2022
4964 Clear 2 1018 54 10000 3.58 18 10:59 06.03.2022
4965 Clear 0 1018 60 10000 3.58 59 10:22 06.03.2022
4966 Clear -3 1018 70 10000 1.79 76 08:29 06.03.2022
4967 Clear -3 1018 70 10000 1.79 76 08:29 06.03.2022
4968 Clear -3 1018 70 10000 1.79 76 08:29 06.03.2022
4969 Clear -3 1018 70 10000 1.79 76 08:29 06.03.2022
4970 Clear -3 1018 70 10000 1.79 76 08:29 06.03.2022
4971 Clear -4 1018 76 10000 1.34 62 07:34 06.03.2022
4972 Clear -3 1017 74 10000 0.89 76 05:32 06.03.2022
4973 Clear -1 1017 76 10000 1.79 62 00:49 06.03.2022
4974 Clear -1 1017 75 10000 1.79 69 00:29 06.03.2022
4975 Clear -1 1017 73 10000 1.79 54 23:21 05.03.2022
4976 Clear -1 1017 71 10000 1.34 75 22:47 05.03.2022
4977 Clear 0 1017 67 10000 0.89 65 21:46 05.03.2022
4978 Clear 0 1017 67 10000 0.89 55 21:21 05.03.2022
4979 Clear 2 1017 60 10000 2.24 74 19:26 05.03.2022
4980 Clear 3 1016 45 10000 2.24 69 18:53 05.03.2022
4981 Clear 5 1016 55 10000 4.47 15 17:53 05.03.2022
4982 Clear 7 1016 44 10000 3.58 31 16:32 05.03.2022
4983 Clear 8 1015 30 10000 3.09 330 15:31 05.03.2022
4984 Clear 7 1016 30 10000 4.12 300 14:45 05.03.2022
4985 Clear 7 1016 32 10000 4.12 300 14:26 05.03.2022
4986 Clear 6 1016 38 10000 3.6 290 13:21 05.03.2022
4987 Clear 4 1017 48 10000 2.57 280 11:48 05.03.2022
4988 Clear 3 1017 49 10000 1.79 339 11:18 05.03.2022
4989 Clear 1 1017 61 10000 1.34 47 09:59 05.03.2022
4990 Clear -1 1017 69 10000 0 0 08:59 05.03.2022
4991 Clear -3 1017 66 10000 1.04 64 07:38 05.03.2022
4992 Clear -3 1017 67 10000 1.05 78 05:43 05.03.2022
4993 Clear -1 1017 60 10000 2.24 86 02:27 05.03.2022
4994 Clear 0 1017 58 10000 1.34 81 23:37 04.03.2022
4995 Clear 1 1017 56 10000 0.89 96 22:42 04.03.2022
4996 Clear 2 1017 54 10000 0.89 97 21:48 04.03.2022
4997 Clear 1 1016 60 10000 1.03 30 20:54 04.03.2022
4998 Clear 2 1016 52 10000 2.24 55 20:24 04.03.2022
4999 Clear 4 1015 46 10000 1.54 0 19:36 04.03.2022
5000 Clear 6 1015 28 10000 3.6 40 18:44 04.03.2022
5001 Clear 8 1015 29 10000 5.36 57 17:32 04.03.2022
5002 Clear 9 1015 27 10000 4.47 5 16:46 04.03.2022
5003 Clear 10 1015 25 10000 4.47 355 15:29 04.03.2022
5004 Clear 10 1015 29 10000 4.47 42 14:29 04.03.2022
5005 Clear 9 1015 33 10000 4.92 24 13:26 04.03.2022
5006 Clear 7 1016 50 10000 4.02 32 11:41 04.03.2022
5007 Clear 5 1016 58 10000 2.68 27 10:50 04.03.2022
5008 Clear 3 1016 66 10000 2.24 77 09:42 04.03.2022
5009 Clear 1 1017 65 10000 2.14 48 08:36 04.03.2022
5010 Clear 0 1016 67 10000 1.39 55 07:34 04.03.2022
5011 Clear 1 1016 71 10000 0.89 68 03:53 04.03.2022
5012 Clear 2 1015 68 10000 1.34 69 00:24 04.03.2022
5013 Clear 4 1016 66 10000 0.89 68 22:26 03.03.2022
5014 Clear 4 1016 65 10000 0.89 68 21:41 03.03.2022
5015 Clear 5 1015 69 10000 0.51 0 21:21 03.03.2022
5016 Clear 6 1014 65 10000 0.51 0 19:52 03.03.2022
5017 Clear 8 1013 58 10000 2.06 20 18:54 03.03.2022
5018 Clear 10 1014 48 10000 1.79 30 18:23 03.03.2022
5019 Clear 12 1014 39 10000 3.58 22 17:30 03.03.2022
5020 Clear 13 1014 35 10000 2.24 42 16:24 03.03.2022
5021 Clear 13 1014 31 10000 2.06 280 15:23 03.03.2022
5022 Clear 13 1014 34 10000 2.57 330 14:43 03.03.2022
5023 Clear 12 1015 41 10000 1.54 0 13:24 03.03.2022
5024 Clear 10 1016 47 10000 1.34 328 12:22 03.03.2022
5025 Clear 7 1017 60 10000 2.06 140 10:47 03.03.2022
5026 Clear 5 1017 69 10000 1.03 0 09:38 03.03.2022
5027 Clear 1 1017 78 7000 1.03 0 07:50 03.03.2022
5028 Clouds 0 1017 79 7000 0.51 0 06:36 03.03.2022
5029 Clouds 3 1019 81 7000 0.51 0 02:42 03.03.2022
5030 Clouds 4 1020 76 10000 1.03 0 23:34 02.03.2022
5031 Clouds 5 1020 76 10000 1.54 100 22:52 02.03.2022
5032 Clouds 5 1020 74 9000 1.03 0 21:34 02.03.2022
5033 Clouds 5 1020 71 10000 1.54 0 20:53 02.03.2022
5034 Clouds 6 1020 69 10000 0.45 89 20:24 02.03.2022
5035 Clouds 6 1020 67 10000 0 0 19:36 02.03.2022
5036 Clouds 8 1020 60 10000 1.54 280 18:48 02.03.2022
5037 Clouds 8 1020 56 10000 1.54 320 18:19 02.03.2022
5038 Clouds 9 1019 51 10000 1.79 49 17:34 02.03.2022
5039 Clouds 10 1020 49 10000 1.79 36 16:51 02.03.2022
5040 Clouds 11 1020 43 10000 2.06 300 14:49 02.03.2022
5041 Clear 10 1021 43 10000 4.12 300 13:30 02.03.2022
5042 Clear 8 1021 47 10000 3.09 310 12:45 02.03.2022
5043 Clear 7 1022 49 10000 2.68 277 11:59 02.03.2022
5044 Clear 6 1022 53 10000 2.68 294 11:25 02.03.2022
5045 Clear 5 1022 61 10000 1.03 0 10:25 02.03.2022
5046 Clear 2 1023 69 10000 0.51 0 09:25 02.03.2022
5047 Clear -1 1023 71 10000 0 0 07:52 02.03.2022
5048 Clear -2 1023 74 10000 0 0 07:23 02.03.2022
5049 Clouds -2 1024 83 10000 0 0 03:46 02.03.2022
5050 Clouds 0 1025 83 10000 0.51 0 00:39 02.03.2022
5051 Clouds 1 1025 73 10000 0.51 0 22:50 01.03.2022
5052 Clouds 1 1025 72 10000 0.51 0 22:31 01.03.2022
5053 Clouds 2 1025 72 10000 1.03 0 21:25 01.03.2022
5054 Clear 2 1025 73 10000 1.54 100 20:37 01.03.2022
5055 Clear 3 1025 70 10000 1.03 0 20:18 01.03.2022
5056 Clear 5 1025 60 10000 1.54 270 18:52 01.03.2022
5057 Clear 6 1025 56 10000 1.54 280 18:21 01.03.2022
5058 Clear 9 1025 37 10000 2.06 260 17:37 01.03.2022
5059 Clear 9 1025 45 10000 1.54 280 16:35 01.03.2022
5060 Clear 10 1026 41 10000 2.06 290 15:47 01.03.2022
5061 Clear 9 1026 42 10000 1.79 250 14:41 01.03.2022
5062 Clear 9 1027 42 10000 1.79 279 14:23 01.03.2022
5063 Clear 8 1026 47 10000 2.57 280 13:26 01.03.2022
5064 Clear 7 1026 51 10000 1.54 340 12:35 01.03.2022
5065 Clear 4 1027 64 10000 1.03 0 10:52 01.03.2022
5066 Clear 1 1027 72 10000 0.89 144 09:27 01.03.2022
5067 Clear -2 1027 79 10000 0.51 120 08:19 01.03.2022
5068 Clear -3 1026 75 10000 1.03 0 06:47 01.03.2022
5069 Clear 0 1027 68 10000 1.34 85 02:57 01.03.2022
5070 Clear 1 1027 67 10000 2.24 68 00:47 01.03.2022
5071 Clear 0 1026 74 10000 2.68 78 23:36 28.02.2022
5072 Clear 1 1026 78 10000 1.54 120 22:30 28.02.2022
5073 Clear 1 1027 77 10000 1.54 0 21:43 28.02.2022
5074 Clear 2 1027 69 10000 0.51 0 20:34 28.02.2022
5075 Clear 3 1027 52 10000 1.03 0 19:51 28.02.2022
5076 Clear 6 1026 39 10000 1.03 0 18:50 28.02.2022
5077 Clear 9 1026 34 10000 2.57 50 17:37 28.02.2022
5078 Clear 8 1027 39 10000 4.92 21 17:18 28.02.2022
5079 Clear 9 1027 41 10000 3.09 360 15:59 28.02.2022
5080 Clear 9 1028 41 10000 4.12 270 14:32 28.02.2022
5081 Clear 8 1028 40 10000 2.24 14 13:52 28.02.2022
5082 Clear 7 1028 42 10000 1.34 61 13:19 28.02.2022
5083 Clear 5 1029 53 10000 1.79 15 11:59 28.02.2022
5084 Clear 4 1029 54 10000 1.03 0 11:19 28.02.2022
5085 Clear 3 1029 62 10000 1.03 0 10:22 28.02.2022
5086 Clear 1 1029 68 10000 0.89 116 09:44 28.02.2022
5087 Clear -1 1029 74 10000 0.51 0 08:54 28.02.2022
5088 Clear -3 1029 72 10000 0 0 07:59 28.02.2022
5089 Clear -3 1029 74 10000 0.68 111 06:31 28.02.2022
5090 Clear -2 1029 68 10000 0.89 121 04:31 28.02.2022
5091 Clouds -1 1028 64 10000 1.34 101 00:53 28.02.2022
5092 Clouds -1 1027 79 10000 2.24 53 22:53 27.02.2022
5093 Clouds 0 1027 61 10000 1.34 90 22:32 27.02.2022
5094 Clear 0 1027 78 10000 2.57 100 21:42 27.02.2022
5095 Clear 0 1027 79 10000 1.03 0 20:50 27.02.2022
5096 Clear 1 1027 76 10000 1.03 0 20:18 27.02.2022
5097 Clear 1 1026 74 10000 0.51 0 19:49 27.02.2022
5098 Clear 2 1026 73 10000 0.51 0 19:22 27.02.2022
5099 Clear 4 1025 41 10000 1.03 0 18:37 27.02.2022
5100 Clear 5 1026 61 10000 4.47 61 17:52 27.02.2022
5101 Clear 6 1025 54 10000 6.26 33 16:30 27.02.2022
5102 Clear 6 1025 55 10000 5.81 32 15:24 27.02.2022
5103 Clear 4 1027 65 10000 0.45 120 12:37 27.02.2022
5104 Clear 3 1027 57 10000 2.68 28 11:54 27.02.2022
5105 Clear 1 1028 63 10000 2.68 38 10:37 27.02.2022
5106 Clear 0 1027 67 10000 2.24 44 09:58 27.02.2022
5107 Clear -1 1027 71 10000 3.58 29 09:24 27.02.2022
5108 Clear -2 1027 71 10000 2.24 46 08:51 27.02.2022
5109 Clear -3 1027 70 10000 1.79 60 06:30 27.02.2022
5110 Clear -2 1026 70 10000 1.34 74 04:19 27.02.2022
5111 Clear -1 1027 68 10000 4.02 49 00:31 27.02.2022
5112 Clear 1 1027 60 10000 5.36 42 22:50 26.02.2022
5113 Clear 1 1027 73 10000 4.47 46 21:34 26.02.2022
5114 Clear 2 1027 69 10000 4.92 41 20:43 26.02.2022
5115 Clear 2 1028 69 10000 4.92 57 19:58 26.02.2022
5116 Clear 2 1028 69 10000 4.02 28 19:34 26.02.2022
5117 Clear 3 1028 68 10000 0.45 100 18:40 26.02.2022
5118 Clear 5 1028 66 10000 4.63 0 17:40 26.02.2022
5119 Clear 6 1028 59 10000 5.81 63 16:48 26.02.2022
5120 Clear 6 1028 60 10000 4.92 74 15:45 26.02.2022
5121 Clear 7 1028 59 10000 6.71 29 15:20 26.02.2022
5122 Clear 6 1028 60 10000 6.26 41 14:52 26.02.2022
5123 Clear 6 1029 61 10000 6.71 44 14:25 26.02.2022
5124 Clouds 6 1029 50 10000 5.81 38 13:18 26.02.2022
5125 Clear 5 1030 59 10000 6.26 44 11:54 26.02.2022
5126 Clouds 4 1030 62 10000 6.26 58 11:28 26.02.2022
5127 Clouds 3 1030 68 10000 4.92 65 10:39 26.02.2022
5128 Fog 1 1031 83 10000 1.34 67 08:48 26.02.2022
5129 Clouds -1 1030 86 7000 1.34 101 06:51 26.02.2022
5130 Clouds 2 1030 72 10000 2.06 100 00:50 26.02.2022
5131 Clouds 2 1029 67 10000 1.54 150 22:47 25.02.2022
5132 Clouds 3 1028 73 10000 0.51 0 21:40 25.02.2022
5133 Clouds 3 1028 72 10000 2.06 310 21:21 25.02.2022
5134 Clouds 3 1028 75 10000 1.54 280 20:32 25.02.2022
5135 Clouds 4 1027 61 10000 1.03 0 18:41 25.02.2022
5136 Clouds 6 1027 56 10000 5.66 310 17:23 25.02.2022
5137 Clouds 6 1027 53 10000 4.12 320 16:21 25.02.2022
5138 Clouds 7 1027 53 10000 5.81 323 15:43 25.02.2022
5139 Clouds 7 1027 52 10000 5.36 275 15:20 25.02.2022
5140 Clouds 6 1027 53 10000 5.14 300 14:42 25.02.2022
5141 Clouds 6 1027 53 10000 4.47 268 13:36 25.02.2022
5142 Clouds 6 1027 52 10000 4.47 263 12:55 25.02.2022
5143 Clouds 5 1027 49 10000 4.02 295 11:28 25.02.2022
5144 Clouds 4 1027 61 10000 4.47 240 10:29 25.02.2022
5145 Clear 4 1027 67 10000 2.68 225 09:57 25.02.2022
5146 Clear 3 1027 76 10000 1.54 0 09:18 25.02.2022
5147 Clouds 2 1026 79 10000 1.03 220 07:41 25.02.2022
5148 Clouds 2 1025 78 10000 2.06 110 05:48 25.02.2022
5149 Snow 3 1024 75 10000 4.63 250 03:34 25.02.2022
5150 Clouds 8 1020 61 10000 4.92 265 23:47 24.02.2022
5151 Clouds 9 1019 62 10000 2.68 225 21:56 24.02.2022
5152 Clouds 9 1020 62 10000 3.6 270 21:38 24.02.2022
5153 Clouds 9 1020 64 10000 1.34 280 21:19 24.02.2022
5154 Clouds 9 1019 62 10000 3.13 275 19:38 24.02.2022
5155 Clouds 9 1019 55 10000 2.06 240 18:43 24.02.2022
5156 Clouds 10 1019 56 10000 4.92 236 18:19 24.02.2022
5157 Clouds 10 1018 53 10000 5.81 260 17:33 24.02.2022
5158 Clouds 10 1018 54 10000 5.66 260 16:49 24.02.2022
5159 Clouds 11 1018 53 10000 8.05 234 16:23 24.02.2022
5160 Clouds 11 1019 57 10000 6.26 270 14:54 24.02.2022
5161 Clouds 10 1019 56 10000 7.15 240 14:35 24.02.2022
5162 Clouds 10 1019 61 10000 6.71 207 13:39 24.02.2022
5163 Clear 9 1019 65 10000 5.81 233 12:50 24.02.2022
5164 Clear 6 1020 80 10000 2.06 300 10:41 24.02.2022
5165 Clear 3 1020 80 10000 1.03 130 09:18 24.02.2022
5166 Clear 2 1020 82 10000 0.45 155 08:40 24.02.2022
5167 Clouds 1 1020 84 10000 1.03 0 05:53 24.02.2022
5168 Clouds 2 1023 83 10000 1.03 0 01:56 24.02.2022
5169 Clouds 3 1024 81 10000 0.51 0 23:31 23.02.2022
5170 Clouds 5 1024 74 10000 0.45 161 21:43 23.02.2022
5171 Clouds 5 1024 73 10000 0.45 94 20:31 23.02.2022
5172 Clear 6 1024 72 10000 0.51 0 19:48 23.02.2022
5173 Clear 8 1024 66 10000 0.51 0 18:32 23.02.2022
5174 Clear 8 1024 66 10000 0.51 0 18:32 23.02.2022
5175 Clear 8 1024 66 10000 0.51 0 18:32 23.02.2022
5176 Clouds 10 1024 53 10000 2.06 350 17:44 23.02.2022
5177 Clouds 12 1025 55 10000 3.09 320 15:19 23.02.2022
5178 Clouds 10 1027 61 10000 2.68 35 12:50 23.02.2022
5179 Clouds 10 1027 62 10000 3.58 35 12:24 23.02.2022
5180 Clouds 8 1028 71 10000 3.6 120 10:35 23.02.2022
5181 Clouds 6 1028 78 10000 1.01 115 08:59 23.02.2022
5182 Clouds 5 1028 81 10000 1.03 0 08:23 23.02.2022
5183 Clouds 5 1028 78 10000 3.6 110 06:53 23.02.2022
5184 Clouds 6 1027 73 10000 2.06 100 00:47 23.02.2022
5185 Clouds 6 1027 73 10000 1.54 100 23:39 22.02.2022
5186 Clouds 6 1027 71 10000 1.03 0 22:41 22.02.2022
5187 Clouds 7 1027 67 10000 1.79 275 21:50 22.02.2022
5188 Clouds 6 1027 67 10000 3.13 280 21:31 22.02.2022
5189 Clouds 7 1027 67 10000 4.12 270 20:59 22.02.2022
5190 Clouds 7 1027 67 10000 3.09 290 20:31 22.02.2022
5191 Clouds 7 1026 68 10000 4.47 260 19:47 22.02.2022
5192 Clouds 7 1026 65 10000 3.13 261 19:28 22.02.2022
5193 Clouds 8 1026 64 10000 3.13 237 18:23 22.02.2022
5194 Clouds 8 1026 59 10000 3.13 260 17:26 22.02.2022
5195 Clouds 9 1026 59 10000 4.92 275 16:41 22.02.2022
5196 Clouds 9 1025 57 10000 5.14 270 15:59 22.02.2022
5197 Clouds 9 1026 61 10000 4.12 280 14:48 22.02.2022
5198 Clouds 8 1027 70 10000 4.92 270 12:48 22.02.2022
5199 Clouds 6 1027 80 10000 4.47 242 10:53 22.02.2022
5200 Clouds 4 1027 87 10000 5.66 280 08:53 22.02.2022
5201 Rain 4 1025 88 10000 2.68 280 07:27 22.02.2022
5202 Clouds 3 1025 91 10000 1.79 244 06:52 22.02.2022
5203 Clouds 4 1022 88 10000 5.14 270 02:47 22.02.2022
5204 Drizzle 4 1020 87 7000 5.14 260 23:18 21.02.2022
5205 Clouds 4 1019 88 7000 5.66 250 21:56 21.02.2022
5206 Rain 4 1018 85 7000 6.69 240 20:37 21.02.2022
5207 Clouds 4 1016 82 10000 4.92 263 18:47 21.02.2022
5208 Rain 4 1015 80 5000 6.26 248 17:41 21.02.2022
5209 Rain 5 1015 77 10000 7.15 269 15:26 21.02.2022
5210 Clouds 5 1015 74 10000 6.26 250 14:22 21.02.2022
5211 Rain 6 1015 71 10000 7.72 240 13:30 21.02.2022
5212 Clouds 6 1015 65 10000 8.05 232 12:24 21.02.2022
5213 Clouds 5 1015 68 10000 7.15 255 11:20 21.02.2022
5214 Clouds 4 1016 77 10000 4.12 180 09:54 21.02.2022
5215 Clouds 8 1011 65 10000 9.83 260 05:35 21.02.2022
5216 Clouds 8 1017 60 10000 7.2 230 00:20 21.02.2022
5217 Clouds 8 1018 59 10000 6.26 219 22:28 20.02.2022
5218 Clouds 8 1019 62 10000 6.26 219 21:43 20.02.2022
5219 Clouds 8 1019 62 10000 5.36 189 21:19 20.02.2022
5220 Clouds 8 1019 61 10000 5.81 219 20:41 20.02.2022
5221 Clouds 8 1020 60 10000 5.81 271 19:42 20.02.2022
5222 Clouds 8 1020 59 10000 4.47 270 18:52 20.02.2022
5223 Clouds 8 1020 57 10000 2.68 270 18:34 20.02.2022
5224 Clouds 9 1020 54 10000 5.36 275 17:52 20.02.2022
5225 Clouds 10 1020 53 10000 5.81 275 15:54 20.02.2022
5226 Clouds 9 1022 52 10000 6.71 275 14:52 20.02.2022
5227 Clouds 9 1023 52 10000 7.15 284 13:33 20.02.2022
5228 Clouds 9 1023 52 10000 6.26 260 12:34 20.02.2022
5229 Clouds 7 1024 59 10000 4.92 263 10:47 20.02.2022
5230 Clouds 6 1024 59 10000 4.47 283 10:20 20.02.2022
5231 Clouds 5 1024 61 10000 3.58 238 08:51 20.02.2022
5232 Clouds 3 1023 54 10000 4.47 260 00:54 20.02.2022
5233 Clouds 3 1023 58 10000 4.02 244 00:30 20.02.2022
5234 Clear 2 1023 61 10000 2.24 205 23:18 19.02.2022
5235 Clear 3 1022 63 10000 4.12 250 22:22 19.02.2022
5236 Clear 3 1022 64 10000 4.47 232 21:34 19.02.2022
5237 Clear 4 1022 60 10000 3.09 240 19:53 19.02.2022
5238 Clouds 4 1021 57 10000 2.57 260 19:30 19.02.2022
5239 Clouds 5 1021 53 10000 2.24 256 18:33 19.02.2022
5240 Clear 7 1020 51 10000 3.6 300 17:37 19.02.2022
5241 Clouds 8 1020 48 10000 3.58 270 16:28 19.02.2022
5242 Clouds 8 1021 50 10000 4.12 290 15:18 19.02.2022
5243 Clouds 8 1021 51 10000 5.14 270 14:49 19.02.2022
5244 Clouds 7 1021 55 10000 4.92 270 13:45 19.02.2022
5245 Clouds 6 1022 63 10000 3.6 230 11:38 19.02.2022
5246 Clouds 6 1021 75 10000 3.58 240 09:57 19.02.2022
5247 Clouds 5 1020 80 10000 4.02 244 06:58 19.02.2022
5248 Clouds 5 1019 80 10000 4.12 230 03:54 19.02.2022
5249 Clouds 7 1016 74 10000 8.23 280 23:33 18.02.2022
5250 Rain 8 1015 77 9000 8.75 280 21:53 18.02.2022
5251 Rain 11 1013 76 10000 6.26 277 20:51 18.02.2022
5252 Rain 12 1012 74 10000 7.72 270 19:53 18.02.2022
5253 Clouds 14 1011 43 10000 3.58 265 18:50 18.02.2022
5254 Clouds 14 1011 50 10000 4.47 251 18:22 18.02.2022
5255 Clouds 14 1011 46 10000 5.36 202 17:51 18.02.2022
5256 Clear 14 1009 50 10000 9.83 270 14:54 18.02.2022
5257 Clear 13 1011 54 10000 6.71 251 13:55 18.02.2022
5258 Clouds 11 1012 60 10000 2.57 120 12:53 18.02.2022
5259 Clouds 11 1013 61 10000 3.13 257 12:33 18.02.2022
5260 Clouds 9 1014 67 10000 2.24 244 11:27 18.02.2022
5261 Clouds 8 1014 73 10000 2.06 100 10:23 18.02.2022
5262 Clouds 6 1016 74 10000 2.57 110 06:56 18.02.2022
5263 Clouds 6 1017 74 10000 3.09 110 05:39 18.02.2022
5264 Clouds 9 1020 69 10000 3.6 290 23:31 17.02.2022
5265 Clouds 9 1020 72 10000 4.92 246 21:45 17.02.2022
5266 Clouds 9 1020 70 10000 4.92 256 21:19 17.02.2022
5267 Clouds 9 1020 68 10000 4.63 270 20:37 17.02.2022
5268 Clouds 9 1020 67 10000 5.36 208 19:48 17.02.2022
5269 Clouds 10 1020 66 10000 5.14 280 18:41 17.02.2022
5270 Clouds 10 1019 65 10000 6.71 249 17:50 17.02.2022
5271 Clouds 11 1018 71 10000 6.26 239 16:25 17.02.2022
5272 Clouds 10 1018 81 10000 7.6 219 15:32 17.02.2022
5273 Clouds 11 1018 80 10000 6.17 300 14:26 17.02.2022
5274 Clouds 12 1017 72 10000 8.23 230 12:36 17.02.2022
5275 Clouds 11 1017 74 10000 6.71 260 11:23 17.02.2022
5276 Clouds 11 1016 75 10000 9.83 255 08:52 17.02.2022
5277 Clouds 10 1016 83 10000 7.15 255 01:45 17.02.2022
5278 Mist 7 1015 92 3100 3.13 233 23:19 16.02.2022
5279 Clouds 7 1015 92 5000 2.06 300 21:40 16.02.2022
5280 Clouds 7 1016 92 10000 2.24 265 19:47 16.02.2022
5281 Clouds 6 1015 90 10000 1.03 270 18:38 16.02.2022
5282 Drizzle 6 1015 91 10000 1.54 160 17:53 16.02.2022
5283 Clouds 6 1015 89 10000 1.79 142 15:39 16.02.2022
5284 Clouds 6 1015 88 10000 1.03 0 15:18 16.02.2022
5285 Drizzle 5 1016 89 10000 3.09 300 12:59 16.02.2022
5286 Rain 4 1015 88 10000 1.34 270 11:58 16.02.2022
5287 Rain 4 1015 89 10000 1.54 300 11:26 16.02.2022
5288 Snow 3 1016 89 10000 1.03 0 10:33 16.02.2022
5289 Snow 3 1016 84 10000 0.45 286 07:54 16.02.2022
5290 Rain 3 1016 80 10000 2.15 211 06:26 16.02.2022
5291 Clouds 1 1020 86 10000 2.57 110 23:45 15.02.2022
5292 Clouds 1 1020 83 10000 2.24 198 22:29 15.02.2022
5293 Clouds 2 1020 81 10000 2.24 180 21:47 15.02.2022
5294 Clouds 2 1020 83 10000 2.68 215 21:27 15.02.2022
5295 Clouds 2 1020 82 10000 3.13 200 20:56 15.02.2022
5296 Clouds 2 1020 82 10000 2.24 216 19:57 15.02.2022
5297 Clouds 3 1020 83 10000 1.54 170 18:56 15.02.2022
5298 Clouds 4 1020 81 10000 1.54 0 18:21 15.02.2022
5299 Clouds 4 1019 82 10000 2.24 205 17:50 15.02.2022
5300 Clouds 5 1019 81 10000 3.09 240 16:50 15.02.2022
5301 Clouds 5 1019 82 10000 3.09 230 15:28 15.02.2022
5302 Clouds 6 1018 75 10000 4.63 240 13:27 15.02.2022
5303 Clouds 6 1018 75 10000 3.58 245 12:37 15.02.2022
5304 Clouds 5 1018 81 10000 3.13 242 11:27 15.02.2022
5305 Clouds 4 1017 87 10000 4.63 260 09:31 15.02.2022
5306 Mist 3 1014 91 2400 2.68 231 06:58 15.02.2022
5307 Clouds 3 1013 91 1500 0.51 0 04:54 15.02.2022
5308 Mist 4 1012 88 5000 1.03 120 23:33 14.02.2022
5309 Drizzle 4 1012 88 10000 1.03 360 21:36 14.02.2022
5310 Drizzle 4 1012 87 10000 2.06 330 20:37 14.02.2022
5311 Rain 4 1011 85 10000 2.57 330 19:34 14.02.2022
5312 Rain 4 1011 85 10000 1.54 300 18:44 14.02.2022
5313 Rain 5 1011 84 9000 4.12 260 18:22 14.02.2022
5314 Rain 5 1011 79 10000 3.6 260 17:26 14.02.2022
5315 Rain 6 1010 75 9000 4.12 290 16:24 14.02.2022
5316 Clouds 7 1009 51 10000 2.68 267 14:29 14.02.2022
5317 Clouds 7 1009 52 10000 1.03 0 13:31 14.02.2022
5318 Clouds 6 1010 50 10000 1.03 120 12:48 14.02.2022
5319 Clouds 5 1010 58 10000 1.03 0 11:54 14.02.2022
5320 Clouds 4 1010 60 10000 1.03 180 10:56 14.02.2022
5321 Clouds 1 1011 74 10000 1.03 0 08:45 14.02.2022
5322 Clouds -1 1011 74 10000 0.51 0 07:32 14.02.2022
5323 Clear -1 1013 72 10000 0.89 135 02:27 14.02.2022
5324 Clear 1 1014 71 10000 3.09 110 22:42 13.02.2022
5325 Clear 1 1015 74 10000 2.57 100 22:24 13.02.2022
5326 Clear 1 1015 76 10000 3.09 110 21:32 13.02.2022
5327 Clear 2 1015 76 10000 2.06 110 20:36 13.02.2022
5328 Clear 2 1015 70 10000 1.79 130 19:45 13.02.2022
5329 Clear 4 1016 67 10000 0.51 0 18:49 13.02.2022
5330 Clear 5 1016 60 10000 0.51 0 18:28 13.02.2022
5331 Clear 9 1017 47 10000 1.03 0 15:54 13.02.2022
5332 Clear 9 1017 47 10000 0.89 255 15:24 13.02.2022
5333 Clear 8 1018 48 10000 2.24 265 14:31 13.02.2022
5334 Clear 7 1020 51 10000 1.54 150 12:51 13.02.2022
5335 Clear 5 1021 61 10000 0.51 0 11:44 13.02.2022
5336 Clear 3 1021 69 10000 1.03 0 10:34 13.02.2022
5337 Clear 1 1022 70 10000 0.89 235 09:46 13.02.2022
5338 Clear -2 1023 73 10000 0.45 235 07:49 13.02.2022
5339 Clouds -1 1026 74 10000 1.03 0 00:35 13.02.2022
5340 Clouds -1 1026 76 10000 0.51 0 23:42 12.02.2022
5341 Clouds -1 1026 78 10000 1.03 0 22:33 12.02.2022
5342 Clear 0 1025 72 10000 0.51 0 21:31 12.02.2022
5343 Clear 0 1026 71 10000 2.06 90 20:47 12.02.2022
5344 Clear 1 1026 69 10000 2.06 100 19:35 12.02.2022
5345 Clear 2 1026 67 10000 1.03 0 18:53 12.02.2022
5346 Clear 2 1026 67 10000 1.03 0 18:35 12.02.2022
5347 Clear 4 1026 59 10000 1.54 200 17:20 12.02.2022
5348 Clear 5 1026 55 10000 1.03 0 16:29 12.02.2022
5349 Clear 5 1027 53 10000 1.34 331 15:51 12.02.2022
5350 Clear 5 1027 54 10000 3.09 310 14:44 12.02.2022
5351 Clear 5 1027 55 10000 1.79 220 14:24 12.02.2022
5352 Clear 1 1029 69 10000 2.06 110 11:18 12.02.2022
5353 Clear -1 1029 82 10000 2.06 130 09:51 12.02.2022
5354 Clear -2 1029 79 10000 0.53 122 09:27 12.02.2022
5355 Clear -3 1028 79 10000 0.89 186 08:45 12.02.2022
5356 Clear -3 1028 80 10000 2.24 34 05:40 12.02.2022
5357 Clear -3 1029 81 8000 1.34 108 04:33 12.02.2022
5358 Clear -2 1030 79 10000 1.79 55 02:18 12.02.2022
5359 Clear 0 1032 77 10000 2.24 84 22:55 11.02.2022
5360 Clear 0 1032 77 10000 2.68 84 22:18 11.02.2022
5361 Clear 1 1032 78 10000 1.03 0 20:43 11.02.2022
5362 Clear 1 1032 73 10000 3.13 88 19:48 11.02.2022
5363 Clear 2 1032 69 10000 3.58 97 19:27 11.02.2022
5364 Clear 3 1032 64 10000 2.68 76 18:26 11.02.2022
5365 Clear 5 1031 58 10000 3.58 78 17:26 11.02.2022
5366 Clear 6 1030 56 10000 4.47 19 16:26 11.02.2022
5367 Clouds 6 1030 64 10000 3.13 114 14:44 11.02.2022
5368 Clouds 6 1030 64 10000 3.13 61 14:44 11.02.2022
5369 Clouds 6 1030 65 10000 3.13 117 14:23 11.02.2022
5370 Clouds 6 1031 71 10000 3.13 80 13:59 11.02.2022
5371 Clouds 6 1031 72 10000 4.02 91 13:39 11.02.2022
5372 Clouds 5 1031 78 10000 3.58 80 12:19 11.02.2022
5373 Clouds 4 1030 85 10000 0.51 0 10:24 11.02.2022
5374 Clouds 3 1028 85 10000 2.06 260 08:49 11.02.2022
5375 Clouds 3 1028 83 10000 4.63 300 08:27 11.02.2022
5376 Rain 4 1026 84 10000 2.68 279 07:22 11.02.2022
5377 Clouds 7 1023 79 10000 1.79 209 02:40 11.02.2022
5378 Clouds 7 1023 78 10000 3.09 270 02:19 11.02.2022
5379 Clouds 7 1023 74 10000 2.57 80 23:20 10.02.2022
5380 Clouds 8 1024 62 10000 1.03 0 21:53 10.02.2022
5381 Clouds 8 1024 76 10000 3.09 140 21:21 10.02.2022
5382 Drizzle 9 1024 57 10000 4.12 170 20:45 10.02.2022
5383 Clouds 8 1025 48 10000 1.03 0 19:26 10.02.2022
5384 Clouds 9 1024 57 10000 1.54 310 18:47 10.02.2022
5385 Clouds 10 1025 55 10000 5.66 280 17:27 10.02.2022
5386 Clouds 11 1025 50 10000 6.71 283 16:57 10.02.2022
5387 Clear 12 1025 44 10000 5.81 270 15:59 10.02.2022
5388 Clear 13 1025 42 10000 5.81 271 15:33 10.02.2022
5389 Clear 13 1025 43 10000 5.81 261 14:49 10.02.2022
5390 Clear 12 1025 46 10000 4.92 291 14:26 10.02.2022
5391 Clear 11 1025 51 10000 4.47 281 13:30 10.02.2022
5392 Clear 11 1026 50 10000 1.03 0 12:51 10.02.2022
5393 Clear 8 1026 61 10000 2.24 269 11:34 10.02.2022
5394 Clear 7 1026 62 10000 2.06 150 10:56 10.02.2022
5395 Clear 4 1027 63 10000 2.57 120 10:18 10.02.2022
5396 Clear 2 1027 70 10000 1.34 115 09:25 10.02.2022
5397 Clear 0 1026 73 10000 1.03 0 07:36 10.02.2022
5398 Clouds 0 1027 69 10000 1.54 0 05:51 10.02.2022
5399 Clouds 1 1027 77 10000 0.51 0 01:52 10.02.2022
5400 Clouds 1 1027 75 7000 0.51 0 00:50 10.02.2022
5401 Clouds 1 1027 70 10000 0 0 00:29 10.02.2022
5402 Clouds 1 1028 73 10000 0.51 0 23:24 09.02.2022
5403 Clouds 2 1028 73 10000 0.51 0 22:36 09.02.2022
5404 Clear 2 1028 73 10000 0.51 0 21:52 09.02.2022
5405 Clear 2 1028 72 10000 0.89 188 21:30 09.02.2022
5406 Clear 2 1028 70 10000 1.03 0 20:48 09.02.2022
5407 Clear 3 1028 69 10000 1.03 0 20:29 09.02.2022
5408 Clear 3 1028 69 10000 0.51 90 19:56 09.02.2022
5409 Clear 4 1028 68 10000 0.51 0 19:32 09.02.2022
5410 Clear 7 1027 56 10000 0.51 0 17:38 09.02.2022
5411 Clear 9 1028 51 10000 1.54 210 16:52 09.02.2022
5412 Clear 10 1028 48 10000 1.54 0 15:51 09.02.2022
5413 Clear 10 1029 48 10000 1.54 0 14:42 09.02.2022
5414 Clear 8 1030 55 10000 1.03 0 12:28 09.02.2022
5415 Clear 5 1031 68 10000 0 0 10:55 09.02.2022
5416 Clear 5 1031 68 10000 0 0 10:55 09.02.2022
5417 Clear 4 1031 67 10000 1.03 230 10:30 09.02.2022
5418 Clear 1 1031 70 10000 0.51 0 09:40 09.02.2022
5419 Clear 0 1031 71 10000 0.51 0 09:19 09.02.2022
5420 Clouds -1 1032 64 10000 1.29 184 07:55 09.02.2022
5421 Clouds -1 1032 78 10000 0.51 0 05:30 09.02.2022
5422 Clouds -1 1032 73 10000 0.51 0 03:50 09.02.2022
5423 Clouds -1 1032 77 10000 0.51 0 00:53 09.02.2022
5424 Clear 0 1032 75 10000 0.51 0 23:33 08.02.2022
5425 Clear 0 1033 70 10000 0.51 110 22:47 08.02.2022
5426 Clear 1 1033 69 10000 1.34 160 22:21 08.02.2022
5427 Clear 1 1032 66 10000 0.51 60 21:42 08.02.2022
5428 Clear 1 1033 67 10000 0 0 21:21 08.02.2022
5429 Clear 2 1032 65 10000 0.51 0 20:44 08.02.2022
5430 Clear 2 1032 64 10000 0.51 0 19:46 08.02.2022
5431 Clear 4 1032 60 10000 1.03 0 18:38 08.02.2022
5432 Clear 6 1031 60 10000 1.54 210 17:42 08.02.2022
5433 Clear 8 1032 48 10000 1.54 190 16:30 08.02.2022
5434 Clear 9 1032 45 10000 1.54 0 15:30 08.02.2022
5435 Clear 9 1032 43 10000 1.34 271 14:38 08.02.2022
5436 Clear 7 1033 49 10000 0.89 261 13:24 08.02.2022
5437 Clear 5 1034 60 10000 1.03 0 11:38 08.02.2022
5438 Clear 2 1035 66 10000 1.34 255 10:23 08.02.2022
5439 Clear 0 1035 78 10000 1.03 130 09:44 08.02.2022
5440 Clear -2 1035 76 10000 1.03 100 07:53 08.02.2022
5441 Clouds -2 1034 79 10000 0.51 150 05:41 08.02.2022
5442 Clouds -2 1034 79 10000 0.51 0 04:39 08.02.2022
5443 Clouds -2 1034 80 10000 0.51 0 04:21 08.02.2022
5444 Clouds -2 1034 80 10000 1.03 300 03:36 08.02.2022
5445 Clouds -2 1034 79 10000 2.06 80 03:18 08.02.2022
5446 Clouds -2 1033 74 10000 2.06 80 02:58 08.02.2022
5447 Clear -2 1033 78 10000 2.57 120 02:36 08.02.2022
5448 Clear -2 1033 78 10000 2.57 110 02:18 08.02.2022
5449 Clear -2 1033 77 10000 2.06 120 01:44 08.02.2022
5450 Clear -2 1033 77 10000 2.06 120 01:24 08.02.2022
5451 Clear -2 1033 84 10000 1.54 90 00:54 08.02.2022
5452 Clear -1 1033 76 10000 1.03 0 23:54 07.02.2022
5453 Clear -1 1032 77 10000 0.51 0 23:36 07.02.2022
5454 Clear -1 1032 77 10000 0.51 0 23:18 07.02.2022
5455 Clear -1 1032 75 10000 0.51 0 22:19 07.02.2022
5456 Clear 0 1032 75 10000 2.57 90 21:55 07.02.2022
5457 Clear -1 1032 74 10000 2.57 90 21:29 07.02.2022
5458 Clear 0 1031 74 10000 1.54 0 20:56 07.02.2022
5459 Clear 0 1031 73 10000 1.54 0 20:38 07.02.2022
5460 Clear 1 1031 69 10000 1.03 0 19:49 07.02.2022
5461 Clear 1 1031 67 10000 1.03 0 19:31 07.02.2022
5462 Clear 4 1029 54 10000 2.57 280 17:52 07.02.2022
5463 Clear 5 1029 45 10000 3.09 300 16:52 07.02.2022
5464 Clouds 6 1029 45 10000 3.13 275 15:49 07.02.2022
5465 Clouds 6 1029 48 10000 4.63 290 14:48 07.02.2022
5466 Clouds 6 1029 51 10000 5.66 280 13:28 07.02.2022
5467 Clouds 5 1028 53 10000 4.47 265 12:38 07.02.2022
5468 Clouds 4 1028 56 10000 5.36 265 11:57 07.02.2022
5469 Clouds 4 1028 57 10000 1.79 290 11:34 07.02.2022
5470 Clouds 4 1027 61 10000 1.34 285 10:49 07.02.2022
5471 Clouds 4 1026 64 10000 1.79 290 10:29 07.02.2022
5472 Clouds 3 1026 69 10000 3.13 275 09:53 07.02.2022
5473 Clouds 2 1025 71 10000 3.09 320 09:18 07.02.2022
5474 Clouds 2 1024 67 10000 4.12 290 08:24 07.02.2022
5475 Clouds 3 1021 82 10000 2.68 280 06:52 07.02.2022
5476 Clouds 3 1021 84 10000 0.45 285 06:33 07.02.2022
5477 Clouds 6 1014 80 10000 6.71 275 02:56 07.02.2022
5478 Clouds 6 1014 72 10000 7.15 255 00:42 07.02.2022
5479 Clouds 6 1015 73 10000 7.6 260 23:42 06.02.2022
5480 Clouds 5 1016 73 10000 6.26 265 22:47 06.02.2022
5481 Clouds 5 1017 73 10000 7.6 270 21:52 06.02.2022
5482 Clouds 5 1017 72 10000 5.81 270 21:30 06.02.2022
5483 Clouds 5 1017 72 10000 5.36 270 20:52 06.02.2022
5484 Clouds 5 1018 72 10000 6.26 285 20:28 06.02.2022
5485 Clouds 5 1019 71 10000 4.92 265 19:37 06.02.2022
5486 Rain 5 1019 70 10000 8.94 270 18:38 06.02.2022
5487 Rain 5 1019 64 10000 6.71 275 17:55 06.02.2022
5488 Clouds 6 1019 57 10000 5.81 270 16:56 06.02.2022
5489 Clouds 6 1020 54 10000 4.92 250 16:38 06.02.2022
5490 Clouds 6 1020 57 10000 5.36 220 15:47 06.02.2022
5491 Clouds 6 1021 58 10000 7.6 240 15:26 06.02.2022
5492 Clouds 6 1022 58 10000 4.92 255 14:33 06.02.2022
5493 Clear 5 1022 59 10000 6.71 255 13:25 06.02.2022
5494 Clear 6 1022 57 10000 8.49 245 12:49 06.02.2022
5495 Clear 5 1023 62 10000 7.6 250 11:23 06.02.2022
5496 Clear 3 1024 68 10000 4.02 255 09:56 06.02.2022
5497 Clouds 1 1025 73 10000 2.57 90 08:49 06.02.2022
5498 Clear 1 1025 72 10000 4.12 100 07:36 06.02.2022
5499 Clouds -1 1025 77 10000 1.03 0 05:30 06.02.2022
5500 Clouds -1 1027 74 10000 1.03 0 02:26 06.02.2022
5501 Clouds -1 1027 74 10000 1.54 0 01:32 06.02.2022
5502 Clear -1 1027 72 10000 0.51 0 00:24 06.02.2022
5503 Clear 0 1026 69 10000 0.51 0 22:20 05.02.2022
5504 Clear 1 1027 67 10000 1.03 0 20:59 05.02.2022
5505 Clear 1 1026 62 10000 0.51 0 20:24 05.02.2022
5506 Clear 2 1026 58 10000 1.03 0 19:45 05.02.2022
5507 Clear 3 1026 58 10000 1.03 0 18:52 05.02.2022
5508 Clear 6 1025 49 10000 0.45 280 17:38 05.02.2022
5509 Clouds 7 1025 42 10000 1.79 265 16:48 05.02.2022
5510 Clear 8 1025 36 10000 2.06 260 15:33 05.02.2022
5511 Clear 7 1025 41 10000 2.06 300 14:47 05.02.2022
5512 Clouds 6 1025 55 10000 0.51 0 12:47 05.02.2022
5513 Clear 5 1026 60 10000 0.45 120 11:49 05.02.2022
5514 Clear 4 1025 69 10000 0.51 0 10:46 05.02.2022
5515 Clouds 3 1025 78 10000 0.51 0 09:52 05.02.2022
5516 Clouds 2 1025 77 10000 0.51 0 09:25 05.02.2022
5517 Clouds 3 1024 78 10000 2.57 270 07:38 05.02.2022
5518 Clouds 4 1023 83 10000 2.06 270 06:56 05.02.2022
5519 Clouds 5 1022 85 5000 0.89 280 03:55 05.02.2022
5520 Clouds 5 1021 83 10000 2.24 280 01:19 05.02.2022
5521 Clouds 6 1020 78 10000 2.24 285 00:42 05.02.2022
5522 Clouds 6 1020 78 10000 0.89 260 23:38 04.02.2022
5523 Clouds 6 1020 81 10000 2.24 280 23:20 04.02.2022
5524 Drizzle 6 1020 76 10000 0.89 285 21:37 04.02.2022
5525 Clouds 6 1019 74 10000 2.06 0 21:18 04.02.2022
5526 Clouds 6 1019 73 10000 1.79 275 20:50 04.02.2022
5527 Clouds 6 1019 72 10000 4.63 140 19:33 04.02.2022
5528 Clouds 7 1018 71 10000 1.79 255 17:27 04.02.2022
5529 Clouds 8 1017 70 10000 2.24 270 15:38 04.02.2022
5530 Clouds 8 1017 72 10000 3.58 270 14:51 04.02.2022
5531 Clouds 6 1018 88 2500 1.03 0 12:43 04.02.2022
5532 Fog 5 1018 88 500 1.03 0 11:46 04.02.2022
5533 Fog 4 1018 92 600 1.54 130 11:18 04.02.2022
5534 Fog 3 1018 93 400 2.06 140 10:30 04.02.2022
5535 Fog 1 1019 90 250 2.57 130 08:34 04.02.2022
5536 Fog 1 1019 91 150 1.03 0 05:19 04.02.2022
5537 Fog 2 1018 91 350 2.06 340 02:39 04.02.2022
5538 Mist 3 1017 94 3900 0.51 0 00:26 04.02.2022
5539 Mist 3 1018 90 3000 1.03 110 22:55 03.02.2022
5540 Clouds 3 1017 92 5000 1.03 0 22:22 03.02.2022
5541 Clouds 4 1017 90 8000 1.03 280 21:41 03.02.2022
5542 Clouds 4 1018 89 10000 1.54 20 20:26 03.02.2022
5543 Clear 4 1018 89 10000 1.03 0 19:57 03.02.2022
5544 Clear 4 1018 88 10000 0.89 285 19:23 03.02.2022
5545 Clear 4 1018 87 10000 1.03 310 18:24 03.02.2022
5546 Clouds 5 1018 86 10000 0.51 0 17:27 03.02.2022
5547 Clear 6 1019 85 10000 1.34 250 15:44 03.02.2022
5548 Clear 6 1019 84 10000 2.68 225 14:22 03.02.2022
5549 Clouds 5 1021 89 10000 0.51 0 12:32 03.02.2022
5550 Fog 2 1023 93 150 0.51 260 08:59 03.02.2022
5551 Fog 1 1023 89 200 0.51 0 08:19 03.02.2022
5552 Clouds 3 1025 87 10000 3.09 100 02:56 03.02.2022
5553 Clouds 4 1026 87 5000 0.51 0 00:29 03.02.2022
5554 Clouds 5 1026 84 10000 2.06 140 22:41 02.02.2022
5555 Clouds 6 1026 83 10000 3.09 100 21:52 02.02.2022
5556 Clouds 6 1026 84 10000 3.09 90 21:29 02.02.2022
5557 Clouds 6 1026 84 10000 2.57 130 20:27 02.02.2022
5558 Clouds 6 1026 83 10000 3.09 100 19:48 02.02.2022
5559 Clouds 6 1026 83 10000 2.57 130 19:00 02.02.2022
5560 Clouds 7 1026 81 10000 2.57 130 18:25 02.02.2022
5561 Clouds 7 1025 76 10000 2.24 275 17:22 02.02.2022
5562 Clouds 7 1025 72 10000 3.13 270 16:59 02.02.2022
5563 Clouds 7 1025 79 10000 3.13 275 15:49 02.02.2022
5564 Clouds 6 1024 81 10000 2.68 270 12:47 02.02.2022
5565 Clouds 6 1024 79 10000 3.58 270 11:51 02.02.2022
5566 Clouds 6 1024 79 10000 1.34 275 11:30 02.02.2022
5567 Clouds 5 1023 81 10000 3.58 285 09:18 02.02.2022
5568 Clouds 5 1022 82 10000 4.02 280 04:57 02.02.2022
5569 Clouds 3 1023 80 10000 6.71 270 22:36 01.02.2022
5570 Clouds 2 1023 82 10000 1.79 260 20:58 01.02.2022
5571 Clouds 2 1023 83 6000 3.13 265 19:39 01.02.2022
5572 Clouds 3 1023 67 10000 4.47 285 17:37 01.02.2022
5573 Clouds 3 1023 65 10000 3.58 260 16:31 01.02.2022
5574 Clouds 3 1026 66 10000 2.24 240 13:27 01.02.2022
5575 Clouds 2 1027 69 10000 4.02 265 12:28 01.02.2022
5576 Clouds 1 1027 75 10000 2.24 265 08:52 01.02.2022
5577 Clouds 1 1023 79 3800 4.02 270 02:21 01.02.2022
5578 Clouds 1 1022 79 10000 3.13 270 23:38 31.01.2022
5579 Mist 1 1022 79 2600 2.24 275 22:42 31.01.2022
5580 Clouds 2 1021 77 10000 0.89 275 21:35 31.01.2022
5581 Clouds 2 1020 75 10000 2.24 270 20:35 31.01.2022
5582 Clouds 2 1020 78 10000 0.45 225 19:58 31.01.2022
5583 Clouds 2 1019 84 10000 1.79 230 18:32 31.01.2022
5584 Snow 2 1019 84 10000 1.79 230 18:32 31.01.2022
5585 Clouds 2 1019 81 10000 6.26 270 17:57 31.01.2022
5586 Clouds 2 1018 82 10000 0.51 0 17:24 31.01.2022
5587 Mist 3 1018 80 5000 5.14 270 16:23 31.01.2022
5588 Clouds 3 1017 81 10000 3.58 270 14:53 31.01.2022
5589 Clouds 4 1017 79 10000 3.58 270 13:31 31.01.2022
5590 Rain 4 1017 77 10000 8.49 270 12:38 31.01.2022
5591 Clouds 4 1018 76 10000 5.36 255 11:26 31.01.2022
5592 Clouds 4 1018 74 10000 7.15 270 10:48 31.01.2022
5593 Clouds 4 1018 72 10000 5.81 250 09:37 31.01.2022
5594 Clouds 3 1019 70 10000 8.05 245 08:56 31.01.2022
5595 Clouds 3 1020 72 10000 4.92 260 08:20 31.01.2022
5596 Clouds 3 1020 74 10000 2.24 270 07:40 31.01.2022
5597 Clouds 1 1021 83 10000 2.57 360 05:25 31.01.2022
5598 Clouds -1 1024 84 10000 0.51 0 00:24 31.01.2022
5599 Clear 0 1025 80 10000 0.89 185 22:33 30.01.2022
5600 Clear 0 1026 83 10000 0.51 0 21:46 30.01.2022
5601 Clear 1 1026 81 10000 1.03 0 21:24 30.01.2022
5602 Clear 1 1026 81 10000 1.03 0 20:53 30.01.2022
5603 Clear 2 1026 80 10000 1.03 30 20:31 30.01.2022
5604 Clear 2 1026 77 10000 1.03 0 19:56 30.01.2022
5605 Clear 3 1027 74 10000 2.06 260 18:52 30.01.2022
5606 Clear 4 1027 70 10000 1.54 260 18:22 30.01.2022
5607 Clouds 6 1027 72 10000 3.09 310 17:31 30.01.2022
5608 Clouds 6 1027 72 10000 3.09 310 17:31 30.01.2022
5609 Clouds 8 1028 66 10000 3.09 300 16:43 30.01.2022
5610 Clouds 8 1028 66 10000 3.09 320 16:23 30.01.2022
5611 Clouds 8 1028 66 10000 3.09 320 16:23 30.01.2022
5612 Clouds 8 1028 65 10000 3.6 260 15:55 30.01.2022
5613 Clouds 9 1028 65 10000 2.06 0 15:33 30.01.2022
5614 Clouds 9 1028 63 10000 1.03 0 14:48 30.01.2022
5615 Clouds 9 1029 63 10000 1.54 120 13:49 30.01.2022
5616 Clouds 8 1030 66 10000 2.57 130 12:46 30.01.2022
5617 Clouds 6 1031 69 10000 3.13 90 11:23 30.01.2022
5618 Clouds 5 1031 70 10000 2.57 90 10:26 30.01.2022
5619 Clouds 4 1031 73 10000 2.06 60 09:23 30.01.2022
5620 Clouds 4 1031 73 10000 0.51 0 08:00 30.01.2022
5621 Clouds 4 1031 67 10000 0.51 0 02:44 30.01.2022
5622 Clouds 3 1031 67 10000 1.03 0 01:54 30.01.2022
5623 Clouds 3 1032 72 10000 1.03 0 23:49 29.01.2022
5624 Clouds 3 1032 79 10000 1.54 90 22:57 29.01.2022
5625 Clouds 3 1032 70 10000 0.51 0 21:35 29.01.2022
5626 Clouds 3 1032 62 10000 2.57 80 20:57 29.01.2022
5627 Clouds 4 1032 63 10000 1.54 0 19:52 29.01.2022
5628 Clouds 4 1032 67 10000 2.06 80 19:31 29.01.2022
5629 Clouds 4 1032 64 10000 1.54 100 18:44 29.01.2022
5630 Clear 5 1031 66 10000 1.54 0 17:54 29.01.2022
5631 Clear 7 1031 42 10000 2.06 140 16:59 29.01.2022
5632 Clear 8 1032 43 10000 3.58 230 15:27 29.01.2022
5633 Clouds 7 1033 56 10000 3.13 265 13:48 29.01.2022
5634 Clear 6 1033 61 10000 3.13 265 13:27 29.01.2022
5635 Clear 6 1034 64 10000 1.03 0 12:58 29.01.2022
5636 Clouds 4 1034 65 10000 1.03 0 11:39 29.01.2022
5637 Clear 2 1034 79 10000 0.51 0 10:32 29.01.2022
5638 Clouds -1 1033 81 10000 1.03 0 08:19 29.01.2022
5639 Clouds -1 1034 87 10000 1.54 130 02:26 29.01.2022
5640 Fog -1 1035 86 7000 0.51 0 00:31 29.01.2022
5641 Clouds -1 1035 86 10000 0.51 0 23:29 28.01.2022
5642 Clouds 0 1035 86 8000 0.51 0 22:46 28.01.2022
5643 Clouds 0 1035 86 6000 0.51 0 22:19 28.01.2022
5644 Clear 1 1035 80 10000 1.54 120 20:41 28.01.2022
5645 Clear 1 1034 89 10000 1.54 130 19:56 28.01.2022
5646 Clear 1 1063 84 10000 0.51 0 18:52 28.01.2022
5647 Clear 4 1034 69 10000 1.54 260 17:53 28.01.2022
5648 Clear 6 1034 63 10000 1.54 210 15:52 28.01.2022
5649 Clear 7 1034 69 10000 1.03 170 14:50 28.01.2022
5650 Clouds 6 1035 81 10000 1.79 105 12:42 28.01.2022
5651 Clouds 5 1036 83 10000 3.6 100 11:49 28.01.2022
5652 Clouds 2 1036 92 6000 1.54 0 10:26 28.01.2022
5653 Mist 1 1035 93 3000 0.51 140 09:46 28.01.2022
5654 Mist 0 1034 90 4800 0.51 0 07:41 28.01.2022
5655 Clouds 1 1033 89 6000 0.51 0 05:31 28.01.2022
5656 Clouds 1 1032 89 7000 1.03 0 03:50 28.01.2022
5657 Clouds 0 1032 90 5000 1.54 0 02:25 28.01.2022
5658 Drizzle 0 1032 89 5000 1.54 280 01:37 28.01.2022
5659 Clouds 0 1032 90 8000 0.51 0 00:39 28.01.2022
5660 Mist -1 1031 90 4900 1.54 260 22:18 27.01.2022
5661 Mist -2 1030 90 3000 1.54 50 21:34 27.01.2022
5662 Clouds -1 1030 90 8000 0.51 0 20:59 27.01.2022
5663 Clear -1 1030 88 10000 1.54 0 19:37 27.01.2022
5664 Clear 0 1029 87 10000 1.03 0 18:18 27.01.2022
5665 Clear 1 1029 84 10000 0.89 265 16:45 27.01.2022
5666 Clear 2 1029 93 10000 1.03 0 13:48 27.01.2022
5667 Clear 0 1030 93 10000 1.03 0 12:48 27.01.2022
5668 Clouds -2 1031 100 8000 0.51 0 11:24 27.01.2022
5669 Fog -2 1031 93 6000 1.03 0 09:47 27.01.2022
5670 Fog -4 1031 90 900 2.06 120 08:39 27.01.2022
5671 Fog -4 1030 89 200 1.03 240 07:23 27.01.2022
5672 Fog -3 1030 90 150 1.03 110 02:59 27.01.2022
5673 Fog -2 1031 90 200 1.03 0 23:52 26.01.2022
5674 Fog -2 1031 90 200 0.51 0 22:27 26.01.2022
5675 Fog -2 1031 90 250 0.51 0 21:41 26.01.2022
5676 Fog -2 1031 89 300 0.51 0 20:42 26.01.2022
5677 Fog -2 1031 90 300 0.51 0 20:23 26.01.2022
5678 Mist -1 1031 90 3000 1.54 330 19:28 26.01.2022
5679 Mist -1 1031 89 5000 1.54 290 18:46 26.01.2022
5680 Fog -1 1031 88 7000 1.03 220 17:52 26.01.2022
5681 Clear 0 1031 86 8000 1.03 220 17:24 26.01.2022
5682 Clear 1 1031 85 9000 1.54 180 16:40 26.01.2022
5683 Clouds 3 1030 89 7000 2.57 240 15:50 26.01.2022
5684 Clouds 2 1030 93 8000 0.51 0 14:23 26.01.2022
5685 Clear 1 1033 65 10000 0.49 281 11:56 26.01.2022
5686 Fog -2 1032 97 700 0.51 0 10:45 26.01.2022
5687 Fog -2 1032 95 450 1.54 0 09:49 26.01.2022
5688 Fog -3 1032 88 300 0 0 08:32 26.01.2022
5689 Fog -3 1031 91 250 1.54 200 06:20 26.01.2022
5690 Fog -3 1031 91 250 1.54 200 06:20 26.01.2022
5691 Fog -2 1032 90 200 1.54 0 00:18 26.01.2022
5692 Fog -2 1032 90 200 1.03 0 23:28 25.01.2022
5693 Fog -2 1032 88 150 1.03 220 22:48 25.01.2022
5694 Fog -2 1032 88 150 1.03 0 22:18 25.01.2022
5695 Fog -1 1032 89 100 0.51 0 21:22 25.01.2022
5696 Fog -1 1032 89 100 1.54 240 20:44 25.01.2022
5697 Fog -1 1032 88 150 1.03 0 19:53 25.01.2022
5698 Fog -1 1032 88 150 1.03 0 19:53 25.01.2022
5699 Fog 0 1032 88 250 1.03 0 18:43 25.01.2022
5700 Fog 0 1032 92 450 2.57 140 17:45 25.01.2022
5701 Mist 1 1032 88 3500 0.89 265 16:47 25.01.2022
5702 Clouds 2 1062 88 5000 1.54 140 16:21 25.01.2022
5703 Clouds 2 1032 92 4000 1.54 140 15:38 25.01.2022
5704 Mist 1 1032 100 3000 0 0 14:58 25.01.2022
5705 Mist 0 1033 93 2500 1.03 240 13:46 25.01.2022
5706 Fog -1 1034 100 900 1.03 0 10:59 25.01.2022
5707 Fog -2 1033 91 400 0.51 0 09:20 25.01.2022
5708 Fog -3 1033 89 300 0.51 0 07:30 25.01.2022
5709 Fog -3 1033 88 250 0.89 275 06:51 25.01.2022
5710 Fog -2 1033 87 600 1.54 220 05:22 25.01.2022
5711 Clouds -2 1032 84 10000 0.78 155 23:37 24.01.2022
5712 Mist -2 1032 86 2600 0 0 23:19 24.01.2022
5713 Mist -2 1032 88 3500 0.51 0 22:59 24.01.2022
5714 Mist -2 1032 88 3500 0.51 0 22:41 24.01.2022
5715 Mist -2 1032 86 3500 0.51 80 21:55 24.01.2022
5716 Mist -2 1032 87 3300 0 0 21:29 24.01.2022
5717 Mist -2 1032 85 4000 0 0 20:32 24.01.2022
5718 Clear -2 1032 85 5000 0 0 19:52 24.01.2022
5719 Clear -1 1032 84 6000 0 0 19:30 24.01.2022
5720 Clear 0 1032 81 7000 2.06 260 18:19 24.01.2022
5721 Clear 1 1031 79 10000 2.06 260 17:24 24.01.2022
5722 Clear 2 1031 77 10000 2.57 260 16:55 24.01.2022
5723 Clear 2 1031 76 10000 1.54 0 16:19 24.01.2022
5724 Clear 2 1031 82 10000 1.54 0 14:43 24.01.2022
5725 Clouds 1 1032 78 7000 1.54 220 13:26 24.01.2022
5726 Clouds 1 1032 79 7000 0.51 0 12:30 24.01.2022
5727 Clouds 1 1032 81 7000 1.03 250 10:46 24.01.2022
5728 Clouds 0 1032 84 7000 1.03 0 09:48 24.01.2022
5729 Clouds -1 1031 83 7000 1.54 110 08:41 24.01.2022
5730 Clouds 0 1031 84 10000 1.54 110 06:41 24.01.2022
5731 Clouds -1 1032 84 8000 1.54 140 01:31 24.01.2022
5732 Clouds -1 1031 81 10000 0.74 106 00:38 24.01.2022
5733 Clouds -1 1031 81 10000 0.45 136 00:20 24.01.2022
5734 Clouds -1 1031 81 10000 0.95 88 22:37 23.01.2022
5735 Clouds -1 1031 80 10000 0.82 101 21:50 23.01.2022
5736 Clear -1 1031 83 7000 0.51 0 21:26 23.01.2022
5737 Clear -1 1031 83 7000 0.51 0 20:45 23.01.2022
5738 Clear -1 1031 80 10000 1.03 0 19:52 23.01.2022
5739 Clear 0 1031 78 10000 1.03 0 18:52 23.01.2022
5740 Clear 1 1031 78 10000 2.57 300 17:50 23.01.2022
5741 Clear 2 1046 76 10000 3.09 20 16:48 23.01.2022
5742 Clear 3 1030 74 10000 3.09 280 15:18 23.01.2022
5743 Clear 3 1032 75 10000 0.45 170 14:31 23.01.2022
5744 Clear 3 1032 75 10000 0.45 170 14:31 23.01.2022
5745 Clouds 2 1032 77 10000 2.06 290 13:22 23.01.2022
5746 Clear 2 1032 81 10000 1.79 150 12:36 23.01.2022
5747 Clear 2 1032 80 10000 2.24 90 12:18 23.01.2022
5748 Clear 1 1033 84 10000 1.03 120 11:23 23.01.2022
5749 Clear -1 1033 84 10000 0.45 90 10:28 23.01.2022
5750 Clear -1 1033 86 10000 1.54 180 09:51 23.01.2022
5751 Clouds -2 1033 82 10000 1.34 92 08:59 23.01.2022
5752 Clouds -3 1032 82 10000 0.45 186 05:58 23.01.2022
5753 Clear -2 1032 81 10000 0.51 190 01:53 23.01.2022
5754 Clear -2 1032 80 10000 1.03 0 01:33 23.01.2022
5755 Clear -2 1033 79 10000 0.51 0 00:23 23.01.2022
5756 Clear -2 1033 79 10000 1.03 70 23:57 22.01.2022
5757 Clear -1 1033 77 10000 1.03 70 22:46 22.01.2022
5758 Clear -1 1033 76 10000 1.54 130 21:36 22.01.2022
5759 Clear 0 1033 75 10000 1.54 120 20:23 22.01.2022
5760 Clear 0 1033 78 10000 1.03 110 19:21 22.01.2022
5761 Clear 1 1032 77 10000 0 0 18:25 22.01.2022
5762 Clear 2 1032 62 10000 1.54 80 17:41 22.01.2022
5763 Clear 4 1032 60 10000 1.03 190 16:56 22.01.2022
5764 Clear 5 1032 61 10000 1.54 0 15:53 22.01.2022
5765 Clear 5 1032 61 10000 0.45 35 15:32 22.01.2022
5766 Clear 4 1032 63 10000 2.24 40 13:51 22.01.2022
5767 Clear 3 1033 63 10000 3.13 115 12:53 22.01.2022
5768 Clear 3 1033 65 10000 2.68 90 12:29 22.01.2022
5769 Clouds 2 1033 66 10000 2.24 90 11:44 22.01.2022
5770 Clouds 0 1033 72 10000 2.57 160 10:29 22.01.2022
5771 Clouds -1 1033 73 10000 2.06 130 09:59 22.01.2022
5772 Clouds -2 1033 74 10000 3.09 80 08:53 22.01.2022
5773 Clouds -3 1032 73 10000 2.57 120 07:56 22.01.2022
5774 Clear -3 1032 72 10000 1.34 74 04:53 22.01.2022
5775 Clouds -2 1032 66 10000 1.03 110 01:49 22.01.2022
5776 Clouds -2 1032 62 10000 1.03 140 23:46 21.01.2022
5777 Clear -2 1032 59 10000 1.35 90 22:41 21.01.2022
5778 Clear -2 1032 76 10000 0.51 0 20:45 21.01.2022
5779 Clear -1 1032 76 10000 0.51 0 18:41 21.01.2022
5780 Clouds 0 1032 58 10000 2.57 30 17:45 21.01.2022
5781 Clear 2 1031 67 10000 2.24 80 15:47 21.01.2022
5782 Clear 2 1031 69 10000 1.79 90 13:55 21.01.2022
5783 Clear 1 1031 54 10000 0.89 120 12:39 21.01.2022
5784 Clouds 1 1031 64 10000 2.68 115 11:28 21.01.2022
5785 Clear -1 1032 74 10000 1.34 95 10:22 21.01.2022
5786 Clear -2 1030 79 10000 0 0 08:25 21.01.2022
5787 Clear -2 1030 79 10000 0 0 08:25 21.01.2022
5788 Clouds -2 1030 74 10000 1.03 0 07:26 21.01.2022
5789 Clouds 0 1029 74 10000 0.51 0 00:59 21.01.2022
5790 Clouds 1 1029 76 10000 2.06 0 22:45 20.01.2022
5791 Clouds 1 1029 79 10000 1.03 0 21:48 20.01.2022
5792 Clouds 1 1028 75 10000 0 0 20:56 20.01.2022
5793 Clouds 1 1028 76 10000 1.54 90 19:21 20.01.2022
5794 Clouds 2 1028 72 10000 0.51 0 18:51 20.01.2022
5795 Clouds 2 1028 67 10000 3.09 300 17:32 20.01.2022
5796 Clouds 3 1028 68 10000 1.54 310 15:46 20.01.2022
5797 Clouds 3 1027 69 10000 2.06 310 15:25 20.01.2022
5798 Clouds 4 1027 70 10000 1.34 280 13:54 20.01.2022
5799 Clouds 4 1027 70 10000 1.34 280 13:54 20.01.2022
5800 Clouds 3 1028 76 10000 0.89 275 12:43 20.01.2022
5801 Clouds 3 1028 78 10000 1.03 0 12:21 20.01.2022
5802 Clouds 2 1028 82 10000 1.03 230 10:55 20.01.2022
5803 Clouds 1 1027 83 10000 1.54 80 09:43 20.01.2022
5804 Clouds 1 1027 81 10000 2.57 100 08:36 20.01.2022
5805 Clouds 1 1027 81 10000 0.51 0 06:18 20.01.2022
5806 Clouds 2 1027 74 10000 2.57 310 23:56 19.01.2022
5807 Clouds 2 1027 77 10000 1.34 255 22:37 19.01.2022
5808 Clouds 2 1027 78 7000 1.03 0 21:26 19.01.2022
5809 Clouds 2 1026 77 7000 1.03 0 20:55 19.01.2022
5810 Clouds 2 1026 77 8000 1.03 80 20:24 19.01.2022
5811 Clouds 2 1027 78 6000 2.06 110 18:49 19.01.2022
5812 Clouds 2 1027 78 6000 2.06 110 18:49 19.01.2022
5813 Clouds 3 1026 78 6000 0.89 95 17:50 19.01.2022
5814 Clouds 3 1026 78 6000 1.54 0 17:18 19.01.2022
5815 Clouds 4 1026 83 6000 3.09 140 14:55 19.01.2022
5816 Clouds 3 1028 83 7000 2.06 110 13:20 19.01.2022
5817 Clouds 2 1029 87 6000 2.57 110 11:54 19.01.2022
5818 Clouds 1 1030 88 6000 3.09 110 11:22 19.01.2022
5819 Clouds 0 1031 87 6000 3.09 120 09:35 19.01.2022
5820 Clouds -1 1030 86 6000 2.06 90 08:20 19.01.2022
5821 Clouds -1 1031 84 7000 1.54 120 05:19 19.01.2022
5822 Clear -1 1033 86 5000 1.03 0 23:53 18.01.2022
5823 Mist -1 1033 86 4400 1.03 130 23:18 18.01.2022
5824 Clear -1 1033 85 5000 1.03 80 21:43 18.01.2022
5825 Clear 0 1033 84 6000 0 0 20:21 18.01.2022
5826 Clear 0 1033 82 10000 0 0 19:39 18.01.2022
5827 Clear 1 1033 82 10000 1.03 300 19:21 18.01.2022
5828 Clear 2 1033 78 10000 1.54 0 18:18 18.01.2022
5829 Clear 3 1032 76 10000 2.06 340 17:31 18.01.2022
5830 Clear 4 1032 74 10000 0.45 105 16:18 18.01.2022
5831 Clear 4 1032 73 10000 1.34 95 15:25 18.01.2022
5832 Clear 5 1032 73 10000 1.34 105 14:18 18.01.2022
5833 Clear 3 1033 79 10000 2.24 145 11:31 18.01.2022
5834 Clouds 1 1033 87 10000 2.24 83 09:59 18.01.2022
5835 Clouds -1 1033 83 10000 2.68 67 08:29 18.01.2022
5836 Clouds -1 1033 86 10000 2.68 65 07:42 18.01.2022
5837 Clouds 0 1034 82 10000 2.06 120 00:38 18.01.2022
5838 Clouds 1 1035 81 10000 1.03 0 22:39 17.01.2022
5839 Clouds 1 1035 74 10000 1.67 73 21:41 17.01.2022
5840 Clouds 1 1035 79 10000 0 0 20:39 17.01.2022
5841 Clear 1 1035 78 10000 0 0 18:46 17.01.2022
5842 Clear 2 1035 77 10000 0 0 18:24 17.01.2022
5843 Clear 4 1034 72 10000 1.03 0 17:19 17.01.2022
5844 Clear 5 1034 67 10000 4.12 310 15:47 17.01.2022
5845 Clear 6 1033 63 10000 1.03 0 14:58 17.01.2022
5846 Clear 6 1034 65 10000 1.54 200 14:22 17.01.2022
5847 Clear 5 1035 72 10000 2.24 85 13:18 17.01.2022
5848 Clear 4 1035 77 10000 2.06 90 11:51 17.01.2022
5849 Clear 2 1035 82 10000 0.51 60 10:47 17.01.2022
5850 Clear -1 1036 83 10000 2.06 90 09:35 17.01.2022
5851 Mist -1 1034 82 10000 1.03 0 08:43 17.01.2022
5852 Mist -1 1034 86 4100 1.03 150 07:20 17.01.2022
5853 Clouds -1 1033 87 5000 0.51 0 00:59 17.01.2022
5854 Mist -1 1033 87 3400 2.06 100 23:27 16.01.2022
5855 Fog -1 1032 88 450 1.54 130 20:50 16.01.2022
5856 Fog -1 1031 88 600 1.54 0 19:56 16.01.2022
5857 Fog -1 1030 87 150 1.54 0 18:45 16.01.2022
5858 Fog 0 1030 85 200 1.54 100 17:47 16.01.2022
5859 Fog 1 1029 84 300 1.54 160 16:52 16.01.2022
5860 Fog 2 1028 83 500 1.03 150 15:39 16.01.2022
5861 Mist 3 1028 83 1200 1.03 0 14:29 16.01.2022
5862 Mist 3 1028 83 1200 1.03 0 14:29 16.01.2022
5863 Mist 1 1029 88 500 1.54 130 12:57 16.01.2022
5864 Fog 0 1030 93 700 1.54 140 11:56 16.01.2022
5865 Fog -1 1029 100 350 1.54 160 11:27 16.01.2022
5866 Fog -2 1028 97 150 1.03 0 10:27 16.01.2022
5867 Fog -2 1028 95 150 0.51 0 09:57 16.01.2022
5868 Fog -2 1028 92 900 0.45 105 09:23 16.01.2022
5869 Fog -2 1028 92 500 2.06 130 08:52 16.01.2022
5870 Fog -2 1026 91 250 1.03 0 05:51 16.01.2022
5871 Fog -2 1026 87 150 1.03 0 00:18 16.01.2022
5872 Fog -2 1025 88 150 2.06 110 22:38 15.01.2022
5873 Fog -2 1025 87 300 0.51 200 21:21 15.01.2022
5874 Fog -2 1026 85 150 0.51 190 20:43 15.01.2022
5875 Fog -1 1025 85 50 0.51 0 19:58 15.01.2022
5876 Fog -1 1025 85 100 0 0 19:23 15.01.2022
5877 Fog 0 1026 84 100 1.03 150 17:49 15.01.2022
5878 Fog 2 1026 80 150 0.89 120 16:42 15.01.2022
5879 Fog 4 1025 79 1000 1.03 0 14:32 15.01.2022
5880 Fog 2 1027 85 300 1.54 140 12:33 15.01.2022
5881 Fog 0 1027 87 300 1.03 0 11:19 15.01.2022
5882 Fog -3 1028 88 300 1.03 240 09:21 15.01.2022
5883 Clouds -3 1030 85 5000 0.51 110 00:52 15.01.2022
5884 Mist -2 1031 84 4700 0.51 0 21:57 14.01.2022
5885 Clear -1 1031 83 10000 0.51 0 20:51 14.01.2022
5886 Clear -1 1032 82 10000 0.51 0 20:23 14.01.2022
5887 Clear -1 1032 81 7000 0.51 0 19:48 14.01.2022
5888 Clear 0 1032 79 10000 1.03 0 18:28 14.01.2022
5889 Clear 2 1033 72 10000 1.54 0 16:50 14.01.2022
5890 Clear 3 1033 68 10000 1.03 0 15:48 14.01.2022
5891 Clear 4 1033 71 6000 1.03 0 14:47 14.01.2022
5892 Clear 4 1034 74 10000 1.15 38 13:47 14.01.2022
5893 Clear 2 1035 76 10000 0.89 32 12:31 14.01.2022
5894 Fog 0 1036 86 900 1.54 140 11:27 14.01.2022
5895 Fog -3 1036 91 400 1.54 100 09:50 14.01.2022
5896 Mist -4 1036 90 3200 0.51 0 08:51 14.01.2022
5897 Clouds -5 1036 87 6000 1.03 0 07:21 14.01.2022
5898 Mist -4 1037 85 4900 0.51 0 01:37 14.01.2022
5899 Clear -3 1037 84 6000 0.51 0 23:32 13.01.2022
5900 Clear -3 1037 81 10000 1.03 120 21:40 13.01.2022
5901 Clear -3 1037 80 10000 0.51 30 21:22 13.01.2022
5902 Clear -2 1037 77 10000 1.03 0 19:40 13.01.2022
5903 Clear -2 1037 77 10000 1.03 0 19:22 13.01.2022
5904 Clear -1 1036 73 10000 1.03 0 17:54 13.01.2022
5905 Clear 1 1036 68 10000 2.06 240 16:21 13.01.2022
5906 Clear 2 1036 68 10000 3.09 230 15:37 13.01.2022
5907 Clear 2 1036 70 10000 3.09 280 14:47 13.01.2022
5908 Clear 1 1037 78 6000 1.03 0 12:45 13.01.2022
5909 Clear -3 1037 87 6000 1.03 140 10:25 13.01.2022
5910 Clear -4 1037 87 10000 1.79 59 09:20 13.01.2022
5911 Clear -4 1037 85 10000 1.79 49 08:27 13.01.2022
5912 Clear -4 1036 86 10000 1.79 70 07:24 13.01.2022
5913 Clear -5 1037 86 10000 2.68 76 05:59 13.01.2022
5914 Clear -5 1037 85 10000 2.24 76 05:19 13.01.2022
5915 Clear -4 1037 84 10000 0.89 90 02:33 13.01.2022
5916 Clear -4 1036 80 10000 1.79 69 00:56 13.01.2022
5917 Clear -3 1036 82 9000 0.51 0 23:49 12.01.2022
5918 Clear -3 1036 82 9000 0.51 0 23:49 12.01.2022
5919 Clear -3 1036 81 9000 0.51 0 23:24 12.01.2022
5920 Clear -3 1036 80 10000 0 0 21:57 12.01.2022
5921 Clear -2 1036 79 10000 1.79 90 21:23 12.01.2022
5922 Clear -2 1036 78 10000 1.03 60 20:57 12.01.2022
5923 Clear -2 1035 76 10000 1.03 0 19:55 12.01.2022
5924 Clear -1 1035 75 10000 1.34 60 18:43 12.01.2022
5925 Clear -1 1035 74 10000 2.24 60 17:50 12.01.2022
5926 Clear 1 1034 69 10000 1.54 30 16:38 12.01.2022
5927 Clear 2 1034 67 10000 1.34 85 14:49 12.01.2022
5928 Clear 1 1034 69 10000 3.13 95 13:32 12.01.2022
5929 Clear 0 1034 74 10000 2.24 90 11:59 12.01.2022
5930 Clouds -3 1034 78 10000 2.24 75 08:43 12.01.2022
5931 Clear -4 1033 81 10000 2.06 110 07:52 12.01.2022
5932 Clear -3 1033 81 10000 2.06 110 07:32 12.01.2022
5933 Clouds 0 1031 76 10000 3.13 95 23:53 11.01.2022
5934 Clouds 0 1031 77 10000 1.79 95 22:57 11.01.2022
5935 Clouds 0 1031 76 10000 1.79 105 22:23 11.01.2022
5936 Clouds 0 1031 75 10000 2.24 90 21:25 11.01.2022
5937 Clouds 0 1030 78 10000 1.34 80 20:21 11.01.2022
5938 Clouds 1 1029 75 10000 2.24 120 18:43 11.01.2022
5939 Clouds 1 1028 74 10000 2.24 110 17:35 11.01.2022
5940 Clouds 2 1028 73 10000 3.13 75 16:38 11.01.2022
5941 Clouds 3 1028 71 10000 6.26 115 15:56 11.01.2022
5942 Clouds 3 1028 70 10000 2.68 90 14:43 11.01.2022
5943 Clouds 3 1028 71 10000 5.36 95 13:56 11.01.2022
5944 Clouds 3 1028 71 10000 1.79 80 13:36 11.01.2022
5945 Clouds 3 1028 74 10000 2.24 80 12:51 11.01.2022
5946 Clouds 2 1028 75 10000 1.54 80 12:22 11.01.2022
5947 Clouds 1 1028 84 10000 0.45 80 10:24 11.01.2022
5948 Clouds 0 1027 85 10000 1.54 110 07:35 11.01.2022
5949 Clouds 0 1026 86 10000 0.51 0 01:47 11.01.2022
5950 Clouds 0 1025 84 10000 1.54 0 00:22 11.01.2022
5951 Clouds 1 1025 84 10000 1.54 0 23:37 10.01.2022
5952 Clouds 0 1025 88 10000 1.03 0 22:19 10.01.2022
5953 Clouds 1 1025 86 10000 2.68 37 21:54 10.01.2022
5954 Clouds 1 1025 86 10000 3.13 39 21:31 10.01.2022
5955 Clouds 0 1025 87 10000 1.03 0 20:58 10.01.2022
5956 Clouds 1 1024 87 10000 0.51 0 20:29 10.01.2022
5957 Clear 1 1024 85 10000 1.03 0 19:45 10.01.2022
5958 Clear 1 1024 85 10000 2.06 40 19:22 10.01.2022
5959 Clouds 1 1023 85 10000 1.03 0 18:50 10.01.2022
5960 Clouds 1 1023 85 10000 1.03 0 18:31 10.01.2022
5961 Clear 2 1021 80 10000 0.45 70 16:42 10.01.2022
5962 Clear 3 1021 79 10000 0.45 105 15:55 10.01.2022
5963 Clouds 3 1020 82 10000 0.89 95 14:39 10.01.2022
5964 Clouds 2 1019 89 10000 2.06 50 12:31 10.01.2022
5965 Clouds 1 1018 91 10000 0.51 0 11:25 10.01.2022
5966 Clouds 1 1018 93 10000 0.51 0 10:45 10.01.2022
5967 Clouds 0 1016 94 7000 1.03 0 08:57 10.01.2022
5968 Clouds 0 1013 94 6000 2.06 250 05:51 10.01.2022
5969 Clouds 1 1010 94 6000 1.79 270 01:33 10.01.2022
5970 Clouds 1 1010 93 5000 1.03 0 00:36 10.01.2022
5971 Clouds 1 1010 92 1600 1.54 130 23:54 09.01.2022
5972 Clouds 1 1009 91 3700 0.51 0 22:43 09.01.2022
5973 Clouds 2 1008 91 3600 1.54 130 21:47 09.01.2022
5974 Clouds 2 1008 91 3600 1.54 130 21:25 09.01.2022
5975 Clouds 2 1008 91 3600 1.54 130 21:25 09.01.2022
5976 Drizzle 2 1008 90 10000 2.57 90 20:58 09.01.2022
5977 Clouds 2 1008 90 10000 2.06 130 20:39 09.01.2022
5978 Clouds 2 1008 91 10000 2.57 120 20:21 09.01.2022
5979 Clouds 2 1008 89 10000 2.06 110 19:38 09.01.2022
5980 Clouds 2 1008 89 10000 2.06 100 19:18 09.01.2022
5981 Clouds 2 1008 88 10000 1.34 265 18:37 09.01.2022
5982 Clouds 2 1007 86 10000 0.45 280 17:48 09.01.2022
5983 Clouds 3 1007 85 10000 0.51 0 17:29 09.01.2022
5984 Clouds 3 1007 85 10000 3.13 260 16:40 09.01.2022
5985 Clouds 3 1007 84 10000 3.13 250 15:40 09.01.2022
5986 Clouds 3 1007 83 10000 1.79 230 14:58 09.01.2022
5987 Clouds 3 1007 85 10000 0.89 250 14:24 09.01.2022
5988 Clouds 3 1007 82 10000 3.58 240 13:48 09.01.2022
5989 Clouds 3 1008 82 10000 3.58 250 11:56 09.01.2022
5990 Clouds 3 1008 85 10000 2.68 285 11:26 09.01.2022
5991 Clouds 2 1008 86 10000 1.79 215 09:55 09.01.2022
5992 Clouds 2 1008 87 10000 2.68 255 09:20 09.01.2022
5993 Clouds 3 1007 86 10000 4.92 270 06:57 09.01.2022
5994 Clouds 3 1001 92 6000 1.54 290 01:30 09.01.2022
5995 Drizzle 2 1002 91 10000 1.54 350 00:38 09.01.2022
5996 Rain 2 1003 91 10000 1.34 285 23:34 08.01.2022
5997 Clouds 2 1005 87 10000 2.24 270 22:48 08.01.2022
5998 Clouds 3 1007 84 10000 0.51 0 21:28 08.01.2022
5999 Clouds 3 1009 82 10000 2.06 80 20:44 08.01.2022
6000 Clouds 3 1009 82 10000 2.06 80 20:44 08.01.2022
6001 Clouds 3 1010 80 10000 0.51 0 20:22 08.01.2022
6002 Clouds 3 1011 79 10000 2.06 60 19:22 08.01.2022
6003 Clouds 3 1013 79 10000 2.24 260 17:43 08.01.2022
6004 Clouds 3 1013 77 10000 2.57 300 16:57 08.01.2022
6005 Clouds 4 1015 73 10000 1.03 320 15:34 08.01.2022
6006 Clouds 4 1017 73 10000 1.79 265 14:25 08.01.2022
6007 Clouds 3 1018 77 10000 3.58 270 12:35 08.01.2022
6008 Clouds 2 1019 80 10000 3.6 270 10:43 08.01.2022
6009 Clouds 2 1019 80 10000 2.24 270 10:23 08.01.2022
6010 Clouds 2 1019 80 10000 2.24 270 10:23 08.01.2022
6011 Clouds 2 1019 83 10000 2.24 275 09:34 08.01.2022
6012 Mist 2 1016 85 4100 3.13 275 06:22 08.01.2022
6013 Clouds 1 1015 84 10000 1.03 0 01:46 08.01.2022
6014 Clouds 1 1016 85 10000 0.51 0 00:22 08.01.2022
6015 Clouds 1 1019 83 10000 4.12 110 22:21 07.01.2022
6016 Clouds 1 1019 82 10000 3.09 100 20:35 07.01.2022
6017 Clouds 1 1019 82 10000 3.09 100 20:35 07.01.2022
6018 Clouds 1 1020 85 10000 3.09 110 19:34 07.01.2022
6019 Clouds 1 1019 88 7000 2.06 140 18:49 07.01.2022
6020 Clouds 0 1020 88 7000 2.06 140 18:26 07.01.2022
6021 Clouds 0 1019 86 10000 1.54 170 17:24 07.01.2022
6022 Clouds 1 1019 84 8000 2.06 130 15:55 07.01.2022
6023 Clouds 1 1020 74 10000 3.58 275 13:52 07.01.2022
6024 Clouds 1 1020 71 10000 1.34 265 12:57 07.01.2022
6025 Clouds 1 1020 71 10000 1.79 245 12:25 07.01.2022
6026 Clouds -3 1021 81 10000 1.03 0 06:47 07.01.2022
6027 Clouds -3 1021 82 10000 1.03 0 02:54 07.01.2022
6028 Clouds -2 1021 82 10000 0.51 0 01:52 07.01.2022
6029 Clouds -2 1021 81 10000 0.45 135 01:27 07.01.2022
6030 Clouds -2 1021 82 10000 2.06 100 00:55 07.01.2022
6031 Clouds -2 1021 81 10000 0.51 210 22:42 06.01.2022
6032 Clouds -1 1021 80 10000 1.03 60 21:22 06.01.2022
6033 Clear -1 1021 79 10000 1.03 140 20:20 06.01.2022
6034 Clear 0 1020 79 10000 1.03 90 19:40 06.01.2022
6035 Clouds 1 1020 75 10000 1.03 220 17:53 06.01.2022
6036 Clouds 2 1020 74 10000 1.03 60 17:32 06.01.2022
6037 Clouds 3 1020 71 10000 1.54 60 16:40 06.01.2022
6038 Clouds 3 1020 68 10000 1.54 0 15:45 06.01.2022
6039 Clouds 3 1019 67 10000 2.57 70 15:23 06.01.2022
6040 Clouds 3 1019 66 10000 1.03 0 14:21 06.01.2022
6041 Clouds 3 1019 65 10000 1.54 160 13:46 06.01.2022
6042 Clouds 3 1019 68 10000 1.79 100 12:43 06.01.2022
6043 Clouds 2 1020 70 10000 1.34 105 11:41 06.01.2022
6044 Clouds 1 1020 71 10000 0.45 90 11:21 06.01.2022
6045 Clouds -1 1019 76 10000 2.06 100 08:50 06.01.2022
6046 Snow -1 1016 80 10000 2.06 110 00:42 06.01.2022
6047 Clouds -1 1016 86 10000 2.06 110 23:36 05.01.2022
6048 Clouds 0 1016 87 10000 2.06 100 22:54 05.01.2022
6049 Clouds 0 1015 88 10000 2.57 120 22:30 05.01.2022
6050 Clouds 0 1015 88 10000 0.51 0 21:46 05.01.2022
6051 Clouds -1 1016 85 10000 1.03 0 20:49 05.01.2022
6052 Clouds 0 1015 83 10000 2.06 120 19:59 05.01.2022
6053 Clouds 0 1015 83 10000 2.06 100 18:38 05.01.2022
6054 Clouds 0 1015 77 10000 1.54 0 17:23 05.01.2022
6055 Clouds 1 1014 68 10000 1.54 330 16:38 05.01.2022
6056 Clouds 2 1014 62 10000 3.09 260 15:20 05.01.2022
6057 Clouds 3 1013 66 10000 1.34 280 13:51 05.01.2022
6058 Clouds 2 1013 67 10000 3.09 330 12:51 05.01.2022
6059 Clouds 2 1010 87 10000 0 0 09:30 05.01.2022
6060 Clouds 3 1008 86 10000 4.02 275 07:42 05.01.2022
6061 Clouds 3 1007 89 10000 5.14 130 04:58 05.01.2022
6062 Clouds 5 1005 83 8000 5.66 270 00:44 05.01.2022
6063 Rain 7 1003 79 10000 3.58 270 23:27 04.01.2022
6064 Rain 9 1002 68 10000 2.24 265 22:42 04.01.2022
6065 Clouds 13 1001 57 10000 4.92 270 21:21 04.01.2022
6066 Clear 14 1000 52 10000 7.15 270 19:20 04.01.2022
6067 Clouds 14 1001 51 10000 6.71 270 17:44 04.01.2022
6068 Clouds 15 1001 50 10000 5.36 275 16:42 04.01.2022
6069 Clouds 15 1001 50 10000 6.26 270 16:23 04.01.2022
6070 Clouds 14 1002 54 10000 6.71 275 14:53 04.01.2022
6071 Clouds 14 1002 55 10000 7.6 280 14:34 04.01.2022
6072 Clouds 15 1003 55 10000 5.81 265 13:27 04.01.2022
6073 Clouds 11 1005 71 10000 2.06 260 10:41 04.01.2022
6074 Clouds 10 1005 79 10000 0 0 09:20 04.01.2022
6075 Clouds 9 1006 86 10000 1.54 160 08:28 04.01.2022
6076 Drizzle 9 1010 70 10000 4.02 260 02:31 04.01.2022
6077 Clouds 9 1012 69 10000 1.03 0 00:41 04.01.2022
6078 Clouds 9 1014 66 10000 1.03 0 23:19 03.01.2022
6079 Clouds 9 1015 67 10000 2.57 120 21:52 03.01.2022
6080 Clouds 9 1015 68 10000 2.57 120 21:32 03.01.2022
6081 Clouds 9 1017 65 10000 1.54 130 19:56 03.01.2022
6082 Clouds 10 1017 66 10000 1.79 255 18:48 03.01.2022
6083 Clouds 10 1017 66 10000 1.34 280 18:27 03.01.2022
6084 Clouds 10 1018 64 10000 4.63 270 16:58 03.01.2022
6085 Clouds 11 1020 59 10000 7.6 250 14:56 03.01.2022
6086 Clouds 12 1020 58 10000 4.92 260 14:30 03.01.2022
6087 Clouds 11 1022 61 10000 4.02 265 12:46 03.01.2022
6088 Clouds 10 1022 63 10000 2.68 255 11:35 03.01.2022
6089 Rain 10 1023 65 10000 3.13 275 10:27 03.01.2022
6090 Clouds 9 1023 64 10000 4.02 255 08:47 03.01.2022
6091 Clouds 9 1023 67 10000 3.58 260 07:34 03.01.2022
6092 Clouds 9 1023 67 10000 3.58 260 07:34 03.01.2022
6093 Clouds 10 1024 70 10000 2.68 290 23:55 02.01.2022
6094 Clouds 9 1024 75 10000 1.54 0 23:22 02.01.2022
6095 Clouds 8 1024 79 10000 1.34 295 22:53 02.01.2022
6096 Clouds 8 1024 77 10000 0.89 80 21:42 02.01.2022
6097 Clouds 7 1023 81 10000 0.51 0 20:33 02.01.2022
6098 Clouds 7 1023 82 10000 0.51 0 19:55 02.01.2022
6099 Clouds 7 1023 85 10000 1.54 0 19:30 02.01.2022
6100 Clouds 7 1023 84 10000 1.03 0 18:44 02.01.2022
6101 Clouds 6 1023 84 10000 2.57 80 17:54 02.01.2022
6102 Clouds 7 1023 77 10000 1.03 0 17:36 02.01.2022
6103 Clouds 7 1023 78 10000 1.54 0 17:18 02.01.2022
6104 Clouds 9 1023 66 10000 2.06 130 16:25 02.01.2022
6105 Clouds 10 1023 57 10000 2.57 120 14:22 02.01.2022
6106 Clouds 9 1025 57 10000 1.54 170 12:50 02.01.2022
6107 Clouds 8 1025 72 10000 1.54 270 11:58 02.01.2022
6108 Clouds 7 1025 74 10000 0.51 0 11:26 02.01.2022
6109 Clear 5 1025 78 10000 1.54 0 10:46 02.01.2022
6110 Clear 3 1024 76 10000 1.03 0 08:46 02.01.2022
6111 Fog 3 1024 73 3800 0.51 0 05:21 02.01.2022
6112 Clouds 3 1026 81 7000 1.03 0 01:41 02.01.2022
6113 Clouds 4 1027 81 7000 0.51 0 23:39 01.01.2022
6114 Clouds 4 1027 79 10000 0.51 0 22:57 01.01.2022
6115 Clouds 4 1027 81 10000 0.51 0 22:22 01.01.2022
6116 Clouds 4 1027 81 10000 0.51 0 21:43 01.01.2022
6117 Clouds 4 1027 82 10000 1.03 0 20:53 01.01.2022
6118 Clouds 4 1027 83 10000 1.54 110 19:57 01.01.2022
6119 Clear 5 1027 82 10000 0.51 0 18:58 01.01.2022
6120 Clear 6 1027 81 10000 0.51 100 17:58 01.01.2022
6121 Clear 8 1027 78 10000 1.54 0 16:37 01.01.2022
6122 Clear 9 1027 75 10000 2.06 100 16:19 01.01.2022
6123 Clear 11 1027 71 10000 0.45 125 15:26 01.01.2022
6124 Clear 11 1028 69 10000 0.51 0 13:46 01.01.2022
6125 Clear 9 1029 73 10000 0.51 0 12:49 01.01.2022
6126 Clear 7 1029 74 10000 0.51 0 11:56 01.01.2022
6127 Clear 7 1030 78 10000 0.51 0 11:22 01.01.2022
6128 Fog 5 1030 81 10000 0.51 0 10:27 01.01.2022
6129 Fog 4 1030 76 150 0.51 0 09:45 01.01.2022
6130 Fog 3 1029 76 250 0 0 08:26 01.01.2022
6131 Fog 3 1029 75 250 0.51 0 07:44 01.01.2022
6132 Fog 3 1029 87 100 1.03 150 06:47 01.01.2022
6133 Fog 3 1029 89 350 0.51 320 05:27 01.01.2022
6134 Mist 3 1029 90 2000 1.03 0 04:38 01.01.2022
6135 Mist 5 1029 84 1500 1.03 0 01:59 01.01.2022
6136 Fog 5 1029 91 2700 0.51 0 23:36 31.12.2021
6137 Mist 6 1029 86 3800 0.45 295 21:53 31.12.2021
6138 Clouds 6 1029 89 7000 2.57 100 20:38 31.12.2021
6139 Clear 6 1029 87 10000 0.45 83 19:30 31.12.2021
6140 Clear 4 1027 100 8000 0.51 0 18:37 31.12.2021
6141 Clear 8 1028 87 10000 0.45 82 17:40 31.12.2021
6142 Clear 8 1027 89 10000 3.09 90 17:18 31.12.2021
6143 Clear 10 1027 88 10000 0.45 82 16:25 31.12.2021
6144 Clear 10 1027 86 10000 2.57 110 15:57 31.12.2021
6145 Clear 11 1027 83 10000 0.51 0 15:28 31.12.2021
6146 Clouds 11 1027 87 10000 2.06 140 14:56 31.12.2021
6147 Clear 11 1028 87 10000 1.34 207 14:30 31.12.2021
6148 Clear 10 1027 85 10000 1.79 258 13:36 31.12.2021
6149 Clouds 10 1027 87 10000 1.79 319 12:45 31.12.2021
6150 Clouds 10 1027 87 10000 1.79 319 12:45 31.12.2021
6151 Clouds 9 1026 93 10000 1.35 227 11:51 31.12.2021
6152 Fog 8 1027 95 500 1.34 90 11:30 31.12.2021
6153 Fog 7 1027 97 750 0.51 0 10:38 31.12.2021
6154 Fog 7 1027 95 450 1.34 95 09:55 31.12.2021
6155 Clouds 7 1027 94 10000 0.89 106 09:32 31.12.2021
6156 Fog 5 1026 95 600 0.89 105 08:39 31.12.2021
6157 Clouds 6 1027 94 10000 1.57 180 07:31 31.12.2021
6158 Clouds 9 1027 94 10000 0.89 95 23:32 30.12.2021
6159 Clouds 9 1026 92 10000 3.6 80 22:33 30.12.2021
6160 Clouds 9 1025 94 10000 3.6 80 21:59 30.12.2021
6161 Clouds 9 1025 94 10000 3.6 80 21:59 30.12.2021
6162 Clouds 10 1025 93 10000 3.6 80 21:37 30.12.2021
6163 Clouds 10 1025 92 10000 3.09 90 20:47 30.12.2021
6164 Clouds 10 1026 91 10000 3.09 90 20:28 30.12.2021
6165 Clouds 10 1026 91 10000 3.09 80 19:48 30.12.2021
6166 Clouds 11 1026 92 10000 2.57 80 18:51 30.12.2021
6167 Clouds 11 1026 91 10000 2.57 80 18:20 30.12.2021
6168 Clouds 13 1025 88 10000 1.54 60 16:27 30.12.2021
6169 Clouds 13 1024 86 10000 2.06 120 15:52 30.12.2021
6170 Clouds 13 1024 86 10000 2.06 120 15:52 30.12.2021
6171 Clouds 14 1024 86 10000 1.34 255 14:41 30.12.2021
6172 Clouds 14 1024 87 10000 1.79 225 13:57 30.12.2021
6173 Clouds 13 1025 92 10000 2.57 100 12:52 30.12.2021
6174 Clouds 12 1026 93 10000 0.51 0 11:22 30.12.2021
6175 Clouds 11 1025 94 10000 1.03 0 09:59 30.12.2021
6176 Clouds 10 1025 93 10000 1.54 140 09:23 30.12.2021
6177 Clouds 11 1024 91 9000 3.09 100 06:54 30.12.2021
6178 Clouds 11 1022 90 10000 1.03 0 04:20 30.12.2021
6179 Clouds 11 1022 89 10000 1.03 0 03:39 30.12.2021
6180 Clouds 12 1021 86 10000 1.34 280 00:35 30.12.2021
6181 Clouds 12 1020 87 10000 1.79 270 23:31 29.12.2021
6182 Clouds 12 1019 88 10000 2.68 305 22:30 29.12.2021
6183 Clouds 11 1019 91 10000 4.02 270 21:53 29.12.2021
6184 Drizzle 11 1017 94 6000 1.03 0 20:40 29.12.2021
6185 Clouds 10 1017 94 6000 1.03 130 19:54 29.12.2021
6186 Clouds 10 1016 93 6000 2.06 100 19:25 29.12.2021
6187 Mist 9 1016 94 5000 2.06 90 18:19 29.12.2021
6188 Mist 7 1016 94 5000 2.06 80 17:29 29.12.2021
6189 Mist 7 1016 94 4200 2.06 90 16:58 29.12.2021
6190 Drizzle 7 1015 94 3000 2.06 80 16:19 29.12.2021
6191 Drizzle 7 1015 94 3400 0.89 90 14:46 29.12.2021
6192 Rain 6 1015 92 6000 1.03 80 12:49 29.12.2021
6193 Rain 6 1015 92 6000 1.03 80 12:27 29.12.2021
6194 Rain 6 1015 89 10000 4.12 150 10:36 29.12.2021
6195 Rain 7 1015 83 10000 2.68 250 08:37 29.12.2021
6196 Clouds 8 1013 76 10000 3.13 275 06:48 29.12.2021
6197 Clouds 8 1032 76 10000 3.6 290 06:27 29.12.2021
6198 Clouds 8 1013 75 10000 1.79 275 05:44 29.12.2021
6199 Clouds 8 1013 77 10000 2.68 270 03:46 29.12.2021
6200 Clouds 8 1011 79 10000 3.58 265 00:25 29.12.2021
6201 Clouds 8 1010 77 10000 4.02 260 23:56 28.12.2021
6202 Clouds 8 1009 82 10000 4.02 270 22:50 28.12.2021
6203 Clouds 8 1009 82 10000 3.13 275 22:24 28.12.2021
6204 Clouds 8 1008 80 10000 6.26 265 21:54 28.12.2021
6205 Rain 8 1008 81 10000 4.92 260 20:54 28.12.2021
6206 Clouds 8 1009 84 10000 6.26 270 19:50 28.12.2021
6207 Clouds 8 1009 87 10000 4.92 260 18:50 28.12.2021
6208 Clouds 8 1008 87 10000 1.79 260 18:23 28.12.2021
6209 Rain 8 1008 82 10000 5.36 260 17:25 28.12.2021
6210 Clouds 10 1007 78 10000 4.02 260 15:52 28.12.2021
6211 Clouds 10 1007 78 10000 7.15 250 15:29 28.12.2021
6212 Rain 10 1007 80 10000 5.36 255 14:54 28.12.2021
6213 Clouds 10 1007 82 10000 5.36 245 14:22 28.12.2021
6214 Clouds 10 1006 84 10000 6.17 230 13:54 28.12.2021
6215 Clouds 10 1006 85 10000 5.14 220 13:33 28.12.2021
6216 Clouds 10 1005 85 10000 5.66 230 12:55 28.12.2021
6217 Clouds 9 1005 90 10000 2.06 110 12:18 28.12.2021
6218 Mist 7 1005 94 5000 1.54 310 09:32 28.12.2021
6219 Rain 6 1004 93 6000 2.06 90 07:33 28.12.2021
6220 Clouds 5 1004 92 5000 0.51 0 03:31 28.12.2021
6221 Clouds 5 1007 90 7000 1.54 130 23:37 27.12.2021
6222 Clouds 6 1007 92 10000 3.09 90 22:20 27.12.2021
6223 Clouds 6 1007 91 10000 4.12 80 21:30 27.12.2021
6224 Clouds 6 1007 92 10000 1.54 80 20:32 27.12.2021
6225 Clouds 6 1007 93 10000 3.09 90 19:47 27.12.2021
6226 Clouds 6 1035 93 10000 3.09 90 19:27 27.12.2021
6227 Rain 5 1006 94 4000 2.06 90 17:51 27.12.2021
6228 Mist 5 1005 94 4000 2.06 90 17:28 27.12.2021
6229 Clouds 5 1005 94 10000 3.09 100 15:56 27.12.2021
6230 Drizzle 5 1005 94 10000 1.03 0 15:19 27.12.2021
6231 Clouds 5 1004 94 10000 1.03 0 14:22 27.12.2021
6232 Clouds 5 1004 94 10000 0 0 12:52 27.12.2021
6233 Fog 4 1005 94 4000 1.54 110 10:40 27.12.2021
6234 Fog 4 1005 94 4000 1.54 110 10:22 27.12.2021
6235 Fog 3 1005 94 200 1.03 70 08:43 27.12.2021
6236 Fog 3 1005 91 300 0.51 0 07:34 27.12.2021
6237 Mist 3 1006 91 200 0.51 0 06:27 27.12.2021
6238 Mist 5 1008 93 4700 2.57 90 01:52 27.12.2021
6239 Mist 5 1008 94 700 0.51 0 23:49 26.12.2021
6240 Mist 5 1008 93 3700 1.03 0 23:19 26.12.2021
6241 Mist 5 1008 93 5000 0.51 0 21:37 26.12.2021
6242 Rain 6 1008 94 7000 2.06 70 19:55 26.12.2021
6243 Rain 6 1008 93 10000 2.57 100 18:45 26.12.2021
6244 Clouds 6 1008 93 10000 1.54 70 18:21 26.12.2021
6245 Clouds 7 1008 92 10000 1.54 0 15:53 26.12.2021
6246 Clouds 6 1008 92 10000 0.51 0 13:51 26.12.2021
6247 Rain 6 1028 92 10000 0.51 0 13:32 26.12.2021
6248 Clouds 6 1008 92 10000 1.03 0 12:36 26.12.2021
6249 Clouds 6 1008 93 10000 2.06 150 11:24 26.12.2021
6250 Clouds 5 1008 92 7000 1.03 0 09:35 26.12.2021
6251 Clouds 4 1008 92 6000 1.54 90 08:50 26.12.2021
6252 Clouds 4 1008 92 6000 1.54 90 08:27 26.12.2021
6253 Drizzle 4 1007 92 4700 0.51 0 02:19 26.12.2021
6254 Drizzle 4 1007 92 5000 0.51 0 00:43 26.12.2021
6255 Rain 4 1007 93 5000 1.54 140 23:48 25.12.2021
6256 Drizzle 4 1007 92 2900 1.03 120 22:39 25.12.2021
6257 Mist 4 1007 94 1300 1.54 120 22:20 25.12.2021
6258 Fog 4 1007 94 250 1.54 110 20:27 25.12.2021
6259 Fog 4 1007 93 5000 0.51 0 19:19 25.12.2021
6260 Fog 4 1007 93 2500 1.54 0 18:39 25.12.2021
6261 Clouds 5 1006 92 5000 1.03 0 16:52 25.12.2021
6262 Clouds 6 1006 90 9000 1.03 0 15:48 25.12.2021
6263 Clouds 6 1006 89 10000 1.54 0 14:24 25.12.2021
6264 Clouds 6 1006 89 10000 2.57 100 12:42 25.12.2021
6265 Clouds 4 1007 92 10000 0.51 0 11:21 25.12.2021
6266 Clouds 3 1007 91 8000 0.51 0 09:49 25.12.2021
6267 Clouds 1 1007 91 5000 0.51 30 07:39 25.12.2021
6268 Clouds 3 1008 90 8000 1.54 80 01:45 25.12.2021
6269 Clouds 3 1009 89 10000 1.54 230 00:27 25.12.2021
6270 Clouds 4 1009 88 10000 2.06 120 22:28 24.12.2021
6271 Clouds 4 1009 86 10000 3.09 90 19:36 24.12.2021
6272 Clouds 4 1009 86 10000 1.54 110 19:18 24.12.2021
6273 Clouds 5 1010 79 10000 1.03 0 16:50 24.12.2021
6274 Clouds 5 1010 77 10000 1.03 180 15:54 24.12.2021
6275 Clouds 6 1010 77 10000 1.03 130 15:34 24.12.2021
6276 Clouds 6 1010 75 10000 1.54 80 14:40 24.12.2021
6277 Clouds 6 1010 75 10000 1.54 80 14:19 24.12.2021
6278 Clouds 5 1011 77 10000 2.57 100 13:34 24.12.2021
6279 Clouds 4 1011 79 10000 2.06 80 12:47 24.12.2021
6280 Clouds 4 1012 79 10000 3.6 80 11:52 24.12.2021
6281 Clouds 4 1012 82 10000 3.6 80 11:25 24.12.2021
6282 Clouds 4 1012 77 10000 3.09 70 10:46 24.12.2021
6283 Clouds 2 1013 83 10000 1.34 170 09:32 24.12.2021
6284 Clear 1 1013 79 10000 1.03 250 08:23 24.12.2021
6285 Clouds 1 1013 82 10000 0.51 0 07:46 24.12.2021
6286 Clouds 2 1015 83 10000 1.03 0 01:30 24.12.2021
6287 Clouds 2 1016 82 10000 0 0 23:55 23.12.2021
6288 Clouds 2 1017 82 10000 0.51 0 22:56 23.12.2021
6289 Clouds 2 1017 83 10000 0.51 0 22:37 23.12.2021
6290 Clouds 2 1017 81 10000 0.51 0 22:18 23.12.2021
6291 Clouds 2 1017 80 10000 1.54 100 20:56 23.12.2021
6292 Clouds 2 1017 81 10000 3.09 100 19:47 23.12.2021
6293 Clouds 3 1017 79 10000 2.06 90 18:34 23.12.2021
6294 Clouds 3 1017 79 10000 2.57 110 17:55 23.12.2021
6295 Clouds 3 1017 78 10000 1.34 105 16:43 23.12.2021
6296 Clouds 3 1017 77 10000 4.12 110 16:23 23.12.2021
6297 Clouds 3 1017 77 10000 3.09 130 15:31 23.12.2021
6298 Clouds 3 1018 83 10000 2.06 140 14:49 23.12.2021
6299 Clouds 3 1018 83 10000 2.06 140 14:30 23.12.2021
6300 Clouds 1 1019 89 4000 2.57 160 12:53 23.12.2021
6301 Clouds -1 1020 91 4000 2.57 130 10:43 23.12.2021
6302 Clouds -2 1020 89 4000 2.57 160 09:35 23.12.2021
6303 Clouds -3 1020 89 4000 2.57 150 08:59 23.12.2021
6304 Clouds -3 1020 89 5000 0.89 100 06:51 23.12.2021
6305 Clouds -3 1021 89 5000 1.54 50 04:30 23.12.2021
6306 Clouds -3 1022 86 7000 0.45 115 22:57 22.12.2021
6307 Clouds -3 1022 87 6000 0.45 105 22:39 22.12.2021
6308 Clouds -3 1022 86 6000 2.06 190 21:54 22.12.2021
6309 Clouds -3 1040 87 9000 1.79 210 21:29 22.12.2021
6310 Clouds -3 1023 88 7000 0.45 230 20:44 22.12.2021
6311 Clouds -3 1023 88 7000 1.79 245 20:25 22.12.2021
6312 Clouds -3 1023 86 10000 1.03 0 19:19 22.12.2021
6313 Clouds -3 1023 85 10000 2.57 170 17:42 22.12.2021
6314 Clouds -2 1023 85 10000 0.89 125 16:38 22.12.2021
6315 Clouds -1 1023 88 8000 1.03 0 15:39 22.12.2021
6316 Clouds -2 1023 88 8000 1.03 0 13:32 22.12.2021
6317 Clouds -2 1024 83 8000 0.51 0 12:39 22.12.2021
6318 Clouds -3 1024 87 7000 1.54 150 09:54 22.12.2021
6319 Clouds -3 1024 86 7000 1.54 150 09:35 22.12.2021
6320 Clouds -3 1023 86 8000 2.57 190 07:25 22.12.2021
6321 Clouds -3 1023 86 6000 2.06 60 05:42 22.12.2021
6322 Clouds -3 1023 86 7000 2.06 80 05:24 22.12.2021
6323 Clouds -3 1023 86 10000 2.57 100 04:47 22.12.2021
6324 Clouds -3 1023 86 7000 2.06 100 04:24 22.12.2021
6325 Clouds -3 1023 86 6000 2.06 90 03:32 22.12.2021
6326 Clouds -3 1023 83 6000 3.13 95 00:33 22.12.2021
6327 Clouds -3 1023 90 9000 3.6 130 22:52 21.12.2021
6328 Clouds -3 1023 90 10000 3.09 140 22:27 21.12.2021
6329 Clouds -3 1023 88 7000 3.6 140 21:43 21.12.2021
6330 Clouds -3 1023 88 8000 2.06 140 20:54 21.12.2021
6331 Clouds -3 1022 88 10000 1.54 100 20:20 21.12.2021
6332 Clouds -2 1023 87 8000 2.06 80 19:41 21.12.2021
6333 Clouds -2 1022 87 8000 3.09 120 18:43 21.12.2021
6334 Clouds -2 1022 82 8000 3.13 95 18:21 21.12.2021
6335 Clouds -2 1023 86 8000 2.57 120 17:41 21.12.2021
6336 Clouds -1 1022 84 9000 1.79 90 15:55 21.12.2021
6337 Clouds -1 1022 83 10000 1.79 95 15:20 21.12.2021
6338 Clouds 0 1021 83 10000 1.34 85 13:50 21.12.2021
6339 Clouds -1 1022 83 10000 0.89 95 13:29 21.12.2021
6340 Clouds -2 1023 87 10000 1.79 85 10:56 21.12.2021
6341 Clouds -2 1023 87 8000 2.24 130 10:21 21.12.2021
6342 Clouds -2 1023 88 7000 3.09 120 09:19 21.12.2021
6343 Clouds -2 1022 89 7000 2.57 120 07:55 21.12.2021
6344 Clouds -2 1022 90 10000 3.6 130 07:26 21.12.2021
6345 Clouds -2 1021 88 9000 3.6 160 05:31 21.12.2021
6346 Clouds -2 1021 86 9000 2.57 130 02:40 21.12.2021
6347 Clouds -2 1022 89 7000 1.03 0 23:58 20.12.2021
6348 Clouds -2 1022 89 10000 2.06 100 23:24 20.12.2021
6349 Clouds -2 1022 90 7000 2.06 80 22:28 20.12.2021
6350 Clouds -2 1022 90 10000 2.06 110 21:43 20.12.2021
6351 Clouds -2 1023 90 10000 2.57 90 21:23 20.12.2021
6352 Clouds -2 1024 90 7000 2.06 110 20:42 20.12.2021
6353 Clouds -2 1024 92 7000 3.09 110 19:50 20.12.2021
6354 Clouds -2 1024 91 8000 3.09 100 19:30 20.12.2021
6355 Clouds -1 1023 88 10000 2.57 100 18:53 20.12.2021
6356 Clouds -1 1023 89 9000 2.57 100 17:52 20.12.2021
6357 Clouds -1 1023 89 9000 2.57 100 17:23 20.12.2021
6358 Clouds -1 1023 88 9000 2.57 110 16:38 20.12.2021
6359 Clouds 0 1023 88 10000 3.09 120 15:48 20.12.2021
6360 Clouds 1 1023 90 8000 2.57 120 14:42 20.12.2021
6361 Clouds 1 1023 97 10000 3.49 47 12:51 20.12.2021
6362 Clouds 0 1024 93 10000 2.81 48 11:19 20.12.2021
6363 Clouds -2 1024 93 5000 1.54 100 09:47 20.12.2021
6364 Clouds -2 1024 91 5000 1.54 170 08:58 20.12.2021
6365 Clouds -2 1024 91 5000 1.54 170 08:40 20.12.2021
6366 Clouds -3 1024 92 5000 1.03 0 07:49 20.12.2021
6367 Clouds -3 1023 92 6000 1.54 0 06:47 20.12.2021
6368 Fog -3 1024 92 1200 1.03 90 03:42 20.12.2021
6369 Mist -2 1024 93 2100 1.03 0 23:51 19.12.2021
6370 Fog -2 1025 93 800 1.54 60 22:45 19.12.2021
6371 Fog -2 1025 92 800 1.03 0 21:49 19.12.2021
6372 Mist -2 1025 92 1100 1.03 0 21:26 19.12.2021
6373 Mist -2 1025 92 1000 2.06 130 20:30 19.12.2021
6374 Mist -2 1025 91 1500 2.57 160 19:46 19.12.2021
6375 Mist -2 1026 92 1300 0.45 90 18:57 19.12.2021
6376 Mist -2 1026 93 1200 1.34 95 18:24 19.12.2021
6377 Mist -1 1026 92 1500 1.54 120 17:46 19.12.2021
6378 Mist -1 1026 92 1200 1.54 0 17:18 19.12.2021
6379 Mist 0 1027 95 1500 1.54 60 16:24 19.12.2021
6380 Mist 0 1027 95 1500 0.51 0 15:26 19.12.2021
6381 Mist 0 1027 99 1500 1.54 0 14:50 19.12.2021
6382 Mist 0 1028 95 1500 1.03 0 13:46 19.12.2021
6383 Mist 0 1029 95 2500 1.03 0 13:21 19.12.2021
6384 Mist 0 1029 95 2000 1.54 0 12:33 19.12.2021
6385 Mist 0 1029 95 2000 1.54 0 12:33 19.12.2021
6386 Mist 0 1030 95 3400 1.03 0 11:40 19.12.2021
6387 Mist -1 1031 92 3000 1.03 0 10:53 19.12.2021
6388 Mist -1 1031 92 2000 1.54 0 10:23 19.12.2021
6389 Mist -1 1031 92 2000 1.54 0 10:23 19.12.2021
6390 Mist -2 1031 91 2000 2.06 170 09:26 19.12.2021
6391 Mist -2 1031 90 2600 1.34 95 07:47 19.12.2021
6392 Clouds -2 1033 89 5000 1.03 0 02:35 19.12.2021
6393 Clouds -2 1033 89 10000 0.45 171 00:55 19.12.2021
6394 Clouds -2 1033 89 10000 0.45 171 00:55 19.12.2021
6395 Clouds -2 1033 90 5000 1.03 0 23:52 18.12.2021
6396 Mist -2 1034 89 4900 1.03 120 22:31 18.12.2021
6397 Clouds -2 1033 88 5000 0.51 120 21:54 18.12.2021
6398 Clouds -2 1033 87 5000 0.51 120 21:33 18.12.2021
6399 Clear -1 1033 89 10000 0.51 0 20:43 18.12.2021
6400 Clear -1 1033 85 10000 1.54 120 19:50 18.12.2021
6401 Clear -1 1033 86 10000 1.54 0 19:19 18.12.2021
6402 Clouds 0 1033 84 7000 2.06 140 18:18 18.12.2021
6403 Clear 0 1032 85 10000 1.54 90 17:46 18.12.2021
6404 Clear 3 1032 80 10000 1.54 130 16:23 18.12.2021
6405 Clear 4 1031 79 10000 2.57 130 15:25 18.12.2021
6406 Clear 4 1031 78 9000 0.45 85 14:22 18.12.2021
6407 Clouds 3 1032 84 7000 0.45 115 12:39 18.12.2021
6408 Clouds 1 1033 88 6000 1.79 90 10:52 18.12.2021
6409 Clouds 0 1033 88 5000 2.24 100 09:33 18.12.2021
6410 Clouds -1 1033 86 5000 2.68 90 08:41 18.12.2021
6411 Clouds -1 1033 90 6000 2.57 80 08:18 18.12.2021
6412 Clouds 0 1034 88 10000 1.54 120 01:48 18.12.2021
6413 Clouds 0 1035 88 10000 2.57 120 00:27 18.12.2021
6414 Clouds 0 1035 90 10000 2.57 110 23:37 17.12.2021
6415 Clouds 1 1035 89 9000 1.03 60 21:55 17.12.2021
6416 Clouds 1 1035 89 10000 1.54 110 20:51 17.12.2021
6417 Clouds 1 1035 89 8000 1.54 140 20:28 17.12.2021
6418 Clouds 1 1035 88 8000 1.54 0 18:54 17.12.2021
6419 Clouds 1 1035 88 9000 1.54 190 18:21 17.12.2021
6420 Clouds 1 1035 84 10000 2.57 170 17:26 17.12.2021
6421 Clouds 1 1035 83 10000 3.09 150 16:44 17.12.2021
6422 Clouds 2 1035 86 10000 1.34 100 16:19 17.12.2021
6423 Clouds 3 1035 85 10000 2.57 150 15:19 17.12.2021
6424 Clouds 3 1035 85 10000 1.54 160 14:34 17.12.2021
6425 Clouds 3 1036 85 10000 0.45 95 12:45 17.12.2021
6426 Clouds 2 1036 87 10000 2.06 100 11:22 17.12.2021
6427 Clouds 2 1036 90 8000 1.03 0 09:55 17.12.2021
6428 Clouds 1 1036 88 7000 1.03 0 08:58 17.12.2021
6429 Clouds 1 1035 89 7000 1.03 100 08:20 17.12.2021
6430 Clouds 1 1034 88 7000 1.54 150 05:25 17.12.2021
6431 Clouds 1 1033 88 9000 0.45 120 02:52 17.12.2021
6432 Clouds 1 1034 88 10000 1.34 70 22:52 16.12.2021
6433 Clouds 1 1034 90 10000 2.68 110 22:23 16.12.2021
6434 Clouds 1 1034 90 10000 2.68 110 22:23 16.12.2021
6435 Clouds 1 1034 88 10000 1.34 105 21:45 16.12.2021
6436 Clouds 1 1035 90 10000 0.45 60 21:20 16.12.2021
6437 Clouds 2 1035 90 10000 0.45 110 20:27 16.12.2021
6438 Clouds 1 1035 90 10000 0.45 90 19:35 16.12.2021
6439 Clouds 1 1035 92 10000 0.89 120 18:37 16.12.2021
6440 Clouds 1 1035 92 10000 3.13 100 17:49 16.12.2021
6441 Clouds 1 1035 92 10000 0.89 115 17:19 16.12.2021
6442 Clouds 2 1035 92 10000 1.79 110 16:20 16.12.2021
6443 Clouds 2 1034 95 10000 0.45 55 14:50 16.12.2021
6444 Clouds 2 1035 95 8000 1.03 0 12:48 16.12.2021
6445 Clouds 1 1035 96 8000 2.57 110 11:19 16.12.2021
6446 Clouds 1 1035 96 7000 2.57 120 10:46 16.12.2021
6447 Clouds 1 1035 95 7000 2.06 100 09:59 16.12.2021
6448 Clouds 0 1034 95 10000 2.57 90 07:21 16.12.2021
6449 Clouds 0 1034 96 9000 2.57 130 06:19 16.12.2021
6450 Clouds 0 1033 96 6000 2.06 120 00:53 16.12.2021
6451 Mist 0 1033 95 4600 0.51 0 23:21 15.12.2021
6452 Clouds 0 1047 95 6000 1.54 120 22:26 15.12.2021
6453 Fog 0 1032 96 800 1.03 0 21:49 15.12.2021
6454 Fog 0 1032 96 650 1.03 0 21:26 15.12.2021
6455 Mist 0 1032 95 2200 1.34 260 19:55 15.12.2021
6456 Mist 0 1031 95 2500 1.03 0 19:22 15.12.2021
6457 Mist 0 1031 95 1500 0.51 0 18:26 15.12.2021
6458 Mist 0 1031 95 1500 0.51 0 17:49 15.12.2021
6459 Mist 0 1031 95 1300 1.54 0 17:27 15.12.2021
6460 Mist 1 1030 97 1400 3.09 280 16:25 15.12.2021
6461 Mist 1 1030 95 1500 3.6 290 15:42 15.12.2021
6462 Mist 1 1030 95 1400 3.09 270 15:24 15.12.2021
6463 Mist 2 1030 85 1000 1.03 0 13:58 15.12.2021
6464 Fog 1 1031 94 1300 1.54 290 11:57 15.12.2021
6465 Fog 0 1031 97 300 0 0 10:23 15.12.2021
6466 Fog -1 1030 94 250 1.54 0 08:34 15.12.2021
6467 Fog -1 1030 94 200 1.54 190 05:59 15.12.2021
6468 Fog -1 1030 94 200 1.03 0 00:45 15.12.2021
6469 Fog -1 1030 95 350 0.51 0 23:32 14.12.2021
6470 Fog 0 1030 94 250 1.03 0 22:45 14.12.2021
6471 Fog 0 1030 94 150 0.51 0 21:48 14.12.2021
6472 Fog 1 1030 94 150 1.03 260 20:24 14.12.2021
6473 Fog 0 1029 94 500 1.54 0 19:39 14.12.2021
6474 Fog 1 1029 96 550 0.45 270 18:42 14.12.2021
6475 Fog 1 1029 96 300 2.06 140 17:57 14.12.2021
6476 Mist 1 1029 94 1000 3.09 140 16:58 14.12.2021
6477 Mist 1 1029 94 1000 3.09 140 16:35 14.12.2021
6478 Fog 3 1028 94 350 1.03 0 14:39 14.12.2021
6479 Fog 3 1029 99 400 1.03 0 13:24 14.12.2021
6480 Mist 1 1029 96 1100 1.54 100 11:56 14.12.2021
6481 Fog 1 1030 100 1000 1.54 110 11:22 14.12.2021
6482 Fog 0 1029 96 250 1.03 0 09:55 14.12.2021
6483 Fog -1 1029 98 350 1.34 255 09:22 14.12.2021
6484 Fog -1 1029 94 750 1.34 255 08:23 14.12.2021
6485 Fog -1 1029 95 600 2.57 140 07:42 14.12.2021
6486 Fog -1 1029 95 200 0.51 180 00:35 14.12.2021
6487 Clouds -2 1029 95 5000 1.03 150 22:49 13.12.2021
6488 Fog -2 1029 93 7000 0.51 0 21:49 13.12.2021
6489 Clouds -1 1029 95 6000 0.51 0 20:58 13.12.2021
6490 Clouds -1 1029 94 6000 0 0 20:29 13.12.2021
6491 Mist -1 1030 90 5000 0 0 19:51 13.12.2021
6492 Clear 0 1029 90 10000 2.06 130 17:56 13.12.2021
6493 Clear 0 1029 89 10000 1.54 90 17:23 13.12.2021
6494 Clear 2 1028 86 10000 1.54 140 15:49 13.12.2021
6495 Clear 3 1028 82 10000 1.54 0 15:18 13.12.2021
6496 Clear 3 1029 78 10000 2.06 150 13:38 13.12.2021
6497 Clouds 2 1030 84 10000 1.03 200 12:42 13.12.2021
6498 Fog 2 1030 88 4000 0.51 0 11:54 13.12.2021
6499 Fog 1 1029 90 4000 0.51 0 11:35 13.12.2021
6500 Fog 0 1030 88 1000 0.51 0 10:41 13.12.2021
6501 Clear -3 1029 92 10000 0.51 0 08:52 13.12.2021
6502 Clear -3 1029 92 10000 0.51 140 07:37 13.12.2021
6503 Clouds -3 1028 93 9000 0.51 0 05:23 13.12.2021
6504 Clouds -2 1029 93 10000 0 0 00:42 13.12.2021
6505 Clouds -2 1029 93 10000 0.51 0 21:59 12.12.2021
6506 Clouds -1 1029 92 10000 0.51 0 21:33 12.12.2021
6507 Clear -1 1029 92 10000 2.06 100 19:38 12.12.2021
6508 Clear 0 1029 90 10000 0.51 0 18:28 12.12.2021
6509 Clouds 1 1029 86 10000 1.03 190 16:58 12.12.2021
6510 Clouds 1 1029 86 10000 1.03 200 16:27 12.12.2021
6511 Clouds 2 1029 85 10000 1.54 0 15:41 12.12.2021
6512 Clouds 2 1028 85 10000 1.54 120 15:21 12.12.2021
6513 Rain 1 1044 88 10000 1.54 60 14:30 12.12.2021
6514 Clouds 1 1029 91 10000 1.03 200 12:56 12.12.2021
6515 Clouds 0 1029 91 10000 1.03 280 12:26 12.12.2021
6516 Clouds 0 1029 95 10000 1.03 0 11:43 12.12.2021
6517 Fog -1 1029 94 750 0.51 0 10:56 12.12.2021
6518 Fog -1 1029 93 500 1.03 0 10:22 12.12.2021
6519 Fog -3 1028 93 450 1.03 0 08:54 12.12.2021
6520 Clouds -3 1028 93 7000 1.54 0 07:31 12.12.2021
6521 Fog -3 1027 94 5000 1.54 120 05:56 12.12.2021
6522 Fog -3 1026 96 350 2.06 80 04:55 12.12.2021
6523 Fog -2 1026 94 350 1.03 250 02:58 12.12.2021
6524 Clouds 0 1025 92 8000 1.54 90 23:31 11.12.2021
6525 Clouds 0 1025 92 5000 1.54 110 22:22 11.12.2021
6526 Clouds 1 1025 92 7000 1.03 90 21:51 11.12.2021
6527 Clouds 1 1024 92 8000 1.54 70 20:24 11.12.2021
6528 Clouds 1 1023 92 10000 2.06 120 19:21 11.12.2021
6529 Clouds 2 1023 93 9000 1.54 90 18:51 11.12.2021
6530 Clouds 2 1023 93 8000 1.03 110 18:19 11.12.2021
6531 Drizzle 2 1022 91 10000 1.03 80 16:59 11.12.2021
6532 Clouds 2 1021 90 10000 2.57 130 15:48 11.12.2021
6533 Clouds 2 1020 90 8000 2.57 120 14:54 11.12.2021
6534 Clouds 2 1019 90 10000 1.34 265 12:42 11.12.2021
6535 Snow 2 1018 88 10000 1.34 280 11:24 11.12.2021
6536 Rain 2 1016 90 8000 1.34 275 09:45 11.12.2021
6537 Rain 2 1016 90 8000 1.34 275 09:45 11.12.2021
6538 Snow 1 1014 88 10000 1.79 260 07:32 11.12.2021
6539 Clouds 1 1009 88 10000 3.13 270 00:51 11.12.2021
6540 Clouds 1 1008 91 10000 3.13 270 23:49 10.12.2021
6541 Rain 1 1007 90 10000 3.13 270 23:18 10.12.2021
6542 Snow 1 1007 92 10000 3.13 270 21:52 10.12.2021
6543 Clouds 2 1005 89 10000 3.13 270 20:57 10.12.2021
6544 Clouds 2 1004 90 10000 2.68 285 19:21 10.12.2021
6545 Clouds 2 1002 90 10000 2.24 275 17:54 10.12.2021
6546 Clouds 2 1000 92 9000 4.47 265 16:55 10.12.2021
6547 Rain 2 999 92 9000 5.81 260 15:51 10.12.2021
6548 Clouds 2 999 92 8000 5.36 255 15:29 10.12.2021
6549 Rain 2 998 91 9000 4.92 260 14:59 10.12.2021
6550 Snow 2 997 92 5000 2.68 270 13:51 10.12.2021
6551 Clouds 2 997 91 10000 1.54 90 13:25 10.12.2021
6552 Snow 1 997 94 3500 2.57 120 12:34 10.12.2021
6553 Snow 0 997 93 2500 2.57 110 11:28 10.12.2021
6554 Snow -1 997 93 600 0.89 295 09:54 10.12.2021
6555 Mist -1 997 91 3000 0.51 0 08:32 10.12.2021
6556 Clouds -3 1021 92 10000 1.34 295 05:57 10.12.2021
6557 Clouds -3 1002 89 10000 1.03 0 02:48 10.12.2021
6558 Clouds -3 1007 100 10000 3.09 100 23:54 09.12.2021
6559 Fog -2 1008 100 10000 2.06 100 23:20 09.12.2021
6560 Clouds -1 1008 93 10000 2.06 100 22:24 09.12.2021
6561 Clouds -1 1009 93 10000 2.57 120 21:50 09.12.2021
6562 Clouds -1 1009 100 10000 1.03 0 20:41 09.12.2021
6563 Clouds -1 1009 100 10000 1.03 0 20:41 09.12.2021
6564 Clouds 0 1009 93 10000 1.54 130 20:20 09.12.2021
6565 Clouds 0 1009 93 10000 2.57 120 19:21 09.12.2021
6566 Clouds 0 1009 93 10000 1.03 0 18:36 09.12.2021
6567 Clouds 1 1009 93 10000 2.06 140 17:51 09.12.2021
6568 Clouds 1 1009 92 10000 2.57 140 17:25 09.12.2021
6569 Clouds 2 1009 87 10000 3.09 130 16:53 09.12.2021
6570 Clouds 3 1010 86 10000 1.03 160 15:32 09.12.2021
6571 Clouds 3 1010 85 10000 2.24 265 14:46 09.12.2021
6572 Clouds 3 1010 88 10000 2.57 120 13:20 09.12.2021
6573 Clouds 3 1010 90 10000 1.54 150 12:37 09.12.2021
6574 Clouds 2 1010 91 8000 1.03 300 11:21 09.12.2021
6575 Mist 1 1009 95 3900 0.51 50 08:54 09.12.2021
6576 Mist 1 1007 96 4000 1.03 0 06:21 09.12.2021
6577 Snow 1 1006 96 2700 1.03 0 03:40 09.12.2021
6578 Fog 1 1004 96 600 1.03 170 23:43 08.12.2021
6579 Drizzle 1 1004 96 750 1.03 210 23:21 08.12.2021
6580 Snow 1 1004 96 500 0.51 310 22:47 08.12.2021
6581 Fog 1 1003 96 1000 0 0 21:40 08.12.2021
6582 Snow 1 1003 96 2000 0.51 0 20:59 08.12.2021
6583 Snow 1 1003 94 3000 0.51 0 19:58 08.12.2021
6584 Snow 1 1003 94 3000 0.51 0 19:58 08.12.2021
6585 Snow 1 1003 94 3000 0.51 0 19:58 08.12.2021
6586 Snow 1 1003 93 3000 1.54 100 19:33 08.12.2021
6587 Snow 1 1003 94 3000 2.06 90 18:40 08.12.2021
6588 Snow 2 1002 93 3000 2.06 90 17:34 08.12.2021
6589 Snow 2 1002 93 3200 1.79 90 15:49 08.12.2021
6590 Snow 2 1002 93 4000 2.57 110 15:28 08.12.2021
6591 Snow 2 1002 93 3000 1.54 110 14:30 08.12.2021
6592 Rain 2 1003 94 2400 1.34 100 10:55 08.12.2021
6593 Snow 2 1003 94 4000 2.06 120 10:31 08.12.2021
6594 Snow 2 1003 94 4000 2.06 120 10:31 08.12.2021
6595 Snow 2 1002 95 3000 0 0 08:55 08.12.2021
6596 Snow 2 1024 95 4400 1.03 130 07:25 08.12.2021
6597 Snow 2 1004 93 8000 2.06 90 02:30 08.12.2021
6598 Clouds 2 1005 92 10000 1.03 0 23:33 07.12.2021
6599 Clouds 2 1006 91 10000 3.09 100 21:43 07.12.2021
6600 Clouds 2 1006 92 10000 2.06 100 21:23 07.12.2021
6601 Clouds 2 1007 92 10000 1.54 100 20:20 07.12.2021
6602 Clouds 2 1009 92 10000 0.51 0 18:43 07.12.2021
6603 Clouds 2 1008 89 10000 1.03 0 17:52 07.12.2021
6604 Clouds 2 1010 89 10000 1.54 0 17:19 07.12.2021
6605 Clear 3 1010 89 10000 2.06 240 16:31 07.12.2021
6606 Clouds 4 1011 82 10000 1.03 250 15:33 07.12.2021
6607 Clear 5 1013 81 10000 0.45 95 14:18 07.12.2021
6608 Clouds 4 1015 86 10000 1.34 220 12:49 07.12.2021
6609 Clouds 4 1016 86 10000 1.34 271 11:27 07.12.2021
6610 Clouds 3 1016 87 10000 2.57 130 10:33 07.12.2021
6611 Clouds 1 1017 93 7000 0.89 225 08:26 07.12.2021
6612 Rain 1 1017 92 10000 0.89 225 06:18 07.12.2021
6613 Clouds 1 1016 92 10000 0.89 225 05:33 07.12.2021
6614 Snow 1 1014 90 10000 1.54 100 23:47 06.12.2021
6615 Clouds 0 1014 89 10000 2.06 90 22:46 06.12.2021
6616 Clouds 0 1014 90 10000 3.09 150 22:23 06.12.2021
6617 Snow 0 1015 92 10000 1.03 0 21:51 06.12.2021
6618 Clouds 0 1015 90 9000 0.51 0 20:33 06.12.2021
6619 Clear 0 1014 93 10000 2.06 100 19:55 06.12.2021
6620 Clear 0 1014 93 10000 2.57 100 19:20 06.12.2021
6621 Clouds 0 1014 100 10000 1.03 130 18:23 06.12.2021
6622 Clouds 0 1015 93 10000 1.03 0 17:40 06.12.2021
6623 Clouds 2 1016 89 10000 0.51 0 16:32 06.12.2021
6624 Clouds 2 1016 90 10000 0 0 15:38 06.12.2021
6625 Clouds 3 1016 92 5000 1.34 235 13:46 06.12.2021
6626 Clouds 2 1016 92 5000 1.34 235 13:46 06.12.2021
6627 Clouds 2 1016 93 5000 0.51 0 12:39 06.12.2021
6628 Mist 1 1016 95 3000 1.54 170 10:38 06.12.2021
6629 Clouds 0 1015 94 5281 0.56 160 08:45 06.12.2021
6630 Mist 0 1032 94 2800 0.51 0 06:39 06.12.2021
6631 Snow 0 1008 93 1300 0.51 90 22:54 05.12.2021
6632 Snow 0 1007 93 10000 1.54 110 21:43 05.12.2021
6633 Snow 0 1007 92 7000 1.03 0 21:19 05.12.2021
6634 Clouds 0 1006 92 9000 1.03 150 20:19 05.12.2021
6635 Clouds 1 1006 90 10000 1.54 130 19:33 05.12.2021
6636 Snow 1 1006 89 10000 2.06 110 18:43 05.12.2021
6637 Rain 1 1006 89 10000 2.57 120 18:19 05.12.2021
6638 Rain 1 1006 88 10000 2.57 120 17:48 05.12.2021
6639 Clouds 2 1005 89 10000 2.06 110 16:47 05.12.2021
6640 Clouds 2 1005 91 10000 2.57 110 16:26 05.12.2021
6641 Clouds 3 1005 91 10000 2.06 130 15:34 05.12.2021
6642 Clouds 3 1005 92 10000 0.51 0 14:37 05.12.2021
6643 Clouds 3 1005 92 5000 1.54 330 14:19 05.12.2021
6644 Rain 2 1005 90 10000 4.02 250 13:22 05.12.2021
6645 Clouds 3 1005 90 10000 1.34 250 12:40 05.12.2021
6646 Clouds 3 1005 90 10000 1.54 150 12:18 05.12.2021
6647 Clouds 2 1006 91 10000 1.03 0 11:20 05.12.2021
6648 Rain 2 1006 92 10000 2.57 90 09:59 05.12.2021
6649 Clouds 1 1006 92 10000 1.54 0 07:55 05.12.2021
6650 Rain 2 1007 89 10000 0.51 0 03:27 05.12.2021
6651 Clouds 2 1009 88 10000 0.45 115 23:34 04.12.2021
6652 Clouds 4 1007 91 10000 4.12 220 21:54 04.12.2021
6653 Thunderstorm 3 1006 91 2200 0.45 205 20:55 04.12.2021
6654 Clouds 6 1003 86 10000 3.13 265 19:55 04.12.2021
6655 Clouds 6 1003 85 10000 4.92 270 19:32 04.12.2021
6656 Clouds 7 1004 87 10000 4.47 270 18:20 04.12.2021
6657 Rain 7 1004 85 10000 4.02 265 17:38 04.12.2021
6658 Clouds 7 1003 89 10000 4.92 260 16:49 04.12.2021
6659 Clouds 7 1003 89 5000 2.24 255 16:30 04.12.2021
6660 Rain 6 1003 90 3000 3.09 120 15:22 04.12.2021
6661 Clouds 6 1004 94 9986 0.45 91 11:50 04.12.2021
6662 Rain 5 1005 94 9986 3.04 210 11:32 04.12.2021
6663 Mist 5 1004 93 3500 0.51 0 10:44 04.12.2021
6664 Rain 5 1005 95 9101 3.22 202 08:47 04.12.2021
6665 Snow 3 1048 96 2400 1.03 0 06:26 04.12.2021
6666 Snow 2 1007 95 5000 1.03 240 04:42 04.12.2021
6667 Snow 1 1011 85 7000 1.54 0 00:18 04.12.2021
6668 Snow 1 1012 83 10000 0.51 0 23:26 03.12.2021
6669 Clouds 1 1012 84 10000 1.03 150 22:46 03.12.2021
6670 Clouds 0 1013 83 10000 1.54 130 21:26 03.12.2021
6671 Clouds 0 1014 83 10000 0.51 0 20:52 03.12.2021
6672 Clouds 0 1015 82 10000 1.66 190 19:50 03.12.2021
6673 Clouds 0 1015 80 10000 2.06 100 18:34 03.12.2021
6674 Clouds 0 1034 80 10000 2.57 150 17:59 03.12.2021
6675 Clear